<?xml version="1.0" encoding="UTF-8" standalone="no" ?><gpx xmlns="http://www.topografix.com/GPX/1/1" xmlns:gpxx="http://www.garmin.com/xmlschemas/GpxExtensions/v3" xmlns:wptx1="http://www.garmin.com/xmlschemas/WaypointExtension/v1" xmlns:gpxtpx="http://www.garmin.com/xmlschemas/TrackPointExtension/v1" creator="GuideVTT.com" version="1.1" xmlns:xsi="http://www.w3.org/2001/XMLSchema-instance" xsi:schemaLocation="http://www.topografix.com/GPX/1/1 http://www.topografix.com/GPX/1/1/gpx.xsd http://www.garmin.com/xmlschemas/GpxExtensions/v3 http://www8.garmin.com/xmlschemas/GpxExtensionsv3.xsd http://www.garmin.com/xmlschemas/WaypointExtension/v1 http://www8.garmin.com/xmlschemas/WaypointExtensionv1.xsd http://www.garmin.com/xmlschemas/TrackPointExtension/v1 http://www.garmin.com/xmlschemas/TrackPointExtensionv1.xsd">
<metadata><link href="http://www.garmin.com"><text>Garmin International</text></link><time>2013-06-22T15:13:50Z</time></metadata>
<trk><name>ardon_-_ovronnaz.gpx</name><extensions><gpxx:TrackExtension><gpxx:DisplayColor>Cyan</gpxx:DisplayColor></gpxx:TrackExtension></extensions><trkseg>
<trkpt lat="46.210790000" lon="7.254760000"><ele></ele><time>2013-8-8T2:29:28Z</time></trkpt>
<trkpt lat="46.210800000" lon="7.254740000"><ele></ele><time>2013-8-8T2:29:31Z</time></trkpt>
<trkpt lat="46.210820000" lon="7.254670000"><ele></ele><time>2013-8-8T2:29:34Z</time></trkpt>
<trkpt lat="46.210820000" lon="7.254650000"><ele></ele><time>2013-8-8T2:29:37Z</time></trkpt>
<trkpt lat="46.210830000" lon="7.254630000"><ele></ele><time>2013-8-8T2:29:40Z</time></trkpt>
<trkpt lat="46.210840000" lon="7.254610000"><ele></ele><time>2013-8-8T2:29:43Z</time></trkpt>
<trkpt lat="46.210850000" lon="7.254570000"><ele></ele><time>2013-8-8T2:29:46Z</time></trkpt>
<trkpt lat="46.210870000" lon="7.254540000"><ele></ele><time>2013-8-8T2:29:49Z</time></trkpt>
<trkpt lat="46.210870000" lon="7.254520000"><ele></ele><time>2013-8-8T2:29:52Z</time></trkpt>
<trkpt lat="46.210890000" lon="7.254480000"><ele></ele><time>2013-8-8T2:29:55Z</time></trkpt>
<trkpt lat="46.210890000" lon="7.254460000"><ele></ele><time>2013-8-8T2:29:58Z</time></trkpt>
<trkpt lat="46.210900000" lon="7.254430000"><ele></ele><time>2013-8-8T2:30:1Z</time></trkpt>
<trkpt lat="46.210900000" lon="7.254410000"><ele></ele><time>2013-8-8T2:30:4Z</time></trkpt>
<trkpt lat="46.210900000" lon="7.254380000"><ele></ele><time>2013-8-8T2:30:7Z</time></trkpt>
<trkpt lat="46.210910000" lon="7.254360000"><ele></ele><time>2013-8-8T2:30:10Z</time></trkpt>
<trkpt lat="46.210950000" lon="7.254310000"><ele></ele><time>2013-8-8T2:30:13Z</time></trkpt>
<trkpt lat="46.210960000" lon="7.254290000"><ele></ele><time>2013-8-8T2:30:16Z</time></trkpt>
<trkpt lat="46.210980000" lon="7.254260000"><ele></ele><time>2013-8-8T2:30:19Z</time></trkpt>
<trkpt lat="46.210990000" lon="7.254240000"><ele></ele><time>2013-8-8T2:30:22Z</time></trkpt>
<trkpt lat="46.211000000" lon="7.254190000"><ele></ele><time>2013-8-8T2:30:25Z</time></trkpt>
<trkpt lat="46.211000000" lon="7.254160000"><ele></ele><time>2013-8-8T2:30:28Z</time></trkpt>
<trkpt lat="46.211000000" lon="7.254140000"><ele></ele><time>2013-8-8T2:30:31Z</time></trkpt>
<trkpt lat="46.211010000" lon="7.254120000"><ele></ele><time>2013-8-8T2:30:34Z</time></trkpt>
<trkpt lat="46.211020000" lon="7.254100000"><ele></ele><time>2013-8-8T2:30:37Z</time></trkpt>
<trkpt lat="46.211050000" lon="7.254080000"><ele></ele><time>2013-8-8T2:30:40Z</time></trkpt>
<trkpt lat="46.211070000" lon="7.254070000"><ele></ele><time>2013-8-8T2:30:43Z</time></trkpt>
<trkpt lat="46.211090000" lon="7.254060000"><ele></ele><time>2013-8-8T2:30:46Z</time></trkpt>
<trkpt lat="46.211090000" lon="7.254030000"><ele></ele><time>2013-8-8T2:30:49Z</time></trkpt>
<trkpt lat="46.211100000" lon="7.254010000"><ele></ele><time>2013-8-8T2:30:52Z</time></trkpt>
<trkpt lat="46.211110000" lon="7.253990000"><ele></ele><time>2013-8-8T2:30:55Z</time></trkpt>
<trkpt lat="46.211120000" lon="7.253940000"><ele></ele><time>2013-8-8T2:30:58Z</time></trkpt>
<trkpt lat="46.211120000" lon="7.253920000"><ele></ele><time>2013-8-8T2:31:1Z</time></trkpt>
<trkpt lat="46.211130000" lon="7.253900000"><ele></ele><time>2013-8-8T2:31:4Z</time></trkpt>
<trkpt lat="46.211140000" lon="7.253880000"><ele></ele><time>2013-8-8T2:31:7Z</time></trkpt>
<trkpt lat="46.211150000" lon="7.253870000"><ele></ele><time>2013-8-8T2:31:10Z</time></trkpt>
<trkpt lat="46.211170000" lon="7.253830000"><ele></ele><time>2013-8-8T2:31:13Z</time></trkpt>
<trkpt lat="46.211180000" lon="7.253810000"><ele></ele><time>2013-8-8T2:31:16Z</time></trkpt>
<trkpt lat="46.211190000" lon="7.253800000"><ele></ele><time>2013-8-8T2:31:19Z</time></trkpt>
<trkpt lat="46.211200000" lon="7.253780000"><ele></ele><time>2013-8-8T2:31:22Z</time></trkpt>
<trkpt lat="46.211210000" lon="7.253770000"><ele></ele><time>2013-8-8T2:31:25Z</time></trkpt>
<trkpt lat="46.211220000" lon="7.253760000"><ele></ele><time>2013-8-8T2:31:28Z</time></trkpt>
<trkpt lat="46.211240000" lon="7.253750000"><ele></ele><time>2013-8-8T2:31:31Z</time></trkpt>
<trkpt lat="46.211250000" lon="7.253750000"><ele></ele><time>2013-8-8T2:31:34Z</time></trkpt>
<trkpt lat="46.211280000" lon="7.253740000"><ele></ele><time>2013-8-8T2:31:37Z</time></trkpt>
<trkpt lat="46.211300000" lon="7.253750000"><ele></ele><time>2013-8-8T2:31:40Z</time></trkpt>
<trkpt lat="46.211320000" lon="7.253750000"><ele></ele><time>2013-8-8T2:31:43Z</time></trkpt>
<trkpt lat="46.211340000" lon="7.253750000"><ele></ele><time>2013-8-8T2:31:46Z</time></trkpt>
<trkpt lat="46.211350000" lon="7.253750000"><ele></ele><time>2013-8-8T2:31:49Z</time></trkpt>
<trkpt lat="46.211420000" lon="7.253760000"><ele></ele><time>2013-8-8T2:31:52Z</time></trkpt>
<trkpt lat="46.211480000" lon="7.253760000"><ele></ele><time>2013-8-8T2:31:55Z</time></trkpt>
<trkpt lat="46.211500000" lon="7.253760000"><ele></ele><time>2013-8-8T2:31:58Z</time></trkpt>
<trkpt lat="46.211510000" lon="7.253760000"><ele></ele><time>2013-8-8T2:32:1Z</time></trkpt>
<trkpt lat="46.211530000" lon="7.253760000"><ele></ele><time>2013-8-8T2:32:4Z</time></trkpt>
<trkpt lat="46.211550000" lon="7.253760000"><ele></ele><time>2013-8-8T2:32:7Z</time></trkpt>
<trkpt lat="46.211570000" lon="7.253760000"><ele></ele><time>2013-8-8T2:32:10Z</time></trkpt>
<trkpt lat="46.211610000" lon="7.253780000"><ele></ele><time>2013-8-8T2:32:13Z</time></trkpt>
<trkpt lat="46.211620000" lon="7.253780000"><ele></ele><time>2013-8-8T2:32:16Z</time></trkpt>
<trkpt lat="46.211630000" lon="7.253790000"><ele></ele><time>2013-8-8T2:32:19Z</time></trkpt>
<trkpt lat="46.211640000" lon="7.253790000"><ele></ele><time>2013-8-8T2:32:22Z</time></trkpt>
<trkpt lat="46.211650000" lon="7.253800000"><ele></ele><time>2013-8-8T2:32:25Z</time></trkpt>
<trkpt lat="46.211720000" lon="7.253870000"><ele></ele><time>2013-8-8T2:32:28Z</time></trkpt>
<trkpt lat="46.211760000" lon="7.253910000"><ele></ele><time>2013-8-8T2:32:31Z</time></trkpt>
<trkpt lat="46.211770000" lon="7.253930000"><ele></ele><time>2013-8-8T2:32:34Z</time></trkpt>
<trkpt lat="46.211780000" lon="7.253940000"><ele></ele><time>2013-8-8T2:32:37Z</time></trkpt>
<trkpt lat="46.211800000" lon="7.253950000"><ele></ele><time>2013-8-8T2:32:40Z</time></trkpt>
<trkpt lat="46.211810000" lon="7.253970000"><ele></ele><time>2013-8-8T2:32:43Z</time></trkpt>
<trkpt lat="46.211880000" lon="7.254030000"><ele></ele><time>2013-8-8T2:32:46Z</time></trkpt>
<trkpt lat="46.211910000" lon="7.254060000"><ele></ele><time>2013-8-8T2:32:49Z</time></trkpt>
<trkpt lat="46.211920000" lon="7.254070000"><ele></ele><time>2013-8-8T2:32:52Z</time></trkpt>
<trkpt lat="46.211930000" lon="7.254090000"><ele></ele><time>2013-8-8T2:32:55Z</time></trkpt>
<trkpt lat="46.211940000" lon="7.254100000"><ele></ele><time>2013-8-8T2:32:58Z</time></trkpt>
<trkpt lat="46.211960000" lon="7.254120000"><ele></ele><time>2013-8-8T2:33:1Z</time></trkpt>
<trkpt lat="46.212020000" lon="7.254180000"><ele></ele><time>2013-8-8T2:33:4Z</time></trkpt>
<trkpt lat="46.212030000" lon="7.254200000"><ele></ele><time>2013-8-8T2:33:7Z</time></trkpt>
<trkpt lat="46.212040000" lon="7.254210000"><ele></ele><time>2013-8-8T2:33:10Z</time></trkpt>
<trkpt lat="46.212050000" lon="7.254230000"><ele></ele><time>2013-8-8T2:33:13Z</time></trkpt>
<trkpt lat="46.212070000" lon="7.254240000"><ele></ele><time>2013-8-8T2:33:16Z</time></trkpt>
<trkpt lat="46.212080000" lon="7.254250000"><ele></ele><time>2013-8-8T2:33:19Z</time></trkpt>
<trkpt lat="46.212130000" lon="7.254260000"><ele></ele><time>2013-8-8T2:33:22Z</time></trkpt>
<trkpt lat="46.212190000" lon="7.254180000"><ele></ele><time>2013-8-8T2:33:25Z</time></trkpt>
<trkpt lat="46.212190000" lon="7.254180000"><ele></ele><time>2013-8-8T2:33:28Z</time></trkpt>
<trkpt lat="46.212190000" lon="7.254160000"><ele></ele><time>2013-8-8T2:33:31Z</time></trkpt>
<trkpt lat="46.212180000" lon="7.254140000"><ele></ele><time>2013-8-8T2:33:34Z</time></trkpt>
<trkpt lat="46.212180000" lon="7.254110000"><ele></ele><time>2013-8-8T2:33:37Z</time></trkpt>
<trkpt lat="46.212160000" lon="7.254070000"><ele></ele><time>2013-8-8T2:33:40Z</time></trkpt>
<trkpt lat="46.212100000" lon="7.253980000"><ele></ele><time>2013-8-8T2:33:43Z</time></trkpt>
<trkpt lat="46.212090000" lon="7.253960000"><ele></ele><time>2013-8-8T2:33:46Z</time></trkpt>
<trkpt lat="46.212080000" lon="7.253940000"><ele></ele><time>2013-8-8T2:33:49Z</time></trkpt>
<trkpt lat="46.212070000" lon="7.253930000"><ele></ele><time>2013-8-8T2:33:52Z</time></trkpt>
<trkpt lat="46.212060000" lon="7.253910000"><ele></ele><time>2013-8-8T2:33:55Z</time></trkpt>
<trkpt lat="46.212050000" lon="7.253890000"><ele></ele><time>2013-8-8T2:33:58Z</time></trkpt>
<trkpt lat="46.212020000" lon="7.253850000"><ele></ele><time>2013-8-8T2:34:1Z</time></trkpt>
<trkpt lat="46.211980000" lon="7.253780000"><ele></ele><time>2013-8-8T2:34:4Z</time></trkpt>
<trkpt lat="46.211970000" lon="7.253760000"><ele></ele><time>2013-8-8T2:34:7Z</time></trkpt>
<trkpt lat="46.211960000" lon="7.253740000"><ele></ele><time>2013-8-8T2:34:10Z</time></trkpt>
<trkpt lat="46.211950000" lon="7.253720000"><ele></ele><time>2013-8-8T2:34:13Z</time></trkpt>
<trkpt lat="46.211940000" lon="7.253710000"><ele></ele><time>2013-8-8T2:34:16Z</time></trkpt>
<trkpt lat="46.211890000" lon="7.253640000"><ele></ele><time>2013-8-8T2:34:19Z</time></trkpt>
<trkpt lat="46.211880000" lon="7.253620000"><ele></ele><time>2013-8-8T2:34:22Z</time></trkpt>
<trkpt lat="46.211870000" lon="7.253600000"><ele></ele><time>2013-8-8T2:34:25Z</time></trkpt>
<trkpt lat="46.211860000" lon="7.253580000"><ele></ele><time>2013-8-8T2:34:28Z</time></trkpt>
<trkpt lat="46.211850000" lon="7.253570000"><ele></ele><time>2013-8-8T2:34:31Z</time></trkpt>
<trkpt lat="46.211810000" lon="7.253520000"><ele></ele><time>2013-8-8T2:34:34Z</time></trkpt>
<trkpt lat="46.211710000" lon="7.253410000"><ele></ele><time>2013-8-8T2:34:37Z</time></trkpt>
<trkpt lat="46.211540000" lon="7.253190000"><ele></ele><time>2013-8-8T2:34:40Z</time></trkpt>
<trkpt lat="46.211330000" lon="7.252960000"><ele></ele><time>2013-8-8T2:34:43Z</time></trkpt>
<trkpt lat="46.211220000" lon="7.252870000"><ele></ele><time>2013-8-8T2:34:46Z</time></trkpt>
<trkpt lat="46.211200000" lon="7.252860000"><ele></ele><time>2013-8-8T2:34:49Z</time></trkpt>
<trkpt lat="46.211170000" lon="7.252850000"><ele></ele><time>2013-8-8T2:34:52Z</time></trkpt>
<trkpt lat="46.211140000" lon="7.252840000"><ele></ele><time>2013-8-8T2:34:55Z</time></trkpt>
<trkpt lat="46.211040000" lon="7.252770000"><ele></ele><time>2013-8-8T2:34:58Z</time></trkpt>
<trkpt lat="46.210970000" lon="7.252730000"><ele></ele><time>2013-8-8T2:35:1Z</time></trkpt>
<trkpt lat="46.210950000" lon="7.252720000"><ele></ele><time>2013-8-8T2:35:4Z</time></trkpt>
<trkpt lat="46.210930000" lon="7.252700000"><ele></ele><time>2013-8-8T2:35:7Z</time></trkpt>
<trkpt lat="46.210910000" lon="7.252690000"><ele></ele><time>2013-8-8T2:35:10Z</time></trkpt>
<trkpt lat="46.210890000" lon="7.252680000"><ele></ele><time>2013-8-8T2:35:13Z</time></trkpt>
<trkpt lat="46.210830000" lon="7.252640000"><ele></ele><time>2013-8-8T2:35:16Z</time></trkpt>
<trkpt lat="46.210820000" lon="7.252630000"><ele></ele><time>2013-8-8T2:35:19Z</time></trkpt>
<trkpt lat="46.210810000" lon="7.252620000"><ele></ele><time>2013-8-8T2:35:22Z</time></trkpt>
<trkpt lat="46.210800000" lon="7.252610000"><ele></ele><time>2013-8-8T2:35:25Z</time></trkpt>
<trkpt lat="46.210780000" lon="7.252600000"><ele></ele><time>2013-8-8T2:35:28Z</time></trkpt>
<trkpt lat="46.210720000" lon="7.252550000"><ele></ele><time>2013-8-8T2:35:31Z</time></trkpt>
<trkpt lat="46.210690000" lon="7.252520000"><ele></ele><time>2013-8-8T2:35:34Z</time></trkpt>
<trkpt lat="46.210660000" lon="7.252500000"><ele></ele><time>2013-8-8T2:35:37Z</time></trkpt>
<trkpt lat="46.210650000" lon="7.252490000"><ele></ele><time>2013-8-8T2:35:40Z</time></trkpt>
<trkpt lat="46.210630000" lon="7.252480000"><ele></ele><time>2013-8-8T2:35:43Z</time></trkpt>
<trkpt lat="46.210620000" lon="7.252460000"><ele></ele><time>2013-8-8T2:35:46Z</time></trkpt>
<trkpt lat="46.210610000" lon="7.252440000"><ele></ele><time>2013-8-8T2:35:49Z</time></trkpt>
<trkpt lat="46.210590000" lon="7.252430000"><ele></ele><time>2013-8-8T2:35:52Z</time></trkpt>
<trkpt lat="46.210570000" lon="7.252410000"><ele></ele><time>2013-8-8T2:35:55Z</time></trkpt>
<trkpt lat="46.210550000" lon="7.252400000"><ele></ele><time>2013-8-8T2:35:58Z</time></trkpt>
<trkpt lat="46.210540000" lon="7.252390000"><ele></ele><time>2013-8-8T2:36:1Z</time></trkpt>
<trkpt lat="46.210530000" lon="7.252370000"><ele></ele><time>2013-8-8T2:36:4Z</time></trkpt>
<trkpt lat="46.210520000" lon="7.252350000"><ele></ele><time>2013-8-8T2:36:7Z</time></trkpt>
<trkpt lat="46.210510000" lon="7.252330000"><ele></ele><time>2013-8-8T2:36:10Z</time></trkpt>
<trkpt lat="46.210500000" lon="7.252300000"><ele></ele><time>2013-8-8T2:36:13Z</time></trkpt>
<trkpt lat="46.210490000" lon="7.252280000"><ele></ele><time>2013-8-8T2:36:16Z</time></trkpt>
<trkpt lat="46.210480000" lon="7.252260000"><ele></ele><time>2013-8-8T2:36:19Z</time></trkpt>
<trkpt lat="46.210470000" lon="7.252230000"><ele></ele><time>2013-8-8T2:36:22Z</time></trkpt>
<trkpt lat="46.210460000" lon="7.252210000"><ele></ele><time>2013-8-8T2:36:25Z</time></trkpt>
<trkpt lat="46.210460000" lon="7.252200000"><ele></ele><time>2013-8-8T2:36:28Z</time></trkpt>
<trkpt lat="46.210450000" lon="7.252180000"><ele></ele><time>2013-8-8T2:36:31Z</time></trkpt>
<trkpt lat="46.210430000" lon="7.252170000"><ele></ele><time>2013-8-8T2:36:34Z</time></trkpt>
<trkpt lat="46.210420000" lon="7.252140000"><ele></ele><time>2013-8-8T2:36:37Z</time></trkpt>
<trkpt lat="46.210410000" lon="7.252120000"><ele></ele><time>2013-8-8T2:36:40Z</time></trkpt>
<trkpt lat="46.210400000" lon="7.252110000"><ele></ele><time>2013-8-8T2:36:43Z</time></trkpt>
<trkpt lat="46.210390000" lon="7.252090000"><ele></ele><time>2013-8-8T2:36:46Z</time></trkpt>
<trkpt lat="46.210380000" lon="7.252070000"><ele></ele><time>2013-8-8T2:36:49Z</time></trkpt>
<trkpt lat="46.210370000" lon="7.252050000"><ele></ele><time>2013-8-8T2:36:52Z</time></trkpt>
<trkpt lat="46.210350000" lon="7.252020000"><ele></ele><time>2013-8-8T2:36:55Z</time></trkpt>
<trkpt lat="46.210340000" lon="7.252000000"><ele></ele><time>2013-8-8T2:36:58Z</time></trkpt>
<trkpt lat="46.210330000" lon="7.251980000"><ele></ele><time>2013-8-8T2:37:1Z</time></trkpt>
<trkpt lat="46.210320000" lon="7.251970000"><ele></ele><time>2013-8-8T2:37:4Z</time></trkpt>
<trkpt lat="46.210300000" lon="7.251960000"><ele></ele><time>2013-8-8T2:37:7Z</time></trkpt>
<trkpt lat="46.210290000" lon="7.251940000"><ele></ele><time>2013-8-8T2:37:10Z</time></trkpt>
<trkpt lat="46.210280000" lon="7.251930000"><ele></ele><time>2013-8-8T2:37:13Z</time></trkpt>
<trkpt lat="46.210270000" lon="7.251920000"><ele></ele><time>2013-8-8T2:37:16Z</time></trkpt>
<trkpt lat="46.210250000" lon="7.251900000"><ele></ele><time>2013-8-8T2:37:19Z</time></trkpt>
<trkpt lat="46.210240000" lon="7.251880000"><ele></ele><time>2013-8-8T2:37:22Z</time></trkpt>
<trkpt lat="46.210230000" lon="7.251860000"><ele></ele><time>2013-8-8T2:37:25Z</time></trkpt>
<trkpt lat="46.210220000" lon="7.251850000"><ele></ele><time>2013-8-8T2:37:28Z</time></trkpt>
<trkpt lat="46.210210000" lon="7.251830000"><ele></ele><time>2013-8-8T2:37:31Z</time></trkpt>
<trkpt lat="46.210210000" lon="7.251810000"><ele></ele><time>2013-8-8T2:37:34Z</time></trkpt>
<trkpt lat="46.210190000" lon="7.251790000"><ele></ele><time>2013-8-8T2:37:37Z</time></trkpt>
<trkpt lat="46.210180000" lon="7.251770000"><ele></ele><time>2013-8-8T2:37:40Z</time></trkpt>
<trkpt lat="46.210170000" lon="7.251750000"><ele></ele><time>2013-8-8T2:37:43Z</time></trkpt>
<trkpt lat="46.210160000" lon="7.251730000"><ele></ele><time>2013-8-8T2:37:46Z</time></trkpt>
<trkpt lat="46.210150000" lon="7.251710000"><ele></ele><time>2013-8-8T2:37:49Z</time></trkpt>
<trkpt lat="46.210140000" lon="7.251690000"><ele></ele><time>2013-8-8T2:37:52Z</time></trkpt>
<trkpt lat="46.210130000" lon="7.251680000"><ele></ele><time>2013-8-8T2:37:55Z</time></trkpt>
<trkpt lat="46.210120000" lon="7.251650000"><ele></ele><time>2013-8-8T2:37:58Z</time></trkpt>
<trkpt lat="46.210120000" lon="7.251630000"><ele></ele><time>2013-8-8T2:38:1Z</time></trkpt>
<trkpt lat="46.210120000" lon="7.251600000"><ele></ele><time>2013-8-8T2:38:4Z</time></trkpt>
<trkpt lat="46.210110000" lon="7.251580000"><ele></ele><time>2013-8-8T2:38:7Z</time></trkpt>
<trkpt lat="46.210110000" lon="7.251560000"><ele></ele><time>2013-8-8T2:38:10Z</time></trkpt>
<trkpt lat="46.210100000" lon="7.251540000"><ele></ele><time>2013-8-8T2:38:13Z</time></trkpt>
<trkpt lat="46.210090000" lon="7.251520000"><ele></ele><time>2013-8-8T2:38:16Z</time></trkpt>
<trkpt lat="46.210090000" lon="7.251500000"><ele></ele><time>2013-8-8T2:38:19Z</time></trkpt>
<trkpt lat="46.210090000" lon="7.251480000"><ele></ele><time>2013-8-8T2:38:22Z</time></trkpt>
<trkpt lat="46.210090000" lon="7.251470000"><ele></ele><time>2013-8-8T2:38:25Z</time></trkpt>
<trkpt lat="46.210090000" lon="7.251450000"><ele></ele><time>2013-8-8T2:38:28Z</time></trkpt>
<trkpt lat="46.210090000" lon="7.251420000"><ele></ele><time>2013-8-8T2:38:31Z</time></trkpt>
<trkpt lat="46.210090000" lon="7.251400000"><ele></ele><time>2013-8-8T2:38:34Z</time></trkpt>
<trkpt lat="46.210090000" lon="7.251380000"><ele></ele><time>2013-8-8T2:38:37Z</time></trkpt>
<trkpt lat="46.210090000" lon="7.251370000"><ele></ele><time>2013-8-8T2:38:40Z</time></trkpt>
<trkpt lat="46.210080000" lon="7.251350000"><ele></ele><time>2013-8-8T2:38:43Z</time></trkpt>
<trkpt lat="46.210070000" lon="7.251330000"><ele></ele><time>2013-8-8T2:38:46Z</time></trkpt>
<trkpt lat="46.210070000" lon="7.251310000"><ele></ele><time>2013-8-8T2:38:49Z</time></trkpt>
<trkpt lat="46.210060000" lon="7.251300000"><ele></ele><time>2013-8-8T2:38:52Z</time></trkpt>
<trkpt lat="46.210060000" lon="7.251280000"><ele></ele><time>2013-8-8T2:38:55Z</time></trkpt>
<trkpt lat="46.210060000" lon="7.251260000"><ele></ele><time>2013-8-8T2:38:58Z</time></trkpt>
<trkpt lat="46.210050000" lon="7.251210000"><ele></ele><time>2013-8-8T2:39:1Z</time></trkpt>
<trkpt lat="46.210040000" lon="7.251190000"><ele></ele><time>2013-8-8T2:39:4Z</time></trkpt>
<trkpt lat="46.210040000" lon="7.251170000"><ele></ele><time>2013-8-8T2:39:7Z</time></trkpt>
<trkpt lat="46.210030000" lon="7.251150000"><ele></ele><time>2013-8-8T2:39:10Z</time></trkpt>
<trkpt lat="46.210030000" lon="7.251130000"><ele></ele><time>2013-8-8T2:39:13Z</time></trkpt>
<trkpt lat="46.210020000" lon="7.251100000"><ele></ele><time>2013-8-8T2:39:16Z</time></trkpt>
<trkpt lat="46.210010000" lon="7.251080000"><ele></ele><time>2013-8-8T2:39:19Z</time></trkpt>
<trkpt lat="46.210010000" lon="7.251060000"><ele></ele><time>2013-8-8T2:39:22Z</time></trkpt>
<trkpt lat="46.210010000" lon="7.251040000"><ele></ele><time>2013-8-8T2:39:25Z</time></trkpt>
<trkpt lat="46.210000000" lon="7.251020000"><ele></ele><time>2013-8-8T2:39:28Z</time></trkpt>
<trkpt lat="46.210000000" lon="7.250950000"><ele></ele><time>2013-8-8T2:39:31Z</time></trkpt>
<trkpt lat="46.209990000" lon="7.250940000"><ele></ele><time>2013-8-8T2:39:34Z</time></trkpt>
<trkpt lat="46.209980000" lon="7.250930000"><ele></ele><time>2013-8-8T2:39:37Z</time></trkpt>
<trkpt lat="46.209980000" lon="7.250910000"><ele></ele><time>2013-8-8T2:39:40Z</time></trkpt>
<trkpt lat="46.209970000" lon="7.250890000"><ele></ele><time>2013-8-8T2:39:43Z</time></trkpt>
<trkpt lat="46.209950000" lon="7.250820000"><ele></ele><time>2013-8-8T2:39:46Z</time></trkpt>
<trkpt lat="46.209940000" lon="7.250800000"><ele></ele><time>2013-8-8T2:39:49Z</time></trkpt>
<trkpt lat="46.209940000" lon="7.250780000"><ele></ele><time>2013-8-8T2:39:52Z</time></trkpt>
<trkpt lat="46.209930000" lon="7.250770000"><ele></ele><time>2013-8-8T2:39:55Z</time></trkpt>
<trkpt lat="46.209930000" lon="7.250750000"><ele></ele><time>2013-8-8T2:39:58Z</time></trkpt>
<trkpt lat="46.209920000" lon="7.250720000"><ele></ele><time>2013-8-8T2:40:1Z</time></trkpt>
<trkpt lat="46.209920000" lon="7.250710000"><ele></ele><time>2013-8-8T2:40:4Z</time></trkpt>
<trkpt lat="46.209910000" lon="7.250690000"><ele></ele><time>2013-8-8T2:40:7Z</time></trkpt>
<trkpt lat="46.209900000" lon="7.250670000"><ele></ele><time>2013-8-8T2:40:10Z</time></trkpt>
<trkpt lat="46.209900000" lon="7.250650000"><ele></ele><time>2013-8-8T2:40:13Z</time></trkpt>
<trkpt lat="46.209890000" lon="7.250640000"><ele></ele><time>2013-8-8T2:40:16Z</time></trkpt>
<trkpt lat="46.209900000" lon="7.250580000"><ele></ele><time>2013-8-8T2:40:19Z</time></trkpt>
<trkpt lat="46.209890000" lon="7.250570000"><ele></ele><time>2013-8-8T2:40:22Z</time></trkpt>
<trkpt lat="46.209880000" lon="7.250550000"><ele></ele><time>2013-8-8T2:40:25Z</time></trkpt>
<trkpt lat="46.209870000" lon="7.250550000"><ele></ele><time>2013-8-8T2:40:28Z</time></trkpt>
<trkpt lat="46.209840000" lon="7.250530000"><ele></ele><time>2013-8-8T2:40:31Z</time></trkpt>
<trkpt lat="46.209830000" lon="7.250510000"><ele></ele><time>2013-8-8T2:40:34Z</time></trkpt>
<trkpt lat="46.209830000" lon="7.250490000"><ele></ele><time>2013-8-8T2:40:37Z</time></trkpt>
<trkpt lat="46.209820000" lon="7.250470000"><ele></ele><time>2013-8-8T2:40:40Z</time></trkpt>
<trkpt lat="46.209820000" lon="7.250450000"><ele></ele><time>2013-8-8T2:40:43Z</time></trkpt>
<trkpt lat="46.209810000" lon="7.250430000"><ele></ele><time>2013-8-8T2:40:46Z</time></trkpt>
<trkpt lat="46.209800000" lon="7.250420000"><ele></ele><time>2013-8-8T2:40:49Z</time></trkpt>
<trkpt lat="46.209790000" lon="7.250400000"><ele></ele><time>2013-8-8T2:40:52Z</time></trkpt>
<trkpt lat="46.209790000" lon="7.250390000"><ele></ele><time>2013-8-8T2:40:55Z</time></trkpt>
<trkpt lat="46.209780000" lon="7.250370000"><ele></ele><time>2013-8-8T2:40:58Z</time></trkpt>
<trkpt lat="46.209770000" lon="7.250360000"><ele></ele><time>2013-8-8T2:41:1Z</time></trkpt>
<trkpt lat="46.209760000" lon="7.250340000"><ele></ele><time>2013-8-8T2:41:4Z</time></trkpt>
<trkpt lat="46.209750000" lon="7.250320000"><ele></ele><time>2013-8-8T2:41:7Z</time></trkpt>
<trkpt lat="46.209750000" lon="7.250300000"><ele></ele><time>2013-8-8T2:41:10Z</time></trkpt>
<trkpt lat="46.209740000" lon="7.250270000"><ele></ele><time>2013-8-8T2:41:13Z</time></trkpt>
<trkpt lat="46.209730000" lon="7.250260000"><ele></ele><time>2013-8-8T2:41:16Z</time></trkpt>
<trkpt lat="46.209730000" lon="7.250270000"><ele></ele><time>2013-8-8T2:41:19Z</time></trkpt>
<trkpt lat="46.209730000" lon="7.250270000"><ele></ele><time>2013-8-8T2:41:22Z</time></trkpt>
<trkpt lat="46.209730000" lon="7.250270000"><ele></ele><time>2013-8-8T2:41:25Z</time></trkpt>
<trkpt lat="46.209730000" lon="7.250270000"><ele></ele><time>2013-8-8T2:41:28Z</time></trkpt>
<trkpt lat="46.209720000" lon="7.250260000"><ele></ele><time>2013-8-8T2:41:31Z</time></trkpt>
<trkpt lat="46.209720000" lon="7.250230000"><ele></ele><time>2013-8-8T2:41:34Z</time></trkpt>
<trkpt lat="46.209700000" lon="7.250200000"><ele></ele><time>2013-8-8T2:41:37Z</time></trkpt>
<trkpt lat="46.209690000" lon="7.250190000"><ele></ele><time>2013-8-8T2:41:40Z</time></trkpt>
<trkpt lat="46.209690000" lon="7.250190000"><ele></ele><time>2013-8-8T2:41:43Z</time></trkpt>
<trkpt lat="46.209690000" lon="7.250170000"><ele></ele><time>2013-8-8T2:41:46Z</time></trkpt>
<trkpt lat="46.209690000" lon="7.250160000"><ele></ele><time>2013-8-8T2:41:49Z</time></trkpt>
<trkpt lat="46.209680000" lon="7.250130000"><ele></ele><time>2013-8-8T2:41:52Z</time></trkpt>
<trkpt lat="46.209670000" lon="7.250100000"><ele></ele><time>2013-8-8T2:41:55Z</time></trkpt>
<trkpt lat="46.209660000" lon="7.250090000"><ele></ele><time>2013-8-8T2:41:58Z</time></trkpt>
<trkpt lat="46.209660000" lon="7.250080000"><ele></ele><time>2013-8-8T2:42:1Z</time></trkpt>
<trkpt lat="46.209650000" lon="7.250070000"><ele></ele><time>2013-8-8T2:42:4Z</time></trkpt>
<trkpt lat="46.209650000" lon="7.250050000"><ele></ele><time>2013-8-8T2:42:7Z</time></trkpt>
<trkpt lat="46.209640000" lon="7.250030000"><ele></ele><time>2013-8-8T2:42:10Z</time></trkpt>
<trkpt lat="46.209640000" lon="7.250030000"><ele></ele><time>2013-8-8T2:42:13Z</time></trkpt>
<trkpt lat="46.209630000" lon="7.250020000"><ele></ele><time>2013-8-8T2:42:16Z</time></trkpt>
<trkpt lat="46.209630000" lon="7.250010000"><ele></ele><time>2013-8-8T2:42:19Z</time></trkpt>
<trkpt lat="46.209630000" lon="7.250000000"><ele></ele><time>2013-8-8T2:42:22Z</time></trkpt>
<trkpt lat="46.209620000" lon="7.249990000"><ele></ele><time>2013-8-8T2:42:25Z</time></trkpt>
<trkpt lat="46.209610000" lon="7.249940000"><ele></ele><time>2013-8-8T2:42:28Z</time></trkpt>
<trkpt lat="46.209600000" lon="7.249930000"><ele></ele><time>2013-8-8T2:42:31Z</time></trkpt>
<trkpt lat="46.209590000" lon="7.249910000"><ele></ele><time>2013-8-8T2:42:34Z</time></trkpt>
<trkpt lat="46.209590000" lon="7.249900000"><ele></ele><time>2013-8-8T2:42:37Z</time></trkpt>
<trkpt lat="46.209590000" lon="7.249890000"><ele></ele><time>2013-8-8T2:42:40Z</time></trkpt>
<trkpt lat="46.209570000" lon="7.249850000"><ele></ele><time>2013-8-8T2:42:43Z</time></trkpt>
<trkpt lat="46.209570000" lon="7.249850000"><ele></ele><time>2013-8-8T2:42:46Z</time></trkpt>
<trkpt lat="46.209560000" lon="7.249830000"><ele></ele><time>2013-8-8T2:42:49Z</time></trkpt>
<trkpt lat="46.209570000" lon="7.249830000"><ele></ele><time>2013-8-8T2:42:52Z</time></trkpt>
<trkpt lat="46.209570000" lon="7.249830000"><ele></ele><time>2013-8-8T2:42:55Z</time></trkpt>
<trkpt lat="46.209550000" lon="7.249760000"><ele></ele><time>2013-8-8T2:42:58Z</time></trkpt>
<trkpt lat="46.209550000" lon="7.249750000"><ele></ele><time>2013-8-8T2:43:1Z</time></trkpt>
<trkpt lat="46.209540000" lon="7.249740000"><ele></ele><time>2013-8-8T2:43:4Z</time></trkpt>
<trkpt lat="46.209530000" lon="7.249730000"><ele></ele><time>2013-8-8T2:43:7Z</time></trkpt>
<trkpt lat="46.209530000" lon="7.249720000"><ele></ele><time>2013-8-8T2:43:10Z</time></trkpt>
<trkpt lat="46.209520000" lon="7.249700000"><ele></ele><time>2013-8-8T2:43:13Z</time></trkpt>
<trkpt lat="46.209510000" lon="7.249670000"><ele></ele><time>2013-8-8T2:43:16Z</time></trkpt>
<trkpt lat="46.209510000" lon="7.249660000"><ele></ele><time>2013-8-8T2:43:19Z</time></trkpt>
<trkpt lat="46.209510000" lon="7.249650000"><ele></ele><time>2013-8-8T2:43:22Z</time></trkpt>
<trkpt lat="46.209510000" lon="7.249630000"><ele></ele><time>2013-8-8T2:43:25Z</time></trkpt>
<trkpt lat="46.209500000" lon="7.249620000"><ele></ele><time>2013-8-8T2:43:28Z</time></trkpt>
<trkpt lat="46.209500000" lon="7.249610000"><ele></ele><time>2013-8-8T2:43:31Z</time></trkpt>
<trkpt lat="46.209490000" lon="7.249580000"><ele></ele><time>2013-8-8T2:43:34Z</time></trkpt>
<trkpt lat="46.209490000" lon="7.249570000"><ele></ele><time>2013-8-8T2:43:37Z</time></trkpt>
<trkpt lat="46.209490000" lon="7.249550000"><ele></ele><time>2013-8-8T2:43:40Z</time></trkpt>
<trkpt lat="46.209490000" lon="7.249540000"><ele></ele><time>2013-8-8T2:43:43Z</time></trkpt>
<trkpt lat="46.209490000" lon="7.249530000"><ele></ele><time>2013-8-8T2:43:46Z</time></trkpt>
<trkpt lat="46.209480000" lon="7.249510000"><ele></ele><time>2013-8-8T2:43:49Z</time></trkpt>
<trkpt lat="46.209470000" lon="7.249470000"><ele></ele><time>2013-8-8T2:43:52Z</time></trkpt>
<trkpt lat="46.209470000" lon="7.249460000"><ele></ele><time>2013-8-8T2:43:55Z</time></trkpt>
<trkpt lat="46.209470000" lon="7.249450000"><ele></ele><time>2013-8-8T2:43:58Z</time></trkpt>
<trkpt lat="46.209470000" lon="7.249430000"><ele></ele><time>2013-8-8T2:44:1Z</time></trkpt>
<trkpt lat="46.209470000" lon="7.249430000"><ele></ele><time>2013-8-8T2:44:4Z</time></trkpt>
<trkpt lat="46.209440000" lon="7.249390000"><ele></ele><time>2013-8-8T2:44:7Z</time></trkpt>
<trkpt lat="46.209440000" lon="7.249370000"><ele></ele><time>2013-8-8T2:44:10Z</time></trkpt>
<trkpt lat="46.209440000" lon="7.249360000"><ele></ele><time>2013-8-8T2:44:13Z</time></trkpt>
<trkpt lat="46.209440000" lon="7.249340000"><ele></ele><time>2013-8-8T2:44:16Z</time></trkpt>
<trkpt lat="46.209440000" lon="7.249330000"><ele></ele><time>2013-8-8T2:44:19Z</time></trkpt>
<trkpt lat="46.209430000" lon="7.249270000"><ele></ele><time>2013-8-8T2:44:22Z</time></trkpt>
<trkpt lat="46.209420000" lon="7.249250000"><ele></ele><time>2013-8-8T2:44:25Z</time></trkpt>
<trkpt lat="46.209420000" lon="7.249240000"><ele></ele><time>2013-8-8T2:44:28Z</time></trkpt>
<trkpt lat="46.209420000" lon="7.249220000"><ele></ele><time>2013-8-8T2:44:31Z</time></trkpt>
<trkpt lat="46.209420000" lon="7.249210000"><ele></ele><time>2013-8-8T2:44:34Z</time></trkpt>
<trkpt lat="46.209410000" lon="7.249180000"><ele></ele><time>2013-8-8T2:44:37Z</time></trkpt>
<trkpt lat="46.209410000" lon="7.249150000"><ele></ele><time>2013-8-8T2:44:40Z</time></trkpt>
<trkpt lat="46.209400000" lon="7.249130000"><ele></ele><time>2013-8-8T2:44:43Z</time></trkpt>
<trkpt lat="46.209400000" lon="7.249120000"><ele></ele><time>2013-8-8T2:44:46Z</time></trkpt>
<trkpt lat="46.209400000" lon="7.249110000"><ele></ele><time>2013-8-8T2:44:49Z</time></trkpt>
<trkpt lat="46.209400000" lon="7.249100000"><ele></ele><time>2013-8-8T2:44:52Z</time></trkpt>
<trkpt lat="46.209390000" lon="7.249080000"><ele></ele><time>2013-8-8T2:44:55Z</time></trkpt>
<trkpt lat="46.209380000" lon="7.249060000"><ele></ele><time>2013-8-8T2:44:58Z</time></trkpt>
<trkpt lat="46.209380000" lon="7.249050000"><ele></ele><time>2013-8-8T2:45:1Z</time></trkpt>
<trkpt lat="46.209380000" lon="7.249040000"><ele></ele><time>2013-8-8T2:45:4Z</time></trkpt>
<trkpt lat="46.209370000" lon="7.249030000"><ele></ele><time>2013-8-8T2:45:7Z</time></trkpt>
<trkpt lat="46.209370000" lon="7.249020000"><ele></ele><time>2013-8-8T2:45:10Z</time></trkpt>
<trkpt lat="46.209350000" lon="7.249000000"><ele></ele><time>2013-8-8T2:45:13Z</time></trkpt>
<trkpt lat="46.209340000" lon="7.248990000"><ele></ele><time>2013-8-8T2:45:16Z</time></trkpt>
<trkpt lat="46.209340000" lon="7.248980000"><ele></ele><time>2013-8-8T2:45:19Z</time></trkpt>
<trkpt lat="46.209330000" lon="7.248980000"><ele></ele><time>2013-8-8T2:45:22Z</time></trkpt>
<trkpt lat="46.209330000" lon="7.248970000"><ele></ele><time>2013-8-8T2:45:25Z</time></trkpt>
<trkpt lat="46.209320000" lon="7.248950000"><ele></ele><time>2013-8-8T2:45:28Z</time></trkpt>
<trkpt lat="46.209310000" lon="7.248930000"><ele></ele><time>2013-8-8T2:45:31Z</time></trkpt>
<trkpt lat="46.209300000" lon="7.248900000"><ele></ele><time>2013-8-8T2:45:34Z</time></trkpt>
<trkpt lat="46.209290000" lon="7.248890000"><ele></ele><time>2013-8-8T2:45:37Z</time></trkpt>
<trkpt lat="46.209290000" lon="7.248880000"><ele></ele><time>2013-8-8T2:45:40Z</time></trkpt>
<trkpt lat="46.209280000" lon="7.248870000"><ele></ele><time>2013-8-8T2:45:43Z</time></trkpt>
<trkpt lat="46.209280000" lon="7.248870000"><ele></ele><time>2013-8-8T2:45:46Z</time></trkpt>
<trkpt lat="46.209270000" lon="7.248870000"><ele></ele><time>2013-8-8T2:45:49Z</time></trkpt>
<trkpt lat="46.209240000" lon="7.248840000"><ele></ele><time>2013-8-8T2:45:52Z</time></trkpt>
<trkpt lat="46.209230000" lon="7.248830000"><ele></ele><time>2013-8-8T2:45:55Z</time></trkpt>
<trkpt lat="46.209220000" lon="7.248820000"><ele></ele><time>2013-8-8T2:45:58Z</time></trkpt>
<trkpt lat="46.209220000" lon="7.248810000"><ele></ele><time>2013-8-8T2:46:1Z</time></trkpt>
<trkpt lat="46.209210000" lon="7.248800000"><ele></ele><time>2013-8-8T2:46:4Z</time></trkpt>
<trkpt lat="46.209180000" lon="7.248770000"><ele></ele><time>2013-8-8T2:46:7Z</time></trkpt>
<trkpt lat="46.209180000" lon="7.248760000"><ele></ele><time>2013-8-8T2:46:10Z</time></trkpt>
<trkpt lat="46.209180000" lon="7.248750000"><ele></ele><time>2013-8-8T2:46:13Z</time></trkpt>
<trkpt lat="46.209170000" lon="7.248740000"><ele></ele><time>2013-8-8T2:46:16Z</time></trkpt>
<trkpt lat="46.209160000" lon="7.248740000"><ele></ele><time>2013-8-8T2:46:19Z</time></trkpt>
<trkpt lat="46.209140000" lon="7.248720000"><ele></ele><time>2013-8-8T2:46:22Z</time></trkpt>
<trkpt lat="46.209130000" lon="7.248710000"><ele></ele><time>2013-8-8T2:46:25Z</time></trkpt>
<trkpt lat="46.209130000" lon="7.248700000"><ele></ele><time>2013-8-8T2:46:28Z</time></trkpt>
<trkpt lat="46.209130000" lon="7.248700000"><ele></ele><time>2013-8-8T2:46:31Z</time></trkpt>
<trkpt lat="46.209120000" lon="7.248690000"><ele></ele><time>2013-8-8T2:46:34Z</time></trkpt>
<trkpt lat="46.209110000" lon="7.248670000"><ele></ele><time>2013-8-8T2:46:37Z</time></trkpt>
<trkpt lat="46.209090000" lon="7.248650000"><ele></ele><time>2013-8-8T2:46:40Z</time></trkpt>
<trkpt lat="46.209080000" lon="7.248650000"><ele></ele><time>2013-8-8T2:46:43Z</time></trkpt>
<trkpt lat="46.209070000" lon="7.248650000"><ele></ele><time>2013-8-8T2:46:46Z</time></trkpt>
<trkpt lat="46.209070000" lon="7.248650000"><ele></ele><time>2013-8-8T2:46:49Z</time></trkpt>
<trkpt lat="46.209060000" lon="7.248580000"><ele></ele><time>2013-8-8T2:46:52Z</time></trkpt>
<trkpt lat="46.209050000" lon="7.248570000"><ele></ele><time>2013-8-8T2:46:55Z</time></trkpt>
<trkpt lat="46.209030000" lon="7.248570000"><ele></ele><time>2013-8-8T2:46:58Z</time></trkpt>
<trkpt lat="46.209020000" lon="7.248560000"><ele></ele><time>2013-8-8T2:47:1Z</time></trkpt>
<trkpt lat="46.209010000" lon="7.248560000"><ele></ele><time>2013-8-8T2:47:4Z</time></trkpt>
<trkpt lat="46.209010000" lon="7.248560000"><ele></ele><time>2013-8-8T2:47:7Z</time></trkpt>
<trkpt lat="46.209000000" lon="7.248560000"><ele></ele><time>2013-8-8T2:47:10Z</time></trkpt>
<trkpt lat="46.208990000" lon="7.248540000"><ele></ele><time>2013-8-8T2:47:13Z</time></trkpt>
<trkpt lat="46.208980000" lon="7.248530000"><ele></ele><time>2013-8-8T2:47:16Z</time></trkpt>
<trkpt lat="46.208980000" lon="7.248520000"><ele></ele><time>2013-8-8T2:47:19Z</time></trkpt>
<trkpt lat="46.208980000" lon="7.248510000"><ele></ele><time>2013-8-8T2:47:22Z</time></trkpt>
<trkpt lat="46.208970000" lon="7.248500000"><ele></ele><time>2013-8-8T2:47:25Z</time></trkpt>
<trkpt lat="46.208970000" lon="7.248490000"><ele></ele><time>2013-8-8T2:47:28Z</time></trkpt>
<trkpt lat="46.208940000" lon="7.248450000"><ele></ele><time>2013-8-8T2:47:31Z</time></trkpt>
<trkpt lat="46.208940000" lon="7.248440000"><ele></ele><time>2013-8-8T2:47:34Z</time></trkpt>
<trkpt lat="46.208940000" lon="7.248440000"><ele></ele><time>2013-8-8T2:47:37Z</time></trkpt>
<trkpt lat="46.208940000" lon="7.248430000"><ele></ele><time>2013-8-8T2:47:40Z</time></trkpt>
<trkpt lat="46.208940000" lon="7.248400000"><ele></ele><time>2013-8-8T2:47:43Z</time></trkpt>
<trkpt lat="46.208950000" lon="7.248400000"><ele></ele><time>2013-8-8T2:47:46Z</time></trkpt>
<trkpt lat="46.208960000" lon="7.248400000"><ele></ele><time>2013-8-8T2:47:49Z</time></trkpt>
<trkpt lat="46.208960000" lon="7.248400000"><ele></ele><time>2013-8-8T2:47:52Z</time></trkpt>
<trkpt lat="46.208960000" lon="7.248400000"><ele></ele><time>2013-8-8T2:47:55Z</time></trkpt>
<trkpt lat="46.208980000" lon="7.248390000"><ele></ele><time>2013-8-8T2:47:58Z</time></trkpt>
<trkpt lat="46.209010000" lon="7.248390000"><ele></ele><time>2013-8-8T2:48:1Z</time></trkpt>
<trkpt lat="46.209060000" lon="7.248380000"><ele></ele><time>2013-8-8T2:48:4Z</time></trkpt>
<trkpt lat="46.209110000" lon="7.248400000"><ele></ele><time>2013-8-8T2:48:7Z</time></trkpt>
<trkpt lat="46.209120000" lon="7.248410000"><ele></ele><time>2013-8-8T2:48:10Z</time></trkpt>
<trkpt lat="46.209140000" lon="7.248420000"><ele></ele><time>2013-8-8T2:48:13Z</time></trkpt>
<trkpt lat="46.209150000" lon="7.248420000"><ele></ele><time>2013-8-8T2:48:16Z</time></trkpt>
<trkpt lat="46.209160000" lon="7.248420000"><ele></ele><time>2013-8-8T2:48:19Z</time></trkpt>
<trkpt lat="46.209170000" lon="7.248410000"><ele></ele><time>2013-8-8T2:48:22Z</time></trkpt>
<trkpt lat="46.209190000" lon="7.248400000"><ele></ele><time>2013-8-8T2:48:25Z</time></trkpt>
<trkpt lat="46.209210000" lon="7.248390000"><ele></ele><time>2013-8-8T2:48:28Z</time></trkpt>
<trkpt lat="46.209220000" lon="7.248400000"><ele></ele><time>2013-8-8T2:48:31Z</time></trkpt>
<trkpt lat="46.209240000" lon="7.248410000"><ele></ele><time>2013-8-8T2:48:34Z</time></trkpt>
<trkpt lat="46.209270000" lon="7.248430000"><ele></ele><time>2013-8-8T2:48:37Z</time></trkpt>
<trkpt lat="46.209290000" lon="7.248430000"><ele></ele><time>2013-8-8T2:48:40Z</time></trkpt>
<trkpt lat="46.209300000" lon="7.248440000"><ele></ele><time>2013-8-8T2:48:43Z</time></trkpt>
<trkpt lat="46.209320000" lon="7.248440000"><ele></ele><time>2013-8-8T2:48:46Z</time></trkpt>
<trkpt lat="46.209340000" lon="7.248430000"><ele></ele><time>2013-8-8T2:48:49Z</time></trkpt>
<trkpt lat="46.209350000" lon="7.248430000"><ele></ele><time>2013-8-8T2:48:52Z</time></trkpt>
<trkpt lat="46.209400000" lon="7.248430000"><ele></ele><time>2013-8-8T2:48:55Z</time></trkpt>
<trkpt lat="46.209410000" lon="7.248430000"><ele></ele><time>2013-8-8T2:48:58Z</time></trkpt>
<trkpt lat="46.209430000" lon="7.248430000"><ele></ele><time>2013-8-8T2:49:1Z</time></trkpt>
<trkpt lat="46.209450000" lon="7.248440000"><ele></ele><time>2013-8-8T2:49:4Z</time></trkpt>
<trkpt lat="46.209460000" lon="7.248450000"><ele></ele><time>2013-8-8T2:49:7Z</time></trkpt>
<trkpt lat="46.209490000" lon="7.248450000"><ele></ele><time>2013-8-8T2:49:10Z</time></trkpt>
<trkpt lat="46.209510000" lon="7.248450000"><ele></ele><time>2013-8-8T2:49:13Z</time></trkpt>
<trkpt lat="46.209520000" lon="7.248450000"><ele></ele><time>2013-8-8T2:49:16Z</time></trkpt>
<trkpt lat="46.209530000" lon="7.248450000"><ele></ele><time>2013-8-8T2:49:19Z</time></trkpt>
<trkpt lat="46.209550000" lon="7.248450000"><ele></ele><time>2013-8-8T2:49:22Z</time></trkpt>
<trkpt lat="46.209580000" lon="7.248440000"><ele></ele><time>2013-8-8T2:49:25Z</time></trkpt>
<trkpt lat="46.209590000" lon="7.248440000"><ele></ele><time>2013-8-8T2:49:28Z</time></trkpt>
<trkpt lat="46.209610000" lon="7.248440000"><ele></ele><time>2013-8-8T2:49:31Z</time></trkpt>
<trkpt lat="46.209630000" lon="7.248430000"><ele></ele><time>2013-8-8T2:49:34Z</time></trkpt>
<trkpt lat="46.209640000" lon="7.248430000"><ele></ele><time>2013-8-8T2:49:37Z</time></trkpt>
<trkpt lat="46.209660000" lon="7.248420000"><ele></ele><time>2013-8-8T2:49:40Z</time></trkpt>
<trkpt lat="46.209670000" lon="7.248390000"><ele></ele><time>2013-8-8T2:49:43Z</time></trkpt>
<trkpt lat="46.209680000" lon="7.248380000"><ele></ele><time>2013-8-8T2:49:46Z</time></trkpt>
<trkpt lat="46.209690000" lon="7.248380000"><ele></ele><time>2013-8-8T2:49:49Z</time></trkpt>
<trkpt lat="46.209710000" lon="7.248390000"><ele></ele><time>2013-8-8T2:49:52Z</time></trkpt>
<trkpt lat="46.209710000" lon="7.248390000"><ele></ele><time>2013-8-8T2:49:55Z</time></trkpt>
<trkpt lat="46.209720000" lon="7.248400000"><ele></ele><time>2013-8-8T2:49:58Z</time></trkpt>
<trkpt lat="46.209740000" lon="7.248410000"><ele></ele><time>2013-8-8T2:50:1Z</time></trkpt>
<trkpt lat="46.209790000" lon="7.248440000"><ele></ele><time>2013-8-8T2:50:4Z</time></trkpt>
<trkpt lat="46.209800000" lon="7.248440000"><ele></ele><time>2013-8-8T2:50:7Z</time></trkpt>
<trkpt lat="46.209810000" lon="7.248430000"><ele></ele><time>2013-8-8T2:50:10Z</time></trkpt>
<trkpt lat="46.209820000" lon="7.248430000"><ele></ele><time>2013-8-8T2:50:13Z</time></trkpt>
<trkpt lat="46.209830000" lon="7.248430000"><ele></ele><time>2013-8-8T2:50:16Z</time></trkpt>
<trkpt lat="46.209850000" lon="7.248440000"><ele></ele><time>2013-8-8T2:50:19Z</time></trkpt>
<trkpt lat="46.209860000" lon="7.248450000"><ele></ele><time>2013-8-8T2:50:22Z</time></trkpt>
<trkpt lat="46.209900000" lon="7.248450000"><ele></ele><time>2013-8-8T2:50:25Z</time></trkpt>
<trkpt lat="46.209910000" lon="7.248450000"><ele></ele><time>2013-8-8T2:50:28Z</time></trkpt>
<trkpt lat="46.209930000" lon="7.248460000"><ele></ele><time>2013-8-8T2:50:31Z</time></trkpt>
<trkpt lat="46.209940000" lon="7.248460000"><ele></ele><time>2013-8-8T2:50:34Z</time></trkpt>
<trkpt lat="46.209950000" lon="7.248470000"><ele></ele><time>2013-8-8T2:50:37Z</time></trkpt>
<trkpt lat="46.209980000" lon="7.248490000"><ele></ele><time>2013-8-8T2:50:40Z</time></trkpt>
<trkpt lat="46.210000000" lon="7.248490000"><ele></ele><time>2013-8-8T2:50:43Z</time></trkpt>
<trkpt lat="46.210010000" lon="7.248500000"><ele></ele><time>2013-8-8T2:50:46Z</time></trkpt>
<trkpt lat="46.210030000" lon="7.248500000"><ele></ele><time>2013-8-8T2:50:49Z</time></trkpt>
<trkpt lat="46.210040000" lon="7.248520000"><ele></ele><time>2013-8-8T2:50:52Z</time></trkpt>
<trkpt lat="46.210080000" lon="7.248550000"><ele></ele><time>2013-8-8T2:50:55Z</time></trkpt>
<trkpt lat="46.210080000" lon="7.248550000"><ele></ele><time>2013-8-8T2:50:58Z</time></trkpt>
<trkpt lat="46.210090000" lon="7.248550000"><ele></ele><time>2013-8-8T2:51:1Z</time></trkpt>
<trkpt lat="46.210110000" lon="7.248550000"><ele></ele><time>2013-8-8T2:51:4Z</time></trkpt>
<trkpt lat="46.210120000" lon="7.248570000"><ele></ele><time>2013-8-8T2:51:7Z</time></trkpt>
<trkpt lat="46.210130000" lon="7.248610000"><ele></ele><time>2013-8-8T2:51:10Z</time></trkpt>
<trkpt lat="46.210140000" lon="7.248620000"><ele></ele><time>2013-8-8T2:51:13Z</time></trkpt>
<trkpt lat="46.210150000" lon="7.248640000"><ele></ele><time>2013-8-8T2:51:16Z</time></trkpt>
<trkpt lat="46.210160000" lon="7.248630000"><ele></ele><time>2013-8-8T2:51:19Z</time></trkpt>
<trkpt lat="46.210170000" lon="7.248640000"><ele></ele><time>2013-8-8T2:51:22Z</time></trkpt>
<trkpt lat="46.210190000" lon="7.248700000"><ele></ele><time>2013-8-8T2:51:25Z</time></trkpt>
<trkpt lat="46.210200000" lon="7.248720000"><ele></ele><time>2013-8-8T2:51:28Z</time></trkpt>
<trkpt lat="46.210210000" lon="7.248720000"><ele></ele><time>2013-8-8T2:51:31Z</time></trkpt>
<trkpt lat="46.210230000" lon="7.248730000"><ele></ele><time>2013-8-8T2:51:34Z</time></trkpt>
<trkpt lat="46.210240000" lon="7.248720000"><ele></ele><time>2013-8-8T2:51:37Z</time></trkpt>
<trkpt lat="46.210260000" lon="7.248730000"><ele></ele><time>2013-8-8T2:51:40Z</time></trkpt>
<trkpt lat="46.210280000" lon="7.248760000"><ele></ele><time>2013-8-8T2:51:43Z</time></trkpt>
<trkpt lat="46.210290000" lon="7.248790000"><ele></ele><time>2013-8-8T2:51:46Z</time></trkpt>
<trkpt lat="46.210290000" lon="7.248810000"><ele></ele><time>2013-8-8T2:51:49Z</time></trkpt>
<trkpt lat="46.210300000" lon="7.248820000"><ele></ele><time>2013-8-8T2:51:52Z</time></trkpt>
<trkpt lat="46.210320000" lon="7.248820000"><ele></ele><time>2013-8-8T2:51:55Z</time></trkpt>
<trkpt lat="46.210330000" lon="7.248820000"><ele></ele><time>2013-8-8T2:51:58Z</time></trkpt>
<trkpt lat="46.210350000" lon="7.248820000"><ele></ele><time>2013-8-8T2:52:1Z</time></trkpt>
<trkpt lat="46.210360000" lon="7.248830000"><ele></ele><time>2013-8-8T2:52:4Z</time></trkpt>
<trkpt lat="46.210370000" lon="7.248840000"><ele></ele><time>2013-8-8T2:52:7Z</time></trkpt>
<trkpt lat="46.210380000" lon="7.248850000"><ele></ele><time>2013-8-8T2:52:10Z</time></trkpt>
<trkpt lat="46.210400000" lon="7.248870000"><ele></ele><time>2013-8-8T2:52:13Z</time></trkpt>
<trkpt lat="46.210410000" lon="7.248880000"><ele></ele><time>2013-8-8T2:52:16Z</time></trkpt>
<trkpt lat="46.210430000" lon="7.248890000"><ele></ele><time>2013-8-8T2:52:19Z</time></trkpt>
<trkpt lat="46.210450000" lon="7.248890000"><ele></ele><time>2013-8-8T2:52:22Z</time></trkpt>
<trkpt lat="46.210450000" lon="7.248900000"><ele></ele><time>2013-8-8T2:52:25Z</time></trkpt>
<trkpt lat="46.210460000" lon="7.248900000"><ele></ele><time>2013-8-8T2:52:28Z</time></trkpt>
<trkpt lat="46.210480000" lon="7.248910000"><ele></ele><time>2013-8-8T2:52:31Z</time></trkpt>
<trkpt lat="46.210490000" lon="7.248920000"><ele></ele><time>2013-8-8T2:52:34Z</time></trkpt>
<trkpt lat="46.210500000" lon="7.248940000"><ele></ele><time>2013-8-8T2:52:37Z</time></trkpt>
<trkpt lat="46.210510000" lon="7.248950000"><ele></ele><time>2013-8-8T2:52:40Z</time></trkpt>
<trkpt lat="46.210520000" lon="7.248950000"><ele></ele><time>2013-8-8T2:52:43Z</time></trkpt>
<trkpt lat="46.210530000" lon="7.248960000"><ele></ele><time>2013-8-8T2:52:46Z</time></trkpt>
<trkpt lat="46.210600000" lon="7.248980000"><ele></ele><time>2013-8-8T2:52:49Z</time></trkpt>
<trkpt lat="46.210610000" lon="7.248980000"><ele></ele><time>2013-8-8T2:52:52Z</time></trkpt>
<trkpt lat="46.210620000" lon="7.248990000"><ele></ele><time>2013-8-8T2:52:55Z</time></trkpt>
<trkpt lat="46.210630000" lon="7.249000000"><ele></ele><time>2013-8-8T2:52:58Z</time></trkpt>
<trkpt lat="46.210670000" lon="7.249030000"><ele></ele><time>2013-8-8T2:53:1Z</time></trkpt>
<trkpt lat="46.210690000" lon="7.249030000"><ele></ele><time>2013-8-8T2:53:4Z</time></trkpt>
<trkpt lat="46.210690000" lon="7.249030000"><ele></ele><time>2013-8-8T2:53:7Z</time></trkpt>
<trkpt lat="46.210700000" lon="7.249030000"><ele></ele><time>2013-8-8T2:53:10Z</time></trkpt>
<trkpt lat="46.210720000" lon="7.249030000"><ele></ele><time>2013-8-8T2:53:13Z</time></trkpt>
<trkpt lat="46.210740000" lon="7.249050000"><ele></ele><time>2013-8-8T2:53:16Z</time></trkpt>
<trkpt lat="46.210740000" lon="7.249040000"><ele></ele><time>2013-8-8T2:53:19Z</time></trkpt>
<trkpt lat="46.210740000" lon="7.249040000"><ele></ele><time>2013-8-8T2:53:22Z</time></trkpt>
<trkpt lat="46.210740000" lon="7.249030000"><ele></ele><time>2013-8-8T2:53:25Z</time></trkpt>
<trkpt lat="46.210740000" lon="7.249030000"><ele></ele><time>2013-8-8T2:53:28Z</time></trkpt>
<trkpt lat="46.210730000" lon="7.249030000"><ele></ele><time>2013-8-8T2:53:31Z</time></trkpt>
<trkpt lat="46.210730000" lon="7.249030000"><ele></ele><time>2013-8-8T2:53:34Z</time></trkpt>
<trkpt lat="46.210770000" lon="7.249050000"><ele></ele><time>2013-8-8T2:53:37Z</time></trkpt>
<trkpt lat="46.210780000" lon="7.249070000"><ele></ele><time>2013-8-8T2:53:40Z</time></trkpt>
<trkpt lat="46.210800000" lon="7.249070000"><ele></ele><time>2013-8-8T2:53:43Z</time></trkpt>
<trkpt lat="46.210810000" lon="7.249070000"><ele></ele><time>2013-8-8T2:53:46Z</time></trkpt>
<trkpt lat="46.210820000" lon="7.249070000"><ele></ele><time>2013-8-8T2:53:49Z</time></trkpt>
<trkpt lat="46.210820000" lon="7.249070000"><ele></ele><time>2013-8-8T2:53:52Z</time></trkpt>
<trkpt lat="46.210820000" lon="7.249070000"><ele></ele><time>2013-8-8T2:53:55Z</time></trkpt>
<trkpt lat="46.210820000" lon="7.249070000"><ele></ele><time>2013-8-8T2:53:58Z</time></trkpt>
<trkpt lat="46.210820000" lon="7.249070000"><ele></ele><time>2013-8-8T2:54:1Z</time></trkpt>
<trkpt lat="46.210850000" lon="7.249080000"><ele></ele><time>2013-8-8T2:54:4Z</time></trkpt>
<trkpt lat="46.210880000" lon="7.249070000"><ele></ele><time>2013-8-8T2:54:7Z</time></trkpt>
<trkpt lat="46.210890000" lon="7.249070000"><ele></ele><time>2013-8-8T2:54:10Z</time></trkpt>
<trkpt lat="46.210900000" lon="7.249080000"><ele></ele><time>2013-8-8T2:54:13Z</time></trkpt>
<trkpt lat="46.210900000" lon="7.249070000"><ele></ele><time>2013-8-8T2:54:16Z</time></trkpt>
<trkpt lat="46.210910000" lon="7.249080000"><ele></ele><time>2013-8-8T2:54:19Z</time></trkpt>
<trkpt lat="46.210960000" lon="7.249110000"><ele></ele><time>2013-8-8T2:54:22Z</time></trkpt>
<trkpt lat="46.210950000" lon="7.249110000"><ele></ele><time>2013-8-8T2:54:25Z</time></trkpt>
<trkpt lat="46.210950000" lon="7.249110000"><ele></ele><time>2013-8-8T2:54:28Z</time></trkpt>
<trkpt lat="46.210950000" lon="7.249110000"><ele></ele><time>2013-8-8T2:54:31Z</time></trkpt>
<trkpt lat="46.210960000" lon="7.249110000"><ele></ele><time>2013-8-8T2:54:34Z</time></trkpt>
<trkpt lat="46.210960000" lon="7.249110000"><ele></ele><time>2013-8-8T2:54:37Z</time></trkpt>
<trkpt lat="46.210970000" lon="7.249110000"><ele></ele><time>2013-8-8T2:54:40Z</time></trkpt>
<trkpt lat="46.210980000" lon="7.249110000"><ele></ele><time>2013-8-8T2:54:43Z</time></trkpt>
<trkpt lat="46.211040000" lon="7.249140000"><ele></ele><time>2013-8-8T2:54:46Z</time></trkpt>
<trkpt lat="46.211050000" lon="7.249140000"><ele></ele><time>2013-8-8T2:54:49Z</time></trkpt>
<trkpt lat="46.211050000" lon="7.249140000"><ele></ele><time>2013-8-8T2:54:52Z</time></trkpt>
<trkpt lat="46.211050000" lon="7.249140000"><ele></ele><time>2013-8-8T2:54:55Z</time></trkpt>
<trkpt lat="46.211050000" lon="7.249130000"><ele></ele><time>2013-8-8T2:54:58Z</time></trkpt>
<trkpt lat="46.211060000" lon="7.249130000"><ele></ele><time>2013-8-8T2:55:1Z</time></trkpt>
<trkpt lat="46.211080000" lon="7.249130000"><ele></ele><time>2013-8-8T2:55:4Z</time></trkpt>
<trkpt lat="46.211090000" lon="7.249130000"><ele></ele><time>2013-8-8T2:55:7Z</time></trkpt>
<trkpt lat="46.211110000" lon="7.249140000"><ele></ele><time>2013-8-8T2:55:10Z</time></trkpt>
<trkpt lat="46.211120000" lon="7.249150000"><ele></ele><time>2013-8-8T2:55:13Z</time></trkpt>
<trkpt lat="46.211120000" lon="7.249160000"><ele></ele><time>2013-8-8T2:55:16Z</time></trkpt>
<trkpt lat="46.211140000" lon="7.249170000"><ele></ele><time>2013-8-8T2:55:19Z</time></trkpt>
<trkpt lat="46.211160000" lon="7.249190000"><ele></ele><time>2013-8-8T2:55:22Z</time></trkpt>
<trkpt lat="46.211170000" lon="7.249200000"><ele></ele><time>2013-8-8T2:55:25Z</time></trkpt>
<trkpt lat="46.211180000" lon="7.249200000"><ele></ele><time>2013-8-8T2:55:28Z</time></trkpt>
<trkpt lat="46.211180000" lon="7.249210000"><ele></ele><time>2013-8-8T2:55:31Z</time></trkpt>
<trkpt lat="46.211190000" lon="7.249220000"><ele></ele><time>2013-8-8T2:55:34Z</time></trkpt>
<trkpt lat="46.211210000" lon="7.249240000"><ele></ele><time>2013-8-8T2:55:37Z</time></trkpt>
<trkpt lat="46.211220000" lon="7.249250000"><ele></ele><time>2013-8-8T2:55:40Z</time></trkpt>
<trkpt lat="46.211230000" lon="7.249260000"><ele></ele><time>2013-8-8T2:55:43Z</time></trkpt>
<trkpt lat="46.211240000" lon="7.249260000"><ele></ele><time>2013-8-8T2:55:46Z</time></trkpt>
<trkpt lat="46.211250000" lon="7.249270000"><ele></ele><time>2013-8-8T2:55:49Z</time></trkpt>
<trkpt lat="46.211280000" lon="7.249270000"><ele></ele><time>2013-8-8T2:55:52Z</time></trkpt>
<trkpt lat="46.211290000" lon="7.249290000"><ele></ele><time>2013-8-8T2:55:55Z</time></trkpt>
<trkpt lat="46.211300000" lon="7.249300000"><ele></ele><time>2013-8-8T2:55:58Z</time></trkpt>
<trkpt lat="46.211300000" lon="7.249310000"><ele></ele><time>2013-8-8T2:56:1Z</time></trkpt>
<trkpt lat="46.211310000" lon="7.249330000"><ele></ele><time>2013-8-8T2:56:4Z</time></trkpt>
<trkpt lat="46.211320000" lon="7.249340000"><ele></ele><time>2013-8-8T2:56:7Z</time></trkpt>
<trkpt lat="46.211330000" lon="7.249340000"><ele></ele><time>2013-8-8T2:56:10Z</time></trkpt>
<trkpt lat="46.211360000" lon="7.249310000"><ele></ele><time>2013-8-8T2:56:13Z</time></trkpt>
<trkpt lat="46.211370000" lon="7.249310000"><ele></ele><time>2013-8-8T2:56:16Z</time></trkpt>
<trkpt lat="46.211370000" lon="7.249310000"><ele></ele><time>2013-8-8T2:56:19Z</time></trkpt>
<trkpt lat="46.211380000" lon="7.249310000"><ele></ele><time>2013-8-8T2:56:22Z</time></trkpt>
<trkpt lat="46.211390000" lon="7.249310000"><ele></ele><time>2013-8-8T2:56:25Z</time></trkpt>
<trkpt lat="46.211400000" lon="7.249320000"><ele></ele><time>2013-8-8T2:56:28Z</time></trkpt>
<trkpt lat="46.211420000" lon="7.249340000"><ele></ele><time>2013-8-8T2:56:31Z</time></trkpt>
<trkpt lat="46.211430000" lon="7.249360000"><ele></ele><time>2013-8-8T2:56:34Z</time></trkpt>
<trkpt lat="46.211440000" lon="7.249380000"><ele></ele><time>2013-8-8T2:56:37Z</time></trkpt>
<trkpt lat="46.211440000" lon="7.249390000"><ele></ele><time>2013-8-8T2:56:40Z</time></trkpt>
<trkpt lat="46.211450000" lon="7.249400000"><ele></ele><time>2013-8-8T2:56:43Z</time></trkpt>
<trkpt lat="46.211450000" lon="7.249410000"><ele></ele><time>2013-8-8T2:56:46Z</time></trkpt>
<trkpt lat="46.211460000" lon="7.249420000"><ele></ele><time>2013-8-8T2:56:49Z</time></trkpt>
<trkpt lat="46.211470000" lon="7.249490000"><ele></ele><time>2013-8-8T2:56:52Z</time></trkpt>
<trkpt lat="46.211480000" lon="7.249490000"><ele></ele><time>2013-8-8T2:56:55Z</time></trkpt>
<trkpt lat="46.211480000" lon="7.249510000"><ele></ele><time>2013-8-8T2:56:58Z</time></trkpt>
<trkpt lat="46.211480000" lon="7.249510000"><ele></ele><time>2013-8-8T2:57:1Z</time></trkpt>
<trkpt lat="46.211480000" lon="7.249520000"><ele></ele><time>2013-8-8T2:57:4Z</time></trkpt>
<trkpt lat="46.211490000" lon="7.249540000"><ele></ele><time>2013-8-8T2:57:7Z</time></trkpt>
<trkpt lat="46.211500000" lon="7.249550000"><ele></ele><time>2013-8-8T2:57:10Z</time></trkpt>
<trkpt lat="46.211520000" lon="7.249580000"><ele></ele><time>2013-8-8T2:57:13Z</time></trkpt>
<trkpt lat="46.211520000" lon="7.249580000"><ele></ele><time>2013-8-8T2:57:16Z</time></trkpt>
<trkpt lat="46.211530000" lon="7.249590000"><ele></ele><time>2013-8-8T2:57:19Z</time></trkpt>
<trkpt lat="46.211540000" lon="7.249600000"><ele></ele><time>2013-8-8T2:57:22Z</time></trkpt>
<trkpt lat="46.211560000" lon="7.249650000"><ele></ele><time>2013-8-8T2:57:25Z</time></trkpt>
<trkpt lat="46.211570000" lon="7.249670000"><ele></ele><time>2013-8-8T2:57:28Z</time></trkpt>
<trkpt lat="46.211580000" lon="7.249680000"><ele></ele><time>2013-8-8T2:57:31Z</time></trkpt>
<trkpt lat="46.211580000" lon="7.249700000"><ele></ele><time>2013-8-8T2:57:34Z</time></trkpt>
<trkpt lat="46.211590000" lon="7.249710000"><ele></ele><time>2013-8-8T2:57:37Z</time></trkpt>
<trkpt lat="46.211600000" lon="7.249710000"><ele></ele><time>2013-8-8T2:57:40Z</time></trkpt>
<trkpt lat="46.211640000" lon="7.249760000"><ele></ele><time>2013-8-8T2:57:43Z</time></trkpt>
<trkpt lat="46.211640000" lon="7.249760000"><ele></ele><time>2013-8-8T2:57:46Z</time></trkpt>
<trkpt lat="46.211650000" lon="7.249780000"><ele></ele><time>2013-8-8T2:57:49Z</time></trkpt>
<trkpt lat="46.211660000" lon="7.249780000"><ele></ele><time>2013-8-8T2:57:52Z</time></trkpt>
<trkpt lat="46.211670000" lon="7.249770000"><ele></ele><time>2013-8-8T2:57:55Z</time></trkpt>
<trkpt lat="46.211690000" lon="7.249770000"><ele></ele><time>2013-8-8T2:57:58Z</time></trkpt>
<trkpt lat="46.211720000" lon="7.249790000"><ele></ele><time>2013-8-8T2:58:1Z</time></trkpt>
<trkpt lat="46.211730000" lon="7.249800000"><ele></ele><time>2013-8-8T2:58:4Z</time></trkpt>
<trkpt lat="46.211740000" lon="7.249810000"><ele></ele><time>2013-8-8T2:58:7Z</time></trkpt>
<trkpt lat="46.211750000" lon="7.249820000"><ele></ele><time>2013-8-8T2:58:10Z</time></trkpt>
<trkpt lat="46.211760000" lon="7.249830000"><ele></ele><time>2013-8-8T2:58:13Z</time></trkpt>
<trkpt lat="46.211770000" lon="7.249830000"><ele></ele><time>2013-8-8T2:58:16Z</time></trkpt>
<trkpt lat="46.211800000" lon="7.249820000"><ele></ele><time>2013-8-8T2:58:19Z</time></trkpt>
<trkpt lat="46.211820000" lon="7.249820000"><ele></ele><time>2013-8-8T2:58:22Z</time></trkpt>
<trkpt lat="46.211830000" lon="7.249830000"><ele></ele><time>2013-8-8T2:58:25Z</time></trkpt>
<trkpt lat="46.211840000" lon="7.249840000"><ele></ele><time>2013-8-8T2:58:28Z</time></trkpt>
<trkpt lat="46.211850000" lon="7.249850000"><ele></ele><time>2013-8-8T2:58:31Z</time></trkpt>
<trkpt lat="46.211850000" lon="7.249860000"><ele></ele><time>2013-8-8T2:58:34Z</time></trkpt>
<trkpt lat="46.211910000" lon="7.249880000"><ele></ele><time>2013-8-8T2:58:37Z</time></trkpt>
<trkpt lat="46.211920000" lon="7.249880000"><ele></ele><time>2013-8-8T2:58:40Z</time></trkpt>
<trkpt lat="46.211930000" lon="7.249870000"><ele></ele><time>2013-8-8T2:58:43Z</time></trkpt>
<trkpt lat="46.211940000" lon="7.249880000"><ele></ele><time>2013-8-8T2:58:46Z</time></trkpt>
<trkpt lat="46.211950000" lon="7.249890000"><ele></ele><time>2013-8-8T2:58:49Z</time></trkpt>
<trkpt lat="46.211960000" lon="7.249900000"><ele></ele><time>2013-8-8T2:58:52Z</time></trkpt>
<trkpt lat="46.211990000" lon="7.249930000"><ele></ele><time>2013-8-8T2:58:55Z</time></trkpt>
<trkpt lat="46.212000000" lon="7.249930000"><ele></ele><time>2013-8-8T2:58:58Z</time></trkpt>
<trkpt lat="46.212020000" lon="7.249950000"><ele></ele><time>2013-8-8T2:59:1Z</time></trkpt>
<trkpt lat="46.212020000" lon="7.249950000"><ele></ele><time>2013-8-8T2:59:4Z</time></trkpt>
<trkpt lat="46.212030000" lon="7.249950000"><ele></ele><time>2013-8-8T2:59:7Z</time></trkpt>
<trkpt lat="46.212040000" lon="7.249960000"><ele></ele><time>2013-8-8T2:59:10Z</time></trkpt>
<trkpt lat="46.212050000" lon="7.249960000"><ele></ele><time>2013-8-8T2:59:13Z</time></trkpt>
<trkpt lat="46.212120000" lon="7.250000000"><ele></ele><time>2013-8-8T2:59:16Z</time></trkpt>
<trkpt lat="46.212120000" lon="7.250010000"><ele></ele><time>2013-8-8T2:59:19Z</time></trkpt>
<trkpt lat="46.212130000" lon="7.250020000"><ele></ele><time>2013-8-8T2:59:22Z</time></trkpt>
<trkpt lat="46.212140000" lon="7.250020000"><ele></ele><time>2013-8-8T2:59:25Z</time></trkpt>
<trkpt lat="46.212150000" lon="7.250010000"><ele></ele><time>2013-8-8T2:59:28Z</time></trkpt>
<trkpt lat="46.212180000" lon="7.249980000"><ele></ele><time>2013-8-8T2:59:31Z</time></trkpt>
<trkpt lat="46.212180000" lon="7.249990000"><ele></ele><time>2013-8-8T2:59:34Z</time></trkpt>
<trkpt lat="46.212180000" lon="7.249990000"><ele></ele><time>2013-8-8T2:59:37Z</time></trkpt>
<trkpt lat="46.212180000" lon="7.249990000"><ele></ele><time>2013-8-8T2:59:40Z</time></trkpt>
<trkpt lat="46.212180000" lon="7.250000000"><ele></ele><time>2013-8-8T2:59:43Z</time></trkpt>
<trkpt lat="46.212200000" lon="7.250070000"><ele></ele><time>2013-8-8T2:59:46Z</time></trkpt>
<trkpt lat="46.212240000" lon="7.250080000"><ele></ele><time>2013-8-8T2:59:49Z</time></trkpt>
<trkpt lat="46.212260000" lon="7.250090000"><ele></ele><time>2013-8-8T2:59:52Z</time></trkpt>
<trkpt lat="46.212280000" lon="7.250100000"><ele></ele><time>2013-8-8T2:59:55Z</time></trkpt>
<trkpt lat="46.212290000" lon="7.250120000"><ele></ele><time>2013-8-8T2:59:58Z</time></trkpt>
<trkpt lat="46.212310000" lon="7.250140000"><ele></ele><time>2013-8-8T3:0:1Z</time></trkpt>
<trkpt lat="46.212330000" lon="7.250140000"><ele></ele><time>2013-8-8T3:0:4Z</time></trkpt>
<trkpt lat="46.212350000" lon="7.250150000"><ele></ele><time>2013-8-8T3:0:7Z</time></trkpt>
<trkpt lat="46.212360000" lon="7.250170000"><ele></ele><time>2013-8-8T3:0:10Z</time></trkpt>
<trkpt lat="46.212360000" lon="7.250190000"><ele></ele><time>2013-8-8T3:0:13Z</time></trkpt>
<trkpt lat="46.212370000" lon="7.250220000"><ele></ele><time>2013-8-8T3:0:16Z</time></trkpt>
<trkpt lat="46.212360000" lon="7.250240000"><ele></ele><time>2013-8-8T3:0:19Z</time></trkpt>
<trkpt lat="46.212370000" lon="7.250270000"><ele></ele><time>2013-8-8T3:0:22Z</time></trkpt>
<trkpt lat="46.212380000" lon="7.250280000"><ele></ele><time>2013-8-8T3:0:25Z</time></trkpt>
<trkpt lat="46.212390000" lon="7.250290000"><ele></ele><time>2013-8-8T3:0:28Z</time></trkpt>
<trkpt lat="46.212410000" lon="7.250290000"><ele></ele><time>2013-8-8T3:0:31Z</time></trkpt>
<trkpt lat="46.212440000" lon="7.250310000"><ele></ele><time>2013-8-8T3:0:34Z</time></trkpt>
<trkpt lat="46.212450000" lon="7.250320000"><ele></ele><time>2013-8-8T3:0:37Z</time></trkpt>
<trkpt lat="46.212490000" lon="7.250370000"><ele></ele><time>2013-8-8T3:0:40Z</time></trkpt>
<trkpt lat="46.212500000" lon="7.250370000"><ele></ele><time>2013-8-8T3:0:43Z</time></trkpt>
<trkpt lat="46.212520000" lon="7.250370000"><ele></ele><time>2013-8-8T3:0:46Z</time></trkpt>
<trkpt lat="46.212540000" lon="7.250370000"><ele></ele><time>2013-8-8T3:0:49Z</time></trkpt>
<trkpt lat="46.212550000" lon="7.250390000"><ele></ele><time>2013-8-8T3:0:52Z</time></trkpt>
<trkpt lat="46.212570000" lon="7.250400000"><ele></ele><time>2013-8-8T3:0:55Z</time></trkpt>
<trkpt lat="46.212620000" lon="7.250460000"><ele></ele><time>2013-8-8T3:0:58Z</time></trkpt>
<trkpt lat="46.212630000" lon="7.250460000"><ele></ele><time>2013-8-8T3:1:1Z</time></trkpt>
<trkpt lat="46.212650000" lon="7.250460000"><ele></ele><time>2013-8-8T3:1:4Z</time></trkpt>
<trkpt lat="46.212660000" lon="7.250450000"><ele></ele><time>2013-8-8T3:1:7Z</time></trkpt>
<trkpt lat="46.212720000" lon="7.250450000"><ele></ele><time>2013-8-8T3:1:10Z</time></trkpt>
<trkpt lat="46.212740000" lon="7.250460000"><ele></ele><time>2013-8-8T3:1:13Z</time></trkpt>
<trkpt lat="46.212760000" lon="7.250470000"><ele></ele><time>2013-8-8T3:1:16Z</time></trkpt>
<trkpt lat="46.212780000" lon="7.250460000"><ele></ele><time>2013-8-8T3:1:19Z</time></trkpt>
<trkpt lat="46.212790000" lon="7.250460000"><ele></ele><time>2013-8-8T3:1:22Z</time></trkpt>
<trkpt lat="46.212810000" lon="7.250460000"><ele></ele><time>2013-8-8T3:1:25Z</time></trkpt>
<trkpt lat="46.212860000" lon="7.250450000"><ele></ele><time>2013-8-8T3:1:28Z</time></trkpt>
<trkpt lat="46.212880000" lon="7.250460000"><ele></ele><time>2013-8-8T3:1:31Z</time></trkpt>
<trkpt lat="46.212890000" lon="7.250460000"><ele></ele><time>2013-8-8T3:1:34Z</time></trkpt>
<trkpt lat="46.212910000" lon="7.250460000"><ele></ele><time>2013-8-8T3:1:37Z</time></trkpt>
<trkpt lat="46.212920000" lon="7.250470000"><ele></ele><time>2013-8-8T3:1:40Z</time></trkpt>
<trkpt lat="46.212960000" lon="7.250470000"><ele></ele><time>2013-8-8T3:1:43Z</time></trkpt>
<trkpt lat="46.212970000" lon="7.250460000"><ele></ele><time>2013-8-8T3:1:46Z</time></trkpt>
<trkpt lat="46.212990000" lon="7.250470000"><ele></ele><time>2013-8-8T3:1:49Z</time></trkpt>
<trkpt lat="46.213010000" lon="7.250480000"><ele></ele><time>2013-8-8T3:1:52Z</time></trkpt>
<trkpt lat="46.213070000" lon="7.250520000"><ele></ele><time>2013-8-8T3:1:55Z</time></trkpt>
<trkpt lat="46.213090000" lon="7.250530000"><ele></ele><time>2013-8-8T3:1:58Z</time></trkpt>
<trkpt lat="46.213100000" lon="7.250540000"><ele></ele><time>2013-8-8T3:2:1Z</time></trkpt>
<trkpt lat="46.213120000" lon="7.250550000"><ele></ele><time>2013-8-8T3:2:4Z</time></trkpt>
<trkpt lat="46.213130000" lon="7.250560000"><ele></ele><time>2013-8-8T3:2:7Z</time></trkpt>
<trkpt lat="46.213170000" lon="7.250570000"><ele></ele><time>2013-8-8T3:2:10Z</time></trkpt>
<trkpt lat="46.213180000" lon="7.250580000"><ele></ele><time>2013-8-8T3:2:13Z</time></trkpt>
<trkpt lat="46.213200000" lon="7.250600000"><ele></ele><time>2013-8-8T3:2:16Z</time></trkpt>
<trkpt lat="46.213210000" lon="7.250600000"><ele></ele><time>2013-8-8T3:2:19Z</time></trkpt>
<trkpt lat="46.213230000" lon="7.250600000"><ele></ele><time>2013-8-8T3:2:22Z</time></trkpt>
<trkpt lat="46.213240000" lon="7.250610000"><ele></ele><time>2013-8-8T3:2:25Z</time></trkpt>
<trkpt lat="46.213260000" lon="7.250620000"><ele></ele><time>2013-8-8T3:2:28Z</time></trkpt>
<trkpt lat="46.213290000" lon="7.250630000"><ele></ele><time>2013-8-8T3:2:31Z</time></trkpt>
<trkpt lat="46.213300000" lon="7.250630000"><ele></ele><time>2013-8-8T3:2:34Z</time></trkpt>
<trkpt lat="46.213310000" lon="7.250640000"><ele></ele><time>2013-8-8T3:2:37Z</time></trkpt>
<trkpt lat="46.213330000" lon="7.250650000"><ele></ele><time>2013-8-8T3:2:40Z</time></trkpt>
<trkpt lat="46.213350000" lon="7.250650000"><ele></ele><time>2013-8-8T3:2:43Z</time></trkpt>
<trkpt lat="46.213370000" lon="7.250660000"><ele></ele><time>2013-8-8T3:2:46Z</time></trkpt>
<trkpt lat="46.213380000" lon="7.250670000"><ele></ele><time>2013-8-8T3:2:49Z</time></trkpt>
<trkpt lat="46.213400000" lon="7.250660000"><ele></ele><time>2013-8-8T3:2:52Z</time></trkpt>
<trkpt lat="46.213410000" lon="7.250670000"><ele></ele><time>2013-8-8T3:2:55Z</time></trkpt>
<trkpt lat="46.213430000" lon="7.250670000"><ele></ele><time>2013-8-8T3:2:58Z</time></trkpt>
<trkpt lat="46.213450000" lon="7.250660000"><ele></ele><time>2013-8-8T3:3:1Z</time></trkpt>
<trkpt lat="46.213460000" lon="7.250660000"><ele></ele><time>2013-8-8T3:3:4Z</time></trkpt>
<trkpt lat="46.213480000" lon="7.250650000"><ele></ele><time>2013-8-8T3:3:7Z</time></trkpt>
<trkpt lat="46.213490000" lon="7.250650000"><ele></ele><time>2013-8-8T3:3:10Z</time></trkpt>
<trkpt lat="46.213500000" lon="7.250630000"><ele></ele><time>2013-8-8T3:3:13Z</time></trkpt>
<trkpt lat="46.213520000" lon="7.250630000"><ele></ele><time>2013-8-8T3:3:16Z</time></trkpt>
<trkpt lat="46.213530000" lon="7.250620000"><ele></ele><time>2013-8-8T3:3:19Z</time></trkpt>
<trkpt lat="46.213560000" lon="7.250600000"><ele></ele><time>2013-8-8T3:3:22Z</time></trkpt>
<trkpt lat="46.213570000" lon="7.250590000"><ele></ele><time>2013-8-8T3:3:25Z</time></trkpt>
<trkpt lat="46.213560000" lon="7.250570000"><ele></ele><time>2013-8-8T3:3:28Z</time></trkpt>
<trkpt lat="46.213570000" lon="7.250540000"><ele></ele><time>2013-8-8T3:3:31Z</time></trkpt>
<trkpt lat="46.213580000" lon="7.250530000"><ele></ele><time>2013-8-8T3:3:34Z</time></trkpt>
<trkpt lat="46.213590000" lon="7.250520000"><ele></ele><time>2013-8-8T3:3:37Z</time></trkpt>
<trkpt lat="46.213630000" lon="7.250490000"><ele></ele><time>2013-8-8T3:3:40Z</time></trkpt>
<trkpt lat="46.213640000" lon="7.250460000"><ele></ele><time>2013-8-8T3:3:43Z</time></trkpt>
<trkpt lat="46.213640000" lon="7.250440000"><ele></ele><time>2013-8-8T3:3:46Z</time></trkpt>
<trkpt lat="46.213650000" lon="7.250430000"><ele></ele><time>2013-8-8T3:3:49Z</time></trkpt>
<trkpt lat="46.213670000" lon="7.250420000"><ele></ele><time>2013-8-8T3:3:52Z</time></trkpt>
<trkpt lat="46.213680000" lon="7.250420000"><ele></ele><time>2013-8-8T3:3:55Z</time></trkpt>
<trkpt lat="46.213730000" lon="7.250370000"><ele></ele><time>2013-8-8T3:3:58Z</time></trkpt>
<trkpt lat="46.213730000" lon="7.250350000"><ele></ele><time>2013-8-8T3:4:1Z</time></trkpt>
<trkpt lat="46.213750000" lon="7.250350000"><ele></ele><time>2013-8-8T3:4:4Z</time></trkpt>
<trkpt lat="46.213750000" lon="7.250340000"><ele></ele><time>2013-8-8T3:4:7Z</time></trkpt>
<trkpt lat="46.213770000" lon="7.250330000"><ele></ele><time>2013-8-8T3:4:10Z</time></trkpt>
<trkpt lat="46.213780000" lon="7.250320000"><ele></ele><time>2013-8-8T3:4:13Z</time></trkpt>
<trkpt lat="46.213790000" lon="7.250300000"><ele></ele><time>2013-8-8T3:4:16Z</time></trkpt>
<trkpt lat="46.213790000" lon="7.250290000"><ele></ele><time>2013-8-8T3:4:19Z</time></trkpt>
<trkpt lat="46.213800000" lon="7.250280000"><ele></ele><time>2013-8-8T3:4:22Z</time></trkpt>
<trkpt lat="46.213800000" lon="7.250260000"><ele></ele><time>2013-8-8T3:4:25Z</time></trkpt>
<trkpt lat="46.213820000" lon="7.250220000"><ele></ele><time>2013-8-8T3:4:28Z</time></trkpt>
<trkpt lat="46.213860000" lon="7.250180000"><ele></ele><time>2013-8-8T3:4:31Z</time></trkpt>
<trkpt lat="46.213870000" lon="7.250170000"><ele></ele><time>2013-8-8T3:4:34Z</time></trkpt>
<trkpt lat="46.213890000" lon="7.250150000"><ele></ele><time>2013-8-8T3:4:37Z</time></trkpt>
<trkpt lat="46.213900000" lon="7.250120000"><ele></ele><time>2013-8-8T3:4:40Z</time></trkpt>
<trkpt lat="46.213910000" lon="7.250100000"><ele></ele><time>2013-8-8T3:4:43Z</time></trkpt>
<trkpt lat="46.213920000" lon="7.250090000"><ele></ele><time>2013-8-8T3:4:46Z</time></trkpt>
<trkpt lat="46.213950000" lon="7.250080000"><ele></ele><time>2013-8-8T3:4:49Z</time></trkpt>
<trkpt lat="46.213960000" lon="7.250080000"><ele></ele><time>2013-8-8T3:4:52Z</time></trkpt>
<trkpt lat="46.213980000" lon="7.250060000"><ele></ele><time>2013-8-8T3:4:55Z</time></trkpt>
<trkpt lat="46.214020000" lon="7.250050000"><ele></ele><time>2013-8-8T3:4:58Z</time></trkpt>
<trkpt lat="46.214100000" lon="7.250030000"><ele></ele><time>2013-8-8T3:5:1Z</time></trkpt>
<trkpt lat="46.214120000" lon="7.250020000"><ele></ele><time>2013-8-8T3:5:4Z</time></trkpt>
<trkpt lat="46.214140000" lon="7.250020000"><ele></ele><time>2013-8-8T3:5:7Z</time></trkpt>
<trkpt lat="46.214160000" lon="7.250020000"><ele></ele><time>2013-8-8T3:5:10Z</time></trkpt>
<trkpt lat="46.214170000" lon="7.250000000"><ele></ele><time>2013-8-8T3:5:13Z</time></trkpt>
<trkpt lat="46.214190000" lon="7.249980000"><ele></ele><time>2013-8-8T3:5:16Z</time></trkpt>
<trkpt lat="46.214200000" lon="7.249960000"><ele></ele><time>2013-8-8T3:5:19Z</time></trkpt>
<trkpt lat="46.214230000" lon="7.249950000"><ele></ele><time>2013-8-8T3:5:22Z</time></trkpt>
<trkpt lat="46.214270000" lon="7.249900000"><ele></ele><time>2013-8-8T3:5:25Z</time></trkpt>
<trkpt lat="46.214280000" lon="7.249890000"><ele></ele><time>2013-8-8T3:5:28Z</time></trkpt>
<trkpt lat="46.214290000" lon="7.249860000"><ele></ele><time>2013-8-8T3:5:31Z</time></trkpt>
<trkpt lat="46.214310000" lon="7.249850000"><ele></ele><time>2013-8-8T3:5:34Z</time></trkpt>
<trkpt lat="46.214330000" lon="7.249800000"><ele></ele><time>2013-8-8T3:5:37Z</time></trkpt>
<trkpt lat="46.214340000" lon="7.249760000"><ele></ele><time>2013-8-8T3:5:40Z</time></trkpt>
<trkpt lat="46.214340000" lon="7.249720000"><ele></ele><time>2013-8-8T3:5:43Z</time></trkpt>
<trkpt lat="46.214340000" lon="7.249700000"><ele></ele><time>2013-8-8T3:5:46Z</time></trkpt>
<trkpt lat="46.214350000" lon="7.249680000"><ele></ele><time>2013-8-8T3:5:49Z</time></trkpt>
<trkpt lat="46.214360000" lon="7.249660000"><ele></ele><time>2013-8-8T3:5:52Z</time></trkpt>
<trkpt lat="46.214370000" lon="7.249640000"><ele></ele><time>2013-8-8T3:5:55Z</time></trkpt>
<trkpt lat="46.214380000" lon="7.249560000"><ele></ele><time>2013-8-8T3:5:58Z</time></trkpt>
<trkpt lat="46.214390000" lon="7.249550000"><ele></ele><time>2013-8-8T3:6:1Z</time></trkpt>
<trkpt lat="46.214400000" lon="7.249530000"><ele></ele><time>2013-8-8T3:6:4Z</time></trkpt>
<trkpt lat="46.214420000" lon="7.249530000"><ele></ele><time>2013-8-8T3:6:7Z</time></trkpt>
<trkpt lat="46.214430000" lon="7.249520000"><ele></ele><time>2013-8-8T3:6:10Z</time></trkpt>
<trkpt lat="46.214440000" lon="7.249490000"><ele></ele><time>2013-8-8T3:6:13Z</time></trkpt>
<trkpt lat="46.214450000" lon="7.249430000"><ele></ele><time>2013-8-8T3:6:16Z</time></trkpt>
<trkpt lat="46.214470000" lon="7.249420000"><ele></ele><time>2013-8-8T3:6:19Z</time></trkpt>
<trkpt lat="46.214480000" lon="7.249410000"><ele></ele><time>2013-8-8T3:6:22Z</time></trkpt>
<trkpt lat="46.214500000" lon="7.249410000"><ele></ele><time>2013-8-8T3:6:25Z</time></trkpt>
<trkpt lat="46.214530000" lon="7.249370000"><ele></ele><time>2013-8-8T3:6:28Z</time></trkpt>
<trkpt lat="46.214540000" lon="7.249330000"><ele></ele><time>2013-8-8T3:6:31Z</time></trkpt>
<trkpt lat="46.214550000" lon="7.249320000"><ele></ele><time>2013-8-8T3:6:34Z</time></trkpt>
<trkpt lat="46.214560000" lon="7.249320000"><ele></ele><time>2013-8-8T3:6:37Z</time></trkpt>
<trkpt lat="46.214580000" lon="7.249310000"><ele></ele><time>2013-8-8T3:6:40Z</time></trkpt>
<trkpt lat="46.214590000" lon="7.249300000"><ele></ele><time>2013-8-8T3:6:43Z</time></trkpt>
<trkpt lat="46.214620000" lon="7.249270000"><ele></ele><time>2013-8-8T3:6:46Z</time></trkpt>
<trkpt lat="46.214630000" lon="7.249220000"><ele></ele><time>2013-8-8T3:6:49Z</time></trkpt>
<trkpt lat="46.214640000" lon="7.249200000"><ele></ele><time>2013-8-8T3:6:52Z</time></trkpt>
<trkpt lat="46.214660000" lon="7.249200000"><ele></ele><time>2013-8-8T3:6:55Z</time></trkpt>
<trkpt lat="46.214670000" lon="7.249210000"><ele></ele><time>2013-8-8T3:6:58Z</time></trkpt>
<trkpt lat="46.214690000" lon="7.249210000"><ele></ele><time>2013-8-8T3:7:1Z</time></trkpt>
<trkpt lat="46.214740000" lon="7.249150000"><ele></ele><time>2013-8-8T3:7:4Z</time></trkpt>
<trkpt lat="46.214750000" lon="7.249130000"><ele></ele><time>2013-8-8T3:7:7Z</time></trkpt>
<trkpt lat="46.214760000" lon="7.249110000"><ele></ele><time>2013-8-8T3:7:10Z</time></trkpt>
<trkpt lat="46.214770000" lon="7.249110000"><ele></ele><time>2013-8-8T3:7:13Z</time></trkpt>
<trkpt lat="46.214800000" lon="7.249080000"><ele></ele><time>2013-8-8T3:7:16Z</time></trkpt>
<trkpt lat="46.214830000" lon="7.249090000"><ele></ele><time>2013-8-8T3:7:19Z</time></trkpt>
<trkpt lat="46.214840000" lon="7.249110000"><ele></ele><time>2013-8-8T3:7:22Z</time></trkpt>
<trkpt lat="46.214860000" lon="7.249120000"><ele></ele><time>2013-8-8T3:7:25Z</time></trkpt>
<trkpt lat="46.214870000" lon="7.249130000"><ele></ele><time>2013-8-8T3:7:28Z</time></trkpt>
<trkpt lat="46.214880000" lon="7.249120000"><ele></ele><time>2013-8-8T3:7:31Z</time></trkpt>
<trkpt lat="46.214900000" lon="7.249090000"><ele></ele><time>2013-8-8T3:7:34Z</time></trkpt>
<trkpt lat="46.214920000" lon="7.249070000"><ele></ele><time>2013-8-8T3:7:37Z</time></trkpt>
<trkpt lat="46.214940000" lon="7.249060000"><ele></ele><time>2013-8-8T3:7:40Z</time></trkpt>
<trkpt lat="46.214960000" lon="7.249060000"><ele></ele><time>2013-8-8T3:7:43Z</time></trkpt>
<trkpt lat="46.214970000" lon="7.249050000"><ele></ele><time>2013-8-8T3:7:46Z</time></trkpt>
<trkpt lat="46.214980000" lon="7.249050000"><ele></ele><time>2013-8-8T3:7:49Z</time></trkpt>
<trkpt lat="46.215000000" lon="7.249040000"><ele></ele><time>2013-8-8T3:7:52Z</time></trkpt>
<trkpt lat="46.215010000" lon="7.249020000"><ele></ele><time>2013-8-8T3:7:55Z</time></trkpt>
<trkpt lat="46.215020000" lon="7.249010000"><ele></ele><time>2013-8-8T3:7:58Z</time></trkpt>
<trkpt lat="46.215030000" lon="7.249000000"><ele></ele><time>2013-8-8T3:8:1Z</time></trkpt>
<trkpt lat="46.215050000" lon="7.248970000"><ele></ele><time>2013-8-8T3:8:4Z</time></trkpt>
<trkpt lat="46.215070000" lon="7.248960000"><ele></ele><time>2013-8-8T3:8:7Z</time></trkpt>
<trkpt lat="46.215090000" lon="7.248960000"><ele></ele><time>2013-8-8T3:8:10Z</time></trkpt>
<trkpt lat="46.215100000" lon="7.248960000"><ele></ele><time>2013-8-8T3:8:13Z</time></trkpt>
<trkpt lat="46.215110000" lon="7.248950000"><ele></ele><time>2013-8-8T3:8:16Z</time></trkpt>
<trkpt lat="46.215150000" lon="7.248930000"><ele></ele><time>2013-8-8T3:8:19Z</time></trkpt>
<trkpt lat="46.215160000" lon="7.248930000"><ele></ele><time>2013-8-8T3:8:22Z</time></trkpt>
<trkpt lat="46.215180000" lon="7.248920000"><ele></ele><time>2013-8-8T3:8:25Z</time></trkpt>
<trkpt lat="46.215190000" lon="7.248910000"><ele></ele><time>2013-8-8T3:8:28Z</time></trkpt>
<trkpt lat="46.215190000" lon="7.248890000"><ele></ele><time>2013-8-8T3:8:31Z</time></trkpt>
<trkpt lat="46.215180000" lon="7.248880000"><ele></ele><time>2013-8-8T3:8:34Z</time></trkpt>
<trkpt lat="46.215160000" lon="7.248890000"><ele></ele><time>2013-8-8T3:8:37Z</time></trkpt>
<trkpt lat="46.215130000" lon="7.248920000"><ele></ele><time>2013-8-8T3:8:40Z</time></trkpt>
<trkpt lat="46.215060000" lon="7.248970000"><ele></ele><time>2013-8-8T3:8:43Z</time></trkpt>
<trkpt lat="46.214960000" lon="7.249060000"><ele></ele><time>2013-8-8T3:8:46Z</time></trkpt>
<trkpt lat="46.214940000" lon="7.249080000"><ele></ele><time>2013-8-8T3:8:49Z</time></trkpt>
<trkpt lat="46.214900000" lon="7.249090000"><ele></ele><time>2013-8-8T3:8:52Z</time></trkpt>
<trkpt lat="46.214870000" lon="7.249110000"><ele></ele><time>2013-8-8T3:8:55Z</time></trkpt>
<trkpt lat="46.214840000" lon="7.249130000"><ele></ele><time>2013-8-8T3:8:58Z</time></trkpt>
<trkpt lat="46.214810000" lon="7.249140000"><ele></ele><time>2013-8-8T3:9:1Z</time></trkpt>
<trkpt lat="46.214770000" lon="7.249150000"><ele></ele><time>2013-8-8T3:9:4Z</time></trkpt>
<trkpt lat="46.214740000" lon="7.249170000"><ele></ele><time>2013-8-8T3:9:7Z</time></trkpt>
<trkpt lat="46.214710000" lon="7.249190000"><ele></ele><time>2013-8-8T3:9:10Z</time></trkpt>
<trkpt lat="46.214670000" lon="7.249210000"><ele></ele><time>2013-8-8T3:9:13Z</time></trkpt>
<trkpt lat="46.214640000" lon="7.249240000"><ele></ele><time>2013-8-8T3:9:16Z</time></trkpt>
<trkpt lat="46.214610000" lon="7.249270000"><ele></ele><time>2013-8-8T3:9:19Z</time></trkpt>
<trkpt lat="46.214580000" lon="7.249310000"><ele></ele><time>2013-8-8T3:9:22Z</time></trkpt>
<trkpt lat="46.214540000" lon="7.249340000"><ele></ele><time>2013-8-8T3:9:25Z</time></trkpt>
<trkpt lat="46.214510000" lon="7.249370000"><ele></ele><time>2013-8-8T3:9:28Z</time></trkpt>
<trkpt lat="46.214480000" lon="7.249410000"><ele></ele><time>2013-8-8T3:9:31Z</time></trkpt>
<trkpt lat="46.214460000" lon="7.249450000"><ele></ele><time>2013-8-8T3:9:34Z</time></trkpt>
<trkpt lat="46.214440000" lon="7.249490000"><ele></ele><time>2013-8-8T3:9:37Z</time></trkpt>
<trkpt lat="46.214420000" lon="7.249520000"><ele></ele><time>2013-8-8T3:9:40Z</time></trkpt>
<trkpt lat="46.214390000" lon="7.249550000"><ele></ele><time>2013-8-8T3:9:43Z</time></trkpt>
<trkpt lat="46.214360000" lon="7.249550000"><ele></ele><time>2013-8-8T3:9:46Z</time></trkpt>
<trkpt lat="46.214340000" lon="7.249540000"><ele></ele><time>2013-8-8T3:9:49Z</time></trkpt>
<trkpt lat="46.214310000" lon="7.249510000"><ele></ele><time>2013-8-8T3:9:52Z</time></trkpt>
<trkpt lat="46.214290000" lon="7.249480000"><ele></ele><time>2013-8-8T3:9:55Z</time></trkpt>
<trkpt lat="46.214250000" lon="7.249360000"><ele></ele><time>2013-8-8T3:9:58Z</time></trkpt>
<trkpt lat="46.214210000" lon="7.249290000"><ele></ele><time>2013-8-8T3:10:1Z</time></trkpt>
<trkpt lat="46.214200000" lon="7.249270000"><ele></ele><time>2013-8-8T3:10:4Z</time></trkpt>
<trkpt lat="46.214180000" lon="7.249260000"><ele></ele><time>2013-8-8T3:10:7Z</time></trkpt>
<trkpt lat="46.214160000" lon="7.249240000"><ele></ele><time>2013-8-8T3:10:10Z</time></trkpt>
<trkpt lat="46.214150000" lon="7.249210000"><ele></ele><time>2013-8-8T3:10:13Z</time></trkpt>
<trkpt lat="46.214140000" lon="7.249180000"><ele></ele><time>2013-8-8T3:10:16Z</time></trkpt>
<trkpt lat="46.214130000" lon="7.249130000"><ele></ele><time>2013-8-8T3:10:19Z</time></trkpt>
<trkpt lat="46.214120000" lon="7.249100000"><ele></ele><time>2013-8-8T3:10:22Z</time></trkpt>
<trkpt lat="46.214120000" lon="7.249080000"><ele></ele><time>2013-8-8T3:10:25Z</time></trkpt>
<trkpt lat="46.214100000" lon="7.249060000"><ele></ele><time>2013-8-8T3:10:28Z</time></trkpt>
<trkpt lat="46.214090000" lon="7.249050000"><ele></ele><time>2013-8-8T3:10:31Z</time></trkpt>
<trkpt lat="46.214070000" lon="7.249020000"><ele></ele><time>2013-8-8T3:10:34Z</time></trkpt>
<trkpt lat="46.214060000" lon="7.249000000"><ele></ele><time>2013-8-8T3:10:37Z</time></trkpt>
<trkpt lat="46.214010000" lon="7.248910000"><ele></ele><time>2013-8-8T3:10:40Z</time></trkpt>
<trkpt lat="46.214000000" lon="7.248890000"><ele></ele><time>2013-8-8T3:10:43Z</time></trkpt>
<trkpt lat="46.213990000" lon="7.248870000"><ele></ele><time>2013-8-8T3:10:46Z</time></trkpt>
<trkpt lat="46.213970000" lon="7.248860000"><ele></ele><time>2013-8-8T3:10:49Z</time></trkpt>
<trkpt lat="46.213960000" lon="7.248830000"><ele></ele><time>2013-8-8T3:10:52Z</time></trkpt>
<trkpt lat="46.213900000" lon="7.248740000"><ele></ele><time>2013-8-8T3:10:55Z</time></trkpt>
<trkpt lat="46.213890000" lon="7.248730000"><ele></ele><time>2013-8-8T3:10:58Z</time></trkpt>
<trkpt lat="46.213880000" lon="7.248710000"><ele></ele><time>2013-8-8T3:11:1Z</time></trkpt>
<trkpt lat="46.213870000" lon="7.248690000"><ele></ele><time>2013-8-8T3:11:4Z</time></trkpt>
<trkpt lat="46.213860000" lon="7.248670000"><ele></ele><time>2013-8-8T3:11:7Z</time></trkpt>
<trkpt lat="46.213820000" lon="7.248620000"><ele></ele><time>2013-8-8T3:11:10Z</time></trkpt>
<trkpt lat="46.213730000" lon="7.248480000"><ele></ele><time>2013-8-8T3:11:13Z</time></trkpt>
<trkpt lat="46.213620000" lon="7.248370000"><ele></ele><time>2013-8-8T3:11:16Z</time></trkpt>
<trkpt lat="46.213520000" lon="7.248230000"><ele></ele><time>2013-8-8T3:11:19Z</time></trkpt>
<trkpt lat="46.213500000" lon="7.248210000"><ele></ele><time>2013-8-8T3:11:22Z</time></trkpt>
<trkpt lat="46.213470000" lon="7.248190000"><ele></ele><time>2013-8-8T3:11:25Z</time></trkpt>
<trkpt lat="46.213450000" lon="7.248170000"><ele></ele><time>2013-8-8T3:11:28Z</time></trkpt>
<trkpt lat="46.213430000" lon="7.248150000"><ele></ele><time>2013-8-8T3:11:31Z</time></trkpt>
<trkpt lat="46.213340000" lon="7.248070000"><ele></ele><time>2013-8-8T3:11:34Z</time></trkpt>
<trkpt lat="46.213320000" lon="7.248040000"><ele></ele><time>2013-8-8T3:11:37Z</time></trkpt>
<trkpt lat="46.213220000" lon="7.247920000"><ele></ele><time>2013-8-8T3:11:40Z</time></trkpt>
<trkpt lat="46.213200000" lon="7.247890000"><ele></ele><time>2013-8-8T3:11:43Z</time></trkpt>
<trkpt lat="46.213140000" lon="7.247800000"><ele></ele><time>2013-8-8T3:11:46Z</time></trkpt>
<trkpt lat="46.213040000" lon="7.247670000"><ele></ele><time>2013-8-8T3:11:49Z</time></trkpt>
<trkpt lat="46.212940000" lon="7.247540000"><ele></ele><time>2013-8-8T3:11:52Z</time></trkpt>
<trkpt lat="46.212880000" lon="7.247460000"><ele></ele><time>2013-8-8T3:11:55Z</time></trkpt>
<trkpt lat="46.212870000" lon="7.247440000"><ele></ele><time>2013-8-8T3:11:58Z</time></trkpt>
<trkpt lat="46.212860000" lon="7.247430000"><ele></ele><time>2013-8-8T3:12:1Z</time></trkpt>
<trkpt lat="46.212840000" lon="7.247440000"><ele></ele><time>2013-8-8T3:12:4Z</time></trkpt>
<trkpt lat="46.212840000" lon="7.247460000"><ele></ele><time>2013-8-8T3:12:7Z</time></trkpt>
<trkpt lat="46.212850000" lon="7.247480000"><ele></ele><time>2013-8-8T3:12:10Z</time></trkpt>
<trkpt lat="46.212900000" lon="7.247510000"><ele></ele><time>2013-8-8T3:12:13Z</time></trkpt>
<trkpt lat="46.212980000" lon="7.247630000"><ele></ele><time>2013-8-8T3:12:16Z</time></trkpt>
<trkpt lat="46.213010000" lon="7.247660000"><ele></ele><time>2013-8-8T3:12:19Z</time></trkpt>
<trkpt lat="46.213020000" lon="7.247680000"><ele></ele><time>2013-8-8T3:12:22Z</time></trkpt>
<trkpt lat="46.213080000" lon="7.247760000"><ele></ele><time>2013-8-8T3:12:25Z</time></trkpt>
<trkpt lat="46.213140000" lon="7.247840000"><ele></ele><time>2013-8-8T3:12:28Z</time></trkpt>
<trkpt lat="46.213160000" lon="7.247860000"><ele></ele><time>2013-8-8T3:12:31Z</time></trkpt>
<trkpt lat="46.213190000" lon="7.247900000"><ele></ele><time>2013-8-8T3:12:34Z</time></trkpt>
<trkpt lat="46.213270000" lon="7.248010000"><ele></ele><time>2013-8-8T3:12:37Z</time></trkpt>
<trkpt lat="46.213280000" lon="7.248020000"><ele></ele><time>2013-8-8T3:12:40Z</time></trkpt>
<trkpt lat="46.213320000" lon="7.248080000"><ele></ele><time>2013-8-8T3:12:43Z</time></trkpt>
<trkpt lat="46.213390000" lon="7.248150000"><ele></ele><time>2013-8-8T3:12:46Z</time></trkpt>
<trkpt lat="46.213520000" lon="7.248290000"><ele></ele><time>2013-8-8T3:12:49Z</time></trkpt>
<trkpt lat="46.213680000" lon="7.248460000"><ele></ele><time>2013-8-8T3:12:52Z</time></trkpt>
<trkpt lat="46.213830000" lon="7.248660000"><ele></ele><time>2013-8-8T3:12:55Z</time></trkpt>
<trkpt lat="46.213860000" lon="7.248700000"><ele></ele><time>2013-8-8T3:12:58Z</time></trkpt>
<trkpt lat="46.213890000" lon="7.248740000"><ele></ele><time>2013-8-8T3:13:1Z</time></trkpt>
<trkpt lat="46.213910000" lon="7.248780000"><ele></ele><time>2013-8-8T3:13:4Z</time></trkpt>
<trkpt lat="46.213990000" lon="7.248910000"><ele></ele><time>2013-8-8T3:13:7Z</time></trkpt>
<trkpt lat="46.214020000" lon="7.248960000"><ele></ele><time>2013-8-8T3:13:10Z</time></trkpt>
<trkpt lat="46.214050000" lon="7.249000000"><ele></ele><time>2013-8-8T3:13:13Z</time></trkpt>
<trkpt lat="46.214080000" lon="7.249050000"><ele></ele><time>2013-8-8T3:13:16Z</time></trkpt>
<trkpt lat="46.214100000" lon="7.249100000"><ele></ele><time>2013-8-8T3:13:19Z</time></trkpt>
<trkpt lat="46.214130000" lon="7.249130000"><ele></ele><time>2013-8-8T3:13:22Z</time></trkpt>
<trkpt lat="46.214150000" lon="7.249160000"><ele></ele><time>2013-8-8T3:13:25Z</time></trkpt>
<trkpt lat="46.214160000" lon="7.249190000"><ele></ele><time>2013-8-8T3:13:28Z</time></trkpt>
<trkpt lat="46.214180000" lon="7.249200000"><ele></ele><time>2013-8-8T3:13:31Z</time></trkpt>
<trkpt lat="46.214190000" lon="7.249220000"><ele></ele><time>2013-8-8T3:13:34Z</time></trkpt>
<trkpt lat="46.214200000" lon="7.249230000"><ele></ele><time>2013-8-8T3:13:37Z</time></trkpt>
<trkpt lat="46.214200000" lon="7.249220000"><ele></ele><time>2013-8-8T3:13:40Z</time></trkpt>
<trkpt lat="46.214200000" lon="7.249220000"><ele></ele><time>2013-8-8T3:13:43Z</time></trkpt>
<trkpt lat="46.214200000" lon="7.249220000"><ele></ele><time>2013-8-8T3:13:46Z</time></trkpt>
<trkpt lat="46.214200000" lon="7.249220000"><ele></ele><time>2013-8-8T3:13:49Z</time></trkpt>
<trkpt lat="46.214200000" lon="7.249220000"><ele></ele><time>2013-8-8T3:13:52Z</time></trkpt>
<trkpt lat="46.214200000" lon="7.249220000"><ele></ele><time>2013-8-8T3:13:55Z</time></trkpt>
<trkpt lat="46.214200000" lon="7.249220000"><ele></ele><time>2013-8-8T3:13:58Z</time></trkpt>
<trkpt lat="46.214200000" lon="7.249220000"><ele></ele><time>2013-8-8T3:14:1Z</time></trkpt>
<trkpt lat="46.214200000" lon="7.249220000"><ele></ele><time>2013-8-8T3:14:4Z</time></trkpt>
<trkpt lat="46.214200000" lon="7.249270000"><ele></ele><time>2013-8-8T3:14:7Z</time></trkpt>
<trkpt lat="46.214210000" lon="7.249310000"><ele></ele><time>2013-8-8T3:14:10Z</time></trkpt>
<trkpt lat="46.214230000" lon="7.249340000"><ele></ele><time>2013-8-8T3:14:13Z</time></trkpt>
<trkpt lat="46.214250000" lon="7.249380000"><ele></ele><time>2013-8-8T3:14:16Z</time></trkpt>
<trkpt lat="46.214270000" lon="7.249410000"><ele></ele><time>2013-8-8T3:14:19Z</time></trkpt>
<trkpt lat="46.214290000" lon="7.249430000"><ele></ele><time>2013-8-8T3:14:22Z</time></trkpt>
<trkpt lat="46.214300000" lon="7.249470000"><ele></ele><time>2013-8-8T3:14:25Z</time></trkpt>
<trkpt lat="46.214310000" lon="7.249520000"><ele></ele><time>2013-8-8T3:14:28Z</time></trkpt>
<trkpt lat="46.214320000" lon="7.249570000"><ele></ele><time>2013-8-8T3:14:31Z</time></trkpt>
<trkpt lat="46.214320000" lon="7.249620000"><ele></ele><time>2013-8-8T3:14:34Z</time></trkpt>
<trkpt lat="46.214330000" lon="7.249660000"><ele></ele><time>2013-8-8T3:14:37Z</time></trkpt>
<trkpt lat="46.214320000" lon="7.249710000"><ele></ele><time>2013-8-8T3:14:40Z</time></trkpt>
<trkpt lat="46.214310000" lon="7.249760000"><ele></ele><time>2013-8-8T3:14:43Z</time></trkpt>
<trkpt lat="46.214310000" lon="7.249810000"><ele></ele><time>2013-8-8T3:14:46Z</time></trkpt>
<trkpt lat="46.214290000" lon="7.249860000"><ele></ele><time>2013-8-8T3:14:49Z</time></trkpt>
<trkpt lat="46.214270000" lon="7.249910000"><ele></ele><time>2013-8-8T3:14:52Z</time></trkpt>
<trkpt lat="46.214240000" lon="7.249950000"><ele></ele><time>2013-8-8T3:14:55Z</time></trkpt>
<trkpt lat="46.214210000" lon="7.249960000"><ele></ele><time>2013-8-8T3:14:58Z</time></trkpt>
<trkpt lat="46.214190000" lon="7.249980000"><ele></ele><time>2013-8-8T3:15:1Z</time></trkpt>
<trkpt lat="46.214170000" lon="7.249990000"><ele></ele><time>2013-8-8T3:15:4Z</time></trkpt>
<trkpt lat="46.214150000" lon="7.250010000"><ele></ele><time>2013-8-8T3:15:7Z</time></trkpt>
<trkpt lat="46.214120000" lon="7.250010000"><ele></ele><time>2013-8-8T3:15:10Z</time></trkpt>
<trkpt lat="46.214100000" lon="7.250010000"><ele></ele><time>2013-8-8T3:15:13Z</time></trkpt>
<trkpt lat="46.214010000" lon="7.250020000"><ele></ele><time>2013-8-8T3:15:16Z</time></trkpt>
<trkpt lat="46.214000000" lon="7.250030000"><ele></ele><time>2013-8-8T3:15:19Z</time></trkpt>
<trkpt lat="46.213990000" lon="7.250050000"><ele></ele><time>2013-8-8T3:15:22Z</time></trkpt>
<trkpt lat="46.213970000" lon="7.250060000"><ele></ele><time>2013-8-8T3:15:25Z</time></trkpt>
<trkpt lat="46.213870000" lon="7.250150000"><ele></ele><time>2013-8-8T3:15:28Z</time></trkpt>
<trkpt lat="46.213830000" lon="7.250160000"><ele></ele><time>2013-8-8T3:15:31Z</time></trkpt>
<trkpt lat="46.213820000" lon="7.250180000"><ele></ele><time>2013-8-8T3:15:34Z</time></trkpt>
<trkpt lat="46.213810000" lon="7.250200000"><ele></ele><time>2013-8-8T3:15:37Z</time></trkpt>
<trkpt lat="46.213800000" lon="7.250230000"><ele></ele><time>2013-8-8T3:15:40Z</time></trkpt>
<trkpt lat="46.213790000" lon="7.250260000"><ele></ele><time>2013-8-8T3:15:43Z</time></trkpt>
<trkpt lat="46.213700000" lon="7.250370000"><ele></ele><time>2013-8-8T3:15:46Z</time></trkpt>
<trkpt lat="46.213670000" lon="7.250410000"><ele></ele><time>2013-8-8T3:15:49Z</time></trkpt>
<trkpt lat="46.213640000" lon="7.250440000"><ele></ele><time>2013-8-8T3:15:52Z</time></trkpt>
<trkpt lat="46.213610000" lon="7.250470000"><ele></ele><time>2013-8-8T3:15:55Z</time></trkpt>
<trkpt lat="46.213580000" lon="7.250510000"><ele></ele><time>2013-8-8T3:15:58Z</time></trkpt>
<trkpt lat="46.213560000" lon="7.250550000"><ele></ele><time>2013-8-8T3:16:1Z</time></trkpt>
<trkpt lat="46.213540000" lon="7.250580000"><ele></ele><time>2013-8-8T3:16:4Z</time></trkpt>
<trkpt lat="46.213520000" lon="7.250600000"><ele></ele><time>2013-8-8T3:16:7Z</time></trkpt>
<trkpt lat="46.213490000" lon="7.250620000"><ele></ele><time>2013-8-8T3:16:10Z</time></trkpt>
<trkpt lat="46.213460000" lon="7.250630000"><ele></ele><time>2013-8-8T3:16:13Z</time></trkpt>
<trkpt lat="46.213420000" lon="7.250630000"><ele></ele><time>2013-8-8T3:16:16Z</time></trkpt>
<trkpt lat="46.213390000" lon="7.250630000"><ele></ele><time>2013-8-8T3:16:19Z</time></trkpt>
<trkpt lat="46.213340000" lon="7.250630000"><ele></ele><time>2013-8-8T3:16:22Z</time></trkpt>
<trkpt lat="46.213300000" lon="7.250620000"><ele></ele><time>2013-8-8T3:16:25Z</time></trkpt>
<trkpt lat="46.213260000" lon="7.250600000"><ele></ele><time>2013-8-8T3:16:28Z</time></trkpt>
<trkpt lat="46.213230000" lon="7.250590000"><ele></ele><time>2013-8-8T3:16:31Z</time></trkpt>
<trkpt lat="46.213190000" lon="7.250570000"><ele></ele><time>2013-8-8T3:16:34Z</time></trkpt>
<trkpt lat="46.213150000" lon="7.250550000"><ele></ele><time>2013-8-8T3:16:37Z</time></trkpt>
<trkpt lat="46.213120000" lon="7.250540000"><ele></ele><time>2013-8-8T3:16:40Z</time></trkpt>
<trkpt lat="46.213090000" lon="7.250520000"><ele></ele><time>2013-8-8T3:16:43Z</time></trkpt>
<trkpt lat="46.213060000" lon="7.250500000"><ele></ele><time>2013-8-8T3:16:46Z</time></trkpt>
<trkpt lat="46.213020000" lon="7.250490000"><ele></ele><time>2013-8-8T3:16:49Z</time></trkpt>
<trkpt lat="46.212990000" lon="7.250470000"><ele></ele><time>2013-8-8T3:16:52Z</time></trkpt>
<trkpt lat="46.212950000" lon="7.250460000"><ele></ele><time>2013-8-8T3:16:55Z</time></trkpt>
<trkpt lat="46.212910000" lon="7.250450000"><ele></ele><time>2013-8-8T3:16:58Z</time></trkpt>
<trkpt lat="46.212880000" lon="7.250440000"><ele></ele><time>2013-8-8T3:17:1Z</time></trkpt>
<trkpt lat="46.212840000" lon="7.250440000"><ele></ele><time>2013-8-8T3:17:4Z</time></trkpt>
<trkpt lat="46.212800000" lon="7.250440000"><ele></ele><time>2013-8-8T3:17:7Z</time></trkpt>
<trkpt lat="46.212770000" lon="7.250430000"><ele></ele><time>2013-8-8T3:17:10Z</time></trkpt>
<trkpt lat="46.212730000" lon="7.250430000"><ele></ele><time>2013-8-8T3:17:13Z</time></trkpt>
<trkpt lat="46.212700000" lon="7.250420000"><ele></ele><time>2013-8-8T3:17:16Z</time></trkpt>
<trkpt lat="46.212670000" lon="7.250410000"><ele></ele><time>2013-8-8T3:17:19Z</time></trkpt>
<trkpt lat="46.212630000" lon="7.250400000"><ele></ele><time>2013-8-8T3:17:22Z</time></trkpt>
<trkpt lat="46.212600000" lon="7.250390000"><ele></ele><time>2013-8-8T3:17:25Z</time></trkpt>
<trkpt lat="46.212570000" lon="7.250370000"><ele></ele><time>2013-8-8T3:17:28Z</time></trkpt>
<trkpt lat="46.212540000" lon="7.250350000"><ele></ele><time>2013-8-8T3:17:31Z</time></trkpt>
<trkpt lat="46.212520000" lon="7.250330000"><ele></ele><time>2013-8-8T3:17:34Z</time></trkpt>
<trkpt lat="46.212490000" lon="7.250320000"><ele></ele><time>2013-8-8T3:17:37Z</time></trkpt>
<trkpt lat="46.212460000" lon="7.250300000"><ele></ele><time>2013-8-8T3:17:40Z</time></trkpt>
<trkpt lat="46.212440000" lon="7.250290000"><ele></ele><time>2013-8-8T3:17:43Z</time></trkpt>
<trkpt lat="46.212420000" lon="7.250260000"><ele></ele><time>2013-8-8T3:17:46Z</time></trkpt>
<trkpt lat="46.212400000" lon="7.250230000"><ele></ele><time>2013-8-8T3:17:49Z</time></trkpt>
<trkpt lat="46.212380000" lon="7.250190000"><ele></ele><time>2013-8-8T3:17:52Z</time></trkpt>
<trkpt lat="46.212350000" lon="7.250150000"><ele></ele><time>2013-8-8T3:17:55Z</time></trkpt>
<trkpt lat="46.212330000" lon="7.250120000"><ele></ele><time>2013-8-8T3:17:58Z</time></trkpt>
<trkpt lat="46.212300000" lon="7.250090000"><ele></ele><time>2013-8-8T3:18:1Z</time></trkpt>
<trkpt lat="46.212280000" lon="7.250070000"><ele></ele><time>2013-8-8T3:18:4Z</time></trkpt>
<trkpt lat="46.212270000" lon="7.250060000"><ele></ele><time>2013-8-8T3:18:7Z</time></trkpt>
<trkpt lat="46.212240000" lon="7.250050000"><ele></ele><time>2013-8-8T3:18:10Z</time></trkpt>
<trkpt lat="46.212220000" lon="7.250030000"><ele></ele><time>2013-8-8T3:18:13Z</time></trkpt>
<trkpt lat="46.212190000" lon="7.250020000"><ele></ele><time>2013-8-8T3:18:16Z</time></trkpt>
<trkpt lat="46.212170000" lon="7.250010000"><ele></ele><time>2013-8-8T3:18:19Z</time></trkpt>
<trkpt lat="46.212150000" lon="7.249990000"><ele></ele><time>2013-8-8T3:18:22Z</time></trkpt>
<trkpt lat="46.212120000" lon="7.249970000"><ele></ele><time>2013-8-8T3:18:25Z</time></trkpt>
<trkpt lat="46.212100000" lon="7.249950000"><ele></ele><time>2013-8-8T3:18:28Z</time></trkpt>
<trkpt lat="46.212070000" lon="7.249930000"><ele></ele><time>2013-8-8T3:18:31Z</time></trkpt>
<trkpt lat="46.212050000" lon="7.249920000"><ele></ele><time>2013-8-8T3:18:34Z</time></trkpt>
<trkpt lat="46.212030000" lon="7.249910000"><ele></ele><time>2013-8-8T3:18:37Z</time></trkpt>
<trkpt lat="46.212000000" lon="7.249900000"><ele></ele><time>2013-8-8T3:18:40Z</time></trkpt>
<trkpt lat="46.211980000" lon="7.249890000"><ele></ele><time>2013-8-8T3:18:43Z</time></trkpt>
<trkpt lat="46.211960000" lon="7.249870000"><ele></ele><time>2013-8-8T3:18:46Z</time></trkpt>
<trkpt lat="46.211940000" lon="7.249870000"><ele></ele><time>2013-8-8T3:18:49Z</time></trkpt>
<trkpt lat="46.211910000" lon="7.249850000"><ele></ele><time>2013-8-8T3:18:52Z</time></trkpt>
<trkpt lat="46.211880000" lon="7.249830000"><ele></ele><time>2013-8-8T3:18:55Z</time></trkpt>
<trkpt lat="46.211850000" lon="7.249820000"><ele></ele><time>2013-8-8T3:18:58Z</time></trkpt>
<trkpt lat="46.211820000" lon="7.249800000"><ele></ele><time>2013-8-8T3:19:1Z</time></trkpt>
<trkpt lat="46.211800000" lon="7.249780000"><ele></ele><time>2013-8-8T3:19:4Z</time></trkpt>
<trkpt lat="46.211770000" lon="7.249770000"><ele></ele><time>2013-8-8T3:19:7Z</time></trkpt>
<trkpt lat="46.211750000" lon="7.249760000"><ele></ele><time>2013-8-8T3:19:10Z</time></trkpt>
<trkpt lat="46.211720000" lon="7.249750000"><ele></ele><time>2013-8-8T3:19:13Z</time></trkpt>
<trkpt lat="46.211700000" lon="7.249740000"><ele></ele><time>2013-8-8T3:19:16Z</time></trkpt>
<trkpt lat="46.211680000" lon="7.249720000"><ele></ele><time>2013-8-8T3:19:19Z</time></trkpt>
<trkpt lat="46.211650000" lon="7.249700000"><ele></ele><time>2013-8-8T3:19:22Z</time></trkpt>
<trkpt lat="46.211630000" lon="7.249680000"><ele></ele><time>2013-8-8T3:19:25Z</time></trkpt>
<trkpt lat="46.211610000" lon="7.249660000"><ele></ele><time>2013-8-8T3:19:28Z</time></trkpt>
<trkpt lat="46.211590000" lon="7.249630000"><ele></ele><time>2013-8-8T3:19:31Z</time></trkpt>
<trkpt lat="46.211580000" lon="7.249610000"><ele></ele><time>2013-8-8T3:19:34Z</time></trkpt>
<trkpt lat="46.211570000" lon="7.249580000"><ele></ele><time>2013-8-8T3:19:37Z</time></trkpt>
<trkpt lat="46.211550000" lon="7.249550000"><ele></ele><time>2013-8-8T3:19:40Z</time></trkpt>
<trkpt lat="46.211530000" lon="7.249510000"><ele></ele><time>2013-8-8T3:19:43Z</time></trkpt>
<trkpt lat="46.211510000" lon="7.249470000"><ele></ele><time>2013-8-8T3:19:46Z</time></trkpt>
<trkpt lat="46.211490000" lon="7.249420000"><ele></ele><time>2013-8-8T3:19:49Z</time></trkpt>
<trkpt lat="46.211470000" lon="7.249380000"><ele></ele><time>2013-8-8T3:19:52Z</time></trkpt>
<trkpt lat="46.211460000" lon="7.249340000"><ele></ele><time>2013-8-8T3:19:55Z</time></trkpt>
<trkpt lat="46.211440000" lon="7.249300000"><ele></ele><time>2013-8-8T3:19:58Z</time></trkpt>
<trkpt lat="46.211420000" lon="7.249280000"><ele></ele><time>2013-8-8T3:20:1Z</time></trkpt>
<trkpt lat="46.211410000" lon="7.249270000"><ele></ele><time>2013-8-8T3:20:4Z</time></trkpt>
<trkpt lat="46.211400000" lon="7.249260000"><ele></ele><time>2013-8-8T3:20:7Z</time></trkpt>
<trkpt lat="46.211380000" lon="7.249260000"><ele></ele><time>2013-8-8T3:20:10Z</time></trkpt>
<trkpt lat="46.211340000" lon="7.249270000"><ele></ele><time>2013-8-8T3:20:13Z</time></trkpt>
<trkpt lat="46.211320000" lon="7.249260000"><ele></ele><time>2013-8-8T3:20:16Z</time></trkpt>
<trkpt lat="46.211300000" lon="7.249250000"><ele></ele><time>2013-8-8T3:20:19Z</time></trkpt>
<trkpt lat="46.211270000" lon="7.249240000"><ele></ele><time>2013-8-8T3:20:22Z</time></trkpt>
<trkpt lat="46.211250000" lon="7.249220000"><ele></ele><time>2013-8-8T3:20:25Z</time></trkpt>
<trkpt lat="46.211230000" lon="7.249200000"><ele></ele><time>2013-8-8T3:20:28Z</time></trkpt>
<trkpt lat="46.211200000" lon="7.249170000"><ele></ele><time>2013-8-8T3:20:31Z</time></trkpt>
<trkpt lat="46.211180000" lon="7.249150000"><ele></ele><time>2013-8-8T3:20:34Z</time></trkpt>
<trkpt lat="46.211160000" lon="7.249130000"><ele></ele><time>2013-8-8T3:20:37Z</time></trkpt>
<trkpt lat="46.211140000" lon="7.249110000"><ele></ele><time>2013-8-8T3:20:40Z</time></trkpt>
<trkpt lat="46.211110000" lon="7.249100000"><ele></ele><time>2013-8-8T3:20:43Z</time></trkpt>
<trkpt lat="46.211080000" lon="7.249100000"><ele></ele><time>2013-8-8T3:20:46Z</time></trkpt>
<trkpt lat="46.211050000" lon="7.249100000"><ele></ele><time>2013-8-8T3:20:49Z</time></trkpt>
<trkpt lat="46.211010000" lon="7.249090000"><ele></ele><time>2013-8-8T3:20:52Z</time></trkpt>
<trkpt lat="46.210980000" lon="7.249090000"><ele></ele><time>2013-8-8T3:20:55Z</time></trkpt>
<trkpt lat="46.210950000" lon="7.249090000"><ele></ele><time>2013-8-8T3:20:58Z</time></trkpt>
<trkpt lat="46.210920000" lon="7.249080000"><ele></ele><time>2013-8-8T3:21:1Z</time></trkpt>
<trkpt lat="46.210880000" lon="7.249070000"><ele></ele><time>2013-8-8T3:21:4Z</time></trkpt>
<trkpt lat="46.210850000" lon="7.249070000"><ele></ele><time>2013-8-8T3:21:7Z</time></trkpt>
<trkpt lat="46.210810000" lon="7.249060000"><ele></ele><time>2013-8-8T3:21:10Z</time></trkpt>
<trkpt lat="46.210780000" lon="7.249060000"><ele></ele><time>2013-8-8T3:21:13Z</time></trkpt>
<trkpt lat="46.210750000" lon="7.249050000"><ele></ele><time>2013-8-8T3:21:16Z</time></trkpt>
<trkpt lat="46.210720000" lon="7.249040000"><ele></ele><time>2013-8-8T3:21:19Z</time></trkpt>
<trkpt lat="46.210690000" lon="7.249030000"><ele></ele><time>2013-8-8T3:21:22Z</time></trkpt>
<trkpt lat="46.210670000" lon="7.249020000"><ele></ele><time>2013-8-8T3:21:25Z</time></trkpt>
<trkpt lat="46.210640000" lon="7.249000000"><ele></ele><time>2013-8-8T3:21:28Z</time></trkpt>
<trkpt lat="46.210610000" lon="7.248990000"><ele></ele><time>2013-8-8T3:21:31Z</time></trkpt>
<trkpt lat="46.210580000" lon="7.248970000"><ele></ele><time>2013-8-8T3:21:34Z</time></trkpt>
<trkpt lat="46.210560000" lon="7.248960000"><ele></ele><time>2013-8-8T3:21:37Z</time></trkpt>
<trkpt lat="46.210530000" lon="7.248940000"><ele></ele><time>2013-8-8T3:21:40Z</time></trkpt>
<trkpt lat="46.210490000" lon="7.248920000"><ele></ele><time>2013-8-8T3:21:43Z</time></trkpt>
<trkpt lat="46.210460000" lon="7.248900000"><ele></ele><time>2013-8-8T3:21:46Z</time></trkpt>
<trkpt lat="46.210430000" lon="7.248870000"><ele></ele><time>2013-8-8T3:21:49Z</time></trkpt>
<trkpt lat="46.210410000" lon="7.248840000"><ele></ele><time>2013-8-8T3:21:52Z</time></trkpt>
<trkpt lat="46.210380000" lon="7.248810000"><ele></ele><time>2013-8-8T3:21:55Z</time></trkpt>
<trkpt lat="46.210350000" lon="7.248790000"><ele></ele><time>2013-8-8T3:21:58Z</time></trkpt>
<trkpt lat="46.210320000" lon="7.248760000"><ele></ele><time>2013-8-8T3:22:1Z</time></trkpt>
<trkpt lat="46.210300000" lon="7.248740000"><ele></ele><time>2013-8-8T3:22:4Z</time></trkpt>
<trkpt lat="46.210270000" lon="7.248710000"><ele></ele><time>2013-8-8T3:22:7Z</time></trkpt>
<trkpt lat="46.210250000" lon="7.248680000"><ele></ele><time>2013-8-8T3:22:10Z</time></trkpt>
<trkpt lat="46.210220000" lon="7.248660000"><ele></ele><time>2013-8-8T3:22:13Z</time></trkpt>
<trkpt lat="46.210200000" lon="7.248620000"><ele></ele><time>2013-8-8T3:22:16Z</time></trkpt>
<trkpt lat="46.210170000" lon="7.248590000"><ele></ele><time>2013-8-8T3:22:19Z</time></trkpt>
<trkpt lat="46.210120000" lon="7.248560000"><ele></ele><time>2013-8-8T3:22:22Z</time></trkpt>
<trkpt lat="46.210090000" lon="7.248530000"><ele></ele><time>2013-8-8T3:22:25Z</time></trkpt>
<trkpt lat="46.210050000" lon="7.248510000"><ele></ele><time>2013-8-8T3:22:28Z</time></trkpt>
<trkpt lat="46.210010000" lon="7.248490000"><ele></ele><time>2013-8-8T3:22:31Z</time></trkpt>
<trkpt lat="46.209970000" lon="7.248470000"><ele></ele><time>2013-8-8T3:22:34Z</time></trkpt>
<trkpt lat="46.209920000" lon="7.248450000"><ele></ele><time>2013-8-8T3:22:37Z</time></trkpt>
<trkpt lat="46.209880000" lon="7.248430000"><ele></ele><time>2013-8-8T3:22:40Z</time></trkpt>
<trkpt lat="46.209830000" lon="7.248410000"><ele></ele><time>2013-8-8T3:22:43Z</time></trkpt>
<trkpt lat="46.209790000" lon="7.248410000"><ele></ele><time>2013-8-8T3:22:46Z</time></trkpt>
<trkpt lat="46.209760000" lon="7.248410000"><ele></ele><time>2013-8-8T3:22:49Z</time></trkpt>
<trkpt lat="46.209710000" lon="7.248400000"><ele></ele><time>2013-8-8T3:22:52Z</time></trkpt>
<trkpt lat="46.209670000" lon="7.248410000"><ele></ele><time>2013-8-8T3:22:55Z</time></trkpt>
<trkpt lat="46.209630000" lon="7.248410000"><ele></ele><time>2013-8-8T3:22:58Z</time></trkpt>
<trkpt lat="46.209590000" lon="7.248420000"><ele></ele><time>2013-8-8T3:23:1Z</time></trkpt>
<trkpt lat="46.209550000" lon="7.248420000"><ele></ele><time>2013-8-8T3:23:4Z</time></trkpt>
<trkpt lat="46.209510000" lon="7.248420000"><ele></ele><time>2013-8-8T3:23:7Z</time></trkpt>
<trkpt lat="46.209470000" lon="7.248430000"><ele></ele><time>2013-8-8T3:23:10Z</time></trkpt>
<trkpt lat="46.209430000" lon="7.248430000"><ele></ele><time>2013-8-8T3:23:13Z</time></trkpt>
<trkpt lat="46.209400000" lon="7.248430000"><ele></ele><time>2013-8-8T3:23:16Z</time></trkpt>
<trkpt lat="46.209370000" lon="7.248430000"><ele></ele><time>2013-8-8T3:23:19Z</time></trkpt>
<trkpt lat="46.209330000" lon="7.248420000"><ele></ele><time>2013-8-8T3:23:22Z</time></trkpt>
<trkpt lat="46.209290000" lon="7.248430000"><ele></ele><time>2013-8-8T3:23:25Z</time></trkpt>
<trkpt lat="46.209260000" lon="7.248420000"><ele></ele><time>2013-8-8T3:23:28Z</time></trkpt>
<trkpt lat="46.209220000" lon="7.248420000"><ele></ele><time>2013-8-8T3:23:31Z</time></trkpt>
<trkpt lat="46.209190000" lon="7.248410000"><ele></ele><time>2013-8-8T3:23:34Z</time></trkpt>
<trkpt lat="46.209160000" lon="7.248410000"><ele></ele><time>2013-8-8T3:23:37Z</time></trkpt>
<trkpt lat="46.209130000" lon="7.248400000"><ele></ele><time>2013-8-8T3:23:40Z</time></trkpt>
<trkpt lat="46.209090000" lon="7.248390000"><ele></ele><time>2013-8-8T3:23:43Z</time></trkpt>
<trkpt lat="46.209050000" lon="7.248370000"><ele></ele><time>2013-8-8T3:23:46Z</time></trkpt>
<trkpt lat="46.209010000" lon="7.248380000"><ele></ele><time>2013-8-8T3:23:49Z</time></trkpt>
<trkpt lat="46.208980000" lon="7.248420000"><ele></ele><time>2013-8-8T3:23:52Z</time></trkpt>
<trkpt lat="46.208980000" lon="7.248460000"><ele></ele><time>2013-8-8T3:23:55Z</time></trkpt>
<trkpt lat="46.208990000" lon="7.248500000"><ele></ele><time>2013-8-8T3:23:58Z</time></trkpt>
<trkpt lat="46.209010000" lon="7.248540000"><ele></ele><time>2013-8-8T3:24:1Z</time></trkpt>
<trkpt lat="46.209030000" lon="7.248580000"><ele></ele><time>2013-8-8T3:24:4Z</time></trkpt>
<trkpt lat="46.209050000" lon="7.248620000"><ele></ele><time>2013-8-8T3:24:7Z</time></trkpt>
<trkpt lat="46.209080000" lon="7.248650000"><ele></ele><time>2013-8-8T3:24:10Z</time></trkpt>
<trkpt lat="46.209100000" lon="7.248680000"><ele></ele><time>2013-8-8T3:24:13Z</time></trkpt>
<trkpt lat="46.209130000" lon="7.248710000"><ele></ele><time>2013-8-8T3:24:16Z</time></trkpt>
<trkpt lat="46.209150000" lon="7.248740000"><ele></ele><time>2013-8-8T3:24:19Z</time></trkpt>
<trkpt lat="46.209170000" lon="7.248770000"><ele></ele><time>2013-8-8T3:24:22Z</time></trkpt>
<trkpt lat="46.209190000" lon="7.248800000"><ele></ele><time>2013-8-8T3:24:25Z</time></trkpt>
<trkpt lat="46.209210000" lon="7.248840000"><ele></ele><time>2013-8-8T3:24:28Z</time></trkpt>
<trkpt lat="46.209230000" lon="7.248860000"><ele></ele><time>2013-8-8T3:24:31Z</time></trkpt>
<trkpt lat="46.209260000" lon="7.248880000"><ele></ele><time>2013-8-8T3:24:34Z</time></trkpt>
<trkpt lat="46.209270000" lon="7.248910000"><ele></ele><time>2013-8-8T3:24:37Z</time></trkpt>
<trkpt lat="46.209290000" lon="7.248940000"><ele></ele><time>2013-8-8T3:24:40Z</time></trkpt>
<trkpt lat="46.209310000" lon="7.248970000"><ele></ele><time>2013-8-8T3:24:43Z</time></trkpt>
<trkpt lat="46.209330000" lon="7.249000000"><ele></ele><time>2013-8-8T3:24:46Z</time></trkpt>
<trkpt lat="46.209340000" lon="7.249020000"><ele></ele><time>2013-8-8T3:24:49Z</time></trkpt>
<trkpt lat="46.209360000" lon="7.249050000"><ele></ele><time>2013-8-8T3:24:52Z</time></trkpt>
<trkpt lat="46.209370000" lon="7.249080000"><ele></ele><time>2013-8-8T3:24:55Z</time></trkpt>
<trkpt lat="46.209380000" lon="7.249110000"><ele></ele><time>2013-8-8T3:24:58Z</time></trkpt>
<trkpt lat="46.209390000" lon="7.249150000"><ele></ele><time>2013-8-8T3:25:1Z</time></trkpt>
<trkpt lat="46.209400000" lon="7.249190000"><ele></ele><time>2013-8-8T3:25:4Z</time></trkpt>
<trkpt lat="46.209410000" lon="7.249220000"><ele></ele><time>2013-8-8T3:25:7Z</time></trkpt>
<trkpt lat="46.209420000" lon="7.249260000"><ele></ele><time>2013-8-8T3:25:10Z</time></trkpt>
<trkpt lat="46.209420000" lon="7.249300000"><ele></ele><time>2013-8-8T3:25:13Z</time></trkpt>
<trkpt lat="46.209430000" lon="7.249330000"><ele></ele><time>2013-8-8T3:25:16Z</time></trkpt>
<trkpt lat="46.209440000" lon="7.249360000"><ele></ele><time>2013-8-8T3:25:19Z</time></trkpt>
<trkpt lat="46.209450000" lon="7.249390000"><ele></ele><time>2013-8-8T3:25:22Z</time></trkpt>
<trkpt lat="46.209450000" lon="7.249420000"><ele></ele><time>2013-8-8T3:25:25Z</time></trkpt>
<trkpt lat="46.209460000" lon="7.249460000"><ele></ele><time>2013-8-8T3:25:28Z</time></trkpt>
<trkpt lat="46.209470000" lon="7.249490000"><ele></ele><time>2013-8-8T3:25:31Z</time></trkpt>
<trkpt lat="46.209480000" lon="7.249530000"><ele></ele><time>2013-8-8T3:25:34Z</time></trkpt>
<trkpt lat="46.209480000" lon="7.249560000"><ele></ele><time>2013-8-8T3:25:37Z</time></trkpt>
<trkpt lat="46.209490000" lon="7.249600000"><ele></ele><time>2013-8-8T3:25:40Z</time></trkpt>
<trkpt lat="46.209500000" lon="7.249630000"><ele></ele><time>2013-8-8T3:25:43Z</time></trkpt>
<trkpt lat="46.209500000" lon="7.249660000"><ele></ele><time>2013-8-8T3:25:46Z</time></trkpt>
<trkpt lat="46.209500000" lon="7.249700000"><ele></ele><time>2013-8-8T3:25:49Z</time></trkpt>
<trkpt lat="46.209510000" lon="7.249730000"><ele></ele><time>2013-8-8T3:25:52Z</time></trkpt>
<trkpt lat="46.209520000" lon="7.249760000"><ele></ele><time>2013-8-8T3:25:55Z</time></trkpt>
<trkpt lat="46.209530000" lon="7.249800000"><ele></ele><time>2013-8-8T3:25:58Z</time></trkpt>
<trkpt lat="46.209550000" lon="7.249830000"><ele></ele><time>2013-8-8T3:26:1Z</time></trkpt>
<trkpt lat="46.209550000" lon="7.249870000"><ele></ele><time>2013-8-8T3:26:4Z</time></trkpt>
<trkpt lat="46.209560000" lon="7.249900000"><ele></ele><time>2013-8-8T3:26:7Z</time></trkpt>
<trkpt lat="46.209580000" lon="7.249930000"><ele></ele><time>2013-8-8T3:26:10Z</time></trkpt>
<trkpt lat="46.209590000" lon="7.249960000"><ele></ele><time>2013-8-8T3:26:13Z</time></trkpt>
<trkpt lat="46.209600000" lon="7.249990000"><ele></ele><time>2013-8-8T3:26:16Z</time></trkpt>
<trkpt lat="46.209610000" lon="7.250020000"><ele></ele><time>2013-8-8T3:26:19Z</time></trkpt>
<trkpt lat="46.209630000" lon="7.250050000"><ele></ele><time>2013-8-8T3:26:22Z</time></trkpt>
<trkpt lat="46.209640000" lon="7.250080000"><ele></ele><time>2013-8-8T3:26:25Z</time></trkpt>
<trkpt lat="46.209650000" lon="7.250100000"><ele></ele><time>2013-8-8T3:26:28Z</time></trkpt>
<trkpt lat="46.209660000" lon="7.250130000"><ele></ele><time>2013-8-8T3:26:31Z</time></trkpt>
<trkpt lat="46.209670000" lon="7.250160000"><ele></ele><time>2013-8-8T3:26:34Z</time></trkpt>
<trkpt lat="46.209680000" lon="7.250180000"><ele></ele><time>2013-8-8T3:26:37Z</time></trkpt>
<trkpt lat="46.209690000" lon="7.250210000"><ele></ele><time>2013-8-8T3:26:40Z</time></trkpt>
<trkpt lat="46.209700000" lon="7.250230000"><ele></ele><time>2013-8-8T3:26:43Z</time></trkpt>
<trkpt lat="46.209710000" lon="7.250260000"><ele></ele><time>2013-8-8T3:26:46Z</time></trkpt>
<trkpt lat="46.209720000" lon="7.250280000"><ele></ele><time>2013-8-8T3:26:49Z</time></trkpt>
<trkpt lat="46.209730000" lon="7.250310000"><ele></ele><time>2013-8-8T3:26:52Z</time></trkpt>
<trkpt lat="46.209740000" lon="7.250340000"><ele></ele><time>2013-8-8T3:26:55Z</time></trkpt>
<trkpt lat="46.209750000" lon="7.250370000"><ele></ele><time>2013-8-8T3:26:58Z</time></trkpt>
<trkpt lat="46.209760000" lon="7.250400000"><ele></ele><time>2013-8-8T3:27:1Z</time></trkpt>
<trkpt lat="46.209780000" lon="7.250430000"><ele></ele><time>2013-8-8T3:27:4Z</time></trkpt>
<trkpt lat="46.209800000" lon="7.250450000"><ele></ele><time>2013-8-8T3:27:7Z</time></trkpt>
<trkpt lat="46.209810000" lon="7.250480000"><ele></ele><time>2013-8-8T3:27:10Z</time></trkpt>
<trkpt lat="46.209830000" lon="7.250500000"><ele></ele><time>2013-8-8T3:27:13Z</time></trkpt>
<trkpt lat="46.209850000" lon="7.250520000"><ele></ele><time>2013-8-8T3:27:16Z</time></trkpt>
<trkpt lat="46.209860000" lon="7.250550000"><ele></ele><time>2013-8-8T3:27:19Z</time></trkpt>
<trkpt lat="46.209880000" lon="7.250580000"><ele></ele><time>2013-8-8T3:27:22Z</time></trkpt>
<trkpt lat="46.209890000" lon="7.250620000"><ele></ele><time>2013-8-8T3:27:25Z</time></trkpt>
<trkpt lat="46.209900000" lon="7.250660000"><ele></ele><time>2013-8-8T3:27:28Z</time></trkpt>
<trkpt lat="46.209910000" lon="7.250700000"><ele></ele><time>2013-8-8T3:27:31Z</time></trkpt>
<trkpt lat="46.209920000" lon="7.250740000"><ele></ele><time>2013-8-8T3:27:34Z</time></trkpt>
<trkpt lat="46.209930000" lon="7.250780000"><ele></ele><time>2013-8-8T3:27:37Z</time></trkpt>
<trkpt lat="46.209940000" lon="7.250820000"><ele></ele><time>2013-8-8T3:27:40Z</time></trkpt>
<trkpt lat="46.209950000" lon="7.250860000"><ele></ele><time>2013-8-8T3:27:43Z</time></trkpt>
<trkpt lat="46.209960000" lon="7.250900000"><ele></ele><time>2013-8-8T3:27:46Z</time></trkpt>
<trkpt lat="46.209980000" lon="7.250940000"><ele></ele><time>2013-8-8T3:27:49Z</time></trkpt>
<trkpt lat="46.209990000" lon="7.250980000"><ele></ele><time>2013-8-8T3:27:52Z</time></trkpt>
<trkpt lat="46.210000000" lon="7.251010000"><ele></ele><time>2013-8-8T3:27:55Z</time></trkpt>
<trkpt lat="46.210010000" lon="7.251050000"><ele></ele><time>2013-8-8T3:27:58Z</time></trkpt>
<trkpt lat="46.210020000" lon="7.251090000"><ele></ele><time>2013-8-8T3:28:1Z</time></trkpt>
<trkpt lat="46.210030000" lon="7.251130000"><ele></ele><time>2013-8-8T3:28:4Z</time></trkpt>
<trkpt lat="46.210030000" lon="7.251170000"><ele></ele><time>2013-8-8T3:28:7Z</time></trkpt>
<trkpt lat="46.210040000" lon="7.251210000"><ele></ele><time>2013-8-8T3:28:10Z</time></trkpt>
<trkpt lat="46.210050000" lon="7.251260000"><ele></ele><time>2013-8-8T3:28:13Z</time></trkpt>
<trkpt lat="46.210060000" lon="7.251300000"><ele></ele><time>2013-8-8T3:28:16Z</time></trkpt>
<trkpt lat="46.210080000" lon="7.251350000"><ele></ele><time>2013-8-8T3:28:19Z</time></trkpt>
<trkpt lat="46.210080000" lon="7.251400000"><ele></ele><time>2013-8-8T3:28:22Z</time></trkpt>
<trkpt lat="46.210090000" lon="7.251450000"><ele></ele><time>2013-8-8T3:28:25Z</time></trkpt>
<trkpt lat="46.210090000" lon="7.251500000"><ele></ele><time>2013-8-8T3:28:28Z</time></trkpt>
<trkpt lat="46.210100000" lon="7.251550000"><ele></ele><time>2013-8-8T3:28:31Z</time></trkpt>
<trkpt lat="46.210110000" lon="7.251600000"><ele></ele><time>2013-8-8T3:28:34Z</time></trkpt>
<trkpt lat="46.210120000" lon="7.251640000"><ele></ele><time>2013-8-8T3:28:37Z</time></trkpt>
<trkpt lat="46.210140000" lon="7.251700000"><ele></ele><time>2013-8-8T3:28:40Z</time></trkpt>
<trkpt lat="46.210160000" lon="7.251750000"><ele></ele><time>2013-8-8T3:28:43Z</time></trkpt>
<trkpt lat="46.210180000" lon="7.251800000"><ele></ele><time>2013-8-8T3:28:46Z</time></trkpt>
<trkpt lat="46.210210000" lon="7.251840000"><ele></ele><time>2013-8-8T3:28:49Z</time></trkpt>
<trkpt lat="46.210230000" lon="7.251890000"><ele></ele><time>2013-8-8T3:28:52Z</time></trkpt>
<trkpt lat="46.210260000" lon="7.251930000"><ele></ele><time>2013-8-8T3:28:55Z</time></trkpt>
<trkpt lat="46.210290000" lon="7.251970000"><ele></ele><time>2013-8-8T3:28:58Z</time></trkpt>
<trkpt lat="46.210320000" lon="7.252020000"><ele></ele><time>2013-8-8T3:29:1Z</time></trkpt>
<trkpt lat="46.210350000" lon="7.252060000"><ele></ele><time>2013-8-8T3:29:4Z</time></trkpt>
<trkpt lat="46.210380000" lon="7.252110000"><ele></ele><time>2013-8-8T3:29:7Z</time></trkpt>
<trkpt lat="46.210400000" lon="7.252160000"><ele></ele><time>2013-8-8T3:29:10Z</time></trkpt>
<trkpt lat="46.210430000" lon="7.252210000"><ele></ele><time>2013-8-8T3:29:13Z</time></trkpt>
<trkpt lat="46.210450000" lon="7.252260000"><ele></ele><time>2013-8-8T3:29:16Z</time></trkpt>
<trkpt lat="46.210480000" lon="7.252320000"><ele></ele><time>2013-8-8T3:29:19Z</time></trkpt>
<trkpt lat="46.210510000" lon="7.252370000"><ele></ele><time>2013-8-8T3:29:22Z</time></trkpt>
<trkpt lat="46.210530000" lon="7.252410000"><ele></ele><time>2013-8-8T3:29:25Z</time></trkpt>
<trkpt lat="46.210560000" lon="7.252450000"><ele></ele><time>2013-8-8T3:29:28Z</time></trkpt>
<trkpt lat="46.210590000" lon="7.252490000"><ele></ele><time>2013-8-8T3:29:31Z</time></trkpt>
<trkpt lat="46.210630000" lon="7.252520000"><ele></ele><time>2013-8-8T3:29:34Z</time></trkpt>
<trkpt lat="46.210670000" lon="7.252560000"><ele></ele><time>2013-8-8T3:29:37Z</time></trkpt>
<trkpt lat="46.210700000" lon="7.252590000"><ele></ele><time>2013-8-8T3:29:40Z</time></trkpt>
<trkpt lat="46.210750000" lon="7.252620000"><ele></ele><time>2013-8-8T3:29:43Z</time></trkpt>
<trkpt lat="46.210790000" lon="7.252640000"><ele></ele><time>2013-8-8T3:29:46Z</time></trkpt>
<trkpt lat="46.210830000" lon="7.252660000"><ele></ele><time>2013-8-8T3:29:49Z</time></trkpt>
<trkpt lat="46.210870000" lon="7.252690000"><ele></ele><time>2013-8-8T3:29:52Z</time></trkpt>
<trkpt lat="46.210920000" lon="7.252720000"><ele></ele><time>2013-8-8T3:29:55Z</time></trkpt>
<trkpt lat="46.210980000" lon="7.252760000"><ele></ele><time>2013-8-8T3:29:58Z</time></trkpt>
<trkpt lat="46.211040000" lon="7.252800000"><ele></ele><time>2013-8-8T3:30:1Z</time></trkpt>
<trkpt lat="46.211110000" lon="7.252840000"><ele></ele><time>2013-8-8T3:30:4Z</time></trkpt>
<trkpt lat="46.211180000" lon="7.252880000"><ele></ele><time>2013-8-8T3:30:7Z</time></trkpt>
<trkpt lat="46.211240000" lon="7.252930000"><ele></ele><time>2013-8-8T3:30:10Z</time></trkpt>
<trkpt lat="46.211300000" lon="7.252970000"><ele></ele><time>2013-8-8T3:30:13Z</time></trkpt>
<trkpt lat="46.211350000" lon="7.253020000"><ele></ele><time>2013-8-8T3:30:16Z</time></trkpt>
<trkpt lat="46.211500000" lon="7.253180000"><ele></ele><time>2013-8-8T3:30:19Z</time></trkpt>
<trkpt lat="46.211700000" lon="7.253420000"><ele></ele><time>2013-8-8T3:30:22Z</time></trkpt>
<trkpt lat="46.211740000" lon="7.253470000"><ele></ele><time>2013-8-8T3:30:25Z</time></trkpt>
<trkpt lat="46.211770000" lon="7.253520000"><ele></ele><time>2013-8-8T3:30:28Z</time></trkpt>
<trkpt lat="46.211990000" lon="7.253860000"><ele></ele><time>2013-8-8T3:30:31Z</time></trkpt>
<trkpt lat="46.212030000" lon="7.253920000"><ele></ele><time>2013-8-8T3:30:34Z</time></trkpt>
<trkpt lat="46.212070000" lon="7.253990000"><ele></ele><time>2013-8-8T3:30:37Z</time></trkpt>
<trkpt lat="46.212110000" lon="7.254060000"><ele></ele><time>2013-8-8T3:30:40Z</time></trkpt>
<trkpt lat="46.212150000" lon="7.254110000"><ele></ele><time>2013-8-8T3:30:43Z</time></trkpt>
<trkpt lat="46.212170000" lon="7.254170000"><ele></ele><time>2013-8-8T3:30:46Z</time></trkpt>
<trkpt lat="46.212150000" lon="7.254230000"><ele></ele><time>2013-8-8T3:30:49Z</time></trkpt>
<trkpt lat="46.212120000" lon="7.254260000"><ele></ele><time>2013-8-8T3:30:52Z</time></trkpt>
<trkpt lat="46.212080000" lon="7.254250000"><ele></ele><time>2013-8-8T3:30:55Z</time></trkpt>
<trkpt lat="46.212040000" lon="7.254210000"><ele></ele><time>2013-8-8T3:30:58Z</time></trkpt>
<trkpt lat="46.212000000" lon="7.254170000"><ele></ele><time>2013-8-8T3:31:1Z</time></trkpt>
<trkpt lat="46.211960000" lon="7.254130000"><ele></ele><time>2013-8-8T3:31:4Z</time></trkpt>
<trkpt lat="46.211930000" lon="7.254080000"><ele></ele><time>2013-8-8T3:31:7Z</time></trkpt>
<trkpt lat="46.211890000" lon="7.254030000"><ele></ele><time>2013-8-8T3:31:10Z</time></trkpt>
<trkpt lat="46.211850000" lon="7.253990000"><ele></ele><time>2013-8-8T3:31:13Z</time></trkpt>
<trkpt lat="46.211810000" lon="7.253950000"><ele></ele><time>2013-8-8T3:31:16Z</time></trkpt>
<trkpt lat="46.211760000" lon="7.253910000"><ele></ele><time>2013-8-8T3:31:19Z</time></trkpt>
<trkpt lat="46.211720000" lon="7.253860000"><ele></ele><time>2013-8-8T3:31:22Z</time></trkpt>
<trkpt lat="46.211670000" lon="7.253820000"><ele></ele><time>2013-8-8T3:31:25Z</time></trkpt>
<trkpt lat="46.211620000" lon="7.253790000"><ele></ele><time>2013-8-8T3:31:28Z</time></trkpt>
<trkpt lat="46.211560000" lon="7.253770000"><ele></ele><time>2013-8-8T3:31:31Z</time></trkpt>
<trkpt lat="46.211500000" lon="7.253760000"><ele></ele><time>2013-8-8T3:31:34Z</time></trkpt>
<trkpt lat="46.211450000" lon="7.253760000"><ele></ele><time>2013-8-8T3:31:37Z</time></trkpt>
<trkpt lat="46.211390000" lon="7.253770000"><ele></ele><time>2013-8-8T3:31:40Z</time></trkpt>
<trkpt lat="46.211340000" lon="7.253760000"><ele></ele><time>2013-8-8T3:31:43Z</time></trkpt>
<trkpt lat="46.211290000" lon="7.253760000"><ele></ele><time>2013-8-8T3:31:46Z</time></trkpt>
<trkpt lat="46.211250000" lon="7.253760000"><ele></ele><time>2013-8-8T3:31:49Z</time></trkpt>
<trkpt lat="46.211210000" lon="7.253780000"><ele></ele><time>2013-8-8T3:31:52Z</time></trkpt>
<trkpt lat="46.211170000" lon="7.253820000"><ele></ele><time>2013-8-8T3:31:55Z</time></trkpt>
<trkpt lat="46.211140000" lon="7.253870000"><ele></ele><time>2013-8-8T3:31:58Z</time></trkpt>
<trkpt lat="46.211120000" lon="7.253920000"><ele></ele><time>2013-8-8T3:32:1Z</time></trkpt>
<trkpt lat="46.211090000" lon="7.253990000"><ele></ele><time>2013-8-8T3:32:4Z</time></trkpt>
<trkpt lat="46.211060000" lon="7.254060000"><ele></ele><time>2013-8-8T3:32:7Z</time></trkpt>
<trkpt lat="46.211030000" lon="7.254120000"><ele></ele><time>2013-8-8T3:32:10Z</time></trkpt>
<trkpt lat="46.211010000" lon="7.254190000"><ele></ele><time>2013-8-8T3:32:13Z</time></trkpt>
<trkpt lat="46.210980000" lon="7.254260000"><ele></ele><time>2013-8-8T3:32:16Z</time></trkpt>
<trkpt lat="46.210960000" lon="7.254320000"><ele></ele><time>2013-8-8T3:32:19Z</time></trkpt>
<trkpt lat="46.210930000" lon="7.254390000"><ele></ele><time>2013-8-8T3:32:22Z</time></trkpt>
<trkpt lat="46.210910000" lon="7.254450000"><ele></ele><time>2013-8-8T3:32:25Z</time></trkpt>
<trkpt lat="46.210880000" lon="7.254510000"><ele></ele><time>2013-8-8T3:32:28Z</time></trkpt>
<trkpt lat="46.210860000" lon="7.254570000"><ele></ele><time>2013-8-8T3:32:31Z</time></trkpt>
<trkpt lat="46.210850000" lon="7.254630000"><ele></ele><time>2013-8-8T3:32:34Z</time></trkpt>
<trkpt lat="46.210830000" lon="7.254690000"><ele></ele><time>2013-8-8T3:32:37Z</time></trkpt>
<trkpt lat="46.210820000" lon="7.254740000"><ele></ele><time>2013-8-8T3:32:40Z</time></trkpt>
<trkpt lat="46.210800000" lon="7.254780000"><ele></ele><time>2013-8-8T3:32:43Z</time></trkpt>
<trkpt lat="46.210770000" lon="7.254810000"><ele></ele><time>2013-8-8T3:32:46Z</time></trkpt>
<trkpt lat="46.210740000" lon="7.254830000"><ele></ele><time>2013-8-8T3:32:49Z</time></trkpt>
<trkpt lat="46.210690000" lon="7.254830000"><ele></ele><time>2013-8-8T3:32:52Z</time></trkpt>
<trkpt lat="46.210650000" lon="7.254820000"><ele></ele><time>2013-8-8T3:32:55Z</time></trkpt>
<trkpt lat="46.210610000" lon="7.254810000"><ele></ele><time>2013-8-8T3:32:58Z</time></trkpt>
<trkpt lat="46.210570000" lon="7.254800000"><ele></ele><time>2013-8-8T3:33:1Z</time></trkpt>
<trkpt lat="46.210530000" lon="7.254790000"><ele></ele><time>2013-8-8T3:33:4Z</time></trkpt>
<trkpt lat="46.210490000" lon="7.254780000"><ele></ele><time>2013-8-8T3:33:7Z</time></trkpt>
<trkpt lat="46.210410000" lon="7.254750000"><ele></ele><time>2013-8-8T3:33:10Z</time></trkpt>
<trkpt lat="46.210240000" lon="7.254720000"><ele></ele><time>2013-8-8T3:33:13Z</time></trkpt>
<trkpt lat="46.210150000" lon="7.254710000"><ele></ele><time>2013-8-8T3:33:16Z</time></trkpt>
<trkpt lat="46.209840000" lon="7.254620000"><ele></ele><time>2013-8-8T3:33:19Z</time></trkpt>
<trkpt lat="46.209800000" lon="7.254610000"><ele></ele><time>2013-8-8T3:33:22Z</time></trkpt>
<trkpt lat="46.209660000" lon="7.254660000"><ele></ele><time>2013-8-8T3:33:25Z</time></trkpt>
<trkpt lat="46.209620000" lon="7.254680000"><ele></ele><time>2013-8-8T3:33:28Z</time></trkpt>
<trkpt lat="46.209580000" lon="7.254690000"><ele></ele><time>2013-8-8T3:33:31Z</time></trkpt>
<trkpt lat="46.209540000" lon="7.254710000"><ele></ele><time>2013-8-8T3:33:34Z</time></trkpt>
<trkpt lat="46.209500000" lon="7.254730000"><ele></ele><time>2013-8-8T3:33:37Z</time></trkpt>
<trkpt lat="46.209460000" lon="7.254760000"><ele></ele><time>2013-8-8T3:33:40Z</time></trkpt>
<trkpt lat="46.209350000" lon="7.254950000"><ele></ele><time>2013-8-8T3:33:43Z</time></trkpt>
<trkpt lat="46.209240000" lon="7.255150000"><ele></ele><time>2013-8-8T3:33:46Z</time></trkpt>
<trkpt lat="46.209190000" lon="7.255250000"><ele></ele><time>2013-8-8T3:33:49Z</time></trkpt>
<trkpt lat="46.209050000" lon="7.255410000"><ele></ele><time>2013-8-8T3:33:52Z</time></trkpt>
<trkpt lat="46.209020000" lon="7.255450000"><ele></ele><time>2013-8-8T3:33:55Z</time></trkpt>
<trkpt lat="46.208860000" lon="7.255630000"><ele></ele><time>2013-8-8T3:33:58Z</time></trkpt>
<trkpt lat="46.208830000" lon="7.255670000"><ele></ele><time>2013-8-8T3:34:1Z</time></trkpt>
<trkpt lat="46.208800000" lon="7.255710000"><ele></ele><time>2013-8-8T3:34:4Z</time></trkpt>
<trkpt lat="46.208660000" lon="7.255920000"><ele></ele><time>2013-8-8T3:34:7Z</time></trkpt>
<trkpt lat="46.208600000" lon="7.256010000"><ele></ele><time>2013-8-8T3:34:10Z</time></trkpt>
<trkpt lat="46.208530000" lon="7.256020000"><ele></ele><time>2013-8-8T3:34:13Z</time></trkpt>
<trkpt lat="46.208410000" lon="7.255840000"><ele></ele><time>2013-8-8T3:34:16Z</time></trkpt>
<trkpt lat="46.208240000" lon="7.255380000"><ele></ele><time>2013-8-8T3:34:19Z</time></trkpt>
<trkpt lat="46.208150000" lon="7.255070000"><ele></ele><time>2013-8-8T3:34:22Z</time></trkpt>
<trkpt lat="46.208080000" lon="7.254830000"><ele></ele><time>2013-8-8T3:34:25Z</time></trkpt>
<trkpt lat="46.207860000" lon="7.254210000"><ele></ele><time>2013-8-8T3:34:28Z</time></trkpt>
<trkpt lat="46.207690000" lon="7.253780000"><ele></ele><time>2013-8-8T3:34:31Z</time></trkpt>
<trkpt lat="46.207670000" lon="7.253720000"><ele></ele><time>2013-8-8T3:34:34Z</time></trkpt>
<trkpt lat="46.207450000" lon="7.253260000"><ele></ele><time>2013-8-8T3:34:37Z</time></trkpt>
<trkpt lat="46.207220000" lon="7.252850000"><ele></ele><time>2013-8-8T3:34:40Z</time></trkpt>
<trkpt lat="46.207000000" lon="7.252470000"><ele></ele><time>2013-8-8T3:34:43Z</time></trkpt>
<trkpt lat="46.206860000" lon="7.252230000"><ele></ele><time>2013-8-8T3:34:46Z</time></trkpt>
<trkpt lat="46.206840000" lon="7.252190000"><ele></ele><time>2013-8-8T3:34:49Z</time></trkpt>
<trkpt lat="46.206810000" lon="7.252150000"><ele></ele><time>2013-8-8T3:34:52Z</time></trkpt>
<trkpt lat="46.206780000" lon="7.252100000"><ele></ele><time>2013-8-8T3:34:55Z</time></trkpt>
<trkpt lat="46.206750000" lon="7.252060000"><ele></ele><time>2013-8-8T3:34:58Z</time></trkpt>
<trkpt lat="46.206510000" lon="7.251740000"><ele></ele><time>2013-8-8T3:35:1Z</time></trkpt>
<trkpt lat="46.206280000" lon="7.251390000"><ele></ele><time>2013-8-8T3:35:4Z</time></trkpt>
<trkpt lat="46.206220000" lon="7.251300000"><ele></ele><time>2013-8-8T3:35:7Z</time></trkpt>
<trkpt lat="46.206200000" lon="7.251260000"><ele></ele><time>2013-8-8T3:35:10Z</time></trkpt>
<trkpt lat="46.206170000" lon="7.251210000"><ele></ele><time>2013-8-8T3:35:13Z</time></trkpt>
<trkpt lat="46.206150000" lon="7.251160000"><ele></ele><time>2013-8-8T3:35:16Z</time></trkpt>
<trkpt lat="46.206120000" lon="7.251120000"><ele></ele><time>2013-8-8T3:35:19Z</time></trkpt>
<trkpt lat="46.206050000" lon="7.250990000"><ele></ele><time>2013-8-8T3:35:22Z</time></trkpt>
<trkpt lat="46.205950000" lon="7.250760000"><ele></ele><time>2013-8-8T3:35:25Z</time></trkpt>
<trkpt lat="46.205930000" lon="7.250720000"><ele></ele><time>2013-8-8T3:35:28Z</time></trkpt>
<trkpt lat="46.205910000" lon="7.250680000"><ele></ele><time>2013-8-8T3:35:31Z</time></trkpt>
<trkpt lat="46.205890000" lon="7.250640000"><ele></ele><time>2013-8-8T3:35:34Z</time></trkpt>
<trkpt lat="46.205880000" lon="7.250600000"><ele></ele><time>2013-8-8T3:35:37Z</time></trkpt>
<trkpt lat="46.205780000" lon="7.250360000"><ele></ele><time>2013-8-8T3:35:40Z</time></trkpt>
<trkpt lat="46.205770000" lon="7.250330000"><ele></ele><time>2013-8-8T3:35:43Z</time></trkpt>
<trkpt lat="46.205760000" lon="7.250290000"><ele></ele><time>2013-8-8T3:35:46Z</time></trkpt>
<trkpt lat="46.205740000" lon="7.250250000"><ele></ele><time>2013-8-8T3:35:49Z</time></trkpt>
<trkpt lat="46.205680000" lon="7.250100000"><ele></ele><time>2013-8-8T3:35:52Z</time></trkpt>
<trkpt lat="46.205630000" lon="7.249950000"><ele></ele><time>2013-8-8T3:35:55Z</time></trkpt>
<trkpt lat="46.205620000" lon="7.249910000"><ele></ele><time>2013-8-8T3:35:58Z</time></trkpt>
<trkpt lat="46.205610000" lon="7.249870000"><ele></ele><time>2013-8-8T3:36:1Z</time></trkpt>
<trkpt lat="46.205590000" lon="7.249840000"><ele></ele><time>2013-8-8T3:36:4Z</time></trkpt>
<trkpt lat="46.205580000" lon="7.249800000"><ele></ele><time>2013-8-8T3:36:7Z</time></trkpt>
<trkpt lat="46.205510000" lon="7.249580000"><ele></ele><time>2013-8-8T3:36:10Z</time></trkpt>
<trkpt lat="46.205490000" lon="7.249540000"><ele></ele><time>2013-8-8T3:36:13Z</time></trkpt>
<trkpt lat="46.205490000" lon="7.249500000"><ele></ele><time>2013-8-8T3:36:16Z</time></trkpt>
<trkpt lat="46.205470000" lon="7.249470000"><ele></ele><time>2013-8-8T3:36:19Z</time></trkpt>
<trkpt lat="46.205460000" lon="7.249430000"><ele></ele><time>2013-8-8T3:36:22Z</time></trkpt>
<trkpt lat="46.205450000" lon="7.249390000"><ele></ele><time>2013-8-8T3:36:25Z</time></trkpt>
<trkpt lat="46.205420000" lon="7.249320000"><ele></ele><time>2013-8-8T3:36:28Z</time></trkpt>
<trkpt lat="46.205360000" lon="7.249140000"><ele></ele><time>2013-8-8T3:36:31Z</time></trkpt>
<trkpt lat="46.205350000" lon="7.249110000"><ele></ele><time>2013-8-8T3:36:34Z</time></trkpt>
<trkpt lat="46.205330000" lon="7.249080000"><ele></ele><time>2013-8-8T3:36:37Z</time></trkpt>
<trkpt lat="46.205320000" lon="7.249040000"><ele></ele><time>2013-8-8T3:36:40Z</time></trkpt>
<trkpt lat="46.205310000" lon="7.249010000"><ele></ele><time>2013-8-8T3:36:43Z</time></trkpt>
<trkpt lat="46.205230000" lon="7.248750000"><ele></ele><time>2013-8-8T3:36:46Z</time></trkpt>
<trkpt lat="46.205230000" lon="7.248720000"><ele></ele><time>2013-8-8T3:36:49Z</time></trkpt>
<trkpt lat="46.205220000" lon="7.248680000"><ele></ele><time>2013-8-8T3:36:52Z</time></trkpt>
<trkpt lat="46.205210000" lon="7.248640000"><ele></ele><time>2013-8-8T3:36:55Z</time></trkpt>
<trkpt lat="46.205200000" lon="7.248600000"><ele></ele><time>2013-8-8T3:36:58Z</time></trkpt>
<trkpt lat="46.205140000" lon="7.248350000"><ele></ele><time>2013-8-8T3:37:1Z</time></trkpt>
<trkpt lat="46.205130000" lon="7.248310000"><ele></ele><time>2013-8-8T3:37:4Z</time></trkpt>
<trkpt lat="46.205120000" lon="7.248270000"><ele></ele><time>2013-8-8T3:37:7Z</time></trkpt>
<trkpt lat="46.205120000" lon="7.248230000"><ele></ele><time>2013-8-8T3:37:10Z</time></trkpt>
<trkpt lat="46.205110000" lon="7.248190000"><ele></ele><time>2013-8-8T3:37:13Z</time></trkpt>
<trkpt lat="46.205070000" lon="7.248010000"><ele></ele><time>2013-8-8T3:37:16Z</time></trkpt>
<trkpt lat="46.205060000" lon="7.247860000"><ele></ele><time>2013-8-8T3:37:19Z</time></trkpt>
<trkpt lat="46.205050000" lon="7.247820000"><ele></ele><time>2013-8-8T3:37:22Z</time></trkpt>
<trkpt lat="46.205040000" lon="7.247780000"><ele></ele><time>2013-8-8T3:37:25Z</time></trkpt>
<trkpt lat="46.205040000" lon="7.247740000"><ele></ele><time>2013-8-8T3:37:28Z</time></trkpt>
<trkpt lat="46.205030000" lon="7.247700000"><ele></ele><time>2013-8-8T3:37:31Z</time></trkpt>
<trkpt lat="46.205000000" lon="7.247470000"><ele></ele><time>2013-8-8T3:37:34Z</time></trkpt>
<trkpt lat="46.204990000" lon="7.247430000"><ele></ele><time>2013-8-8T3:37:37Z</time></trkpt>
<trkpt lat="46.204990000" lon="7.247390000"><ele></ele><time>2013-8-8T3:37:40Z</time></trkpt>
<trkpt lat="46.204980000" lon="7.247350000"><ele></ele><time>2013-8-8T3:37:43Z</time></trkpt>
<trkpt lat="46.204980000" lon="7.247310000"><ele></ele><time>2013-8-8T3:37:46Z</time></trkpt>
<trkpt lat="46.204980000" lon="7.247270000"><ele></ele><time>2013-8-8T3:37:49Z</time></trkpt>
<trkpt lat="46.204940000" lon="7.247030000"><ele></ele><time>2013-8-8T3:37:52Z</time></trkpt>
<trkpt lat="46.204930000" lon="7.246990000"><ele></ele><time>2013-8-8T3:37:55Z</time></trkpt>
<trkpt lat="46.204930000" lon="7.246950000"><ele></ele><time>2013-8-8T3:37:58Z</time></trkpt>
<trkpt lat="46.204930000" lon="7.246910000"><ele></ele><time>2013-8-8T3:38:1Z</time></trkpt>
<trkpt lat="46.204920000" lon="7.246870000"><ele></ele><time>2013-8-8T3:38:4Z</time></trkpt>
<trkpt lat="46.204890000" lon="7.246600000"><ele></ele><time>2013-8-8T3:38:7Z</time></trkpt>
<trkpt lat="46.204890000" lon="7.246560000"><ele></ele><time>2013-8-8T3:38:10Z</time></trkpt>
<trkpt lat="46.204880000" lon="7.246520000"><ele></ele><time>2013-8-8T3:38:13Z</time></trkpt>
<trkpt lat="46.204870000" lon="7.246480000"><ele></ele><time>2013-8-8T3:38:16Z</time></trkpt>
<trkpt lat="46.204840000" lon="7.246250000"><ele></ele><time>2013-8-8T3:38:19Z</time></trkpt>
<trkpt lat="46.204830000" lon="7.246170000"><ele></ele><time>2013-8-8T3:38:22Z</time></trkpt>
<trkpt lat="46.204830000" lon="7.246130000"><ele></ele><time>2013-8-8T3:38:25Z</time></trkpt>
<trkpt lat="46.204820000" lon="7.246090000"><ele></ele><time>2013-8-8T3:38:28Z</time></trkpt>
<trkpt lat="46.204820000" lon="7.246050000"><ele></ele><time>2013-8-8T3:38:31Z</time></trkpt>
<trkpt lat="46.204810000" lon="7.246010000"><ele></ele><time>2013-8-8T3:38:34Z</time></trkpt>
<trkpt lat="46.204810000" lon="7.245900000"><ele></ele><time>2013-8-8T3:38:37Z</time></trkpt>
<trkpt lat="46.204800000" lon="7.245780000"><ele></ele><time>2013-8-8T3:38:40Z</time></trkpt>
<trkpt lat="46.204800000" lon="7.245750000"><ele></ele><time>2013-8-8T3:38:43Z</time></trkpt>
<trkpt lat="46.204790000" lon="7.245710000"><ele></ele><time>2013-8-8T3:38:46Z</time></trkpt>
<trkpt lat="46.204780000" lon="7.245670000"><ele></ele><time>2013-8-8T3:38:49Z</time></trkpt>
<trkpt lat="46.204780000" lon="7.245640000"><ele></ele><time>2013-8-8T3:38:52Z</time></trkpt>
<trkpt lat="46.204770000" lon="7.245560000"><ele></ele><time>2013-8-8T3:38:55Z</time></trkpt>
<trkpt lat="46.204740000" lon="7.245380000"><ele></ele><time>2013-8-8T3:38:58Z</time></trkpt>
<trkpt lat="46.204730000" lon="7.245350000"><ele></ele><time>2013-8-8T3:39:1Z</time></trkpt>
<trkpt lat="46.204730000" lon="7.245310000"><ele></ele><time>2013-8-8T3:39:4Z</time></trkpt>
<trkpt lat="46.204720000" lon="7.245280000"><ele></ele><time>2013-8-8T3:39:7Z</time></trkpt>
<trkpt lat="46.204710000" lon="7.245240000"><ele></ele><time>2013-8-8T3:39:10Z</time></trkpt>
<trkpt lat="46.204660000" lon="7.244970000"><ele></ele><time>2013-8-8T3:39:13Z</time></trkpt>
<trkpt lat="46.204650000" lon="7.244940000"><ele></ele><time>2013-8-8T3:39:16Z</time></trkpt>
<trkpt lat="46.204650000" lon="7.244910000"><ele></ele><time>2013-8-8T3:39:19Z</time></trkpt>
<trkpt lat="46.204640000" lon="7.244870000"><ele></ele><time>2013-8-8T3:39:22Z</time></trkpt>
<trkpt lat="46.204640000" lon="7.244840000"><ele></ele><time>2013-8-8T3:39:25Z</time></trkpt>
<trkpt lat="46.204610000" lon="7.244700000"><ele></ele><time>2013-8-8T3:39:28Z</time></trkpt>
<trkpt lat="46.204600000" lon="7.244670000"><ele></ele><time>2013-8-8T3:39:31Z</time></trkpt>
<trkpt lat="46.204590000" lon="7.244640000"><ele></ele><time>2013-8-8T3:39:34Z</time></trkpt>
<trkpt lat="46.204580000" lon="7.244600000"><ele></ele><time>2013-8-8T3:39:37Z</time></trkpt>
<trkpt lat="46.204570000" lon="7.244570000"><ele></ele><time>2013-8-8T3:39:40Z</time></trkpt>
<trkpt lat="46.204560000" lon="7.244530000"><ele></ele><time>2013-8-8T3:39:43Z</time></trkpt>
<trkpt lat="46.204540000" lon="7.244420000"><ele></ele><time>2013-8-8T3:39:46Z</time></trkpt>
<trkpt lat="46.204520000" lon="7.244320000"><ele></ele><time>2013-8-8T3:39:49Z</time></trkpt>
<trkpt lat="46.204510000" lon="7.244280000"><ele></ele><time>2013-8-8T3:39:52Z</time></trkpt>
<trkpt lat="46.204500000" lon="7.244250000"><ele></ele><time>2013-8-8T3:39:55Z</time></trkpt>
<trkpt lat="46.204490000" lon="7.244210000"><ele></ele><time>2013-8-8T3:39:58Z</time></trkpt>
<trkpt lat="46.204480000" lon="7.244180000"><ele></ele><time>2013-8-8T3:40:1Z</time></trkpt>
<trkpt lat="46.204410000" lon="7.243900000"><ele></ele><time>2013-8-8T3:40:4Z</time></trkpt>
<trkpt lat="46.204400000" lon="7.243870000"><ele></ele><time>2013-8-8T3:40:7Z</time></trkpt>
<trkpt lat="46.204390000" lon="7.243840000"><ele></ele><time>2013-8-8T3:40:10Z</time></trkpt>
<trkpt lat="46.204380000" lon="7.243800000"><ele></ele><time>2013-8-8T3:40:13Z</time></trkpt>
<trkpt lat="46.204320000" lon="7.243600000"><ele></ele><time>2013-8-8T3:40:16Z</time></trkpt>
<trkpt lat="46.204310000" lon="7.243560000"><ele></ele><time>2013-8-8T3:40:19Z</time></trkpt>
<trkpt lat="46.204300000" lon="7.243530000"><ele></ele><time>2013-8-8T3:40:22Z</time></trkpt>
<trkpt lat="46.204290000" lon="7.243490000"><ele></ele><time>2013-8-8T3:40:25Z</time></trkpt>
<trkpt lat="46.204280000" lon="7.243460000"><ele></ele><time>2013-8-8T3:40:28Z</time></trkpt>
<trkpt lat="46.204250000" lon="7.243340000"><ele></ele><time>2013-8-8T3:40:31Z</time></trkpt>
<trkpt lat="46.204230000" lon="7.243270000"><ele></ele><time>2013-8-8T3:40:34Z</time></trkpt>
<trkpt lat="46.204220000" lon="7.243240000"><ele></ele><time>2013-8-8T3:40:37Z</time></trkpt>
<trkpt lat="46.204210000" lon="7.243200000"><ele></ele><time>2013-8-8T3:40:40Z</time></trkpt>
<trkpt lat="46.204200000" lon="7.243170000"><ele></ele><time>2013-8-8T3:40:43Z</time></trkpt>
<trkpt lat="46.204190000" lon="7.243140000"><ele></ele><time>2013-8-8T3:40:46Z</time></trkpt>
<trkpt lat="46.204160000" lon="7.243040000"><ele></ele><time>2013-8-8T3:40:49Z</time></trkpt>
<trkpt lat="46.204140000" lon="7.242950000"><ele></ele><time>2013-8-8T3:40:52Z</time></trkpt>
<trkpt lat="46.204130000" lon="7.242910000"><ele></ele><time>2013-8-8T3:40:55Z</time></trkpt>
<trkpt lat="46.204120000" lon="7.242880000"><ele></ele><time>2013-8-8T3:40:58Z</time></trkpt>
<trkpt lat="46.204110000" lon="7.242840000"><ele></ele><time>2013-8-8T3:41:1Z</time></trkpt>
<trkpt lat="46.204100000" lon="7.242810000"><ele></ele><time>2013-8-8T3:41:4Z</time></trkpt>
<trkpt lat="46.204070000" lon="7.242710000"><ele></ele><time>2013-8-8T3:41:7Z</time></trkpt>
<trkpt lat="46.204050000" lon="7.242610000"><ele></ele><time>2013-8-8T3:41:10Z</time></trkpt>
<trkpt lat="46.204040000" lon="7.242580000"><ele></ele><time>2013-8-8T3:41:13Z</time></trkpt>
<trkpt lat="46.204030000" lon="7.242540000"><ele></ele><time>2013-8-8T3:41:16Z</time></trkpt>
<trkpt lat="46.204020000" lon="7.242510000"><ele></ele><time>2013-8-8T3:41:19Z</time></trkpt>
<trkpt lat="46.204010000" lon="7.242470000"><ele></ele><time>2013-8-8T3:41:22Z</time></trkpt>
<trkpt lat="46.203950000" lon="7.242250000"><ele></ele><time>2013-8-8T3:41:25Z</time></trkpt>
<trkpt lat="46.203940000" lon="7.242220000"><ele></ele><time>2013-8-8T3:41:28Z</time></trkpt>
<trkpt lat="46.203930000" lon="7.242190000"><ele></ele><time>2013-8-8T3:41:31Z</time></trkpt>
<trkpt lat="46.203920000" lon="7.242150000"><ele></ele><time>2013-8-8T3:41:34Z</time></trkpt>
<trkpt lat="46.203910000" lon="7.242120000"><ele></ele><time>2013-8-8T3:41:37Z</time></trkpt>
<trkpt lat="46.203860000" lon="7.241930000"><ele></ele><time>2013-8-8T3:41:40Z</time></trkpt>
<trkpt lat="46.203850000" lon="7.241890000"><ele></ele><time>2013-8-8T3:41:43Z</time></trkpt>
<trkpt lat="46.203840000" lon="7.241860000"><ele></ele><time>2013-8-8T3:41:46Z</time></trkpt>
<trkpt lat="46.203830000" lon="7.241830000"><ele></ele><time>2013-8-8T3:41:49Z</time></trkpt>
<trkpt lat="46.203820000" lon="7.241800000"><ele></ele><time>2013-8-8T3:41:52Z</time></trkpt>
<trkpt lat="46.203770000" lon="7.241590000"><ele></ele><time>2013-8-8T3:41:55Z</time></trkpt>
<trkpt lat="46.203760000" lon="7.241560000"><ele></ele><time>2013-8-8T3:41:58Z</time></trkpt>
<trkpt lat="46.203750000" lon="7.241530000"><ele></ele><time>2013-8-8T3:42:1Z</time></trkpt>
<trkpt lat="46.203740000" lon="7.241490000"><ele></ele><time>2013-8-8T3:42:4Z</time></trkpt>
<trkpt lat="46.203690000" lon="7.241310000"><ele></ele><time>2013-8-8T3:42:7Z</time></trkpt>
<trkpt lat="46.203690000" lon="7.241280000"><ele></ele><time>2013-8-8T3:42:10Z</time></trkpt>
<trkpt lat="46.203680000" lon="7.241250000"><ele></ele><time>2013-8-8T3:42:13Z</time></trkpt>
<trkpt lat="46.203670000" lon="7.241220000"><ele></ele><time>2013-8-8T3:42:16Z</time></trkpt>
<trkpt lat="46.203660000" lon="7.241190000"><ele></ele><time>2013-8-8T3:42:19Z</time></trkpt>
<trkpt lat="46.203640000" lon="7.241130000"><ele></ele><time>2013-8-8T3:42:22Z</time></trkpt>
<trkpt lat="46.203600000" lon="7.240950000"><ele></ele><time>2013-8-8T3:42:25Z</time></trkpt>
<trkpt lat="46.203590000" lon="7.240930000"><ele></ele><time>2013-8-8T3:42:28Z</time></trkpt>
<trkpt lat="46.203590000" lon="7.240900000"><ele></ele><time>2013-8-8T3:42:31Z</time></trkpt>
<trkpt lat="46.203580000" lon="7.240870000"><ele></ele><time>2013-8-8T3:42:34Z</time></trkpt>
<trkpt lat="46.203570000" lon="7.240830000"><ele></ele><time>2013-8-8T3:42:37Z</time></trkpt>
<trkpt lat="46.203540000" lon="7.240710000"><ele></ele><time>2013-8-8T3:42:40Z</time></trkpt>
<trkpt lat="46.203530000" lon="7.240680000"><ele></ele><time>2013-8-8T3:42:43Z</time></trkpt>
<trkpt lat="46.203520000" lon="7.240650000"><ele></ele><time>2013-8-8T3:42:46Z</time></trkpt>
<trkpt lat="46.203510000" lon="7.240620000"><ele></ele><time>2013-8-8T3:42:49Z</time></trkpt>
<trkpt lat="46.203510000" lon="7.240590000"><ele></ele><time>2013-8-8T3:42:52Z</time></trkpt>
<trkpt lat="46.203500000" lon="7.240560000"><ele></ele><time>2013-8-8T3:42:55Z</time></trkpt>
<trkpt lat="46.203470000" lon="7.240440000"><ele></ele><time>2013-8-8T3:42:58Z</time></trkpt>
<trkpt lat="46.203460000" lon="7.240380000"><ele></ele><time>2013-8-8T3:43:1Z</time></trkpt>
<trkpt lat="46.203450000" lon="7.240340000"><ele></ele><time>2013-8-8T3:43:4Z</time></trkpt>
<trkpt lat="46.203450000" lon="7.240310000"><ele></ele><time>2013-8-8T3:43:7Z</time></trkpt>
<trkpt lat="46.203440000" lon="7.240280000"><ele></ele><time>2013-8-8T3:43:10Z</time></trkpt>
<trkpt lat="46.203430000" lon="7.240250000"><ele></ele><time>2013-8-8T3:43:13Z</time></trkpt>
<trkpt lat="46.203410000" lon="7.240120000"><ele></ele><time>2013-8-8T3:43:16Z</time></trkpt>
<trkpt lat="46.203400000" lon="7.240060000"><ele></ele><time>2013-8-8T3:43:19Z</time></trkpt>
<trkpt lat="46.203400000" lon="7.240020000"><ele></ele><time>2013-8-8T3:43:22Z</time></trkpt>
<trkpt lat="46.203400000" lon="7.239990000"><ele></ele><time>2013-8-8T3:43:25Z</time></trkpt>
<trkpt lat="46.203400000" lon="7.239960000"><ele></ele><time>2013-8-8T3:43:28Z</time></trkpt>
<trkpt lat="46.203390000" lon="7.239870000"><ele></ele><time>2013-8-8T3:43:31Z</time></trkpt>
<trkpt lat="46.203380000" lon="7.239770000"><ele></ele><time>2013-8-8T3:43:34Z</time></trkpt>
<trkpt lat="46.203380000" lon="7.239740000"><ele></ele><time>2013-8-8T3:43:37Z</time></trkpt>
<trkpt lat="46.203380000" lon="7.239710000"><ele></ele><time>2013-8-8T3:43:40Z</time></trkpt>
<trkpt lat="46.203370000" lon="7.239680000"><ele></ele><time>2013-8-8T3:43:43Z</time></trkpt>
<trkpt lat="46.203370000" lon="7.239640000"><ele></ele><time>2013-8-8T3:43:46Z</time></trkpt>
<trkpt lat="46.203370000" lon="7.239580000"><ele></ele><time>2013-8-8T3:43:49Z</time></trkpt>
<trkpt lat="46.203370000" lon="7.239490000"><ele></ele><time>2013-8-8T3:43:52Z</time></trkpt>
<trkpt lat="46.203370000" lon="7.239450000"><ele></ele><time>2013-8-8T3:43:55Z</time></trkpt>
<trkpt lat="46.203370000" lon="7.239420000"><ele></ele><time>2013-8-8T3:43:58Z</time></trkpt>
<trkpt lat="46.203370000" lon="7.239390000"><ele></ele><time>2013-8-8T3:44:1Z</time></trkpt>
<trkpt lat="46.203370000" lon="7.239350000"><ele></ele><time>2013-8-8T3:44:4Z</time></trkpt>
<trkpt lat="46.203370000" lon="7.239250000"><ele></ele><time>2013-8-8T3:44:7Z</time></trkpt>
<trkpt lat="46.203380000" lon="7.239190000"><ele></ele><time>2013-8-8T3:44:10Z</time></trkpt>
<trkpt lat="46.203380000" lon="7.239150000"><ele></ele><time>2013-8-8T3:44:13Z</time></trkpt>
<trkpt lat="46.203380000" lon="7.239120000"><ele></ele><time>2013-8-8T3:44:16Z</time></trkpt>
<trkpt lat="46.203380000" lon="7.239090000"><ele></ele><time>2013-8-8T3:44:19Z</time></trkpt>
<trkpt lat="46.203390000" lon="7.239060000"><ele></ele><time>2013-8-8T3:44:22Z</time></trkpt>
<trkpt lat="46.203400000" lon="7.238990000"><ele></ele><time>2013-8-8T3:44:25Z</time></trkpt>
<trkpt lat="46.203410000" lon="7.238830000"><ele></ele><time>2013-8-8T3:44:28Z</time></trkpt>
<trkpt lat="46.203410000" lon="7.238800000"><ele></ele><time>2013-8-8T3:44:31Z</time></trkpt>
<trkpt lat="46.203410000" lon="7.238770000"><ele></ele><time>2013-8-8T3:44:34Z</time></trkpt>
<trkpt lat="46.203420000" lon="7.238730000"><ele></ele><time>2013-8-8T3:44:37Z</time></trkpt>
<trkpt lat="46.203420000" lon="7.238700000"><ele></ele><time>2013-8-8T3:44:40Z</time></trkpt>
<trkpt lat="46.203440000" lon="7.238540000"><ele></ele><time>2013-8-8T3:44:43Z</time></trkpt>
<trkpt lat="46.203440000" lon="7.238510000"><ele></ele><time>2013-8-8T3:44:46Z</time></trkpt>
<trkpt lat="46.203440000" lon="7.238480000"><ele></ele><time>2013-8-8T3:44:49Z</time></trkpt>
<trkpt lat="46.203450000" lon="7.238450000"><ele></ele><time>2013-8-8T3:44:52Z</time></trkpt>
<trkpt lat="46.203450000" lon="7.238420000"><ele></ele><time>2013-8-8T3:44:55Z</time></trkpt>
<trkpt lat="46.203440000" lon="7.238200000"><ele></ele><time>2013-8-8T3:44:58Z</time></trkpt>
<trkpt lat="46.203430000" lon="7.238170000"><ele></ele><time>2013-8-8T3:45:1Z</time></trkpt>
<trkpt lat="46.203440000" lon="7.238130000"><ele></ele><time>2013-8-8T3:45:4Z</time></trkpt>
<trkpt lat="46.203440000" lon="7.238100000"><ele></ele><time>2013-8-8T3:45:7Z</time></trkpt>
<trkpt lat="46.203440000" lon="7.238070000"><ele></ele><time>2013-8-8T3:45:10Z</time></trkpt>
<trkpt lat="46.203430000" lon="7.237930000"><ele></ele><time>2013-8-8T3:45:13Z</time></trkpt>
<trkpt lat="46.203430000" lon="7.237850000"><ele></ele><time>2013-8-8T3:45:16Z</time></trkpt>
<trkpt lat="46.203430000" lon="7.237820000"><ele></ele><time>2013-8-8T3:45:19Z</time></trkpt>
<trkpt lat="46.203420000" lon="7.237780000"><ele></ele><time>2013-8-8T3:45:22Z</time></trkpt>
<trkpt lat="46.203420000" lon="7.237750000"><ele></ele><time>2013-8-8T3:45:25Z</time></trkpt>
<trkpt lat="46.203420000" lon="7.237710000"><ele></ele><time>2013-8-8T3:45:28Z</time></trkpt>
<trkpt lat="46.203410000" lon="7.237640000"><ele></ele><time>2013-8-8T3:45:31Z</time></trkpt>
<trkpt lat="46.203400000" lon="7.237500000"><ele></ele><time>2013-8-8T3:45:34Z</time></trkpt>
<trkpt lat="46.203400000" lon="7.237470000"><ele></ele><time>2013-8-8T3:45:37Z</time></trkpt>
<trkpt lat="46.203400000" lon="7.237430000"><ele></ele><time>2013-8-8T3:45:40Z</time></trkpt>
<trkpt lat="46.203400000" lon="7.237400000"><ele></ele><time>2013-8-8T3:45:43Z</time></trkpt>
<trkpt lat="46.203400000" lon="7.237360000"><ele></ele><time>2013-8-8T3:45:46Z</time></trkpt>
<trkpt lat="46.203390000" lon="7.237300000"><ele></ele><time>2013-8-8T3:45:49Z</time></trkpt>
<trkpt lat="46.203380000" lon="7.237200000"><ele></ele><time>2013-8-8T3:45:52Z</time></trkpt>
<trkpt lat="46.203380000" lon="7.237160000"><ele></ele><time>2013-8-8T3:45:55Z</time></trkpt>
<trkpt lat="46.203370000" lon="7.237130000"><ele></ele><time>2013-8-8T3:45:58Z</time></trkpt>
<trkpt lat="46.203370000" lon="7.237100000"><ele></ele><time>2013-8-8T3:46:1Z</time></trkpt>
<trkpt lat="46.203360000" lon="7.237060000"><ele></ele><time>2013-8-8T3:46:4Z</time></trkpt>
<trkpt lat="46.203330000" lon="7.236860000"><ele></ele><time>2013-8-8T3:46:7Z</time></trkpt>
<trkpt lat="46.203320000" lon="7.236830000"><ele></ele><time>2013-8-8T3:46:10Z</time></trkpt>
<trkpt lat="46.203320000" lon="7.236790000"><ele></ele><time>2013-8-8T3:46:13Z</time></trkpt>
<trkpt lat="46.203300000" lon="7.236760000"><ele></ele><time>2013-8-8T3:46:16Z</time></trkpt>
<trkpt lat="46.203300000" lon="7.236730000"><ele></ele><time>2013-8-8T3:46:19Z</time></trkpt>
<trkpt lat="46.203250000" lon="7.236570000"><ele></ele><time>2013-8-8T3:46:22Z</time></trkpt>
<trkpt lat="46.203230000" lon="7.236510000"><ele></ele><time>2013-8-8T3:46:25Z</time></trkpt>
<trkpt lat="46.203220000" lon="7.236480000"><ele></ele><time>2013-8-8T3:46:28Z</time></trkpt>
<trkpt lat="46.203210000" lon="7.236440000"><ele></ele><time>2013-8-8T3:46:31Z</time></trkpt>
<trkpt lat="46.203210000" lon="7.236410000"><ele></ele><time>2013-8-8T3:46:34Z</time></trkpt>
<trkpt lat="46.203200000" lon="7.236370000"><ele></ele><time>2013-8-8T3:46:37Z</time></trkpt>
<trkpt lat="46.203190000" lon="7.236340000"><ele></ele><time>2013-8-8T3:46:40Z</time></trkpt>
<trkpt lat="46.203160000" lon="7.236140000"><ele></ele><time>2013-8-8T3:46:43Z</time></trkpt>
<trkpt lat="46.203150000" lon="7.236100000"><ele></ele><time>2013-8-8T3:46:46Z</time></trkpt>
<trkpt lat="46.203150000" lon="7.236070000"><ele></ele><time>2013-8-8T3:46:49Z</time></trkpt>
<trkpt lat="46.203140000" lon="7.236030000"><ele></ele><time>2013-8-8T3:46:52Z</time></trkpt>
<trkpt lat="46.203140000" lon="7.236000000"><ele></ele><time>2013-8-8T3:46:55Z</time></trkpt>
<trkpt lat="46.203130000" lon="7.235860000"><ele></ele><time>2013-8-8T3:46:58Z</time></trkpt>
<trkpt lat="46.203130000" lon="7.235830000"><ele></ele><time>2013-8-8T3:47:1Z</time></trkpt>
<trkpt lat="46.203130000" lon="7.235790000"><ele></ele><time>2013-8-8T3:47:4Z</time></trkpt>
<trkpt lat="46.203130000" lon="7.235750000"><ele></ele><time>2013-8-8T3:47:7Z</time></trkpt>
<trkpt lat="46.203130000" lon="7.235720000"><ele></ele><time>2013-8-8T3:47:10Z</time></trkpt>
<trkpt lat="46.203120000" lon="7.235550000"><ele></ele><time>2013-8-8T3:47:13Z</time></trkpt>
<trkpt lat="46.203120000" lon="7.235510000"><ele></ele><time>2013-8-8T3:47:16Z</time></trkpt>
<trkpt lat="46.203130000" lon="7.235480000"><ele></ele><time>2013-8-8T3:47:19Z</time></trkpt>
<trkpt lat="46.203130000" lon="7.235450000"><ele></ele><time>2013-8-8T3:47:22Z</time></trkpt>
<trkpt lat="46.203130000" lon="7.235410000"><ele></ele><time>2013-8-8T3:47:25Z</time></trkpt>
<trkpt lat="46.203130000" lon="7.235380000"><ele></ele><time>2013-8-8T3:47:28Z</time></trkpt>
<trkpt lat="46.203130000" lon="7.235310000"><ele></ele><time>2013-8-8T3:47:31Z</time></trkpt>
<trkpt lat="46.203130000" lon="7.235180000"><ele></ele><time>2013-8-8T3:47:34Z</time></trkpt>
<trkpt lat="46.203130000" lon="7.235140000"><ele></ele><time>2013-8-8T3:47:37Z</time></trkpt>
<trkpt lat="46.203130000" lon="7.235110000"><ele></ele><time>2013-8-8T3:47:40Z</time></trkpt>
<trkpt lat="46.203130000" lon="7.235070000"><ele></ele><time>2013-8-8T3:47:43Z</time></trkpt>
<trkpt lat="46.203130000" lon="7.234840000"><ele></ele><time>2013-8-8T3:47:46Z</time></trkpt>
<trkpt lat="46.203130000" lon="7.234800000"><ele></ele><time>2013-8-8T3:47:49Z</time></trkpt>
<trkpt lat="46.203130000" lon="7.234770000"><ele></ele><time>2013-8-8T3:47:52Z</time></trkpt>
<trkpt lat="46.203130000" lon="7.234740000"><ele></ele><time>2013-8-8T3:47:55Z</time></trkpt>
<trkpt lat="46.203130000" lon="7.234700000"><ele></ele><time>2013-8-8T3:47:58Z</time></trkpt>
<trkpt lat="46.203130000" lon="7.234530000"><ele></ele><time>2013-8-8T3:48:1Z</time></trkpt>
<trkpt lat="46.203120000" lon="7.234490000"><ele></ele><time>2013-8-8T3:48:4Z</time></trkpt>
<trkpt lat="46.203120000" lon="7.234460000"><ele></ele><time>2013-8-8T3:48:7Z</time></trkpt>
<trkpt lat="46.203120000" lon="7.234420000"><ele></ele><time>2013-8-8T3:48:10Z</time></trkpt>
<trkpt lat="46.203120000" lon="7.234390000"><ele></ele><time>2013-8-8T3:48:13Z</time></trkpt>
<trkpt lat="46.203110000" lon="7.234230000"><ele></ele><time>2013-8-8T3:48:16Z</time></trkpt>
<trkpt lat="46.203110000" lon="7.234200000"><ele></ele><time>2013-8-8T3:48:19Z</time></trkpt>
<trkpt lat="46.203120000" lon="7.234170000"><ele></ele><time>2013-8-8T3:48:22Z</time></trkpt>
<trkpt lat="46.203110000" lon="7.234130000"><ele></ele><time>2013-8-8T3:48:25Z</time></trkpt>
<trkpt lat="46.203100000" lon="7.233960000"><ele></ele><time>2013-8-8T3:48:28Z</time></trkpt>
<trkpt lat="46.203100000" lon="7.233920000"><ele></ele><time>2013-8-8T3:48:31Z</time></trkpt>
<trkpt lat="46.203090000" lon="7.233890000"><ele></ele><time>2013-8-8T3:48:34Z</time></trkpt>
<trkpt lat="46.203090000" lon="7.233870000"><ele></ele><time>2013-8-8T3:48:37Z</time></trkpt>
<trkpt lat="46.203090000" lon="7.233830000"><ele></ele><time>2013-8-8T3:48:40Z</time></trkpt>
<trkpt lat="46.203080000" lon="7.233700000"><ele></ele><time>2013-8-8T3:48:43Z</time></trkpt>
<trkpt lat="46.203070000" lon="7.233660000"><ele></ele><time>2013-8-8T3:48:46Z</time></trkpt>
<trkpt lat="46.203070000" lon="7.233620000"><ele></ele><time>2013-8-8T3:48:49Z</time></trkpt>
<trkpt lat="46.203060000" lon="7.233590000"><ele></ele><time>2013-8-8T3:48:52Z</time></trkpt>
<trkpt lat="46.203060000" lon="7.233550000"><ele></ele><time>2013-8-8T3:48:55Z</time></trkpt>
<trkpt lat="46.203060000" lon="7.233520000"><ele></ele><time>2013-8-8T3:48:58Z</time></trkpt>
<trkpt lat="46.203050000" lon="7.233460000"><ele></ele><time>2013-8-8T3:49:1Z</time></trkpt>
<trkpt lat="46.203040000" lon="7.233320000"><ele></ele><time>2013-8-8T3:49:4Z</time></trkpt>
<trkpt lat="46.203040000" lon="7.233280000"><ele></ele><time>2013-8-8T3:49:7Z</time></trkpt>
<trkpt lat="46.203040000" lon="7.233240000"><ele></ele><time>2013-8-8T3:49:10Z</time></trkpt>
<trkpt lat="46.203040000" lon="7.233210000"><ele></ele><time>2013-8-8T3:49:13Z</time></trkpt>
<trkpt lat="46.203040000" lon="7.233170000"><ele></ele><time>2013-8-8T3:49:16Z</time></trkpt>
<trkpt lat="46.203060000" lon="7.232960000"><ele></ele><time>2013-8-8T3:49:19Z</time></trkpt>
<trkpt lat="46.203070000" lon="7.232930000"><ele></ele><time>2013-8-8T3:49:22Z</time></trkpt>
<trkpt lat="46.203080000" lon="7.232890000"><ele></ele><time>2013-8-8T3:49:25Z</time></trkpt>
<trkpt lat="46.203080000" lon="7.232860000"><ele></ele><time>2013-8-8T3:49:28Z</time></trkpt>
<trkpt lat="46.203090000" lon="7.232830000"><ele></ele><time>2013-8-8T3:49:31Z</time></trkpt>
<trkpt lat="46.203130000" lon="7.232620000"><ele></ele><time>2013-8-8T3:49:34Z</time></trkpt>
<trkpt lat="46.203130000" lon="7.232590000"><ele></ele><time>2013-8-8T3:49:37Z</time></trkpt>
<trkpt lat="46.203140000" lon="7.232550000"><ele></ele><time>2013-8-8T3:49:40Z</time></trkpt>
<trkpt lat="46.203140000" lon="7.232520000"><ele></ele><time>2013-8-8T3:49:43Z</time></trkpt>
<trkpt lat="46.203170000" lon="7.232320000"><ele></ele><time>2013-8-8T3:49:46Z</time></trkpt>
<trkpt lat="46.203180000" lon="7.232280000"><ele></ele><time>2013-8-8T3:49:49Z</time></trkpt>
<trkpt lat="46.203180000" lon="7.232250000"><ele></ele><time>2013-8-8T3:49:52Z</time></trkpt>
<trkpt lat="46.203190000" lon="7.232210000"><ele></ele><time>2013-8-8T3:49:55Z</time></trkpt>
<trkpt lat="46.203190000" lon="7.232170000"><ele></ele><time>2013-8-8T3:49:58Z</time></trkpt>
<trkpt lat="46.203220000" lon="7.231920000"><ele></ele><time>2013-8-8T3:50:1Z</time></trkpt>
<trkpt lat="46.203220000" lon="7.231890000"><ele></ele><time>2013-8-8T3:50:4Z</time></trkpt>
<trkpt lat="46.203230000" lon="7.231850000"><ele></ele><time>2013-8-8T3:50:7Z</time></trkpt>
<trkpt lat="46.203230000" lon="7.231820000"><ele></ele><time>2013-8-8T3:50:10Z</time></trkpt>
<trkpt lat="46.203240000" lon="7.231780000"><ele></ele><time>2013-8-8T3:50:13Z</time></trkpt>
<trkpt lat="46.203260000" lon="7.231590000"><ele></ele><time>2013-8-8T3:50:16Z</time></trkpt>
<trkpt lat="46.203270000" lon="7.231550000"><ele></ele><time>2013-8-8T3:50:19Z</time></trkpt>
<trkpt lat="46.203270000" lon="7.231510000"><ele></ele><time>2013-8-8T3:50:22Z</time></trkpt>
<trkpt lat="46.203270000" lon="7.231470000"><ele></ele><time>2013-8-8T3:50:25Z</time></trkpt>
<trkpt lat="46.203270000" lon="7.231440000"><ele></ele><time>2013-8-8T3:50:28Z</time></trkpt>
<trkpt lat="46.203290000" lon="7.231170000"><ele></ele><time>2013-8-8T3:50:31Z</time></trkpt>
<trkpt lat="46.203300000" lon="7.231130000"><ele></ele><time>2013-8-8T3:50:34Z</time></trkpt>
<trkpt lat="46.203300000" lon="7.231100000"><ele></ele><time>2013-8-8T3:50:37Z</time></trkpt>
<trkpt lat="46.203290000" lon="7.231060000"><ele></ele><time>2013-8-8T3:50:40Z</time></trkpt>
<trkpt lat="46.203300000" lon="7.231030000"><ele></ele><time>2013-8-8T3:50:43Z</time></trkpt>
<trkpt lat="46.203300000" lon="7.230870000"><ele></ele><time>2013-8-8T3:50:46Z</time></trkpt>
<trkpt lat="46.203310000" lon="7.230840000"><ele></ele><time>2013-8-8T3:50:49Z</time></trkpt>
<trkpt lat="46.203310000" lon="7.230800000"><ele></ele><time>2013-8-8T3:50:52Z</time></trkpt>
<trkpt lat="46.203310000" lon="7.230770000"><ele></ele><time>2013-8-8T3:50:55Z</time></trkpt>
<trkpt lat="46.203320000" lon="7.230720000"><ele></ele><time>2013-8-8T3:50:58Z</time></trkpt>
<trkpt lat="46.203320000" lon="7.230590000"><ele></ele><time>2013-8-8T3:51:1Z</time></trkpt>
<trkpt lat="46.203330000" lon="7.230550000"><ele></ele><time>2013-8-8T3:51:4Z</time></trkpt>
<trkpt lat="46.203330000" lon="7.230520000"><ele></ele><time>2013-8-8T3:51:7Z</time></trkpt>
<trkpt lat="46.203330000" lon="7.230480000"><ele></ele><time>2013-8-8T3:51:10Z</time></trkpt>
<trkpt lat="46.203330000" lon="7.230440000"><ele></ele><time>2013-8-8T3:51:13Z</time></trkpt>
<trkpt lat="46.203340000" lon="7.230400000"><ele></ele><time>2013-8-8T3:51:16Z</time></trkpt>
<trkpt lat="46.203340000" lon="7.230300000"><ele></ele><time>2013-8-8T3:51:19Z</time></trkpt>
<trkpt lat="46.203350000" lon="7.230230000"><ele></ele><time>2013-8-8T3:51:22Z</time></trkpt>
<trkpt lat="46.203350000" lon="7.230200000"><ele></ele><time>2013-8-8T3:51:25Z</time></trkpt>
<trkpt lat="46.203350000" lon="7.230160000"><ele></ele><time>2013-8-8T3:51:28Z</time></trkpt>
<trkpt lat="46.203360000" lon="7.230130000"><ele></ele><time>2013-8-8T3:51:31Z</time></trkpt>
<trkpt lat="46.203360000" lon="7.230090000"><ele></ele><time>2013-8-8T3:51:34Z</time></trkpt>
<trkpt lat="46.203380000" lon="7.229950000"><ele></ele><time>2013-8-8T3:51:37Z</time></trkpt>
<trkpt lat="46.203380000" lon="7.229920000"><ele></ele><time>2013-8-8T3:51:40Z</time></trkpt>
<trkpt lat="46.203390000" lon="7.229890000"><ele></ele><time>2013-8-8T3:51:43Z</time></trkpt>
<trkpt lat="46.203390000" lon="7.229860000"><ele></ele><time>2013-8-8T3:51:46Z</time></trkpt>
<trkpt lat="46.203410000" lon="7.229730000"><ele></ele><time>2013-8-8T3:51:49Z</time></trkpt>
<trkpt lat="46.203420000" lon="7.229690000"><ele></ele><time>2013-8-8T3:51:52Z</time></trkpt>
<trkpt lat="46.203430000" lon="7.229660000"><ele></ele><time>2013-8-8T3:51:55Z</time></trkpt>
<trkpt lat="46.203430000" lon="7.229620000"><ele></ele><time>2013-8-8T3:51:58Z</time></trkpt>
<trkpt lat="46.203440000" lon="7.229590000"><ele></ele><time>2013-8-8T3:52:1Z</time></trkpt>
<trkpt lat="46.203470000" lon="7.229420000"><ele></ele><time>2013-8-8T3:52:4Z</time></trkpt>
<trkpt lat="46.203470000" lon="7.229390000"><ele></ele><time>2013-8-8T3:52:7Z</time></trkpt>
<trkpt lat="46.203480000" lon="7.229350000"><ele></ele><time>2013-8-8T3:52:10Z</time></trkpt>
<trkpt lat="46.203490000" lon="7.229320000"><ele></ele><time>2013-8-8T3:52:13Z</time></trkpt>
<trkpt lat="46.203500000" lon="7.229290000"><ele></ele><time>2013-8-8T3:52:16Z</time></trkpt>
<trkpt lat="46.203520000" lon="7.229140000"><ele></ele><time>2013-8-8T3:52:19Z</time></trkpt>
<trkpt lat="46.203530000" lon="7.229110000"><ele></ele><time>2013-8-8T3:52:22Z</time></trkpt>
<trkpt lat="46.203530000" lon="7.229070000"><ele></ele><time>2013-8-8T3:52:25Z</time></trkpt>
<trkpt lat="46.203540000" lon="7.229040000"><ele></ele><time>2013-8-8T3:52:28Z</time></trkpt>
<trkpt lat="46.203560000" lon="7.228940000"><ele></ele><time>2013-8-8T3:52:31Z</time></trkpt>
<trkpt lat="46.203570000" lon="7.228900000"><ele></ele><time>2013-8-8T3:52:34Z</time></trkpt>
<trkpt lat="46.203580000" lon="7.228870000"><ele></ele><time>2013-8-8T3:52:37Z</time></trkpt>
<trkpt lat="46.203580000" lon="7.228830000"><ele></ele><time>2013-8-8T3:52:40Z</time></trkpt>
<trkpt lat="46.203590000" lon="7.228800000"><ele></ele><time>2013-8-8T3:52:43Z</time></trkpt>
<trkpt lat="46.203600000" lon="7.228740000"><ele></ele><time>2013-8-8T3:52:46Z</time></trkpt>
<trkpt lat="46.203610000" lon="7.228670000"><ele></ele><time>2013-8-8T3:52:49Z</time></trkpt>
<trkpt lat="46.203610000" lon="7.228630000"><ele></ele><time>2013-8-8T3:52:52Z</time></trkpt>
<trkpt lat="46.203620000" lon="7.228600000"><ele></ele><time>2013-8-8T3:52:55Z</time></trkpt>
<trkpt lat="46.203630000" lon="7.228560000"><ele></ele><time>2013-8-8T3:52:58Z</time></trkpt>
<trkpt lat="46.203630000" lon="7.228520000"><ele></ele><time>2013-8-8T3:53:1Z</time></trkpt>
<trkpt lat="46.203660000" lon="7.228350000"><ele></ele><time>2013-8-8T3:53:4Z</time></trkpt>
<trkpt lat="46.203660000" lon="7.228310000"><ele></ele><time>2013-8-8T3:53:7Z</time></trkpt>
<trkpt lat="46.203660000" lon="7.228280000"><ele></ele><time>2013-8-8T3:53:10Z</time></trkpt>
<trkpt lat="46.203660000" lon="7.228240000"><ele></ele><time>2013-8-8T3:53:13Z</time></trkpt>
<trkpt lat="46.203670000" lon="7.228200000"><ele></ele><time>2013-8-8T3:53:16Z</time></trkpt>
<trkpt lat="46.203660000" lon="7.228120000"><ele></ele><time>2013-8-8T3:53:19Z</time></trkpt>
<trkpt lat="46.203660000" lon="7.228080000"><ele></ele><time>2013-8-8T3:53:22Z</time></trkpt>
<trkpt lat="46.203660000" lon="7.228040000"><ele></ele><time>2013-8-8T3:53:25Z</time></trkpt>
<trkpt lat="46.203660000" lon="7.228010000"><ele></ele><time>2013-8-8T3:53:28Z</time></trkpt>
<trkpt lat="46.203660000" lon="7.227970000"><ele></ele><time>2013-8-8T3:53:31Z</time></trkpt>
<trkpt lat="46.203640000" lon="7.227860000"><ele></ele><time>2013-8-8T3:53:34Z</time></trkpt>
<trkpt lat="46.203650000" lon="7.227790000"><ele></ele><time>2013-8-8T3:53:37Z</time></trkpt>
<trkpt lat="46.203660000" lon="7.227760000"><ele></ele><time>2013-8-8T3:53:40Z</time></trkpt>
<trkpt lat="46.203670000" lon="7.227730000"><ele></ele><time>2013-8-8T3:53:43Z</time></trkpt>
<trkpt lat="46.203690000" lon="7.227710000"><ele></ele><time>2013-8-8T3:53:46Z</time></trkpt>
<trkpt lat="46.203720000" lon="7.227700000"><ele></ele><time>2013-8-8T3:53:49Z</time></trkpt>
<trkpt lat="46.203800000" lon="7.227620000"><ele></ele><time>2013-8-8T3:53:52Z</time></trkpt>
<trkpt lat="46.203820000" lon="7.227600000"><ele></ele><time>2013-8-8T3:53:55Z</time></trkpt>
<trkpt lat="46.203830000" lon="7.227580000"><ele></ele><time>2013-8-8T3:53:58Z</time></trkpt>
<trkpt lat="46.203840000" lon="7.227550000"><ele></ele><time>2013-8-8T3:54:1Z</time></trkpt>
<trkpt lat="46.203850000" lon="7.227510000"><ele></ele><time>2013-8-8T3:54:4Z</time></trkpt>
<trkpt lat="46.203850000" lon="7.227480000"><ele></ele><time>2013-8-8T3:54:7Z</time></trkpt>
<trkpt lat="46.203900000" lon="7.227320000"><ele></ele><time>2013-8-8T3:54:10Z</time></trkpt>
<trkpt lat="46.203910000" lon="7.227300000"><ele></ele><time>2013-8-8T3:54:13Z</time></trkpt>
<trkpt lat="46.203930000" lon="7.227270000"><ele></ele><time>2013-8-8T3:54:16Z</time></trkpt>
<trkpt lat="46.203940000" lon="7.227250000"><ele></ele><time>2013-8-8T3:54:19Z</time></trkpt>
<trkpt lat="46.203950000" lon="7.227220000"><ele></ele><time>2013-8-8T3:54:22Z</time></trkpt>
<trkpt lat="46.203950000" lon="7.227200000"><ele></ele><time>2013-8-8T3:54:25Z</time></trkpt>
<trkpt lat="46.203960000" lon="7.227120000"><ele></ele><time>2013-8-8T3:54:28Z</time></trkpt>
<trkpt lat="46.203970000" lon="7.227080000"><ele></ele><time>2013-8-8T3:54:31Z</time></trkpt>
<trkpt lat="46.203980000" lon="7.227050000"><ele></ele><time>2013-8-8T3:54:34Z</time></trkpt>
<trkpt lat="46.203990000" lon="7.227020000"><ele></ele><time>2013-8-8T3:54:37Z</time></trkpt>
<trkpt lat="46.204000000" lon="7.226990000"><ele></ele><time>2013-8-8T3:54:40Z</time></trkpt>
<trkpt lat="46.204020000" lon="7.226890000"><ele></ele><time>2013-8-8T3:54:43Z</time></trkpt>
<trkpt lat="46.204020000" lon="7.226850000"><ele></ele><time>2013-8-8T3:54:46Z</time></trkpt>
<trkpt lat="46.204030000" lon="7.226820000"><ele></ele><time>2013-8-8T3:54:49Z</time></trkpt>
<trkpt lat="46.204030000" lon="7.226790000"><ele></ele><time>2013-8-8T3:54:52Z</time></trkpt>
<trkpt lat="46.204030000" lon="7.226760000"><ele></ele><time>2013-8-8T3:54:55Z</time></trkpt>
<trkpt lat="46.204030000" lon="7.226680000"><ele></ele><time>2013-8-8T3:54:58Z</time></trkpt>
<trkpt lat="46.204040000" lon="7.226630000"><ele></ele><time>2013-8-8T3:55:1Z</time></trkpt>
<trkpt lat="46.204040000" lon="7.226600000"><ele></ele><time>2013-8-8T3:55:4Z</time></trkpt>
<trkpt lat="46.204060000" lon="7.226570000"><ele></ele><time>2013-8-8T3:55:7Z</time></trkpt>
<trkpt lat="46.204060000" lon="7.226530000"><ele></ele><time>2013-8-8T3:55:10Z</time></trkpt>
<trkpt lat="46.204070000" lon="7.226500000"><ele></ele><time>2013-8-8T3:55:13Z</time></trkpt>
<trkpt lat="46.204080000" lon="7.226410000"><ele></ele><time>2013-8-8T3:55:16Z</time></trkpt>
<trkpt lat="46.204100000" lon="7.226380000"><ele></ele><time>2013-8-8T3:55:19Z</time></trkpt>
<trkpt lat="46.204110000" lon="7.226340000"><ele></ele><time>2013-8-8T3:55:22Z</time></trkpt>
<trkpt lat="46.204120000" lon="7.226310000"><ele></ele><time>2013-8-8T3:55:25Z</time></trkpt>
<trkpt lat="46.204120000" lon="7.226270000"><ele></ele><time>2013-8-8T3:55:28Z</time></trkpt>
<trkpt lat="46.204150000" lon="7.226160000"><ele></ele><time>2013-8-8T3:55:31Z</time></trkpt>
<trkpt lat="46.204170000" lon="7.226130000"><ele></ele><time>2013-8-8T3:55:34Z</time></trkpt>
<trkpt lat="46.204180000" lon="7.226100000"><ele></ele><time>2013-8-8T3:55:37Z</time></trkpt>
<trkpt lat="46.204190000" lon="7.226070000"><ele></ele><time>2013-8-8T3:55:40Z</time></trkpt>
<trkpt lat="46.204200000" lon="7.226040000"><ele></ele><time>2013-8-8T3:55:43Z</time></trkpt>
<trkpt lat="46.204210000" lon="7.225980000"><ele></ele><time>2013-8-8T3:55:46Z</time></trkpt>
<trkpt lat="46.204220000" lon="7.225950000"><ele></ele><time>2013-8-8T3:55:49Z</time></trkpt>
<trkpt lat="46.204240000" lon="7.225920000"><ele></ele><time>2013-8-8T3:55:52Z</time></trkpt>
<trkpt lat="46.204240000" lon="7.225890000"><ele></ele><time>2013-8-8T3:55:55Z</time></trkpt>
<trkpt lat="46.204250000" lon="7.225860000"><ele></ele><time>2013-8-8T3:55:58Z</time></trkpt>
<trkpt lat="46.204260000" lon="7.225800000"><ele></ele><time>2013-8-8T3:56:1Z</time></trkpt>
<trkpt lat="46.204270000" lon="7.225780000"><ele></ele><time>2013-8-8T3:56:4Z</time></trkpt>
<trkpt lat="46.204270000" lon="7.225750000"><ele></ele><time>2013-8-8T3:56:7Z</time></trkpt>
<trkpt lat="46.204280000" lon="7.225720000"><ele></ele><time>2013-8-8T3:56:10Z</time></trkpt>
<trkpt lat="46.204300000" lon="7.225700000"><ele></ele><time>2013-8-8T3:56:13Z</time></trkpt>
<trkpt lat="46.204320000" lon="7.225610000"><ele></ele><time>2013-8-8T3:56:16Z</time></trkpt>
<trkpt lat="46.204330000" lon="7.225580000"><ele></ele><time>2013-8-8T3:56:19Z</time></trkpt>
<trkpt lat="46.204330000" lon="7.225550000"><ele></ele><time>2013-8-8T3:56:22Z</time></trkpt>
<trkpt lat="46.204340000" lon="7.225520000"><ele></ele><time>2013-8-8T3:56:25Z</time></trkpt>
<trkpt lat="46.204340000" lon="7.225490000"><ele></ele><time>2013-8-8T3:56:28Z</time></trkpt>
<trkpt lat="46.204350000" lon="7.225460000"><ele></ele><time>2013-8-8T3:56:31Z</time></trkpt>
<trkpt lat="46.204360000" lon="7.225410000"><ele></ele><time>2013-8-8T3:56:34Z</time></trkpt>
<trkpt lat="46.204380000" lon="7.225380000"><ele></ele><time>2013-8-8T3:56:37Z</time></trkpt>
<trkpt lat="46.204380000" lon="7.225360000"><ele></ele><time>2013-8-8T3:56:40Z</time></trkpt>
<trkpt lat="46.204400000" lon="7.225340000"><ele></ele><time>2013-8-8T3:56:43Z</time></trkpt>
<trkpt lat="46.204410000" lon="7.225310000"><ele></ele><time>2013-8-8T3:56:46Z</time></trkpt>
<trkpt lat="46.204420000" lon="7.225280000"><ele></ele><time>2013-8-8T3:56:49Z</time></trkpt>
<trkpt lat="46.204450000" lon="7.225200000"><ele></ele><time>2013-8-8T3:56:52Z</time></trkpt>
<trkpt lat="46.204460000" lon="7.225180000"><ele></ele><time>2013-8-8T3:56:55Z</time></trkpt>
<trkpt lat="46.204470000" lon="7.225150000"><ele></ele><time>2013-8-8T3:56:58Z</time></trkpt>
<trkpt lat="46.204490000" lon="7.225130000"><ele></ele><time>2013-8-8T3:57:1Z</time></trkpt>
<trkpt lat="46.204500000" lon="7.225100000"><ele></ele><time>2013-8-8T3:57:4Z</time></trkpt>
<trkpt lat="46.204510000" lon="7.225040000"><ele></ele><time>2013-8-8T3:57:7Z</time></trkpt>
<trkpt lat="46.204550000" lon="7.224950000"><ele></ele><time>2013-8-8T3:57:10Z</time></trkpt>
<trkpt lat="46.204560000" lon="7.224920000"><ele></ele><time>2013-8-8T3:57:13Z</time></trkpt>
<trkpt lat="46.204570000" lon="7.224900000"><ele></ele><time>2013-8-8T3:57:16Z</time></trkpt>
<trkpt lat="46.204580000" lon="7.224870000"><ele></ele><time>2013-8-8T3:57:19Z</time></trkpt>
<trkpt lat="46.204590000" lon="7.224840000"><ele></ele><time>2013-8-8T3:57:22Z</time></trkpt>
<trkpt lat="46.204630000" lon="7.224750000"><ele></ele><time>2013-8-8T3:57:25Z</time></trkpt>
<trkpt lat="46.204640000" lon="7.224720000"><ele></ele><time>2013-8-8T3:57:28Z</time></trkpt>
<trkpt lat="46.204660000" lon="7.224690000"><ele></ele><time>2013-8-8T3:57:31Z</time></trkpt>
<trkpt lat="46.204670000" lon="7.224670000"><ele></ele><time>2013-8-8T3:57:34Z</time></trkpt>
<trkpt lat="46.204680000" lon="7.224640000"><ele></ele><time>2013-8-8T3:57:37Z</time></trkpt>
<trkpt lat="46.204710000" lon="7.224570000"><ele></ele><time>2013-8-8T3:57:40Z</time></trkpt>
<trkpt lat="46.204720000" lon="7.224540000"><ele></ele><time>2013-8-8T3:57:43Z</time></trkpt>
<trkpt lat="46.204730000" lon="7.224520000"><ele></ele><time>2013-8-8T3:57:46Z</time></trkpt>
<trkpt lat="46.204740000" lon="7.224490000"><ele></ele><time>2013-8-8T3:57:49Z</time></trkpt>
<trkpt lat="46.204770000" lon="7.224370000"><ele></ele><time>2013-8-8T3:57:52Z</time></trkpt>
<trkpt lat="46.204790000" lon="7.224340000"><ele></ele><time>2013-8-8T3:57:55Z</time></trkpt>
<trkpt lat="46.204800000" lon="7.224320000"><ele></ele><time>2013-8-8T3:57:58Z</time></trkpt>
<trkpt lat="46.204810000" lon="7.224300000"><ele></ele><time>2013-8-8T3:58:1Z</time></trkpt>
<trkpt lat="46.204820000" lon="7.224280000"><ele></ele><time>2013-8-8T3:58:4Z</time></trkpt>
<trkpt lat="46.204850000" lon="7.224200000"><ele></ele><time>2013-8-8T3:58:7Z</time></trkpt>
<trkpt lat="46.204860000" lon="7.224180000"><ele></ele><time>2013-8-8T3:58:10Z</time></trkpt>
<trkpt lat="46.204880000" lon="7.224150000"><ele></ele><time>2013-8-8T3:58:13Z</time></trkpt>
<trkpt lat="46.204890000" lon="7.224130000"><ele></ele><time>2013-8-8T3:58:16Z</time></trkpt>
<trkpt lat="46.204900000" lon="7.224100000"><ele></ele><time>2013-8-8T3:58:19Z</time></trkpt>
<trkpt lat="46.204950000" lon="7.223980000"><ele></ele><time>2013-8-8T3:58:22Z</time></trkpt>
<trkpt lat="46.204960000" lon="7.223960000"><ele></ele><time>2013-8-8T3:58:25Z</time></trkpt>
<trkpt lat="46.204980000" lon="7.223930000"><ele></ele><time>2013-8-8T3:58:28Z</time></trkpt>
<trkpt lat="46.204980000" lon="7.223910000"><ele></ele><time>2013-8-8T3:58:31Z</time></trkpt>
<trkpt lat="46.205030000" lon="7.223810000"><ele></ele><time>2013-8-8T3:58:34Z</time></trkpt>
<trkpt lat="46.205040000" lon="7.223790000"><ele></ele><time>2013-8-8T3:58:37Z</time></trkpt>
<trkpt lat="46.205050000" lon="7.223760000"><ele></ele><time>2013-8-8T3:58:40Z</time></trkpt>
<trkpt lat="46.205060000" lon="7.223740000"><ele></ele><time>2013-8-8T3:58:43Z</time></trkpt>
<trkpt lat="46.205070000" lon="7.223710000"><ele></ele><time>2013-8-8T3:58:46Z</time></trkpt>
<trkpt lat="46.205120000" lon="7.223610000"><ele></ele><time>2013-8-8T3:58:49Z</time></trkpt>
<trkpt lat="46.205130000" lon="7.223580000"><ele></ele><time>2013-8-8T3:58:52Z</time></trkpt>
<trkpt lat="46.205150000" lon="7.223560000"><ele></ele><time>2013-8-8T3:58:55Z</time></trkpt>
<trkpt lat="46.205160000" lon="7.223530000"><ele></ele><time>2013-8-8T3:58:58Z</time></trkpt>
<trkpt lat="46.205170000" lon="7.223510000"><ele></ele><time>2013-8-8T3:59:1Z</time></trkpt>
<trkpt lat="46.205180000" lon="7.223480000"><ele></ele><time>2013-8-8T3:59:4Z</time></trkpt>
<trkpt lat="46.205200000" lon="7.223430000"><ele></ele><time>2013-8-8T3:59:7Z</time></trkpt>
<trkpt lat="46.205240000" lon="7.223360000"><ele></ele><time>2013-8-8T3:59:10Z</time></trkpt>
<trkpt lat="46.205250000" lon="7.223340000"><ele></ele><time>2013-8-8T3:59:13Z</time></trkpt>
<trkpt lat="46.205270000" lon="7.223310000"><ele></ele><time>2013-8-8T3:59:16Z</time></trkpt>
<trkpt lat="46.205280000" lon="7.223280000"><ele></ele><time>2013-8-8T3:59:19Z</time></trkpt>
<trkpt lat="46.205280000" lon="7.223250000"><ele></ele><time>2013-8-8T3:59:22Z</time></trkpt>
<trkpt lat="46.205320000" lon="7.223180000"><ele></ele><time>2013-8-8T3:59:25Z</time></trkpt>
<trkpt lat="46.205330000" lon="7.223150000"><ele></ele><time>2013-8-8T3:59:28Z</time></trkpt>
<trkpt lat="46.205350000" lon="7.223130000"><ele></ele><time>2013-8-8T3:59:31Z</time></trkpt>
<trkpt lat="46.205360000" lon="7.223100000"><ele></ele><time>2013-8-8T3:59:34Z</time></trkpt>
<trkpt lat="46.205360000" lon="7.223070000"><ele></ele><time>2013-8-8T3:59:37Z</time></trkpt>
<trkpt lat="46.205410000" lon="7.222960000"><ele></ele><time>2013-8-8T3:59:40Z</time></trkpt>
<trkpt lat="46.205430000" lon="7.222940000"><ele></ele><time>2013-8-8T3:59:43Z</time></trkpt>
<trkpt lat="46.205440000" lon="7.222910000"><ele></ele><time>2013-8-8T3:59:46Z</time></trkpt>
<trkpt lat="46.205450000" lon="7.222890000"><ele></ele><time>2013-8-8T3:59:49Z</time></trkpt>
<trkpt lat="46.205460000" lon="7.222870000"><ele></ele><time>2013-8-8T3:59:52Z</time></trkpt>
<trkpt lat="46.205490000" lon="7.222790000"><ele></ele><time>2013-8-8T3:59:55Z</time></trkpt>
<trkpt lat="46.205530000" lon="7.222710000"><ele></ele><time>2013-8-8T3:59:58Z</time></trkpt>
<trkpt lat="46.205540000" lon="7.222680000"><ele></ele><time>2013-8-8T4:0:1Z</time></trkpt>
<trkpt lat="46.205550000" lon="7.222660000"><ele></ele><time>2013-8-8T4:0:4Z</time></trkpt>
<trkpt lat="46.205570000" lon="7.222640000"><ele></ele><time>2013-8-8T4:0:7Z</time></trkpt>
<trkpt lat="46.205600000" lon="7.222560000"><ele></ele><time>2013-8-8T4:0:10Z</time></trkpt>
<trkpt lat="46.205620000" lon="7.222540000"><ele></ele><time>2013-8-8T4:0:13Z</time></trkpt>
<trkpt lat="46.205630000" lon="7.222520000"><ele></ele><time>2013-8-8T4:0:16Z</time></trkpt>
<trkpt lat="46.205650000" lon="7.222490000"><ele></ele><time>2013-8-8T4:0:19Z</time></trkpt>
<trkpt lat="46.205650000" lon="7.222470000"><ele></ele><time>2013-8-8T4:0:22Z</time></trkpt>
<trkpt lat="46.205680000" lon="7.222380000"><ele></ele><time>2013-8-8T4:0:25Z</time></trkpt>
<trkpt lat="46.205690000" lon="7.222360000"><ele></ele><time>2013-8-8T4:0:28Z</time></trkpt>
<trkpt lat="46.205710000" lon="7.222340000"><ele></ele><time>2013-8-8T4:0:31Z</time></trkpt>
<trkpt lat="46.205720000" lon="7.222310000"><ele></ele><time>2013-8-8T4:0:34Z</time></trkpt>
<trkpt lat="46.205730000" lon="7.222280000"><ele></ele><time>2013-8-8T4:0:37Z</time></trkpt>
<trkpt lat="46.205750000" lon="7.222260000"><ele></ele><time>2013-8-8T4:0:40Z</time></trkpt>
<trkpt lat="46.205780000" lon="7.222220000"><ele></ele><time>2013-8-8T4:0:43Z</time></trkpt>
<trkpt lat="46.205790000" lon="7.222190000"><ele></ele><time>2013-8-8T4:0:46Z</time></trkpt>
<trkpt lat="46.205800000" lon="7.222170000"><ele></ele><time>2013-8-8T4:0:49Z</time></trkpt>
<trkpt lat="46.205810000" lon="7.222140000"><ele></ele><time>2013-8-8T4:0:52Z</time></trkpt>
<trkpt lat="46.205830000" lon="7.222120000"><ele></ele><time>2013-8-8T4:0:55Z</time></trkpt>
<trkpt lat="46.205890000" lon="7.222040000"><ele></ele><time>2013-8-8T4:0:58Z</time></trkpt>
<trkpt lat="46.205910000" lon="7.222020000"><ele></ele><time>2013-8-8T4:1:1Z</time></trkpt>
<trkpt lat="46.205920000" lon="7.221990000"><ele></ele><time>2013-8-8T4:1:4Z</time></trkpt>
<trkpt lat="46.205930000" lon="7.221970000"><ele></ele><time>2013-8-8T4:1:7Z</time></trkpt>
<trkpt lat="46.205950000" lon="7.221950000"><ele></ele><time>2013-8-8T4:1:10Z</time></trkpt>
<trkpt lat="46.205970000" lon="7.221910000"><ele></ele><time>2013-8-8T4:1:13Z</time></trkpt>
<trkpt lat="46.205990000" lon="7.221880000"><ele></ele><time>2013-8-8T4:1:16Z</time></trkpt>
<trkpt lat="46.206010000" lon="7.221860000"><ele></ele><time>2013-8-8T4:1:19Z</time></trkpt>
<trkpt lat="46.206020000" lon="7.221840000"><ele></ele><time>2013-8-8T4:1:22Z</time></trkpt>
<trkpt lat="46.206020000" lon="7.221820000"><ele></ele><time>2013-8-8T4:1:25Z</time></trkpt>
<trkpt lat="46.206050000" lon="7.221780000"><ele></ele><time>2013-8-8T4:1:28Z</time></trkpt>
<trkpt lat="46.206070000" lon="7.221770000"><ele></ele><time>2013-8-8T4:1:31Z</time></trkpt>
<trkpt lat="46.206130000" lon="7.221760000"><ele></ele><time>2013-8-8T4:1:34Z</time></trkpt>
<trkpt lat="46.206150000" lon="7.221760000"><ele></ele><time>2013-8-8T4:1:37Z</time></trkpt>
<trkpt lat="46.206180000" lon="7.221770000"><ele></ele><time>2013-8-8T4:1:40Z</time></trkpt>
<trkpt lat="46.206200000" lon="7.221780000"><ele></ele><time>2013-8-8T4:1:43Z</time></trkpt>
<trkpt lat="46.206230000" lon="7.221790000"><ele></ele><time>2013-8-8T4:1:46Z</time></trkpt>
<trkpt lat="46.206250000" lon="7.221800000"><ele></ele><time>2013-8-8T4:1:49Z</time></trkpt>
<trkpt lat="46.206270000" lon="7.221810000"><ele></ele><time>2013-8-8T4:1:52Z</time></trkpt>
<trkpt lat="46.206410000" lon="7.221850000"><ele></ele><time>2013-8-8T4:1:55Z</time></trkpt>
<trkpt lat="46.206430000" lon="7.221860000"><ele></ele><time>2013-8-8T4:1:58Z</time></trkpt>
<trkpt lat="46.206450000" lon="7.221860000"><ele></ele><time>2013-8-8T4:2:1Z</time></trkpt>
<trkpt lat="46.206470000" lon="7.221870000"><ele></ele><time>2013-8-8T4:2:4Z</time></trkpt>
<trkpt lat="46.206500000" lon="7.221890000"><ele></ele><time>2013-8-8T4:2:7Z</time></trkpt>
<trkpt lat="46.206520000" lon="7.221890000"><ele></ele><time>2013-8-8T4:2:10Z</time></trkpt>
<trkpt lat="46.206610000" lon="7.221930000"><ele></ele><time>2013-8-8T4:2:13Z</time></trkpt>
<trkpt lat="46.206660000" lon="7.221950000"><ele></ele><time>2013-8-8T4:2:16Z</time></trkpt>
<trkpt lat="46.206680000" lon="7.221970000"><ele></ele><time>2013-8-8T4:2:19Z</time></trkpt>
<trkpt lat="46.206710000" lon="7.221970000"><ele></ele><time>2013-8-8T4:2:22Z</time></trkpt>
<trkpt lat="46.206730000" lon="7.221980000"><ele></ele><time>2013-8-8T4:2:25Z</time></trkpt>
<trkpt lat="46.206750000" lon="7.221980000"><ele></ele><time>2013-8-8T4:2:28Z</time></trkpt>
<trkpt lat="46.206770000" lon="7.221980000"><ele></ele><time>2013-8-8T4:2:31Z</time></trkpt>
<trkpt lat="46.206910000" lon="7.221870000"><ele></ele><time>2013-8-8T4:2:34Z</time></trkpt>
<trkpt lat="46.206920000" lon="7.221830000"><ele></ele><time>2013-8-8T4:2:37Z</time></trkpt>
<trkpt lat="46.206930000" lon="7.221790000"><ele></ele><time>2013-8-8T4:2:40Z</time></trkpt>
<trkpt lat="46.206940000" lon="7.221750000"><ele></ele><time>2013-8-8T4:2:43Z</time></trkpt>
<trkpt lat="46.206930000" lon="7.221700000"><ele></ele><time>2013-8-8T4:2:46Z</time></trkpt>
<trkpt lat="46.206930000" lon="7.221660000"><ele></ele><time>2013-8-8T4:2:49Z</time></trkpt>
<trkpt lat="46.206890000" lon="7.221470000"><ele></ele><time>2013-8-8T4:2:52Z</time></trkpt>
<trkpt lat="46.206870000" lon="7.221430000"><ele></ele><time>2013-8-8T4:2:55Z</time></trkpt>
<trkpt lat="46.206800000" lon="7.221220000"><ele></ele><time>2013-8-8T4:2:58Z</time></trkpt>
<trkpt lat="46.206790000" lon="7.221180000"><ele></ele><time>2013-8-8T4:3:1Z</time></trkpt>
<trkpt lat="46.206780000" lon="7.221150000"><ele></ele><time>2013-8-8T4:3:4Z</time></trkpt>
<trkpt lat="46.206780000" lon="7.221120000"><ele></ele><time>2013-8-8T4:3:7Z</time></trkpt>
<trkpt lat="46.206770000" lon="7.221080000"><ele></ele><time>2013-8-8T4:3:10Z</time></trkpt>
<trkpt lat="46.206760000" lon="7.221050000"><ele></ele><time>2013-8-8T4:3:13Z</time></trkpt>
<trkpt lat="46.206730000" lon="7.220950000"><ele></ele><time>2013-8-8T4:3:16Z</time></trkpt>
<trkpt lat="46.206700000" lon="7.220860000"><ele></ele><time>2013-8-8T4:3:19Z</time></trkpt>
<trkpt lat="46.206690000" lon="7.220830000"><ele></ele><time>2013-8-8T4:3:22Z</time></trkpt>
<trkpt lat="46.206680000" lon="7.220800000"><ele></ele><time>2013-8-8T4:3:25Z</time></trkpt>
<trkpt lat="46.206670000" lon="7.220770000"><ele></ele><time>2013-8-8T4:3:28Z</time></trkpt>
<trkpt lat="46.206670000" lon="7.220740000"><ele></ele><time>2013-8-8T4:3:31Z</time></trkpt>
<trkpt lat="46.206630000" lon="7.220580000"><ele></ele><time>2013-8-8T4:3:34Z</time></trkpt>
<trkpt lat="46.206630000" lon="7.220550000"><ele></ele><time>2013-8-8T4:3:37Z</time></trkpt>
<trkpt lat="46.206620000" lon="7.220520000"><ele></ele><time>2013-8-8T4:3:40Z</time></trkpt>
<trkpt lat="46.206620000" lon="7.220490000"><ele></ele><time>2013-8-8T4:3:43Z</time></trkpt>
<trkpt lat="46.206620000" lon="7.220450000"><ele></ele><time>2013-8-8T4:3:46Z</time></trkpt>
<trkpt lat="46.206600000" lon="7.220290000"><ele></ele><time>2013-8-8T4:3:49Z</time></trkpt>
<trkpt lat="46.206600000" lon="7.220250000"><ele></ele><time>2013-8-8T4:3:52Z</time></trkpt>
<trkpt lat="46.206590000" lon="7.220220000"><ele></ele><time>2013-8-8T4:3:55Z</time></trkpt>
<trkpt lat="46.206590000" lon="7.220180000"><ele></ele><time>2013-8-8T4:3:58Z</time></trkpt>
<trkpt lat="46.206590000" lon="7.220030000"><ele></ele><time>2013-8-8T4:4:1Z</time></trkpt>
<trkpt lat="46.206590000" lon="7.219990000"><ele></ele><time>2013-8-8T4:4:4Z</time></trkpt>
<trkpt lat="46.206590000" lon="7.219960000"><ele></ele><time>2013-8-8T4:4:7Z</time></trkpt>
<trkpt lat="46.206600000" lon="7.219920000"><ele></ele><time>2013-8-8T4:4:10Z</time></trkpt>
<trkpt lat="46.206600000" lon="7.219890000"><ele></ele><time>2013-8-8T4:4:13Z</time></trkpt>
<trkpt lat="46.206610000" lon="7.219790000"><ele></ele><time>2013-8-8T4:4:16Z</time></trkpt>
<trkpt lat="46.206620000" lon="7.219700000"><ele></ele><time>2013-8-8T4:4:19Z</time></trkpt>
<trkpt lat="46.206630000" lon="7.219670000"><ele></ele><time>2013-8-8T4:4:22Z</time></trkpt>
<trkpt lat="46.206630000" lon="7.219640000"><ele></ele><time>2013-8-8T4:4:25Z</time></trkpt>
<trkpt lat="46.206640000" lon="7.219610000"><ele></ele><time>2013-8-8T4:4:28Z</time></trkpt>
<trkpt lat="46.206650000" lon="7.219570000"><ele></ele><time>2013-8-8T4:4:31Z</time></trkpt>
<trkpt lat="46.206690000" lon="7.219390000"><ele></ele><time>2013-8-8T4:4:34Z</time></trkpt>
<trkpt lat="46.206700000" lon="7.219360000"><ele></ele><time>2013-8-8T4:4:37Z</time></trkpt>
<trkpt lat="46.206700000" lon="7.219330000"><ele></ele><time>2013-8-8T4:4:40Z</time></trkpt>
<trkpt lat="46.206710000" lon="7.219300000"><ele></ele><time>2013-8-8T4:4:43Z</time></trkpt>
<trkpt lat="46.206720000" lon="7.219260000"><ele></ele><time>2013-8-8T4:4:46Z</time></trkpt>
<trkpt lat="46.206750000" lon="7.219130000"><ele></ele><time>2013-8-8T4:4:49Z</time></trkpt>
<trkpt lat="46.206760000" lon="7.219110000"><ele></ele><time>2013-8-8T4:4:52Z</time></trkpt>
<trkpt lat="46.206760000" lon="7.219080000"><ele></ele><time>2013-8-8T4:4:55Z</time></trkpt>
<trkpt lat="46.206770000" lon="7.219050000"><ele></ele><time>2013-8-8T4:4:58Z</time></trkpt>
<trkpt lat="46.206780000" lon="7.219010000"><ele></ele><time>2013-8-8T4:5:1Z</time></trkpt>
<trkpt lat="46.206800000" lon="7.218880000"><ele></ele><time>2013-8-8T4:5:4Z</time></trkpt>
<trkpt lat="46.206810000" lon="7.218820000"><ele></ele><time>2013-8-8T4:5:7Z</time></trkpt>
<trkpt lat="46.206810000" lon="7.218780000"><ele></ele><time>2013-8-8T4:5:10Z</time></trkpt>
<trkpt lat="46.206810000" lon="7.218750000"><ele></ele><time>2013-8-8T4:5:13Z</time></trkpt>
<trkpt lat="46.206820000" lon="7.218720000"><ele></ele><time>2013-8-8T4:5:16Z</time></trkpt>
<trkpt lat="46.206820000" lon="7.218690000"><ele></ele><time>2013-8-8T4:5:19Z</time></trkpt>
<trkpt lat="46.206830000" lon="7.218650000"><ele></ele><time>2013-8-8T4:5:22Z</time></trkpt>
<trkpt lat="46.206830000" lon="7.218590000"><ele></ele><time>2013-8-8T4:5:25Z</time></trkpt>
<trkpt lat="46.206830000" lon="7.218550000"><ele></ele><time>2013-8-8T4:5:28Z</time></trkpt>
<trkpt lat="46.206820000" lon="7.218520000"><ele></ele><time>2013-8-8T4:5:31Z</time></trkpt>
<trkpt lat="46.206820000" lon="7.218480000"><ele></ele><time>2013-8-8T4:5:34Z</time></trkpt>
<trkpt lat="46.206820000" lon="7.218450000"><ele></ele><time>2013-8-8T4:5:37Z</time></trkpt>
<trkpt lat="46.206830000" lon="7.218270000"><ele></ele><time>2013-8-8T4:5:40Z</time></trkpt>
<trkpt lat="46.206820000" lon="7.218150000"><ele></ele><time>2013-8-8T4:5:43Z</time></trkpt>
<trkpt lat="46.206820000" lon="7.218110000"><ele></ele><time>2013-8-8T4:5:46Z</time></trkpt>
<trkpt lat="46.206820000" lon="7.218070000"><ele></ele><time>2013-8-8T4:5:49Z</time></trkpt>
<trkpt lat="46.206810000" lon="7.218030000"><ele></ele><time>2013-8-8T4:5:52Z</time></trkpt>
<trkpt lat="46.206810000" lon="7.218000000"><ele></ele><time>2013-8-8T4:5:55Z</time></trkpt>
<trkpt lat="46.206800000" lon="7.217770000"><ele></ele><time>2013-8-8T4:5:58Z</time></trkpt>
<trkpt lat="46.206760000" lon="7.217430000"><ele></ele><time>2013-8-8T4:6:1Z</time></trkpt>
<trkpt lat="46.206750000" lon="7.217380000"><ele></ele><time>2013-8-8T4:6:4Z</time></trkpt>
<trkpt lat="46.206710000" lon="7.217140000"><ele></ele><time>2013-8-8T4:6:7Z</time></trkpt>
<trkpt lat="46.206710000" lon="7.217000000"><ele></ele><time>2013-8-8T4:6:10Z</time></trkpt>
<trkpt lat="46.206690000" lon="7.216800000"><ele></ele><time>2013-8-8T4:6:13Z</time></trkpt>
<trkpt lat="46.206680000" lon="7.216560000"><ele></ele><time>2013-8-8T4:6:16Z</time></trkpt>
<trkpt lat="46.206680000" lon="7.216320000"><ele></ele><time>2013-8-8T4:6:19Z</time></trkpt>
<trkpt lat="46.206700000" lon="7.216210000"><ele></ele><time>2013-8-8T4:6:22Z</time></trkpt>
<trkpt lat="46.206720000" lon="7.216090000"><ele></ele><time>2013-8-8T4:6:25Z</time></trkpt>
<trkpt lat="46.206730000" lon="7.216040000"><ele></ele><time>2013-8-8T4:6:28Z</time></trkpt>
<trkpt lat="46.206740000" lon="7.215990000"><ele></ele><time>2013-8-8T4:6:31Z</time></trkpt>
<trkpt lat="46.206750000" lon="7.215940000"><ele></ele><time>2013-8-8T4:6:34Z</time></trkpt>
<trkpt lat="46.206750000" lon="7.215900000"><ele></ele><time>2013-8-8T4:6:37Z</time></trkpt>
<trkpt lat="46.206790000" lon="7.215600000"><ele></ele><time>2013-8-8T4:6:40Z</time></trkpt>
<trkpt lat="46.206790000" lon="7.215460000"><ele></ele><time>2013-8-8T4:6:43Z</time></trkpt>
<trkpt lat="46.206790000" lon="7.215410000"><ele></ele><time>2013-8-8T4:6:46Z</time></trkpt>
<trkpt lat="46.206810000" lon="7.215350000"><ele></ele><time>2013-8-8T4:6:49Z</time></trkpt>
<trkpt lat="46.206810000" lon="7.215300000"><ele></ele><time>2013-8-8T4:6:52Z</time></trkpt>
<trkpt lat="46.206820000" lon="7.215250000"><ele></ele><time>2013-8-8T4:6:55Z</time></trkpt>
<trkpt lat="46.206880000" lon="7.214870000"><ele></ele><time>2013-8-8T4:6:58Z</time></trkpt>
<trkpt lat="46.206890000" lon="7.214820000"><ele></ele><time>2013-8-8T4:7:1Z</time></trkpt>
<trkpt lat="46.206900000" lon="7.214760000"><ele></ele><time>2013-8-8T4:7:4Z</time></trkpt>
<trkpt lat="46.206910000" lon="7.214710000"><ele></ele><time>2013-8-8T4:7:7Z</time></trkpt>
<trkpt lat="46.206910000" lon="7.214660000"><ele></ele><time>2013-8-8T4:7:10Z</time></trkpt>
<trkpt lat="46.206920000" lon="7.214610000"><ele></ele><time>2013-8-8T4:7:13Z</time></trkpt>
<trkpt lat="46.206960000" lon="7.214470000"><ele></ele><time>2013-8-8T4:7:16Z</time></trkpt>
<trkpt lat="46.207050000" lon="7.214100000"><ele></ele><time>2013-8-8T4:7:19Z</time></trkpt>
<trkpt lat="46.207060000" lon="7.214060000"><ele></ele><time>2013-8-8T4:7:22Z</time></trkpt>
<trkpt lat="46.207070000" lon="7.214010000"><ele></ele><time>2013-8-8T4:7:25Z</time></trkpt>
<trkpt lat="46.207080000" lon="7.213970000"><ele></ele><time>2013-8-8T4:7:28Z</time></trkpt>
<trkpt lat="46.207090000" lon="7.213920000"><ele></ele><time>2013-8-8T4:7:31Z</time></trkpt>
<trkpt lat="46.207100000" lon="7.213880000"><ele></ele><time>2013-8-8T4:7:34Z</time></trkpt>
<trkpt lat="46.207110000" lon="7.213840000"><ele></ele><time>2013-8-8T4:7:37Z</time></trkpt>
<trkpt lat="46.207140000" lon="7.213720000"><ele></ele><time>2013-8-8T4:7:40Z</time></trkpt>
<trkpt lat="46.207150000" lon="7.213670000"><ele></ele><time>2013-8-8T4:7:43Z</time></trkpt>
<trkpt lat="46.207160000" lon="7.213630000"><ele></ele><time>2013-8-8T4:7:46Z</time></trkpt>
<trkpt lat="46.207160000" lon="7.213590000"><ele></ele><time>2013-8-8T4:7:49Z</time></trkpt>
<trkpt lat="46.207170000" lon="7.213550000"><ele></ele><time>2013-8-8T4:7:52Z</time></trkpt>
<trkpt lat="46.207180000" lon="7.213510000"><ele></ele><time>2013-8-8T4:7:55Z</time></trkpt>
<trkpt lat="46.207180000" lon="7.213460000"><ele></ele><time>2013-8-8T4:7:58Z</time></trkpt>
<trkpt lat="46.207180000" lon="7.213430000"><ele></ele><time>2013-8-8T4:8:1Z</time></trkpt>
<trkpt lat="46.207180000" lon="7.213390000"><ele></ele><time>2013-8-8T4:8:4Z</time></trkpt>
<trkpt lat="46.207180000" lon="7.213340000"><ele></ele><time>2013-8-8T4:8:7Z</time></trkpt>
<trkpt lat="46.207180000" lon="7.213220000"><ele></ele><time>2013-8-8T4:8:10Z</time></trkpt>
<trkpt lat="46.207190000" lon="7.213180000"><ele></ele><time>2013-8-8T4:8:13Z</time></trkpt>
<trkpt lat="46.207190000" lon="7.213140000"><ele></ele><time>2013-8-8T4:8:16Z</time></trkpt>
<trkpt lat="46.207190000" lon="7.213100000"><ele></ele><time>2013-8-8T4:8:19Z</time></trkpt>
<trkpt lat="46.207200000" lon="7.213060000"><ele></ele><time>2013-8-8T4:8:22Z</time></trkpt>
<trkpt lat="46.207210000" lon="7.212980000"><ele></ele><time>2013-8-8T4:8:25Z</time></trkpt>
<trkpt lat="46.207210000" lon="7.212930000"><ele></ele><time>2013-8-8T4:8:28Z</time></trkpt>
<trkpt lat="46.207210000" lon="7.212880000"><ele></ele><time>2013-8-8T4:8:31Z</time></trkpt>
<trkpt lat="46.207210000" lon="7.212840000"><ele></ele><time>2013-8-8T4:8:34Z</time></trkpt>
<trkpt lat="46.207210000" lon="7.212800000"><ele></ele><time>2013-8-8T4:8:37Z</time></trkpt>
<trkpt lat="46.207210000" lon="7.212720000"><ele></ele><time>2013-8-8T4:8:40Z</time></trkpt>
<trkpt lat="46.207210000" lon="7.212680000"><ele></ele><time>2013-8-8T4:8:43Z</time></trkpt>
<trkpt lat="46.207210000" lon="7.212640000"><ele></ele><time>2013-8-8T4:8:46Z</time></trkpt>
<trkpt lat="46.207200000" lon="7.212600000"><ele></ele><time>2013-8-8T4:8:49Z</time></trkpt>
<trkpt lat="46.207200000" lon="7.212560000"><ele></ele><time>2013-8-8T4:8:52Z</time></trkpt>
<trkpt lat="46.207210000" lon="7.212460000"><ele></ele><time>2013-8-8T4:8:55Z</time></trkpt>
<trkpt lat="46.207210000" lon="7.212410000"><ele></ele><time>2013-8-8T4:8:58Z</time></trkpt>
<trkpt lat="46.207220000" lon="7.212370000"><ele></ele><time>2013-8-8T4:9:1Z</time></trkpt>
<trkpt lat="46.207220000" lon="7.212330000"><ele></ele><time>2013-8-8T4:9:4Z</time></trkpt>
<trkpt lat="46.207230000" lon="7.212290000"><ele></ele><time>2013-8-8T4:9:7Z</time></trkpt>
<trkpt lat="46.207230000" lon="7.212160000"><ele></ele><time>2013-8-8T4:9:10Z</time></trkpt>
<trkpt lat="46.207230000" lon="7.212120000"><ele></ele><time>2013-8-8T4:9:13Z</time></trkpt>
<trkpt lat="46.207230000" lon="7.212080000"><ele></ele><time>2013-8-8T4:9:16Z</time></trkpt>
<trkpt lat="46.207230000" lon="7.212030000"><ele></ele><time>2013-8-8T4:9:19Z</time></trkpt>
<trkpt lat="46.207230000" lon="7.211990000"><ele></ele><time>2013-8-8T4:9:22Z</time></trkpt>
<trkpt lat="46.207220000" lon="7.211790000"><ele></ele><time>2013-8-8T4:9:25Z</time></trkpt>
<trkpt lat="46.207220000" lon="7.211750000"><ele></ele><time>2013-8-8T4:9:28Z</time></trkpt>
<trkpt lat="46.207210000" lon="7.211710000"><ele></ele><time>2013-8-8T4:9:31Z</time></trkpt>
<trkpt lat="46.207200000" lon="7.211660000"><ele></ele><time>2013-8-8T4:9:34Z</time></trkpt>
<trkpt lat="46.207160000" lon="7.211500000"><ele></ele><time>2013-8-8T4:9:37Z</time></trkpt>
<trkpt lat="46.207150000" lon="7.211370000"><ele></ele><time>2013-8-8T4:9:40Z</time></trkpt>
<trkpt lat="46.207150000" lon="7.211330000"><ele></ele><time>2013-8-8T4:9:43Z</time></trkpt>
<trkpt lat="46.207150000" lon="7.211270000"><ele></ele><time>2013-8-8T4:9:46Z</time></trkpt>
<trkpt lat="46.207150000" lon="7.211220000"><ele></ele><time>2013-8-8T4:9:49Z</time></trkpt>
<trkpt lat="46.207150000" lon="7.211170000"><ele></ele><time>2013-8-8T4:9:52Z</time></trkpt>
<trkpt lat="46.207180000" lon="7.210760000"><ele></ele><time>2013-8-8T4:9:55Z</time></trkpt>
<trkpt lat="46.207150000" lon="7.210370000"><ele></ele><time>2013-8-8T4:9:58Z</time></trkpt>
<trkpt lat="46.207200000" lon="7.210060000"><ele></ele><time>2013-8-8T4:10:1Z</time></trkpt>
<trkpt lat="46.207220000" lon="7.210020000"><ele></ele><time>2013-8-8T4:10:4Z</time></trkpt>
<trkpt lat="46.207240000" lon="7.209970000"><ele></ele><time>2013-8-8T4:10:7Z</time></trkpt>
<trkpt lat="46.207270000" lon="7.209930000"><ele></ele><time>2013-8-8T4:10:10Z</time></trkpt>
<trkpt lat="46.207290000" lon="7.209890000"><ele></ele><time>2013-8-8T4:10:13Z</time></trkpt>
<trkpt lat="46.207320000" lon="7.209860000"><ele></ele><time>2013-8-8T4:10:16Z</time></trkpt>
<trkpt lat="46.207470000" lon="7.209720000"><ele></ele><time>2013-8-8T4:10:19Z</time></trkpt>
<trkpt lat="46.207490000" lon="7.209710000"><ele></ele><time>2013-8-8T4:10:22Z</time></trkpt>
<trkpt lat="46.207520000" lon="7.209680000"><ele></ele><time>2013-8-8T4:10:25Z</time></trkpt>
<trkpt lat="46.207550000" lon="7.209650000"><ele></ele><time>2013-8-8T4:10:28Z</time></trkpt>
<trkpt lat="46.207580000" lon="7.209630000"><ele></ele><time>2013-8-8T4:10:31Z</time></trkpt>
<trkpt lat="46.207630000" lon="7.209580000"><ele></ele><time>2013-8-8T4:10:34Z</time></trkpt>
<trkpt lat="46.207770000" lon="7.209420000"><ele></ele><time>2013-8-8T4:10:37Z</time></trkpt>
<trkpt lat="46.207830000" lon="7.209290000"><ele></ele><time>2013-8-8T4:10:40Z</time></trkpt>
<trkpt lat="46.207840000" lon="7.209240000"><ele></ele><time>2013-8-8T4:10:43Z</time></trkpt>
<trkpt lat="46.207850000" lon="7.209200000"><ele></ele><time>2013-8-8T4:10:46Z</time></trkpt>
<trkpt lat="46.207860000" lon="7.209150000"><ele></ele><time>2013-8-8T4:10:49Z</time></trkpt>
<trkpt lat="46.207860000" lon="7.209110000"><ele></ele><time>2013-8-8T4:10:52Z</time></trkpt>
<trkpt lat="46.207850000" lon="7.208970000"><ele></ele><time>2013-8-8T4:10:55Z</time></trkpt>
<trkpt lat="46.207790000" lon="7.208810000"><ele></ele><time>2013-8-8T4:10:58Z</time></trkpt>
<trkpt lat="46.207770000" lon="7.208770000"><ele></ele><time>2013-8-8T4:11:1Z</time></trkpt>
<trkpt lat="46.207750000" lon="7.208740000"><ele></ele><time>2013-8-8T4:11:4Z</time></trkpt>
<trkpt lat="46.207730000" lon="7.208700000"><ele></ele><time>2013-8-8T4:11:7Z</time></trkpt>
<trkpt lat="46.207710000" lon="7.208670000"><ele></ele><time>2013-8-8T4:11:10Z</time></trkpt>
<trkpt lat="46.207620000" lon="7.208590000"><ele></ele><time>2013-8-8T4:11:13Z</time></trkpt>
<trkpt lat="46.207590000" lon="7.208560000"><ele></ele><time>2013-8-8T4:11:16Z</time></trkpt>
<trkpt lat="46.207570000" lon="7.208530000"><ele></ele><time>2013-8-8T4:11:19Z</time></trkpt>
<trkpt lat="46.207540000" lon="7.208490000"><ele></ele><time>2013-8-8T4:11:22Z</time></trkpt>
<trkpt lat="46.207450000" lon="7.208350000"><ele></ele><time>2013-8-8T4:11:25Z</time></trkpt>
<trkpt lat="46.207440000" lon="7.208310000"><ele></ele><time>2013-8-8T4:11:28Z</time></trkpt>
<trkpt lat="46.207430000" lon="7.208270000"><ele></ele><time>2013-8-8T4:11:31Z</time></trkpt>
<trkpt lat="46.207420000" lon="7.208230000"><ele></ele><time>2013-8-8T4:11:34Z</time></trkpt>
<trkpt lat="46.207410000" lon="7.208190000"><ele></ele><time>2013-8-8T4:11:37Z</time></trkpt>
<trkpt lat="46.207410000" lon="7.208150000"><ele></ele><time>2013-8-8T4:11:40Z</time></trkpt>
<trkpt lat="46.207440000" lon="7.207990000"><ele></ele><time>2013-8-8T4:11:43Z</time></trkpt>
<trkpt lat="46.207450000" lon="7.207960000"><ele></ele><time>2013-8-8T4:11:46Z</time></trkpt>
<trkpt lat="46.207460000" lon="7.207920000"><ele></ele><time>2013-8-8T4:11:49Z</time></trkpt>
<trkpt lat="46.207470000" lon="7.207900000"><ele></ele><time>2013-8-8T4:11:52Z</time></trkpt>
<trkpt lat="46.207480000" lon="7.207860000"><ele></ele><time>2013-8-8T4:11:55Z</time></trkpt>
<trkpt lat="46.207500000" lon="7.207810000"><ele></ele><time>2013-8-8T4:11:58Z</time></trkpt>
<trkpt lat="46.207530000" lon="7.207750000"><ele></ele><time>2013-8-8T4:12:1Z</time></trkpt>
<trkpt lat="46.207530000" lon="7.207750000"><ele></ele><time>2013-8-8T4:12:4Z</time></trkpt>
<trkpt lat="46.207540000" lon="7.207720000"><ele></ele><time>2013-8-8T4:12:7Z</time></trkpt>
<trkpt lat="46.207560000" lon="7.207700000"><ele></ele><time>2013-8-8T4:12:10Z</time></trkpt>
<trkpt lat="46.207600000" lon="7.207650000"><ele></ele><time>2013-8-8T4:12:13Z</time></trkpt>
<trkpt lat="46.207610000" lon="7.207620000"><ele></ele><time>2013-8-8T4:12:16Z</time></trkpt>
<trkpt lat="46.207620000" lon="7.207600000"><ele></ele><time>2013-8-8T4:12:19Z</time></trkpt>
<trkpt lat="46.207640000" lon="7.207570000"><ele></ele><time>2013-8-8T4:12:22Z</time></trkpt>
<trkpt lat="46.207650000" lon="7.207540000"><ele></ele><time>2013-8-8T4:12:25Z</time></trkpt>
<trkpt lat="46.207680000" lon="7.207490000"><ele></ele><time>2013-8-8T4:12:28Z</time></trkpt>
<trkpt lat="46.207690000" lon="7.207460000"><ele></ele><time>2013-8-8T4:12:31Z</time></trkpt>
<trkpt lat="46.207700000" lon="7.207430000"><ele></ele><time>2013-8-8T4:12:34Z</time></trkpt>
<trkpt lat="46.207710000" lon="7.207410000"><ele></ele><time>2013-8-8T4:12:37Z</time></trkpt>
<trkpt lat="46.207730000" lon="7.207380000"><ele></ele><time>2013-8-8T4:12:40Z</time></trkpt>
<trkpt lat="46.207760000" lon="7.207290000"><ele></ele><time>2013-8-8T4:12:43Z</time></trkpt>
<trkpt lat="46.207770000" lon="7.207260000"><ele></ele><time>2013-8-8T4:12:46Z</time></trkpt>
<trkpt lat="46.207780000" lon="7.207220000"><ele></ele><time>2013-8-8T4:12:49Z</time></trkpt>
<trkpt lat="46.207780000" lon="7.207190000"><ele></ele><time>2013-8-8T4:12:52Z</time></trkpt>
<trkpt lat="46.207780000" lon="7.207160000"><ele></ele><time>2013-8-8T4:12:55Z</time></trkpt>
<trkpt lat="46.207780000" lon="7.207120000"><ele></ele><time>2013-8-8T4:12:58Z</time></trkpt>
<trkpt lat="46.207780000" lon="7.207080000"><ele></ele><time>2013-8-8T4:13:1Z</time></trkpt>
<trkpt lat="46.207770000" lon="7.207050000"><ele></ele><time>2013-8-8T4:13:4Z</time></trkpt>
<trkpt lat="46.207750000" lon="7.207030000"><ele></ele><time>2013-8-8T4:13:7Z</time></trkpt>
<trkpt lat="46.207730000" lon="7.207020000"><ele></ele><time>2013-8-8T4:13:10Z</time></trkpt>
<trkpt lat="46.207700000" lon="7.207010000"><ele></ele><time>2013-8-8T4:13:13Z</time></trkpt>
<trkpt lat="46.207620000" lon="7.207060000"><ele></ele><time>2013-8-8T4:13:16Z</time></trkpt>
<trkpt lat="46.207590000" lon="7.207110000"><ele></ele><time>2013-8-8T4:13:19Z</time></trkpt>
<trkpt lat="46.207570000" lon="7.207130000"><ele></ele><time>2013-8-8T4:13:22Z</time></trkpt>
<trkpt lat="46.207550000" lon="7.207160000"><ele></ele><time>2013-8-8T4:13:25Z</time></trkpt>
<trkpt lat="46.207540000" lon="7.207180000"><ele></ele><time>2013-8-8T4:13:28Z</time></trkpt>
<trkpt lat="46.207520000" lon="7.207210000"><ele></ele><time>2013-8-8T4:13:31Z</time></trkpt>
<trkpt lat="46.207510000" lon="7.207240000"><ele></ele><time>2013-8-8T4:13:34Z</time></trkpt>
<trkpt lat="46.207460000" lon="7.207340000"><ele></ele><time>2013-8-8T4:13:37Z</time></trkpt>
<trkpt lat="46.207440000" lon="7.207360000"><ele></ele><time>2013-8-8T4:13:40Z</time></trkpt>
<trkpt lat="46.207430000" lon="7.207390000"><ele></ele><time>2013-8-8T4:13:43Z</time></trkpt>
<trkpt lat="46.207420000" lon="7.207410000"><ele></ele><time>2013-8-8T4:13:46Z</time></trkpt>
<trkpt lat="46.207400000" lon="7.207430000"><ele></ele><time>2013-8-8T4:13:49Z</time></trkpt>
<trkpt lat="46.207390000" lon="7.207450000"><ele></ele><time>2013-8-8T4:13:52Z</time></trkpt>
<trkpt lat="46.207320000" lon="7.207540000"><ele></ele><time>2013-8-8T4:13:55Z</time></trkpt>
<trkpt lat="46.207310000" lon="7.207550000"><ele></ele><time>2013-8-8T4:13:58Z</time></trkpt>
<trkpt lat="46.207290000" lon="7.207570000"><ele></ele><time>2013-8-8T4:14:1Z</time></trkpt>
<trkpt lat="46.207270000" lon="7.207580000"><ele></ele><time>2013-8-8T4:14:4Z</time></trkpt>
<trkpt lat="46.207210000" lon="7.207640000"><ele></ele><time>2013-8-8T4:14:7Z</time></trkpt>
<trkpt lat="46.207190000" lon="7.207660000"><ele></ele><time>2013-8-8T4:14:10Z</time></trkpt>
<trkpt lat="46.207180000" lon="7.207680000"><ele></ele><time>2013-8-8T4:14:13Z</time></trkpt>
<trkpt lat="46.207160000" lon="7.207710000"><ele></ele><time>2013-8-8T4:14:16Z</time></trkpt>
<trkpt lat="46.207150000" lon="7.207720000"><ele></ele><time>2013-8-8T4:14:19Z</time></trkpt>
<trkpt lat="46.207110000" lon="7.207800000"><ele></ele><time>2013-8-8T4:14:22Z</time></trkpt>
<trkpt lat="46.207100000" lon="7.207830000"><ele></ele><time>2013-8-8T4:14:25Z</time></trkpt>
<trkpt lat="46.207080000" lon="7.207860000"><ele></ele><time>2013-8-8T4:14:28Z</time></trkpt>
<trkpt lat="46.207060000" lon="7.207880000"><ele></ele><time>2013-8-8T4:14:31Z</time></trkpt>
<trkpt lat="46.207050000" lon="7.207910000"><ele></ele><time>2013-8-8T4:14:34Z</time></trkpt>
<trkpt lat="46.207000000" lon="7.207980000"><ele></ele><time>2013-8-8T4:14:37Z</time></trkpt>
<trkpt lat="46.206980000" lon="7.207980000"><ele></ele><time>2013-8-8T4:14:40Z</time></trkpt>
<trkpt lat="46.206960000" lon="7.207970000"><ele></ele><time>2013-8-8T4:14:43Z</time></trkpt>
<trkpt lat="46.206950000" lon="7.207930000"><ele></ele><time>2013-8-8T4:14:46Z</time></trkpt>
<trkpt lat="46.206950000" lon="7.207910000"><ele></ele><time>2013-8-8T4:14:49Z</time></trkpt>
<trkpt lat="46.206970000" lon="7.207800000"><ele></ele><time>2013-8-8T4:14:52Z</time></trkpt>
<trkpt lat="46.207040000" lon="7.207660000"><ele></ele><time>2013-8-8T4:14:55Z</time></trkpt>
<trkpt lat="46.207050000" lon="7.207640000"><ele></ele><time>2013-8-8T4:14:58Z</time></trkpt>
<trkpt lat="46.207060000" lon="7.207610000"><ele></ele><time>2013-8-8T4:15:1Z</time></trkpt>
<trkpt lat="46.207070000" lon="7.207590000"><ele></ele><time>2013-8-8T4:15:4Z</time></trkpt>
<trkpt lat="46.207080000" lon="7.207560000"><ele></ele><time>2013-8-8T4:15:7Z</time></trkpt>
<trkpt lat="46.207120000" lon="7.207430000"><ele></ele><time>2013-8-8T4:15:10Z</time></trkpt>
<trkpt lat="46.207130000" lon="7.207400000"><ele></ele><time>2013-8-8T4:15:13Z</time></trkpt>
<trkpt lat="46.207130000" lon="7.207370000"><ele></ele><time>2013-8-8T4:15:16Z</time></trkpt>
<trkpt lat="46.207150000" lon="7.207350000"><ele></ele><time>2013-8-8T4:15:19Z</time></trkpt>
<trkpt lat="46.207160000" lon="7.207320000"><ele></ele><time>2013-8-8T4:15:22Z</time></trkpt>
<trkpt lat="46.207170000" lon="7.207300000"><ele></ele><time>2013-8-8T4:15:25Z</time></trkpt>
<trkpt lat="46.207180000" lon="7.207270000"><ele></ele><time>2013-8-8T4:15:28Z</time></trkpt>
<trkpt lat="46.207180000" lon="7.207240000"><ele></ele><time>2013-8-8T4:15:31Z</time></trkpt>
<trkpt lat="46.207190000" lon="7.207220000"><ele></ele><time>2013-8-8T4:15:34Z</time></trkpt>
<trkpt lat="46.207200000" lon="7.207190000"><ele></ele><time>2013-8-8T4:15:37Z</time></trkpt>
<trkpt lat="46.207210000" lon="7.207170000"><ele></ele><time>2013-8-8T4:15:40Z</time></trkpt>
<trkpt lat="46.207230000" lon="7.207090000"><ele></ele><time>2013-8-8T4:15:43Z</time></trkpt>
<trkpt lat="46.207240000" lon="7.207030000"><ele></ele><time>2013-8-8T4:15:46Z</time></trkpt>
<trkpt lat="46.207250000" lon="7.207000000"><ele></ele><time>2013-8-8T4:15:49Z</time></trkpt>
<trkpt lat="46.207260000" lon="7.206980000"><ele></ele><time>2013-8-8T4:15:52Z</time></trkpt>
<trkpt lat="46.207270000" lon="7.206950000"><ele></ele><time>2013-8-8T4:15:55Z</time></trkpt>
<trkpt lat="46.207280000" lon="7.206920000"><ele></ele><time>2013-8-8T4:15:58Z</time></trkpt>
<trkpt lat="46.207290000" lon="7.206900000"><ele></ele><time>2013-8-8T4:16:1Z</time></trkpt>
<trkpt lat="46.207300000" lon="7.206880000"><ele></ele><time>2013-8-8T4:16:4Z</time></trkpt>
<trkpt lat="46.207310000" lon="7.206860000"><ele></ele><time>2013-8-8T4:16:7Z</time></trkpt>
<trkpt lat="46.207310000" lon="7.206830000"><ele></ele><time>2013-8-8T4:16:10Z</time></trkpt>
<trkpt lat="46.207330000" lon="7.206750000"><ele></ele><time>2013-8-8T4:16:13Z</time></trkpt>
<trkpt lat="46.207360000" lon="7.206640000"><ele></ele><time>2013-8-8T4:16:16Z</time></trkpt>
<trkpt lat="46.207370000" lon="7.206610000"><ele></ele><time>2013-8-8T4:16:19Z</time></trkpt>
<trkpt lat="46.207370000" lon="7.206580000"><ele></ele><time>2013-8-8T4:16:22Z</time></trkpt>
<trkpt lat="46.207380000" lon="7.206560000"><ele></ele><time>2013-8-8T4:16:25Z</time></trkpt>
<trkpt lat="46.207390000" lon="7.206530000"><ele></ele><time>2013-8-8T4:16:28Z</time></trkpt>
<trkpt lat="46.207400000" lon="7.206480000"><ele></ele><time>2013-8-8T4:16:31Z</time></trkpt>
<trkpt lat="46.207410000" lon="7.206450000"><ele></ele><time>2013-8-8T4:16:34Z</time></trkpt>
<trkpt lat="46.207420000" lon="7.206410000"><ele></ele><time>2013-8-8T4:16:37Z</time></trkpt>
<trkpt lat="46.207420000" lon="7.206390000"><ele></ele><time>2013-8-8T4:16:40Z</time></trkpt>
<trkpt lat="46.207430000" lon="7.206360000"><ele></ele><time>2013-8-8T4:16:43Z</time></trkpt>
<trkpt lat="46.207450000" lon="7.206290000"><ele></ele><time>2013-8-8T4:16:46Z</time></trkpt>
<trkpt lat="46.207450000" lon="7.206260000"><ele></ele><time>2013-8-8T4:16:49Z</time></trkpt>
<trkpt lat="46.207460000" lon="7.206240000"><ele></ele><time>2013-8-8T4:16:52Z</time></trkpt>
<trkpt lat="46.207470000" lon="7.206210000"><ele></ele><time>2013-8-8T4:16:55Z</time></trkpt>
<trkpt lat="46.207470000" lon="7.206180000"><ele></ele><time>2013-8-8T4:16:58Z</time></trkpt>
<trkpt lat="46.207500000" lon="7.206070000"><ele></ele><time>2013-8-8T4:17:1Z</time></trkpt>
<trkpt lat="46.207510000" lon="7.206040000"><ele></ele><time>2013-8-8T4:17:4Z</time></trkpt>
<trkpt lat="46.207510000" lon="7.206020000"><ele></ele><time>2013-8-8T4:17:7Z</time></trkpt>
<trkpt lat="46.207520000" lon="7.205990000"><ele></ele><time>2013-8-8T4:17:10Z</time></trkpt>
<trkpt lat="46.207530000" lon="7.205960000"><ele></ele><time>2013-8-8T4:17:13Z</time></trkpt>
<trkpt lat="46.207550000" lon="7.205910000"><ele></ele><time>2013-8-8T4:17:16Z</time></trkpt>
<trkpt lat="46.207560000" lon="7.205890000"><ele></ele><time>2013-8-8T4:17:19Z</time></trkpt>
<trkpt lat="46.207570000" lon="7.205860000"><ele></ele><time>2013-8-8T4:17:22Z</time></trkpt>
<trkpt lat="46.207580000" lon="7.205830000"><ele></ele><time>2013-8-8T4:17:25Z</time></trkpt>
<trkpt lat="46.207590000" lon="7.205810000"><ele></ele><time>2013-8-8T4:17:28Z</time></trkpt>
<trkpt lat="46.207610000" lon="7.205750000"><ele></ele><time>2013-8-8T4:17:31Z</time></trkpt>
<trkpt lat="46.207620000" lon="7.205730000"><ele></ele><time>2013-8-8T4:17:34Z</time></trkpt>
<trkpt lat="46.207620000" lon="7.205700000"><ele></ele><time>2013-8-8T4:17:37Z</time></trkpt>
<trkpt lat="46.207630000" lon="7.205670000"><ele></ele><time>2013-8-8T4:17:40Z</time></trkpt>
<trkpt lat="46.207650000" lon="7.205650000"><ele></ele><time>2013-8-8T4:17:43Z</time></trkpt>
<trkpt lat="46.207650000" lon="7.205620000"><ele></ele><time>2013-8-8T4:17:46Z</time></trkpt>
<trkpt lat="46.207680000" lon="7.205530000"><ele></ele><time>2013-8-8T4:17:49Z</time></trkpt>
<trkpt lat="46.207680000" lon="7.205500000"><ele></ele><time>2013-8-8T4:17:52Z</time></trkpt>
<trkpt lat="46.207690000" lon="7.205470000"><ele></ele><time>2013-8-8T4:17:55Z</time></trkpt>
<trkpt lat="46.207700000" lon="7.205450000"><ele></ele><time>2013-8-8T4:17:58Z</time></trkpt>
<trkpt lat="46.207700000" lon="7.205420000"><ele></ele><time>2013-8-8T4:18:1Z</time></trkpt>
<trkpt lat="46.207710000" lon="7.205370000"><ele></ele><time>2013-8-8T4:18:4Z</time></trkpt>
<trkpt lat="46.207710000" lon="7.205310000"><ele></ele><time>2013-8-8T4:18:7Z</time></trkpt>
<trkpt lat="46.207710000" lon="7.205280000"><ele></ele><time>2013-8-8T4:18:10Z</time></trkpt>
<trkpt lat="46.207720000" lon="7.205250000"><ele></ele><time>2013-8-8T4:18:13Z</time></trkpt>
<trkpt lat="46.207720000" lon="7.205220000"><ele></ele><time>2013-8-8T4:18:16Z</time></trkpt>
<trkpt lat="46.207720000" lon="7.205190000"><ele></ele><time>2013-8-8T4:18:19Z</time></trkpt>
<trkpt lat="46.207710000" lon="7.205090000"><ele></ele><time>2013-8-8T4:18:22Z</time></trkpt>
<trkpt lat="46.207710000" lon="7.205060000"><ele></ele><time>2013-8-8T4:18:25Z</time></trkpt>
<trkpt lat="46.207700000" lon="7.205040000"><ele></ele><time>2013-8-8T4:18:28Z</time></trkpt>
<trkpt lat="46.207690000" lon="7.205010000"><ele></ele><time>2013-8-8T4:18:31Z</time></trkpt>
<trkpt lat="46.207680000" lon="7.204990000"><ele></ele><time>2013-8-8T4:18:34Z</time></trkpt>
<trkpt lat="46.207660000" lon="7.204970000"><ele></ele><time>2013-8-8T4:18:37Z</time></trkpt>
<trkpt lat="46.207630000" lon="7.204950000"><ele></ele><time>2013-8-8T4:18:40Z</time></trkpt>
<trkpt lat="46.207530000" lon="7.205030000"><ele></ele><time>2013-8-8T4:18:43Z</time></trkpt>
<trkpt lat="46.207500000" lon="7.205050000"><ele></ele><time>2013-8-8T4:18:46Z</time></trkpt>
<trkpt lat="46.207490000" lon="7.205060000"><ele></ele><time>2013-8-8T4:18:49Z</time></trkpt>
<trkpt lat="46.207480000" lon="7.205080000"><ele></ele><time>2013-8-8T4:18:52Z</time></trkpt>
<trkpt lat="46.207470000" lon="7.205100000"><ele></ele><time>2013-8-8T4:18:55Z</time></trkpt>
<trkpt lat="46.207450000" lon="7.205120000"><ele></ele><time>2013-8-8T4:18:58Z</time></trkpt>
<trkpt lat="46.207440000" lon="7.205150000"><ele></ele><time>2013-8-8T4:19:1Z</time></trkpt>
<trkpt lat="46.207380000" lon="7.205250000"><ele></ele><time>2013-8-8T4:19:4Z</time></trkpt>
<trkpt lat="46.207360000" lon="7.205260000"><ele></ele><time>2013-8-8T4:19:7Z</time></trkpt>
<trkpt lat="46.207350000" lon="7.205280000"><ele></ele><time>2013-8-8T4:19:10Z</time></trkpt>
<trkpt lat="46.207330000" lon="7.205310000"><ele></ele><time>2013-8-8T4:19:13Z</time></trkpt>
<trkpt lat="46.207320000" lon="7.205330000"><ele></ele><time>2013-8-8T4:19:16Z</time></trkpt>
<trkpt lat="46.207260000" lon="7.205410000"><ele></ele><time>2013-8-8T4:19:19Z</time></trkpt>
<trkpt lat="46.207240000" lon="7.205430000"><ele></ele><time>2013-8-8T4:19:22Z</time></trkpt>
<trkpt lat="46.207230000" lon="7.205450000"><ele></ele><time>2013-8-8T4:19:25Z</time></trkpt>
<trkpt lat="46.207210000" lon="7.205470000"><ele></ele><time>2013-8-8T4:19:28Z</time></trkpt>
<trkpt lat="46.207200000" lon="7.205490000"><ele></ele><time>2013-8-8T4:19:31Z</time></trkpt>
<trkpt lat="46.207150000" lon="7.205590000"><ele></ele><time>2013-8-8T4:19:34Z</time></trkpt>
<trkpt lat="46.207140000" lon="7.205610000"><ele></ele><time>2013-8-8T4:19:37Z</time></trkpt>
<trkpt lat="46.207130000" lon="7.205630000"><ele></ele><time>2013-8-8T4:19:40Z</time></trkpt>
<trkpt lat="46.207120000" lon="7.205660000"><ele></ele><time>2013-8-8T4:19:43Z</time></trkpt>
<trkpt lat="46.207120000" lon="7.205690000"><ele></ele><time>2013-8-8T4:19:46Z</time></trkpt>
<trkpt lat="46.207100000" lon="7.205710000"><ele></ele><time>2013-8-8T4:19:49Z</time></trkpt>
<trkpt lat="46.207080000" lon="7.205720000"><ele></ele><time>2013-8-8T4:19:52Z</time></trkpt>
<trkpt lat="46.207060000" lon="7.205740000"><ele></ele><time>2013-8-8T4:19:55Z</time></trkpt>
<trkpt lat="46.207050000" lon="7.205770000"><ele></ele><time>2013-8-8T4:19:58Z</time></trkpt>
<trkpt lat="46.207030000" lon="7.205780000"><ele></ele><time>2013-8-8T4:20:1Z</time></trkpt>
<trkpt lat="46.207020000" lon="7.205810000"><ele></ele><time>2013-8-8T4:20:4Z</time></trkpt>
<trkpt lat="46.206990000" lon="7.205870000"><ele></ele><time>2013-8-8T4:20:7Z</time></trkpt>
<trkpt lat="46.206990000" lon="7.205890000"><ele></ele><time>2013-8-8T4:20:10Z</time></trkpt>
<trkpt lat="46.206980000" lon="7.205910000"><ele></ele><time>2013-8-8T4:20:13Z</time></trkpt>
<trkpt lat="46.206970000" lon="7.205940000"><ele></ele><time>2013-8-8T4:20:16Z</time></trkpt>
<trkpt lat="46.206970000" lon="7.205960000"><ele></ele><time>2013-8-8T4:20:19Z</time></trkpt>
<trkpt lat="46.206960000" lon="7.205990000"><ele></ele><time>2013-8-8T4:20:22Z</time></trkpt>
<trkpt lat="46.206930000" lon="7.206050000"><ele></ele><time>2013-8-8T4:20:25Z</time></trkpt>
<trkpt lat="46.206920000" lon="7.206080000"><ele></ele><time>2013-8-8T4:20:28Z</time></trkpt>
<trkpt lat="46.206910000" lon="7.206100000"><ele></ele><time>2013-8-8T4:20:31Z</time></trkpt>
<trkpt lat="46.206900000" lon="7.206130000"><ele></ele><time>2013-8-8T4:20:34Z</time></trkpt>
<trkpt lat="46.206890000" lon="7.206150000"><ele></ele><time>2013-8-8T4:20:37Z</time></trkpt>
<trkpt lat="46.206870000" lon="7.206170000"><ele></ele><time>2013-8-8T4:20:40Z</time></trkpt>
<trkpt lat="46.206850000" lon="7.206210000"><ele></ele><time>2013-8-8T4:20:43Z</time></trkpt>
<trkpt lat="46.206840000" lon="7.206230000"><ele></ele><time>2013-8-8T4:20:46Z</time></trkpt>
<trkpt lat="46.206830000" lon="7.206250000"><ele></ele><time>2013-8-8T4:20:49Z</time></trkpt>
<trkpt lat="46.206810000" lon="7.206270000"><ele></ele><time>2013-8-8T4:20:52Z</time></trkpt>
<trkpt lat="46.206750000" lon="7.206340000"><ele></ele><time>2013-8-8T4:20:55Z</time></trkpt>
<trkpt lat="46.206740000" lon="7.206360000"><ele></ele><time>2013-8-8T4:20:58Z</time></trkpt>
<trkpt lat="46.206730000" lon="7.206380000"><ele></ele><time>2013-8-8T4:21:1Z</time></trkpt>
<trkpt lat="46.206710000" lon="7.206400000"><ele></ele><time>2013-8-8T4:21:4Z</time></trkpt>
<trkpt lat="46.206700000" lon="7.206420000"><ele></ele><time>2013-8-8T4:21:7Z</time></trkpt>
<trkpt lat="46.206660000" lon="7.206500000"><ele></ele><time>2013-8-8T4:21:10Z</time></trkpt>
<trkpt lat="46.206650000" lon="7.206520000"><ele></ele><time>2013-8-8T4:21:13Z</time></trkpt>
<trkpt lat="46.206640000" lon="7.206540000"><ele></ele><time>2013-8-8T4:21:16Z</time></trkpt>
<trkpt lat="46.206630000" lon="7.206560000"><ele></ele><time>2013-8-8T4:21:19Z</time></trkpt>
<trkpt lat="46.206620000" lon="7.206590000"><ele></ele><time>2013-8-8T4:21:22Z</time></trkpt>
<trkpt lat="46.206620000" lon="7.206620000"><ele></ele><time>2013-8-8T4:21:25Z</time></trkpt>
<trkpt lat="46.206570000" lon="7.206740000"><ele></ele><time>2013-8-8T4:21:28Z</time></trkpt>
<trkpt lat="46.206560000" lon="7.206760000"><ele></ele><time>2013-8-8T4:21:31Z</time></trkpt>
<trkpt lat="46.206550000" lon="7.206790000"><ele></ele><time>2013-8-8T4:21:34Z</time></trkpt>
<trkpt lat="46.206550000" lon="7.206820000"><ele></ele><time>2013-8-8T4:21:37Z</time></trkpt>
<trkpt lat="46.206520000" lon="7.206890000"><ele></ele><time>2013-8-8T4:21:40Z</time></trkpt>
<trkpt lat="46.206510000" lon="7.206920000"><ele></ele><time>2013-8-8T4:21:43Z</time></trkpt>
<trkpt lat="46.206500000" lon="7.206950000"><ele></ele><time>2013-8-8T4:21:46Z</time></trkpt>
<trkpt lat="46.206490000" lon="7.206970000"><ele></ele><time>2013-8-8T4:21:49Z</time></trkpt>
<trkpt lat="46.206490000" lon="7.207000000"><ele></ele><time>2013-8-8T4:21:52Z</time></trkpt>
<trkpt lat="46.206460000" lon="7.207110000"><ele></ele><time>2013-8-8T4:21:55Z</time></trkpt>
<trkpt lat="46.206450000" lon="7.207130000"><ele></ele><time>2013-8-8T4:21:58Z</time></trkpt>
<trkpt lat="46.206440000" lon="7.207160000"><ele></ele><time>2013-8-8T4:22:1Z</time></trkpt>
<trkpt lat="46.206440000" lon="7.207190000"><ele></ele><time>2013-8-8T4:22:4Z</time></trkpt>
<trkpt lat="46.206430000" lon="7.207220000"><ele></ele><time>2013-8-8T4:22:7Z</time></trkpt>
<trkpt lat="46.206420000" lon="7.207260000"><ele></ele><time>2013-8-8T4:22:10Z</time></trkpt>
<trkpt lat="46.206410000" lon="7.207280000"><ele></ele><time>2013-8-8T4:22:13Z</time></trkpt>
<trkpt lat="46.206390000" lon="7.207300000"><ele></ele><time>2013-8-8T4:22:16Z</time></trkpt>
<trkpt lat="46.206380000" lon="7.207320000"><ele></ele><time>2013-8-8T4:22:19Z</time></trkpt>
<trkpt lat="46.206370000" lon="7.207350000"><ele></ele><time>2013-8-8T4:22:22Z</time></trkpt>
<trkpt lat="46.206330000" lon="7.207410000"><ele></ele><time>2013-8-8T4:22:25Z</time></trkpt>
<trkpt lat="46.206310000" lon="7.207430000"><ele></ele><time>2013-8-8T4:22:28Z</time></trkpt>
<trkpt lat="46.206300000" lon="7.207450000"><ele></ele><time>2013-8-8T4:22:31Z</time></trkpt>
<trkpt lat="46.206280000" lon="7.207470000"><ele></ele><time>2013-8-8T4:22:34Z</time></trkpt>
<trkpt lat="46.206240000" lon="7.207530000"><ele></ele><time>2013-8-8T4:22:37Z</time></trkpt>
<trkpt lat="46.206220000" lon="7.207540000"><ele></ele><time>2013-8-8T4:22:40Z</time></trkpt>
<trkpt lat="46.206200000" lon="7.207550000"><ele></ele><time>2013-8-8T4:22:43Z</time></trkpt>
<trkpt lat="46.206180000" lon="7.207570000"><ele></ele><time>2013-8-8T4:22:46Z</time></trkpt>
<trkpt lat="46.206180000" lon="7.207590000"><ele></ele><time>2013-8-8T4:22:49Z</time></trkpt>
<trkpt lat="46.206160000" lon="7.207610000"><ele></ele><time>2013-8-8T4:22:52Z</time></trkpt>
<trkpt lat="46.206120000" lon="7.207750000"><ele></ele><time>2013-8-8T4:22:55Z</time></trkpt>
<trkpt lat="46.206110000" lon="7.207770000"><ele></ele><time>2013-8-8T4:22:58Z</time></trkpt>
<trkpt lat="46.206100000" lon="7.207800000"><ele></ele><time>2013-8-8T4:23:1Z</time></trkpt>
<trkpt lat="46.206090000" lon="7.207820000"><ele></ele><time>2013-8-8T4:23:4Z</time></trkpt>
<trkpt lat="46.206080000" lon="7.207840000"><ele></ele><time>2013-8-8T4:23:7Z</time></trkpt>
<trkpt lat="46.206070000" lon="7.207870000"><ele></ele><time>2013-8-8T4:23:10Z</time></trkpt>
<trkpt lat="46.206060000" lon="7.207920000"><ele></ele><time>2013-8-8T4:23:13Z</time></trkpt>
<trkpt lat="46.206020000" lon="7.207950000"><ele></ele><time>2013-8-8T4:23:16Z</time></trkpt>
<trkpt lat="46.206000000" lon="7.207940000"><ele></ele><time>2013-8-8T4:23:19Z</time></trkpt>
<trkpt lat="46.205990000" lon="7.207920000"><ele></ele><time>2013-8-8T4:23:22Z</time></trkpt>
<trkpt lat="46.205980000" lon="7.207890000"><ele></ele><time>2013-8-8T4:23:25Z</time></trkpt>
<trkpt lat="46.205990000" lon="7.207800000"><ele></ele><time>2013-8-8T4:23:28Z</time></trkpt>
<trkpt lat="46.206010000" lon="7.207770000"><ele></ele><time>2013-8-8T4:23:31Z</time></trkpt>
<trkpt lat="46.206030000" lon="7.207710000"><ele></ele><time>2013-8-8T4:23:34Z</time></trkpt>
<trkpt lat="46.206080000" lon="7.207590000"><ele></ele><time>2013-8-8T4:23:37Z</time></trkpt>
<trkpt lat="46.206090000" lon="7.207570000"><ele></ele><time>2013-8-8T4:23:40Z</time></trkpt>
<trkpt lat="46.206100000" lon="7.207550000"><ele></ele><time>2013-8-8T4:23:43Z</time></trkpt>
<trkpt lat="46.206120000" lon="7.207520000"><ele></ele><time>2013-8-8T4:23:46Z</time></trkpt>
<trkpt lat="46.206130000" lon="7.207500000"><ele></ele><time>2013-8-8T4:23:49Z</time></trkpt>
<trkpt lat="46.206180000" lon="7.207370000"><ele></ele><time>2013-8-8T4:23:52Z</time></trkpt>
<trkpt lat="46.206190000" lon="7.207340000"><ele></ele><time>2013-8-8T4:23:55Z</time></trkpt>
<trkpt lat="46.206200000" lon="7.207320000"><ele></ele><time>2013-8-8T4:23:58Z</time></trkpt>
<trkpt lat="46.206210000" lon="7.207300000"><ele></ele><time>2013-8-8T4:24:1Z</time></trkpt>
<trkpt lat="46.206210000" lon="7.207280000"><ele></ele><time>2013-8-8T4:24:4Z</time></trkpt>
<trkpt lat="46.206230000" lon="7.207260000"><ele></ele><time>2013-8-8T4:24:7Z</time></trkpt>
<trkpt lat="46.206230000" lon="7.207240000"><ele></ele><time>2013-8-8T4:24:10Z</time></trkpt>
<trkpt lat="46.206250000" lon="7.207150000"><ele></ele><time>2013-8-8T4:24:13Z</time></trkpt>
<trkpt lat="46.206280000" lon="7.207130000"><ele></ele><time>2013-8-8T4:24:16Z</time></trkpt>
<trkpt lat="46.206290000" lon="7.207100000"><ele></ele><time>2013-8-8T4:24:19Z</time></trkpt>
<trkpt lat="46.206300000" lon="7.207080000"><ele></ele><time>2013-8-8T4:24:22Z</time></trkpt>
<trkpt lat="46.206310000" lon="7.207050000"><ele></ele><time>2013-8-8T4:24:25Z</time></trkpt>
<trkpt lat="46.206320000" lon="7.207030000"><ele></ele><time>2013-8-8T4:24:28Z</time></trkpt>
<trkpt lat="46.206340000" lon="7.206940000"><ele></ele><time>2013-8-8T4:24:31Z</time></trkpt>
<trkpt lat="46.206340000" lon="7.206910000"><ele></ele><time>2013-8-8T4:24:34Z</time></trkpt>
<trkpt lat="46.206340000" lon="7.206880000"><ele></ele><time>2013-8-8T4:24:37Z</time></trkpt>
<trkpt lat="46.206340000" lon="7.206850000"><ele></ele><time>2013-8-8T4:24:40Z</time></trkpt>
<trkpt lat="46.206340000" lon="7.206830000"><ele></ele><time>2013-8-8T4:24:43Z</time></trkpt>
<trkpt lat="46.206340000" lon="7.206800000"><ele></ele><time>2013-8-8T4:24:46Z</time></trkpt>
<trkpt lat="46.206330000" lon="7.206720000"><ele></ele><time>2013-8-8T4:24:49Z</time></trkpt>
<trkpt lat="46.206330000" lon="7.206700000"><ele></ele><time>2013-8-8T4:24:52Z</time></trkpt>
<trkpt lat="46.206330000" lon="7.206670000"><ele></ele><time>2013-8-8T4:24:55Z</time></trkpt>
<trkpt lat="46.206330000" lon="7.206640000"><ele></ele><time>2013-8-8T4:24:58Z</time></trkpt>
<trkpt lat="46.206330000" lon="7.206620000"><ele></ele><time>2013-8-8T4:25:1Z</time></trkpt>
<trkpt lat="46.206320000" lon="7.206530000"><ele></ele><time>2013-8-8T4:25:4Z</time></trkpt>
<trkpt lat="46.206330000" lon="7.206500000"><ele></ele><time>2013-8-8T4:25:7Z</time></trkpt>
<trkpt lat="46.206330000" lon="7.206480000"><ele></ele><time>2013-8-8T4:25:10Z</time></trkpt>
<trkpt lat="46.206320000" lon="7.206450000"><ele></ele><time>2013-8-8T4:25:13Z</time></trkpt>
<trkpt lat="46.206330000" lon="7.206420000"><ele></ele><time>2013-8-8T4:25:16Z</time></trkpt>
<trkpt lat="46.206320000" lon="7.206280000"><ele></ele><time>2013-8-8T4:25:19Z</time></trkpt>
<trkpt lat="46.206320000" lon="7.206220000"><ele></ele><time>2013-8-8T4:25:22Z</time></trkpt>
<trkpt lat="46.206320000" lon="7.206200000"><ele></ele><time>2013-8-8T4:25:25Z</time></trkpt>
<trkpt lat="46.206320000" lon="7.206170000"><ele></ele><time>2013-8-8T4:25:28Z</time></trkpt>
<trkpt lat="46.206330000" lon="7.206150000"><ele></ele><time>2013-8-8T4:25:31Z</time></trkpt>
<trkpt lat="46.206360000" lon="7.206080000"><ele></ele><time>2013-8-8T4:25:34Z</time></trkpt>
<trkpt lat="46.206370000" lon="7.206060000"><ele></ele><time>2013-8-8T4:25:37Z</time></trkpt>
<trkpt lat="46.206380000" lon="7.206040000"><ele></ele><time>2013-8-8T4:25:40Z</time></trkpt>
<trkpt lat="46.206390000" lon="7.206010000"><ele></ele><time>2013-8-8T4:25:43Z</time></trkpt>
<trkpt lat="46.206420000" lon="7.205940000"><ele></ele><time>2013-8-8T4:25:46Z</time></trkpt>
<trkpt lat="46.206430000" lon="7.205920000"><ele></ele><time>2013-8-8T4:25:49Z</time></trkpt>
<trkpt lat="46.206440000" lon="7.205890000"><ele></ele><time>2013-8-8T4:25:52Z</time></trkpt>
<trkpt lat="46.206450000" lon="7.205870000"><ele></ele><time>2013-8-8T4:25:55Z</time></trkpt>
<trkpt lat="46.206460000" lon="7.205840000"><ele></ele><time>2013-8-8T4:25:58Z</time></trkpt>
<trkpt lat="46.206460000" lon="7.205760000"><ele></ele><time>2013-8-8T4:26:1Z</time></trkpt>
<trkpt lat="46.206460000" lon="7.205730000"><ele></ele><time>2013-8-8T4:26:4Z</time></trkpt>
<trkpt lat="46.206470000" lon="7.205710000"><ele></ele><time>2013-8-8T4:26:7Z</time></trkpt>
<trkpt lat="46.206460000" lon="7.205680000"><ele></ele><time>2013-8-8T4:26:10Z</time></trkpt>
<trkpt lat="46.206460000" lon="7.205660000"><ele></ele><time>2013-8-8T4:26:13Z</time></trkpt>
<trkpt lat="46.206450000" lon="7.205530000"><ele></ele><time>2013-8-8T4:26:16Z</time></trkpt>
<trkpt lat="46.206450000" lon="7.205500000"><ele></ele><time>2013-8-8T4:26:19Z</time></trkpt>
<trkpt lat="46.206440000" lon="7.205470000"><ele></ele><time>2013-8-8T4:26:22Z</time></trkpt>
<trkpt lat="46.206440000" lon="7.205450000"><ele></ele><time>2013-8-8T4:26:25Z</time></trkpt>
<trkpt lat="46.206430000" lon="7.205420000"><ele></ele><time>2013-8-8T4:26:28Z</time></trkpt>
<trkpt lat="46.206420000" lon="7.205340000"><ele></ele><time>2013-8-8T4:26:31Z</time></trkpt>
<trkpt lat="46.206420000" lon="7.205320000"><ele></ele><time>2013-8-8T4:26:34Z</time></trkpt>
<trkpt lat="46.206410000" lon="7.205290000"><ele></ele><time>2013-8-8T4:26:37Z</time></trkpt>
<trkpt lat="46.206420000" lon="7.205260000"><ele></ele><time>2013-8-8T4:26:40Z</time></trkpt>
<trkpt lat="46.206410000" lon="7.205240000"><ele></ele><time>2013-8-8T4:26:43Z</time></trkpt>
<trkpt lat="46.206400000" lon="7.205160000"><ele></ele><time>2013-8-8T4:26:46Z</time></trkpt>
<trkpt lat="46.206390000" lon="7.205130000"><ele></ele><time>2013-8-8T4:26:49Z</time></trkpt>
<trkpt lat="46.206390000" lon="7.205100000"><ele></ele><time>2013-8-8T4:26:52Z</time></trkpt>
<trkpt lat="46.206380000" lon="7.205070000"><ele></ele><time>2013-8-8T4:26:55Z</time></trkpt>
<trkpt lat="46.206370000" lon="7.205050000"><ele></ele><time>2013-8-8T4:26:58Z</time></trkpt>
<trkpt lat="46.206370000" lon="7.205020000"><ele></ele><time>2013-8-8T4:27:1Z</time></trkpt>
<trkpt lat="46.206370000" lon="7.205000000"><ele></ele><time>2013-8-8T4:27:4Z</time></trkpt>
<trkpt lat="46.206350000" lon="7.204910000"><ele></ele><time>2013-8-8T4:27:7Z</time></trkpt>
<trkpt lat="46.206340000" lon="7.204890000"><ele></ele><time>2013-8-8T4:27:10Z</time></trkpt>
<trkpt lat="46.206340000" lon="7.204860000"><ele></ele><time>2013-8-8T4:27:13Z</time></trkpt>
<trkpt lat="46.206330000" lon="7.204830000"><ele></ele><time>2013-8-8T4:27:16Z</time></trkpt>
<trkpt lat="46.206330000" lon="7.204800000"><ele></ele><time>2013-8-8T4:27:19Z</time></trkpt>
<trkpt lat="46.206310000" lon="7.204700000"><ele></ele><time>2013-8-8T4:27:22Z</time></trkpt>
<trkpt lat="46.206300000" lon="7.204670000"><ele></ele><time>2013-8-8T4:27:25Z</time></trkpt>
<trkpt lat="46.206300000" lon="7.204640000"><ele></ele><time>2013-8-8T4:27:28Z</time></trkpt>
<trkpt lat="46.206290000" lon="7.204620000"><ele></ele><time>2013-8-8T4:27:31Z</time></trkpt>
<trkpt lat="46.206280000" lon="7.204590000"><ele></ele><time>2013-8-8T4:27:34Z</time></trkpt>
<trkpt lat="46.206270000" lon="7.204510000"><ele></ele><time>2013-8-8T4:27:37Z</time></trkpt>
<trkpt lat="46.206270000" lon="7.204480000"><ele></ele><time>2013-8-8T4:27:40Z</time></trkpt>
<trkpt lat="46.206270000" lon="7.204460000"><ele></ele><time>2013-8-8T4:27:43Z</time></trkpt>
<trkpt lat="46.206270000" lon="7.204440000"><ele></ele><time>2013-8-8T4:27:46Z</time></trkpt>
<trkpt lat="46.206260000" lon="7.204410000"><ele></ele><time>2013-8-8T4:27:49Z</time></trkpt>
<trkpt lat="46.206260000" lon="7.204350000"><ele></ele><time>2013-8-8T4:27:52Z</time></trkpt>
<trkpt lat="46.206260000" lon="7.204250000"><ele></ele><time>2013-8-8T4:27:55Z</time></trkpt>
<trkpt lat="46.206260000" lon="7.204230000"><ele></ele><time>2013-8-8T4:27:58Z</time></trkpt>
<trkpt lat="46.206270000" lon="7.204200000"><ele></ele><time>2013-8-8T4:28:1Z</time></trkpt>
<trkpt lat="46.206280000" lon="7.204180000"><ele></ele><time>2013-8-8T4:28:4Z</time></trkpt>
<trkpt lat="46.206280000" lon="7.204150000"><ele></ele><time>2013-8-8T4:28:7Z</time></trkpt>
<trkpt lat="46.206300000" lon="7.204050000"><ele></ele><time>2013-8-8T4:28:10Z</time></trkpt>
<trkpt lat="46.206320000" lon="7.203950000"><ele></ele><time>2013-8-8T4:28:13Z</time></trkpt>
<trkpt lat="46.206330000" lon="7.203930000"><ele></ele><time>2013-8-8T4:28:16Z</time></trkpt>
<trkpt lat="46.206330000" lon="7.203900000"><ele></ele><time>2013-8-8T4:28:19Z</time></trkpt>
<trkpt lat="46.206340000" lon="7.203870000"><ele></ele><time>2013-8-8T4:28:22Z</time></trkpt>
<trkpt lat="46.206340000" lon="7.203840000"><ele></ele><time>2013-8-8T4:28:25Z</time></trkpt>
<trkpt lat="46.206360000" lon="7.203710000"><ele></ele><time>2013-8-8T4:28:28Z</time></trkpt>
<trkpt lat="46.206370000" lon="7.203660000"><ele></ele><time>2013-8-8T4:28:31Z</time></trkpt>
<trkpt lat="46.206370000" lon="7.203640000"><ele></ele><time>2013-8-8T4:28:34Z</time></trkpt>
<trkpt lat="46.206370000" lon="7.203610000"><ele></ele><time>2013-8-8T4:28:37Z</time></trkpt>
<trkpt lat="46.206370000" lon="7.203580000"><ele></ele><time>2013-8-8T4:28:40Z</time></trkpt>
<trkpt lat="46.206360000" lon="7.203550000"><ele></ele><time>2013-8-8T4:28:43Z</time></trkpt>
<trkpt lat="46.206370000" lon="7.203440000"><ele></ele><time>2013-8-8T4:28:46Z</time></trkpt>
<trkpt lat="46.206360000" lon="7.203410000"><ele></ele><time>2013-8-8T4:28:49Z</time></trkpt>
<trkpt lat="46.206360000" lon="7.203390000"><ele></ele><time>2013-8-8T4:28:52Z</time></trkpt>
<trkpt lat="46.206360000" lon="7.203360000"><ele></ele><time>2013-8-8T4:28:55Z</time></trkpt>
<trkpt lat="46.206360000" lon="7.203340000"><ele></ele><time>2013-8-8T4:28:58Z</time></trkpt>
<trkpt lat="46.206370000" lon="7.203210000"><ele></ele><time>2013-8-8T4:29:1Z</time></trkpt>
<trkpt lat="46.206370000" lon="7.203180000"><ele></ele><time>2013-8-8T4:29:4Z</time></trkpt>
<trkpt lat="46.206370000" lon="7.203140000"><ele></ele><time>2013-8-8T4:29:7Z</time></trkpt>
<trkpt lat="46.206370000" lon="7.203110000"><ele></ele><time>2013-8-8T4:29:10Z</time></trkpt>
<trkpt lat="46.206370000" lon="7.203080000"><ele></ele><time>2013-8-8T4:29:13Z</time></trkpt>
<trkpt lat="46.206380000" lon="7.203060000"><ele></ele><time>2013-8-8T4:29:16Z</time></trkpt>
<trkpt lat="46.206380000" lon="7.203030000"><ele></ele><time>2013-8-8T4:29:19Z</time></trkpt>
<trkpt lat="46.206380000" lon="7.202940000"><ele></ele><time>2013-8-8T4:29:22Z</time></trkpt>
<trkpt lat="46.206370000" lon="7.202910000"><ele></ele><time>2013-8-8T4:29:25Z</time></trkpt>
<trkpt lat="46.206370000" lon="7.202880000"><ele></ele><time>2013-8-8T4:29:28Z</time></trkpt>
<trkpt lat="46.206370000" lon="7.202850000"><ele></ele><time>2013-8-8T4:29:31Z</time></trkpt>
<trkpt lat="46.206380000" lon="7.202820000"><ele></ele><time>2013-8-8T4:29:34Z</time></trkpt>
<trkpt lat="46.206390000" lon="7.202740000"><ele></ele><time>2013-8-8T4:29:37Z</time></trkpt>
<trkpt lat="46.206400000" lon="7.202710000"><ele></ele><time>2013-8-8T4:29:40Z</time></trkpt>
<trkpt lat="46.206410000" lon="7.202690000"><ele></ele><time>2013-8-8T4:29:43Z</time></trkpt>
<trkpt lat="46.206410000" lon="7.202660000"><ele></ele><time>2013-8-8T4:29:46Z</time></trkpt>
<trkpt lat="46.206430000" lon="7.202560000"><ele></ele><time>2013-8-8T4:29:49Z</time></trkpt>
<trkpt lat="46.206440000" lon="7.202530000"><ele></ele><time>2013-8-8T4:29:52Z</time></trkpt>
<trkpt lat="46.206450000" lon="7.202510000"><ele></ele><time>2013-8-8T4:29:55Z</time></trkpt>
<trkpt lat="46.206450000" lon="7.202480000"><ele></ele><time>2013-8-8T4:29:58Z</time></trkpt>
<trkpt lat="46.206450000" lon="7.202470000"><ele></ele><time>2013-8-8T4:30:1Z</time></trkpt>
<trkpt lat="46.206430000" lon="7.202450000"><ele></ele><time>2013-8-8T4:30:4Z</time></trkpt>
<trkpt lat="46.206380000" lon="7.202420000"><ele></ele><time>2013-8-8T4:30:7Z</time></trkpt>
<trkpt lat="46.206370000" lon="7.202390000"><ele></ele><time>2013-8-8T4:30:10Z</time></trkpt>
<trkpt lat="46.206360000" lon="7.202370000"><ele></ele><time>2013-8-8T4:30:13Z</time></trkpt>
<trkpt lat="46.206340000" lon="7.202360000"><ele></ele><time>2013-8-8T4:30:16Z</time></trkpt>
<trkpt lat="46.206330000" lon="7.202350000"><ele></ele><time>2013-8-8T4:30:19Z</time></trkpt>
<trkpt lat="46.206320000" lon="7.202340000"><ele></ele><time>2013-8-8T4:30:22Z</time></trkpt>
<trkpt lat="46.206260000" lon="7.202350000"><ele></ele><time>2013-8-8T4:30:25Z</time></trkpt>
<trkpt lat="46.206250000" lon="7.202350000"><ele></ele><time>2013-8-8T4:30:28Z</time></trkpt>
<trkpt lat="46.206250000" lon="7.202360000"><ele></ele><time>2013-8-8T4:30:31Z</time></trkpt>
<trkpt lat="46.206230000" lon="7.202370000"><ele></ele><time>2013-8-8T4:30:34Z</time></trkpt>
<trkpt lat="46.206200000" lon="7.202420000"><ele></ele><time>2013-8-8T4:30:37Z</time></trkpt>
<trkpt lat="46.206160000" lon="7.202560000"><ele></ele><time>2013-8-8T4:30:40Z</time></trkpt>
<trkpt lat="46.206150000" lon="7.202640000"><ele></ele><time>2013-8-8T4:30:43Z</time></trkpt>
<trkpt lat="46.206140000" lon="7.202660000"><ele></ele><time>2013-8-8T4:30:46Z</time></trkpt>
<trkpt lat="46.206130000" lon="7.202680000"><ele></ele><time>2013-8-8T4:30:49Z</time></trkpt>
<trkpt lat="46.206120000" lon="7.202700000"><ele></ele><time>2013-8-8T4:30:52Z</time></trkpt>
<trkpt lat="46.206120000" lon="7.202730000"><ele></ele><time>2013-8-8T4:30:55Z</time></trkpt>
<trkpt lat="46.206090000" lon="7.202810000"><ele></ele><time>2013-8-8T4:30:58Z</time></trkpt>
<trkpt lat="46.206080000" lon="7.202830000"><ele></ele><time>2013-8-8T4:31:1Z</time></trkpt>
<trkpt lat="46.206070000" lon="7.202860000"><ele></ele><time>2013-8-8T4:31:4Z</time></trkpt>
<trkpt lat="46.206060000" lon="7.202890000"><ele></ele><time>2013-8-8T4:31:7Z</time></trkpt>
<trkpt lat="46.206050000" lon="7.202910000"><ele></ele><time>2013-8-8T4:31:10Z</time></trkpt>
<trkpt lat="46.206040000" lon="7.202940000"><ele></ele><time>2013-8-8T4:31:13Z</time></trkpt>
<trkpt lat="46.206040000" lon="7.202960000"><ele></ele><time>2013-8-8T4:31:16Z</time></trkpt>
<trkpt lat="46.206010000" lon="7.203040000"><ele></ele><time>2013-8-8T4:31:19Z</time></trkpt>
<trkpt lat="46.206000000" lon="7.203070000"><ele></ele><time>2013-8-8T4:31:22Z</time></trkpt>
<trkpt lat="46.205990000" lon="7.203100000"><ele></ele><time>2013-8-8T4:31:25Z</time></trkpt>
<trkpt lat="46.205980000" lon="7.203120000"><ele></ele><time>2013-8-8T4:31:28Z</time></trkpt>
<trkpt lat="46.205970000" lon="7.203150000"><ele></ele><time>2013-8-8T4:31:31Z</time></trkpt>
<trkpt lat="46.205930000" lon="7.203240000"><ele></ele><time>2013-8-8T4:31:34Z</time></trkpt>
<trkpt lat="46.205920000" lon="7.203270000"><ele></ele><time>2013-8-8T4:31:37Z</time></trkpt>
<trkpt lat="46.205920000" lon="7.203290000"><ele></ele><time>2013-8-8T4:31:40Z</time></trkpt>
<trkpt lat="46.205910000" lon="7.203330000"><ele></ele><time>2013-8-8T4:31:43Z</time></trkpt>
<trkpt lat="46.205890000" lon="7.203350000"><ele></ele><time>2013-8-8T4:31:46Z</time></trkpt>
<trkpt lat="46.205860000" lon="7.203400000"><ele></ele><time>2013-8-8T4:31:49Z</time></trkpt>
<trkpt lat="46.205830000" lon="7.203430000"><ele></ele><time>2013-8-8T4:31:52Z</time></trkpt>
<trkpt lat="46.205810000" lon="7.203420000"><ele></ele><time>2013-8-8T4:31:55Z</time></trkpt>
<trkpt lat="46.205810000" lon="7.203400000"><ele></ele><time>2013-8-8T4:31:58Z</time></trkpt>
<trkpt lat="46.205790000" lon="7.203380000"><ele></ele><time>2013-8-8T4:32:1Z</time></trkpt>
<trkpt lat="46.205790000" lon="7.203350000"><ele></ele><time>2013-8-8T4:32:4Z</time></trkpt>
<trkpt lat="46.205800000" lon="7.203260000"><ele></ele><time>2013-8-8T4:32:7Z</time></trkpt>
<trkpt lat="46.205810000" lon="7.203240000"><ele></ele><time>2013-8-8T4:32:10Z</time></trkpt>
<trkpt lat="46.205810000" lon="7.203210000"><ele></ele><time>2013-8-8T4:32:13Z</time></trkpt>
<trkpt lat="46.205820000" lon="7.203190000"><ele></ele><time>2013-8-8T4:32:16Z</time></trkpt>
<trkpt lat="46.205830000" lon="7.203160000"><ele></ele><time>2013-8-8T4:32:19Z</time></trkpt>
<trkpt lat="46.205840000" lon="7.203110000"><ele></ele><time>2013-8-8T4:32:22Z</time></trkpt>
<trkpt lat="46.205880000" lon="7.202940000"><ele></ele><time>2013-8-8T4:32:25Z</time></trkpt>
<trkpt lat="46.205880000" lon="7.202910000"><ele></ele><time>2013-8-8T4:32:28Z</time></trkpt>
<trkpt lat="46.205880000" lon="7.202880000"><ele></ele><time>2013-8-8T4:32:31Z</time></trkpt>
<trkpt lat="46.205890000" lon="7.202860000"><ele></ele><time>2013-8-8T4:32:34Z</time></trkpt>
<trkpt lat="46.205890000" lon="7.202830000"><ele></ele><time>2013-8-8T4:32:37Z</time></trkpt>
<trkpt lat="46.205900000" lon="7.202780000"><ele></ele><time>2013-8-8T4:32:40Z</time></trkpt>
<trkpt lat="46.205890000" lon="7.202680000"><ele></ele><time>2013-8-8T4:32:43Z</time></trkpt>
<trkpt lat="46.205890000" lon="7.202650000"><ele></ele><time>2013-8-8T4:32:46Z</time></trkpt>
<trkpt lat="46.205900000" lon="7.202620000"><ele></ele><time>2013-8-8T4:32:49Z</time></trkpt>
<trkpt lat="46.205890000" lon="7.202600000"><ele></ele><time>2013-8-8T4:32:52Z</time></trkpt>
<trkpt lat="46.205880000" lon="7.202490000"><ele></ele><time>2013-8-8T4:32:55Z</time></trkpt>
<trkpt lat="46.205890000" lon="7.202460000"><ele></ele><time>2013-8-8T4:32:58Z</time></trkpt>
<trkpt lat="46.205880000" lon="7.202440000"><ele></ele><time>2013-8-8T4:33:1Z</time></trkpt>
<trkpt lat="46.205880000" lon="7.202410000"><ele></ele><time>2013-8-8T4:33:4Z</time></trkpt>
<trkpt lat="46.205870000" lon="7.202380000"><ele></ele><time>2013-8-8T4:33:7Z</time></trkpt>
<trkpt lat="46.205860000" lon="7.202360000"><ele></ele><time>2013-8-8T4:33:10Z</time></trkpt>
<trkpt lat="46.205860000" lon="7.202330000"><ele></ele><time>2013-8-8T4:33:13Z</time></trkpt>
<trkpt lat="46.205850000" lon="7.202280000"><ele></ele><time>2013-8-8T4:33:16Z</time></trkpt>
<trkpt lat="46.205850000" lon="7.202260000"><ele></ele><time>2013-8-8T4:33:19Z</time></trkpt>
<trkpt lat="46.205850000" lon="7.202230000"><ele></ele><time>2013-8-8T4:33:22Z</time></trkpt>
<trkpt lat="46.205840000" lon="7.202200000"><ele></ele><time>2013-8-8T4:33:25Z</time></trkpt>
<trkpt lat="46.205840000" lon="7.202170000"><ele></ele><time>2013-8-8T4:33:28Z</time></trkpt>
<trkpt lat="46.205830000" lon="7.202040000"><ele></ele><time>2013-8-8T4:33:31Z</time></trkpt>
<trkpt lat="46.205820000" lon="7.202020000"><ele></ele><time>2013-8-8T4:33:34Z</time></trkpt>
<trkpt lat="46.205820000" lon="7.201990000"><ele></ele><time>2013-8-8T4:33:37Z</time></trkpt>
<trkpt lat="46.205820000" lon="7.201970000"><ele></ele><time>2013-8-8T4:33:40Z</time></trkpt>
<trkpt lat="46.205830000" lon="7.201890000"><ele></ele><time>2013-8-8T4:33:43Z</time></trkpt>
<trkpt lat="46.205830000" lon="7.201860000"><ele></ele><time>2013-8-8T4:33:46Z</time></trkpt>
<trkpt lat="46.205820000" lon="7.201830000"><ele></ele><time>2013-8-8T4:33:49Z</time></trkpt>
<trkpt lat="46.205820000" lon="7.201810000"><ele></ele><time>2013-8-8T4:33:52Z</time></trkpt>
<trkpt lat="46.205810000" lon="7.201780000"><ele></ele><time>2013-8-8T4:33:55Z</time></trkpt>
<trkpt lat="46.205820000" lon="7.201760000"><ele></ele><time>2013-8-8T4:33:58Z</time></trkpt>
<trkpt lat="46.205830000" lon="7.201670000"><ele></ele><time>2013-8-8T4:34:1Z</time></trkpt>
<trkpt lat="46.205830000" lon="7.201630000"><ele></ele><time>2013-8-8T4:34:4Z</time></trkpt>
<trkpt lat="46.205840000" lon="7.201600000"><ele></ele><time>2013-8-8T4:34:7Z</time></trkpt>
<trkpt lat="46.205840000" lon="7.201570000"><ele></ele><time>2013-8-8T4:34:10Z</time></trkpt>
<trkpt lat="46.205840000" lon="7.201540000"><ele></ele><time>2013-8-8T4:34:13Z</time></trkpt>
<trkpt lat="46.205840000" lon="7.201510000"><ele></ele><time>2013-8-8T4:34:16Z</time></trkpt>
<trkpt lat="46.205830000" lon="7.201480000"><ele></ele><time>2013-8-8T4:34:19Z</time></trkpt>
<trkpt lat="46.205840000" lon="7.201430000"><ele></ele><time>2013-8-8T4:34:22Z</time></trkpt>
<trkpt lat="46.205840000" lon="7.201400000"><ele></ele><time>2013-8-8T4:34:25Z</time></trkpt>
<trkpt lat="46.205840000" lon="7.201370000"><ele></ele><time>2013-8-8T4:34:28Z</time></trkpt>
<trkpt lat="46.205830000" lon="7.201350000"><ele></ele><time>2013-8-8T4:34:31Z</time></trkpt>
<trkpt lat="46.205820000" lon="7.201240000"><ele></ele><time>2013-8-8T4:34:34Z</time></trkpt>
<trkpt lat="46.205810000" lon="7.201220000"><ele></ele><time>2013-8-8T4:34:37Z</time></trkpt>
<trkpt lat="46.205810000" lon="7.201200000"><ele></ele><time>2013-8-8T4:34:40Z</time></trkpt>
<trkpt lat="46.205800000" lon="7.201170000"><ele></ele><time>2013-8-8T4:34:43Z</time></trkpt>
<trkpt lat="46.205810000" lon="7.201150000"><ele></ele><time>2013-8-8T4:34:46Z</time></trkpt>
<trkpt lat="46.205800000" lon="7.201070000"><ele></ele><time>2013-8-8T4:34:49Z</time></trkpt>
<trkpt lat="46.205800000" lon="7.201040000"><ele></ele><time>2013-8-8T4:34:52Z</time></trkpt>
<trkpt lat="46.205800000" lon="7.201020000"><ele></ele><time>2013-8-8T4:34:55Z</time></trkpt>
<trkpt lat="46.205800000" lon="7.200990000"><ele></ele><time>2013-8-8T4:34:58Z</time></trkpt>
<trkpt lat="46.205810000" lon="7.200970000"><ele></ele><time>2013-8-8T4:35:1Z</time></trkpt>
<trkpt lat="46.205830000" lon="7.200860000"><ele></ele><time>2013-8-8T4:35:4Z</time></trkpt>
<trkpt lat="46.205840000" lon="7.200840000"><ele></ele><time>2013-8-8T4:35:7Z</time></trkpt>
<trkpt lat="46.205850000" lon="7.200820000"><ele></ele><time>2013-8-8T4:35:10Z</time></trkpt>
<trkpt lat="46.205850000" lon="7.200800000"><ele></ele><time>2013-8-8T4:35:13Z</time></trkpt>
<trkpt lat="46.205860000" lon="7.200770000"><ele></ele><time>2013-8-8T4:35:16Z</time></trkpt>
<trkpt lat="46.205850000" lon="7.200750000"><ele></ele><time>2013-8-8T4:35:19Z</time></trkpt>
<trkpt lat="46.205850000" lon="7.200720000"><ele></ele><time>2013-8-8T4:35:22Z</time></trkpt>
<trkpt lat="46.205850000" lon="7.200690000"><ele></ele><time>2013-8-8T4:35:25Z</time></trkpt>
<trkpt lat="46.205850000" lon="7.200660000"><ele></ele><time>2013-8-8T4:35:28Z</time></trkpt>
<trkpt lat="46.205860000" lon="7.200650000"><ele></ele><time>2013-8-8T4:35:31Z</time></trkpt>
<trkpt lat="46.205870000" lon="7.200620000"><ele></ele><time>2013-8-8T4:35:34Z</time></trkpt>
<trkpt lat="46.205850000" lon="7.200570000"><ele></ele><time>2013-8-8T4:35:37Z</time></trkpt>
<trkpt lat="46.205840000" lon="7.200510000"><ele></ele><time>2013-8-8T4:35:40Z</time></trkpt>
<trkpt lat="46.205840000" lon="7.200480000"><ele></ele><time>2013-8-8T4:35:43Z</time></trkpt>
<trkpt lat="46.205840000" lon="7.200450000"><ele></ele><time>2013-8-8T4:35:46Z</time></trkpt>
<trkpt lat="46.205830000" lon="7.200430000"><ele></ele><time>2013-8-8T4:35:49Z</time></trkpt>
<trkpt lat="46.205830000" lon="7.200400000"><ele></ele><time>2013-8-8T4:35:52Z</time></trkpt>
<trkpt lat="46.205830000" lon="7.200360000"><ele></ele><time>2013-8-8T4:35:55Z</time></trkpt>
<trkpt lat="46.205830000" lon="7.200330000"><ele></ele><time>2013-8-8T4:35:58Z</time></trkpt>
<trkpt lat="46.205820000" lon="7.200310000"><ele></ele><time>2013-8-8T4:36:1Z</time></trkpt>
<trkpt lat="46.205820000" lon="7.200290000"><ele></ele><time>2013-8-8T4:36:4Z</time></trkpt>
<trkpt lat="46.205810000" lon="7.200260000"><ele></ele><time>2013-8-8T4:36:7Z</time></trkpt>
<trkpt lat="46.205800000" lon="7.200240000"><ele></ele><time>2013-8-8T4:36:10Z</time></trkpt>
<trkpt lat="46.205800000" lon="7.200190000"><ele></ele><time>2013-8-8T4:36:13Z</time></trkpt>
<trkpt lat="46.205780000" lon="7.200100000"><ele></ele><time>2013-8-8T4:36:16Z</time></trkpt>
<trkpt lat="46.205760000" lon="7.200070000"><ele></ele><time>2013-8-8T4:36:19Z</time></trkpt>
<trkpt lat="46.205760000" lon="7.200050000"><ele></ele><time>2013-8-8T4:36:22Z</time></trkpt>
<trkpt lat="46.205750000" lon="7.200030000"><ele></ele><time>2013-8-8T4:36:25Z</time></trkpt>
<trkpt lat="46.205740000" lon="7.199980000"><ele></ele><time>2013-8-8T4:36:28Z</time></trkpt>
<trkpt lat="46.205730000" lon="7.199930000"><ele></ele><time>2013-8-8T4:36:31Z</time></trkpt>
<trkpt lat="46.205730000" lon="7.199910000"><ele></ele><time>2013-8-8T4:36:34Z</time></trkpt>
<trkpt lat="46.205730000" lon="7.199890000"><ele></ele><time>2013-8-8T4:36:37Z</time></trkpt>
<trkpt lat="46.205730000" lon="7.199880000"><ele></ele><time>2013-8-8T4:36:40Z</time></trkpt>
<trkpt lat="46.205740000" lon="7.199850000"><ele></ele><time>2013-8-8T4:36:43Z</time></trkpt>
<trkpt lat="46.205740000" lon="7.199770000"><ele></ele><time>2013-8-8T4:36:46Z</time></trkpt>
<trkpt lat="46.205720000" lon="7.199710000"><ele></ele><time>2013-8-8T4:36:49Z</time></trkpt>
<trkpt lat="46.205720000" lon="7.199700000"><ele></ele><time>2013-8-8T4:36:52Z</time></trkpt>
<trkpt lat="46.205720000" lon="7.199680000"><ele></ele><time>2013-8-8T4:36:55Z</time></trkpt>
<trkpt lat="46.205720000" lon="7.199650000"><ele></ele><time>2013-8-8T4:36:58Z</time></trkpt>
<trkpt lat="46.205730000" lon="7.199630000"><ele></ele><time>2013-8-8T4:37:1Z</time></trkpt>
<trkpt lat="46.205720000" lon="7.199560000"><ele></ele><time>2013-8-8T4:37:4Z</time></trkpt>
<trkpt lat="46.205710000" lon="7.199540000"><ele></ele><time>2013-8-8T4:37:7Z</time></trkpt>
<trkpt lat="46.205700000" lon="7.199520000"><ele></ele><time>2013-8-8T4:37:10Z</time></trkpt>
<trkpt lat="46.205700000" lon="7.199500000"><ele></ele><time>2013-8-8T4:37:13Z</time></trkpt>
<trkpt lat="46.205700000" lon="7.199480000"><ele></ele><time>2013-8-8T4:37:16Z</time></trkpt>
<trkpt lat="46.205660000" lon="7.199430000"><ele></ele><time>2013-8-8T4:37:19Z</time></trkpt>
<trkpt lat="46.205640000" lon="7.199380000"><ele></ele><time>2013-8-8T4:37:22Z</time></trkpt>
<trkpt lat="46.205640000" lon="7.199360000"><ele></ele><time>2013-8-8T4:37:25Z</time></trkpt>
<trkpt lat="46.205620000" lon="7.199330000"><ele></ele><time>2013-8-8T4:37:28Z</time></trkpt>
<trkpt lat="46.205610000" lon="7.199310000"><ele></ele><time>2013-8-8T4:37:31Z</time></trkpt>
<trkpt lat="46.205600000" lon="7.199290000"><ele></ele><time>2013-8-8T4:37:34Z</time></trkpt>
<trkpt lat="46.205590000" lon="7.199260000"><ele></ele><time>2013-8-8T4:37:37Z</time></trkpt>
<trkpt lat="46.205520000" lon="7.199200000"><ele></ele><time>2013-8-8T4:37:40Z</time></trkpt>
<trkpt lat="46.205510000" lon="7.199190000"><ele></ele><time>2013-8-8T4:37:43Z</time></trkpt>
<trkpt lat="46.205500000" lon="7.199170000"><ele></ele><time>2013-8-8T4:37:46Z</time></trkpt>
<trkpt lat="46.205490000" lon="7.199150000"><ele></ele><time>2013-8-8T4:37:49Z</time></trkpt>
<trkpt lat="46.205480000" lon="7.199130000"><ele></ele><time>2013-8-8T4:37:52Z</time></trkpt>
<trkpt lat="46.205440000" lon="7.199080000"><ele></ele><time>2013-8-8T4:37:55Z</time></trkpt>
<trkpt lat="46.205430000" lon="7.199060000"><ele></ele><time>2013-8-8T4:37:58Z</time></trkpt>
<trkpt lat="46.205420000" lon="7.199040000"><ele></ele><time>2013-8-8T4:38:1Z</time></trkpt>
<trkpt lat="46.205410000" lon="7.199020000"><ele></ele><time>2013-8-8T4:38:4Z</time></trkpt>
<trkpt lat="46.205390000" lon="7.199000000"><ele></ele><time>2013-8-8T4:38:7Z</time></trkpt>
<trkpt lat="46.205350000" lon="7.198940000"><ele></ele><time>2013-8-8T4:38:10Z</time></trkpt>
<trkpt lat="46.205340000" lon="7.198930000"><ele></ele><time>2013-8-8T4:38:13Z</time></trkpt>
<trkpt lat="46.205330000" lon="7.198910000"><ele></ele><time>2013-8-8T4:38:16Z</time></trkpt>
<trkpt lat="46.205320000" lon="7.198880000"><ele></ele><time>2013-8-8T4:38:19Z</time></trkpt>
<trkpt lat="46.205320000" lon="7.198860000"><ele></ele><time>2013-8-8T4:38:22Z</time></trkpt>
<trkpt lat="46.205310000" lon="7.198840000"><ele></ele><time>2013-8-8T4:38:25Z</time></trkpt>
<trkpt lat="46.205310000" lon="7.198820000"><ele></ele><time>2013-8-8T4:38:28Z</time></trkpt>
<trkpt lat="46.205300000" lon="7.198780000"><ele></ele><time>2013-8-8T4:38:31Z</time></trkpt>
<trkpt lat="46.205290000" lon="7.198760000"><ele></ele><time>2013-8-8T4:38:34Z</time></trkpt>
<trkpt lat="46.205290000" lon="7.198740000"><ele></ele><time>2013-8-8T4:38:37Z</time></trkpt>
<trkpt lat="46.205280000" lon="7.198710000"><ele></ele><time>2013-8-8T4:38:40Z</time></trkpt>
<trkpt lat="46.205280000" lon="7.198690000"><ele></ele><time>2013-8-8T4:38:43Z</time></trkpt>
<trkpt lat="46.205270000" lon="7.198630000"><ele></ele><time>2013-8-8T4:38:46Z</time></trkpt>
<trkpt lat="46.205260000" lon="7.198600000"><ele></ele><time>2013-8-8T4:38:49Z</time></trkpt>
<trkpt lat="46.205250000" lon="7.198590000"><ele></ele><time>2013-8-8T4:38:52Z</time></trkpt>
<trkpt lat="46.205230000" lon="7.198570000"><ele></ele><time>2013-8-8T4:38:55Z</time></trkpt>
<trkpt lat="46.205230000" lon="7.198520000"><ele></ele><time>2013-8-8T4:38:58Z</time></trkpt>
<trkpt lat="46.205230000" lon="7.198500000"><ele></ele><time>2013-8-8T4:39:1Z</time></trkpt>
<trkpt lat="46.205230000" lon="7.198490000"><ele></ele><time>2013-8-8T4:39:4Z</time></trkpt>
<trkpt lat="46.205220000" lon="7.198470000"><ele></ele><time>2013-8-8T4:39:7Z</time></trkpt>
<trkpt lat="46.205210000" lon="7.198450000"><ele></ele><time>2013-8-8T4:39:10Z</time></trkpt>
<trkpt lat="46.205210000" lon="7.198430000"><ele></ele><time>2013-8-8T4:39:13Z</time></trkpt>
<trkpt lat="46.205200000" lon="7.198390000"><ele></ele><time>2013-8-8T4:39:16Z</time></trkpt>
<trkpt lat="46.205200000" lon="7.198370000"><ele></ele><time>2013-8-8T4:39:19Z</time></trkpt>
<trkpt lat="46.205190000" lon="7.198340000"><ele></ele><time>2013-8-8T4:39:22Z</time></trkpt>
<trkpt lat="46.205180000" lon="7.198320000"><ele></ele><time>2013-8-8T4:39:25Z</time></trkpt>
<trkpt lat="46.205180000" lon="7.198300000"><ele></ele><time>2013-8-8T4:39:28Z</time></trkpt>
<trkpt lat="46.205170000" lon="7.198270000"><ele></ele><time>2013-8-8T4:39:31Z</time></trkpt>
<trkpt lat="46.205170000" lon="7.198250000"><ele></ele><time>2013-8-8T4:39:34Z</time></trkpt>
<trkpt lat="46.205150000" lon="7.198180000"><ele></ele><time>2013-8-8T4:39:37Z</time></trkpt>
<trkpt lat="46.205140000" lon="7.198140000"><ele></ele><time>2013-8-8T4:39:40Z</time></trkpt>
<trkpt lat="46.205130000" lon="7.198120000"><ele></ele><time>2013-8-8T4:39:43Z</time></trkpt>
<trkpt lat="46.205120000" lon="7.198100000"><ele></ele><time>2013-8-8T4:39:46Z</time></trkpt>
<trkpt lat="46.205120000" lon="7.198080000"><ele></ele><time>2013-8-8T4:39:49Z</time></trkpt>
<trkpt lat="46.205120000" lon="7.198060000"><ele></ele><time>2013-8-8T4:39:52Z</time></trkpt>
<trkpt lat="46.205100000" lon="7.197960000"><ele></ele><time>2013-8-8T4:39:55Z</time></trkpt>
<trkpt lat="46.205090000" lon="7.197940000"><ele></ele><time>2013-8-8T4:39:58Z</time></trkpt>
<trkpt lat="46.205090000" lon="7.197920000"><ele></ele><time>2013-8-8T4:40:1Z</time></trkpt>
<trkpt lat="46.205090000" lon="7.197900000"><ele></ele><time>2013-8-8T4:40:4Z</time></trkpt>
<trkpt lat="46.205090000" lon="7.197880000"><ele></ele><time>2013-8-8T4:40:7Z</time></trkpt>
<trkpt lat="46.205070000" lon="7.197770000"><ele></ele><time>2013-8-8T4:40:10Z</time></trkpt>
<trkpt lat="46.205070000" lon="7.197730000"><ele></ele><time>2013-8-8T4:40:13Z</time></trkpt>
<trkpt lat="46.205070000" lon="7.197710000"><ele></ele><time>2013-8-8T4:40:16Z</time></trkpt>
<trkpt lat="46.205070000" lon="7.197690000"><ele></ele><time>2013-8-8T4:40:19Z</time></trkpt>
<trkpt lat="46.205070000" lon="7.197660000"><ele></ele><time>2013-8-8T4:40:22Z</time></trkpt>
<trkpt lat="46.205070000" lon="7.197630000"><ele></ele><time>2013-8-8T4:40:25Z</time></trkpt>
<trkpt lat="46.205070000" lon="7.197610000"><ele></ele><time>2013-8-8T4:40:28Z</time></trkpt>
<trkpt lat="46.205090000" lon="7.197550000"><ele></ele><time>2013-8-8T4:40:31Z</time></trkpt>
<trkpt lat="46.205110000" lon="7.197530000"><ele></ele><time>2013-8-8T4:40:34Z</time></trkpt>
<trkpt lat="46.205130000" lon="7.197520000"><ele></ele><time>2013-8-8T4:40:37Z</time></trkpt>
<trkpt lat="46.205140000" lon="7.197510000"><ele></ele><time>2013-8-8T4:40:40Z</time></trkpt>
<trkpt lat="46.205160000" lon="7.197490000"><ele></ele><time>2013-8-8T4:40:43Z</time></trkpt>
<trkpt lat="46.205230000" lon="7.197430000"><ele></ele><time>2013-8-8T4:40:46Z</time></trkpt>
<trkpt lat="46.205250000" lon="7.197420000"><ele></ele><time>2013-8-8T4:40:49Z</time></trkpt>
<trkpt lat="46.205270000" lon="7.197410000"><ele></ele><time>2013-8-8T4:40:52Z</time></trkpt>
<trkpt lat="46.205280000" lon="7.197410000"><ele></ele><time>2013-8-8T4:40:55Z</time></trkpt>
<trkpt lat="46.205300000" lon="7.197400000"><ele></ele><time>2013-8-8T4:40:58Z</time></trkpt>
<trkpt lat="46.205350000" lon="7.197390000"><ele></ele><time>2013-8-8T4:41:1Z</time></trkpt>
<trkpt lat="46.205360000" lon="7.197380000"><ele></ele><time>2013-8-8T4:41:4Z</time></trkpt>
<trkpt lat="46.205370000" lon="7.197370000"><ele></ele><time>2013-8-8T4:41:7Z</time></trkpt>
<trkpt lat="46.205390000" lon="7.197360000"><ele></ele><time>2013-8-8T4:41:10Z</time></trkpt>
<trkpt lat="46.205410000" lon="7.197360000"><ele></ele><time>2013-8-8T4:41:13Z</time></trkpt>
<trkpt lat="46.205470000" lon="7.197310000"><ele></ele><time>2013-8-8T4:41:16Z</time></trkpt>
<trkpt lat="46.205480000" lon="7.197300000"><ele></ele><time>2013-8-8T4:41:19Z</time></trkpt>
<trkpt lat="46.205500000" lon="7.197290000"><ele></ele><time>2013-8-8T4:41:22Z</time></trkpt>
<trkpt lat="46.205520000" lon="7.197270000"><ele></ele><time>2013-8-8T4:41:25Z</time></trkpt>
<trkpt lat="46.205540000" lon="7.197240000"><ele></ele><time>2013-8-8T4:41:28Z</time></trkpt>
<trkpt lat="46.205550000" lon="7.197220000"><ele></ele><time>2013-8-8T4:41:31Z</time></trkpt>
<trkpt lat="46.205560000" lon="7.197200000"><ele></ele><time>2013-8-8T4:41:34Z</time></trkpt>
<trkpt lat="46.205560000" lon="7.197180000"><ele></ele><time>2013-8-8T4:41:37Z</time></trkpt>
<trkpt lat="46.205570000" lon="7.197160000"><ele></ele><time>2013-8-8T4:41:40Z</time></trkpt>
<trkpt lat="46.205580000" lon="7.197100000"><ele></ele><time>2013-8-8T4:41:43Z</time></trkpt>
<trkpt lat="46.205570000" lon="7.197030000"><ele></ele><time>2013-8-8T4:41:46Z</time></trkpt>
<trkpt lat="46.205580000" lon="7.197010000"><ele></ele><time>2013-8-8T4:41:49Z</time></trkpt>
<trkpt lat="46.205580000" lon="7.196990000"><ele></ele><time>2013-8-8T4:41:52Z</time></trkpt>
<trkpt lat="46.205590000" lon="7.196960000"><ele></ele><time>2013-8-8T4:41:55Z</time></trkpt>
<trkpt lat="46.205590000" lon="7.196940000"><ele></ele><time>2013-8-8T4:41:58Z</time></trkpt>
<trkpt lat="46.205590000" lon="7.196910000"><ele></ele><time>2013-8-8T4:42:1Z</time></trkpt>
<trkpt lat="46.205590000" lon="7.196820000"><ele></ele><time>2013-8-8T4:42:4Z</time></trkpt>
<trkpt lat="46.205590000" lon="7.196800000"><ele></ele><time>2013-8-8T4:42:7Z</time></trkpt>
<trkpt lat="46.205590000" lon="7.196770000"><ele></ele><time>2013-8-8T4:42:10Z</time></trkpt>
<trkpt lat="46.205580000" lon="7.196740000"><ele></ele><time>2013-8-8T4:42:13Z</time></trkpt>
<trkpt lat="46.205570000" lon="7.196680000"><ele></ele><time>2013-8-8T4:42:16Z</time></trkpt>
<trkpt lat="46.205570000" lon="7.196650000"><ele></ele><time>2013-8-8T4:42:19Z</time></trkpt>
<trkpt lat="46.205580000" lon="7.196620000"><ele></ele><time>2013-8-8T4:42:22Z</time></trkpt>
<trkpt lat="46.205580000" lon="7.196600000"><ele></ele><time>2013-8-8T4:42:25Z</time></trkpt>
<trkpt lat="46.205590000" lon="7.196570000"><ele></ele><time>2013-8-8T4:42:28Z</time></trkpt>
<trkpt lat="46.205600000" lon="7.196560000"><ele></ele><time>2013-8-8T4:42:31Z</time></trkpt>
<trkpt lat="46.205640000" lon="7.196520000"><ele></ele><time>2013-8-8T4:42:34Z</time></trkpt>
<trkpt lat="46.205650000" lon="7.196500000"><ele></ele><time>2013-8-8T4:42:37Z</time></trkpt>
<trkpt lat="46.205670000" lon="7.196490000"><ele></ele><time>2013-8-8T4:42:40Z</time></trkpt>
<trkpt lat="46.205680000" lon="7.196480000"><ele></ele><time>2013-8-8T4:42:43Z</time></trkpt>
<trkpt lat="46.205700000" lon="7.196470000"><ele></ele><time>2013-8-8T4:42:46Z</time></trkpt>
<trkpt lat="46.205720000" lon="7.196470000"><ele></ele><time>2013-8-8T4:42:49Z</time></trkpt>
<trkpt lat="46.205810000" lon="7.196450000"><ele></ele><time>2013-8-8T4:42:52Z</time></trkpt>
<trkpt lat="46.205820000" lon="7.196450000"><ele></ele><time>2013-8-8T4:42:55Z</time></trkpt>
<trkpt lat="46.205840000" lon="7.196450000"><ele></ele><time>2013-8-8T4:42:58Z</time></trkpt>
<trkpt lat="46.205850000" lon="7.196460000"><ele></ele><time>2013-8-8T4:43:1Z</time></trkpt>
<trkpt lat="46.205910000" lon="7.196480000"><ele></ele><time>2013-8-8T4:43:4Z</time></trkpt>
<trkpt lat="46.205930000" lon="7.196480000"><ele></ele><time>2013-8-8T4:43:7Z</time></trkpt>
<trkpt lat="46.205950000" lon="7.196480000"><ele></ele><time>2013-8-8T4:43:10Z</time></trkpt>
<trkpt lat="46.205970000" lon="7.196480000"><ele></ele><time>2013-8-8T4:43:13Z</time></trkpt>
<trkpt lat="46.205990000" lon="7.196490000"><ele></ele><time>2013-8-8T4:43:16Z</time></trkpt>
<trkpt lat="46.206010000" lon="7.196490000"><ele></ele><time>2013-8-8T4:43:19Z</time></trkpt>
<trkpt lat="46.206020000" lon="7.196490000"><ele></ele><time>2013-8-8T4:43:22Z</time></trkpt>
<trkpt lat="46.206050000" lon="7.196480000"><ele></ele><time>2013-8-8T4:43:25Z</time></trkpt>
<trkpt lat="46.206070000" lon="7.196470000"><ele></ele><time>2013-8-8T4:43:28Z</time></trkpt>
<trkpt lat="46.206090000" lon="7.196460000"><ele></ele><time>2013-8-8T4:43:31Z</time></trkpt>
<trkpt lat="46.206100000" lon="7.196470000"><ele></ele><time>2013-8-8T4:43:34Z</time></trkpt>
<trkpt lat="46.206120000" lon="7.196480000"><ele></ele><time>2013-8-8T4:43:37Z</time></trkpt>
<trkpt lat="46.206170000" lon="7.196530000"><ele></ele><time>2013-8-8T4:43:40Z</time></trkpt>
<trkpt lat="46.206190000" lon="7.196540000"><ele></ele><time>2013-8-8T4:43:43Z</time></trkpt>
<trkpt lat="46.206200000" lon="7.196560000"><ele></ele><time>2013-8-8T4:43:46Z</time></trkpt>
<trkpt lat="46.206210000" lon="7.196580000"><ele></ele><time>2013-8-8T4:43:49Z</time></trkpt>
<trkpt lat="46.206220000" lon="7.196590000"><ele></ele><time>2013-8-8T4:43:52Z</time></trkpt>
<trkpt lat="46.206240000" lon="7.196630000"><ele></ele><time>2013-8-8T4:43:55Z</time></trkpt>
<trkpt lat="46.206250000" lon="7.196640000"><ele></ele><time>2013-8-8T4:43:58Z</time></trkpt>
<trkpt lat="46.206260000" lon="7.196660000"><ele></ele><time>2013-8-8T4:44:1Z</time></trkpt>
<trkpt lat="46.206270000" lon="7.196680000"><ele></ele><time>2013-8-8T4:44:4Z</time></trkpt>
<trkpt lat="46.206280000" lon="7.196700000"><ele></ele><time>2013-8-8T4:44:7Z</time></trkpt>
<trkpt lat="46.206330000" lon="7.196770000"><ele></ele><time>2013-8-8T4:44:10Z</time></trkpt>
<trkpt lat="46.206330000" lon="7.196790000"><ele></ele><time>2013-8-8T4:44:13Z</time></trkpt>
<trkpt lat="46.206340000" lon="7.196810000"><ele></ele><time>2013-8-8T4:44:16Z</time></trkpt>
<trkpt lat="46.206360000" lon="7.196830000"><ele></ele><time>2013-8-8T4:44:19Z</time></trkpt>
<trkpt lat="46.206380000" lon="7.196830000"><ele></ele><time>2013-8-8T4:44:22Z</time></trkpt>
<trkpt lat="46.206390000" lon="7.196850000"><ele></ele><time>2013-8-8T4:44:25Z</time></trkpt>
<trkpt lat="46.206420000" lon="7.196890000"><ele></ele><time>2013-8-8T4:44:28Z</time></trkpt>
<trkpt lat="46.206430000" lon="7.196900000"><ele></ele><time>2013-8-8T4:44:31Z</time></trkpt>
<trkpt lat="46.206450000" lon="7.196930000"><ele></ele><time>2013-8-8T4:44:34Z</time></trkpt>
<trkpt lat="46.206460000" lon="7.196940000"><ele></ele><time>2013-8-8T4:44:37Z</time></trkpt>
<trkpt lat="46.206470000" lon="7.196960000"><ele></ele><time>2013-8-8T4:44:40Z</time></trkpt>
<trkpt lat="46.206490000" lon="7.196970000"><ele></ele><time>2013-8-8T4:44:43Z</time></trkpt>
<trkpt lat="46.206530000" lon="7.197010000"><ele></ele><time>2013-8-8T4:44:46Z</time></trkpt>
<trkpt lat="46.206540000" lon="7.197030000"><ele></ele><time>2013-8-8T4:44:49Z</time></trkpt>
<trkpt lat="46.206560000" lon="7.197050000"><ele></ele><time>2013-8-8T4:44:52Z</time></trkpt>
<trkpt lat="46.206570000" lon="7.197060000"><ele></ele><time>2013-8-8T4:44:55Z</time></trkpt>
<trkpt lat="46.206580000" lon="7.197100000"><ele></ele><time>2013-8-8T4:44:58Z</time></trkpt>
<trkpt lat="46.206600000" lon="7.197110000"><ele></ele><time>2013-8-8T4:45:1Z</time></trkpt>
<trkpt lat="46.206610000" lon="7.197130000"><ele></ele><time>2013-8-8T4:45:4Z</time></trkpt>
<trkpt lat="46.206620000" lon="7.197150000"><ele></ele><time>2013-8-8T4:45:7Z</time></trkpt>
<trkpt lat="46.206640000" lon="7.197160000"><ele></ele><time>2013-8-8T4:45:10Z</time></trkpt>
<trkpt lat="46.206650000" lon="7.197180000"><ele></ele><time>2013-8-8T4:45:13Z</time></trkpt>
<trkpt lat="46.206660000" lon="7.197190000"><ele></ele><time>2013-8-8T4:45:16Z</time></trkpt>
<trkpt lat="46.206680000" lon="7.197210000"><ele></ele><time>2013-8-8T4:45:19Z</time></trkpt>
<trkpt lat="46.206740000" lon="7.197250000"><ele></ele><time>2013-8-8T4:45:22Z</time></trkpt>
<trkpt lat="46.206750000" lon="7.197250000"><ele></ele><time>2013-8-8T4:45:25Z</time></trkpt>
<trkpt lat="46.206760000" lon="7.197260000"><ele></ele><time>2013-8-8T4:45:28Z</time></trkpt>
<trkpt lat="46.206780000" lon="7.197280000"><ele></ele><time>2013-8-8T4:45:31Z</time></trkpt>
<trkpt lat="46.206790000" lon="7.197290000"><ele></ele><time>2013-8-8T4:45:34Z</time></trkpt>
<trkpt lat="46.206830000" lon="7.197300000"><ele></ele><time>2013-8-8T4:45:37Z</time></trkpt>
<trkpt lat="46.206860000" lon="7.197320000"><ele></ele><time>2013-8-8T4:45:40Z</time></trkpt>
<trkpt lat="46.206870000" lon="7.197330000"><ele></ele><time>2013-8-8T4:45:43Z</time></trkpt>
<trkpt lat="46.206880000" lon="7.197340000"><ele></ele><time>2013-8-8T4:45:46Z</time></trkpt>
<trkpt lat="46.206900000" lon="7.197340000"><ele></ele><time>2013-8-8T4:45:49Z</time></trkpt>
<trkpt lat="46.206970000" lon="7.197360000"><ele></ele><time>2013-8-8T4:45:52Z</time></trkpt>
<trkpt lat="46.206990000" lon="7.197370000"><ele></ele><time>2013-8-8T4:45:55Z</time></trkpt>
<trkpt lat="46.207010000" lon="7.197370000"><ele></ele><time>2013-8-8T4:45:58Z</time></trkpt>
<trkpt lat="46.207030000" lon="7.197380000"><ele></ele><time>2013-8-8T4:46:1Z</time></trkpt>
<trkpt lat="46.207040000" lon="7.197390000"><ele></ele><time>2013-8-8T4:46:4Z</time></trkpt>
<trkpt lat="46.207110000" lon="7.197400000"><ele></ele><time>2013-8-8T4:46:7Z</time></trkpt>
<trkpt lat="46.207120000" lon="7.197410000"><ele></ele><time>2013-8-8T4:46:10Z</time></trkpt>
<trkpt lat="46.207140000" lon="7.197420000"><ele></ele><time>2013-8-8T4:46:13Z</time></trkpt>
<trkpt lat="46.207160000" lon="7.197420000"><ele></ele><time>2013-8-8T4:46:16Z</time></trkpt>
<trkpt lat="46.207170000" lon="7.197420000"><ele></ele><time>2013-8-8T4:46:19Z</time></trkpt>
<trkpt lat="46.207210000" lon="7.197430000"><ele></ele><time>2013-8-8T4:46:22Z</time></trkpt>
<trkpt lat="46.207260000" lon="7.197450000"><ele></ele><time>2013-8-8T4:46:25Z</time></trkpt>
<trkpt lat="46.207270000" lon="7.197460000"><ele></ele><time>2013-8-8T4:46:28Z</time></trkpt>
<trkpt lat="46.207280000" lon="7.197460000"><ele></ele><time>2013-8-8T4:46:31Z</time></trkpt>
<trkpt lat="46.207290000" lon="7.197460000"><ele></ele><time>2013-8-8T4:46:34Z</time></trkpt>
<trkpt lat="46.207310000" lon="7.197440000"><ele></ele><time>2013-8-8T4:46:37Z</time></trkpt>
<trkpt lat="46.207360000" lon="7.197350000"><ele></ele><time>2013-8-8T4:46:40Z</time></trkpt>
<trkpt lat="46.207360000" lon="7.197330000"><ele></ele><time>2013-8-8T4:46:43Z</time></trkpt>
<trkpt lat="46.207370000" lon="7.197300000"><ele></ele><time>2013-8-8T4:46:46Z</time></trkpt>
<trkpt lat="46.207370000" lon="7.197280000"><ele></ele><time>2013-8-8T4:46:49Z</time></trkpt>
<trkpt lat="46.207370000" lon="7.197260000"><ele></ele><time>2013-8-8T4:46:52Z</time></trkpt>
<trkpt lat="46.207370000" lon="7.197200000"><ele></ele><time>2013-8-8T4:46:55Z</time></trkpt>
<trkpt lat="46.207350000" lon="7.197080000"><ele></ele><time>2013-8-8T4:46:58Z</time></trkpt>
<trkpt lat="46.207340000" lon="7.197060000"><ele></ele><time>2013-8-8T4:47:1Z</time></trkpt>
<trkpt lat="46.207330000" lon="7.197030000"><ele></ele><time>2013-8-8T4:47:4Z</time></trkpt>
<trkpt lat="46.207320000" lon="7.197010000"><ele></ele><time>2013-8-8T4:47:7Z</time></trkpt>
<trkpt lat="46.207310000" lon="7.196990000"><ele></ele><time>2013-8-8T4:47:10Z</time></trkpt>
<trkpt lat="46.207300000" lon="7.196980000"><ele></ele><time>2013-8-8T4:47:13Z</time></trkpt>
<trkpt lat="46.207280000" lon="7.196960000"><ele></ele><time>2013-8-8T4:47:16Z</time></trkpt>
<trkpt lat="46.207220000" lon="7.196850000"><ele></ele><time>2013-8-8T4:47:19Z</time></trkpt>
<trkpt lat="46.207210000" lon="7.196830000"><ele></ele><time>2013-8-8T4:47:22Z</time></trkpt>
<trkpt lat="46.207200000" lon="7.196810000"><ele></ele><time>2013-8-8T4:47:25Z</time></trkpt>
<trkpt lat="46.207190000" lon="7.196780000"><ele></ele><time>2013-8-8T4:47:28Z</time></trkpt>
<trkpt lat="46.207190000" lon="7.196760000"><ele></ele><time>2013-8-8T4:47:31Z</time></trkpt>
<trkpt lat="46.207120000" lon="7.196650000"><ele></ele><time>2013-8-8T4:47:34Z</time></trkpt>
<trkpt lat="46.207100000" lon="7.196610000"><ele></ele><time>2013-8-8T4:47:37Z</time></trkpt>
<trkpt lat="46.207090000" lon="7.196580000"><ele></ele><time>2013-8-8T4:47:40Z</time></trkpt>
<trkpt lat="46.207080000" lon="7.196550000"><ele></ele><time>2013-8-8T4:47:43Z</time></trkpt>
<trkpt lat="46.207070000" lon="7.196520000"><ele></ele><time>2013-8-8T4:47:46Z</time></trkpt>
<trkpt lat="46.207070000" lon="7.196500000"><ele></ele><time>2013-8-8T4:47:49Z</time></trkpt>
<trkpt lat="46.207050000" lon="7.196470000"><ele></ele><time>2013-8-8T4:47:52Z</time></trkpt>
<trkpt lat="46.207010000" lon="7.196390000"><ele></ele><time>2013-8-8T4:47:55Z</time></trkpt>
<trkpt lat="46.207010000" lon="7.196360000"><ele></ele><time>2013-8-8T4:47:58Z</time></trkpt>
<trkpt lat="46.206990000" lon="7.196340000"><ele></ele><time>2013-8-8T4:48:1Z</time></trkpt>
<trkpt lat="46.206990000" lon="7.196310000"><ele></ele><time>2013-8-8T4:48:4Z</time></trkpt>
<trkpt lat="46.206980000" lon="7.196290000"><ele></ele><time>2013-8-8T4:48:7Z</time></trkpt>
<trkpt lat="46.206930000" lon="7.196170000"><ele></ele><time>2013-8-8T4:48:10Z</time></trkpt>
<trkpt lat="46.206920000" lon="7.196150000"><ele></ele><time>2013-8-8T4:48:13Z</time></trkpt>
<trkpt lat="46.206910000" lon="7.196120000"><ele></ele><time>2013-8-8T4:48:16Z</time></trkpt>
<trkpt lat="46.206900000" lon="7.196100000"><ele></ele><time>2013-8-8T4:48:19Z</time></trkpt>
<trkpt lat="46.206890000" lon="7.196070000"><ele></ele><time>2013-8-8T4:48:22Z</time></trkpt>
<trkpt lat="46.206880000" lon="7.196050000"><ele></ele><time>2013-8-8T4:48:25Z</time></trkpt>
<trkpt lat="46.206840000" lon="7.195960000"><ele></ele><time>2013-8-8T4:48:28Z</time></trkpt>
<trkpt lat="46.206840000" lon="7.195940000"><ele></ele><time>2013-8-8T4:48:31Z</time></trkpt>
<trkpt lat="46.206820000" lon="7.195910000"><ele></ele><time>2013-8-8T4:48:34Z</time></trkpt>
<trkpt lat="46.206800000" lon="7.195890000"><ele></ele><time>2013-8-8T4:48:37Z</time></trkpt>
<trkpt lat="46.206800000" lon="7.195860000"><ele></ele><time>2013-8-8T4:48:40Z</time></trkpt>
<trkpt lat="46.206770000" lon="7.195820000"><ele></ele><time>2013-8-8T4:48:43Z</time></trkpt>
<trkpt lat="46.206720000" lon="7.195720000"><ele></ele><time>2013-8-8T4:48:46Z</time></trkpt>
<trkpt lat="46.206710000" lon="7.195700000"><ele></ele><time>2013-8-8T4:48:49Z</time></trkpt>
<trkpt lat="46.206690000" lon="7.195680000"><ele></ele><time>2013-8-8T4:48:52Z</time></trkpt>
<trkpt lat="46.206680000" lon="7.195660000"><ele></ele><time>2013-8-8T4:48:55Z</time></trkpt>
<trkpt lat="46.206670000" lon="7.195640000"><ele></ele><time>2013-8-8T4:48:58Z</time></trkpt>
<trkpt lat="46.206600000" lon="7.195490000"><ele></ele><time>2013-8-8T4:49:1Z</time></trkpt>
<trkpt lat="46.206580000" lon="7.195470000"><ele></ele><time>2013-8-8T4:49:4Z</time></trkpt>
<trkpt lat="46.206580000" lon="7.195450000"><ele></ele><time>2013-8-8T4:49:7Z</time></trkpt>
<trkpt lat="46.206570000" lon="7.195430000"><ele></ele><time>2013-8-8T4:49:10Z</time></trkpt>
<trkpt lat="46.206560000" lon="7.195400000"><ele></ele><time>2013-8-8T4:49:13Z</time></trkpt>
<trkpt lat="46.206560000" lon="7.195380000"><ele></ele><time>2013-8-8T4:49:16Z</time></trkpt>
<trkpt lat="46.206530000" lon="7.195280000"><ele></ele><time>2013-8-8T4:49:19Z</time></trkpt>
<trkpt lat="46.206520000" lon="7.195260000"><ele></ele><time>2013-8-8T4:49:22Z</time></trkpt>
<trkpt lat="46.206520000" lon="7.195240000"><ele></ele><time>2013-8-8T4:49:25Z</time></trkpt>
<trkpt lat="46.206510000" lon="7.195210000"><ele></ele><time>2013-8-8T4:49:28Z</time></trkpt>
<trkpt lat="46.206500000" lon="7.195180000"><ele></ele><time>2013-8-8T4:49:31Z</time></trkpt>
<trkpt lat="46.206500000" lon="7.195150000"><ele></ele><time>2013-8-8T4:49:34Z</time></trkpt>
<trkpt lat="46.206490000" lon="7.195080000"><ele></ele><time>2013-8-8T4:49:37Z</time></trkpt>
<trkpt lat="46.206490000" lon="7.195050000"><ele></ele><time>2013-8-8T4:49:40Z</time></trkpt>
<trkpt lat="46.206490000" lon="7.195020000"><ele></ele><time>2013-8-8T4:49:43Z</time></trkpt>
<trkpt lat="46.206490000" lon="7.194990000"><ele></ele><time>2013-8-8T4:49:46Z</time></trkpt>
<trkpt lat="46.206490000" lon="7.194970000"><ele></ele><time>2013-8-8T4:49:49Z</time></trkpt>
<trkpt lat="46.206490000" lon="7.194940000"><ele></ele><time>2013-8-8T4:49:52Z</time></trkpt>
<trkpt lat="46.206490000" lon="7.194860000"><ele></ele><time>2013-8-8T4:49:55Z</time></trkpt>
<trkpt lat="46.206490000" lon="7.194830000"><ele></ele><time>2013-8-8T4:49:58Z</time></trkpt>
<trkpt lat="46.206490000" lon="7.194810000"><ele></ele><time>2013-8-8T4:50:1Z</time></trkpt>
<trkpt lat="46.206490000" lon="7.194780000"><ele></ele><time>2013-8-8T4:50:4Z</time></trkpt>
<trkpt lat="46.206500000" lon="7.194760000"><ele></ele><time>2013-8-8T4:50:7Z</time></trkpt>
<trkpt lat="46.206500000" lon="7.194740000"><ele></ele><time>2013-8-8T4:50:10Z</time></trkpt>
<trkpt lat="46.206510000" lon="7.194690000"><ele></ele><time>2013-8-8T4:50:13Z</time></trkpt>
<trkpt lat="46.206520000" lon="7.194640000"><ele></ele><time>2013-8-8T4:50:16Z</time></trkpt>
<trkpt lat="46.206520000" lon="7.194610000"><ele></ele><time>2013-8-8T4:50:19Z</time></trkpt>
<trkpt lat="46.206520000" lon="7.194580000"><ele></ele><time>2013-8-8T4:50:22Z</time></trkpt>
<trkpt lat="46.206530000" lon="7.194560000"><ele></ele><time>2013-8-8T4:50:25Z</time></trkpt>
<trkpt lat="46.206520000" lon="7.194530000"><ele></ele><time>2013-8-8T4:50:28Z</time></trkpt>
<trkpt lat="46.206530000" lon="7.194500000"><ele></ele><time>2013-8-8T4:50:31Z</time></trkpt>
<trkpt lat="46.206530000" lon="7.194410000"><ele></ele><time>2013-8-8T4:50:34Z</time></trkpt>
<trkpt lat="46.206540000" lon="7.194380000"><ele></ele><time>2013-8-8T4:50:37Z</time></trkpt>
<trkpt lat="46.206540000" lon="7.194350000"><ele></ele><time>2013-8-8T4:50:40Z</time></trkpt>
<trkpt lat="46.206540000" lon="7.194320000"><ele></ele><time>2013-8-8T4:50:43Z</time></trkpt>
<trkpt lat="46.206540000" lon="7.194300000"><ele></ele><time>2013-8-8T4:50:46Z</time></trkpt>
<trkpt lat="46.206550000" lon="7.194270000"><ele></ele><time>2013-8-8T4:50:49Z</time></trkpt>
<trkpt lat="46.206570000" lon="7.194130000"><ele></ele><time>2013-8-8T4:50:52Z</time></trkpt>
<trkpt lat="46.206580000" lon="7.194110000"><ele></ele><time>2013-8-8T4:50:55Z</time></trkpt>
<trkpt lat="46.206580000" lon="7.194080000"><ele></ele><time>2013-8-8T4:50:58Z</time></trkpt>
<trkpt lat="46.206580000" lon="7.194050000"><ele></ele><time>2013-8-8T4:51:1Z</time></trkpt>
<trkpt lat="46.206590000" lon="7.194030000"><ele></ele><time>2013-8-8T4:51:4Z</time></trkpt>
<trkpt lat="46.206610000" lon="7.193950000"><ele></ele><time>2013-8-8T4:51:7Z</time></trkpt>
<trkpt lat="46.206620000" lon="7.193920000"><ele></ele><time>2013-8-8T4:51:10Z</time></trkpt>
<trkpt lat="46.206630000" lon="7.193900000"><ele></ele><time>2013-8-8T4:51:13Z</time></trkpt>
<trkpt lat="46.206640000" lon="7.193880000"><ele></ele><time>2013-8-8T4:51:16Z</time></trkpt>
<trkpt lat="46.206650000" lon="7.193860000"><ele></ele><time>2013-8-8T4:51:19Z</time></trkpt>
<trkpt lat="46.206730000" lon="7.193730000"><ele></ele><time>2013-8-8T4:51:22Z</time></trkpt>
<trkpt lat="46.206730000" lon="7.193710000"><ele></ele><time>2013-8-8T4:51:25Z</time></trkpt>
<trkpt lat="46.206740000" lon="7.193680000"><ele></ele><time>2013-8-8T4:51:28Z</time></trkpt>
<trkpt lat="46.206750000" lon="7.193660000"><ele></ele><time>2013-8-8T4:51:31Z</time></trkpt>
<trkpt lat="46.206740000" lon="7.193630000"><ele></ele><time>2013-8-8T4:51:34Z</time></trkpt>
<trkpt lat="46.206750000" lon="7.193610000"><ele></ele><time>2013-8-8T4:51:37Z</time></trkpt>
<trkpt lat="46.206730000" lon="7.193550000"><ele></ele><time>2013-8-8T4:51:40Z</time></trkpt>
<trkpt lat="46.206710000" lon="7.193510000"><ele></ele><time>2013-8-8T4:51:43Z</time></trkpt>
<trkpt lat="46.206690000" lon="7.193490000"><ele></ele><time>2013-8-8T4:51:46Z</time></trkpt>
<trkpt lat="46.206670000" lon="7.193480000"><ele></ele><time>2013-8-8T4:51:49Z</time></trkpt>
<trkpt lat="46.206660000" lon="7.193480000"><ele></ele><time>2013-8-8T4:51:52Z</time></trkpt>
<trkpt lat="46.206640000" lon="7.193480000"><ele></ele><time>2013-8-8T4:51:55Z</time></trkpt>
<trkpt lat="46.206600000" lon="7.193510000"><ele></ele><time>2013-8-8T4:51:58Z</time></trkpt>
<trkpt lat="46.206520000" lon="7.193630000"><ele></ele><time>2013-8-8T4:52:1Z</time></trkpt>
<trkpt lat="46.206460000" lon="7.193730000"><ele></ele><time>2013-8-8T4:52:4Z</time></trkpt>
<trkpt lat="46.206440000" lon="7.193740000"><ele></ele><time>2013-8-8T4:52:7Z</time></trkpt>
<trkpt lat="46.206430000" lon="7.193760000"><ele></ele><time>2013-8-8T4:52:10Z</time></trkpt>
<trkpt lat="46.206420000" lon="7.193780000"><ele></ele><time>2013-8-8T4:52:13Z</time></trkpt>
<trkpt lat="46.206400000" lon="7.193800000"><ele></ele><time>2013-8-8T4:52:16Z</time></trkpt>
<trkpt lat="46.206380000" lon="7.193810000"><ele></ele><time>2013-8-8T4:52:19Z</time></trkpt>
<trkpt lat="46.206310000" lon="7.193860000"><ele></ele><time>2013-8-8T4:52:22Z</time></trkpt>
<trkpt lat="46.206300000" lon="7.193860000"><ele></ele><time>2013-8-8T4:52:25Z</time></trkpt>
<trkpt lat="46.206280000" lon="7.193860000"><ele></ele><time>2013-8-8T4:52:28Z</time></trkpt>
<trkpt lat="46.206260000" lon="7.193860000"><ele></ele><time>2013-8-8T4:52:31Z</time></trkpt>
<trkpt lat="46.206240000" lon="7.193850000"><ele></ele><time>2013-8-8T4:52:34Z</time></trkpt>
<trkpt lat="46.206180000" lon="7.193830000"><ele></ele><time>2013-8-8T4:52:37Z</time></trkpt>
<trkpt lat="46.206130000" lon="7.193810000"><ele></ele><time>2013-8-8T4:52:40Z</time></trkpt>
<trkpt lat="46.206110000" lon="7.193810000"><ele></ele><time>2013-8-8T4:52:43Z</time></trkpt>
<trkpt lat="46.206090000" lon="7.193810000"><ele></ele><time>2013-8-8T4:52:46Z</time></trkpt>
<trkpt lat="46.206070000" lon="7.193810000"><ele></ele><time>2013-8-8T4:52:49Z</time></trkpt>
<trkpt lat="46.206050000" lon="7.193810000"><ele></ele><time>2013-8-8T4:52:52Z</time></trkpt>
<trkpt lat="46.205960000" lon="7.193870000"><ele></ele><time>2013-8-8T4:52:55Z</time></trkpt>
<trkpt lat="46.205950000" lon="7.193880000"><ele></ele><time>2013-8-8T4:52:58Z</time></trkpt>
<trkpt lat="46.205930000" lon="7.193900000"><ele></ele><time>2013-8-8T4:53:1Z</time></trkpt>
<trkpt lat="46.205920000" lon="7.193920000"><ele></ele><time>2013-8-8T4:53:4Z</time></trkpt>
<trkpt lat="46.205910000" lon="7.193940000"><ele></ele><time>2013-8-8T4:53:7Z</time></trkpt>
<trkpt lat="46.205860000" lon="7.194000000"><ele></ele><time>2013-8-8T4:53:10Z</time></trkpt>
<trkpt lat="46.205830000" lon="7.194060000"><ele></ele><time>2013-8-8T4:53:13Z</time></trkpt>
<trkpt lat="46.205810000" lon="7.194080000"><ele></ele><time>2013-8-8T4:53:16Z</time></trkpt>
<trkpt lat="46.205800000" lon="7.194100000"><ele></ele><time>2013-8-8T4:53:19Z</time></trkpt>
<trkpt lat="46.205780000" lon="7.194110000"><ele></ele><time>2013-8-8T4:53:22Z</time></trkpt>
<trkpt lat="46.205740000" lon="7.194140000"><ele></ele><time>2013-8-8T4:53:25Z</time></trkpt>
<trkpt lat="46.205660000" lon="7.194220000"><ele></ele><time>2013-8-8T4:53:28Z</time></trkpt>
<trkpt lat="46.205650000" lon="7.194220000"><ele></ele><time>2013-8-8T4:53:31Z</time></trkpt>
<trkpt lat="46.205630000" lon="7.194230000"><ele></ele><time>2013-8-8T4:53:34Z</time></trkpt>
<trkpt lat="46.205600000" lon="7.194220000"><ele></ele><time>2013-8-8T4:53:37Z</time></trkpt>
<trkpt lat="46.205590000" lon="7.194200000"><ele></ele><time>2013-8-8T4:53:40Z</time></trkpt>
<trkpt lat="46.205580000" lon="7.194180000"><ele></ele><time>2013-8-8T4:53:43Z</time></trkpt>
<trkpt lat="46.205630000" lon="7.194100000"><ele></ele><time>2013-8-8T4:53:46Z</time></trkpt>
<trkpt lat="46.205650000" lon="7.194080000"><ele></ele><time>2013-8-8T4:53:49Z</time></trkpt>
<trkpt lat="46.205690000" lon="7.194040000"><ele></ele><time>2013-8-8T4:53:52Z</time></trkpt>
<trkpt lat="46.205700000" lon="7.194020000"><ele></ele><time>2013-8-8T4:53:55Z</time></trkpt>
<trkpt lat="46.205720000" lon="7.194000000"><ele></ele><time>2013-8-8T4:53:58Z</time></trkpt>
<trkpt lat="46.205730000" lon="7.193980000"><ele></ele><time>2013-8-8T4:54:1Z</time></trkpt>
<trkpt lat="46.205730000" lon="7.193950000"><ele></ele><time>2013-8-8T4:54:4Z</time></trkpt>
<trkpt lat="46.205760000" lon="7.193840000"><ele></ele><time>2013-8-8T4:54:7Z</time></trkpt>
<trkpt lat="46.205760000" lon="7.193810000"><ele></ele><time>2013-8-8T4:54:10Z</time></trkpt>
<trkpt lat="46.205760000" lon="7.193790000"><ele></ele><time>2013-8-8T4:54:13Z</time></trkpt>
<trkpt lat="46.205760000" lon="7.193760000"><ele></ele><time>2013-8-8T4:54:16Z</time></trkpt>
<trkpt lat="46.205760000" lon="7.193730000"><ele></ele><time>2013-8-8T4:54:19Z</time></trkpt>
<trkpt lat="46.205770000" lon="7.193700000"><ele></ele><time>2013-8-8T4:54:22Z</time></trkpt>
<trkpt lat="46.205770000" lon="7.193640000"><ele></ele><time>2013-8-8T4:54:25Z</time></trkpt>
<trkpt lat="46.205770000" lon="7.193610000"><ele></ele><time>2013-8-8T4:54:28Z</time></trkpt>
<trkpt lat="46.205780000" lon="7.193530000"><ele></ele><time>2013-8-8T4:54:31Z</time></trkpt>
<trkpt lat="46.205780000" lon="7.193500000"><ele></ele><time>2013-8-8T4:54:34Z</time></trkpt>
<trkpt lat="46.205790000" lon="7.193480000"><ele></ele><time>2013-8-8T4:54:37Z</time></trkpt>
<trkpt lat="46.205800000" lon="7.193450000"><ele></ele><time>2013-8-8T4:54:40Z</time></trkpt>
<trkpt lat="46.205800000" lon="7.193420000"><ele></ele><time>2013-8-8T4:54:43Z</time></trkpt>
<trkpt lat="46.205830000" lon="7.193310000"><ele></ele><time>2013-8-8T4:54:46Z</time></trkpt>
<trkpt lat="46.205830000" lon="7.193280000"><ele></ele><time>2013-8-8T4:54:49Z</time></trkpt>
<trkpt lat="46.205840000" lon="7.193260000"><ele></ele><time>2013-8-8T4:54:52Z</time></trkpt>
<trkpt lat="46.205840000" lon="7.193230000"><ele></ele><time>2013-8-8T4:54:55Z</time></trkpt>
<trkpt lat="46.205860000" lon="7.193160000"><ele></ele><time>2013-8-8T4:54:58Z</time></trkpt>
<trkpt lat="46.205880000" lon="7.193110000"><ele></ele><time>2013-8-8T4:55:1Z</time></trkpt>
<trkpt lat="46.205890000" lon="7.193090000"><ele></ele><time>2013-8-8T4:55:4Z</time></trkpt>
<trkpt lat="46.205900000" lon="7.193060000"><ele></ele><time>2013-8-8T4:55:7Z</time></trkpt>
<trkpt lat="46.205910000" lon="7.193040000"><ele></ele><time>2013-8-8T4:55:10Z</time></trkpt>
<trkpt lat="46.205920000" lon="7.193010000"><ele></ele><time>2013-8-8T4:55:13Z</time></trkpt>
<trkpt lat="46.205940000" lon="7.192960000"><ele></ele><time>2013-8-8T4:55:16Z</time></trkpt>
<trkpt lat="46.205980000" lon="7.192810000"><ele></ele><time>2013-8-8T4:55:19Z</time></trkpt>
<trkpt lat="46.205980000" lon="7.192780000"><ele></ele><time>2013-8-8T4:55:22Z</time></trkpt>
<trkpt lat="46.205990000" lon="7.192750000"><ele></ele><time>2013-8-8T4:55:25Z</time></trkpt>
<trkpt lat="46.205990000" lon="7.192720000"><ele></ele><time>2013-8-8T4:55:28Z</time></trkpt>
<trkpt lat="46.205990000" lon="7.192690000"><ele></ele><time>2013-8-8T4:55:31Z</time></trkpt>
<trkpt lat="46.205990000" lon="7.192600000"><ele></ele><time>2013-8-8T4:55:34Z</time></trkpt>
<trkpt lat="46.205990000" lon="7.192580000"><ele></ele><time>2013-8-8T4:55:37Z</time></trkpt>
<trkpt lat="46.205990000" lon="7.192550000"><ele></ele><time>2013-8-8T4:55:40Z</time></trkpt>
<trkpt lat="46.205990000" lon="7.192520000"><ele></ele><time>2013-8-8T4:55:43Z</time></trkpt>
<trkpt lat="46.205990000" lon="7.192490000"><ele></ele><time>2013-8-8T4:55:46Z</time></trkpt>
<trkpt lat="46.205990000" lon="7.192460000"><ele></ele><time>2013-8-8T4:55:49Z</time></trkpt>
<trkpt lat="46.205990000" lon="7.192360000"><ele></ele><time>2013-8-8T4:55:52Z</time></trkpt>
<trkpt lat="46.205990000" lon="7.192320000"><ele></ele><time>2013-8-8T4:55:55Z</time></trkpt>
<trkpt lat="46.205990000" lon="7.192290000"><ele></ele><time>2013-8-8T4:55:58Z</time></trkpt>
<trkpt lat="46.205990000" lon="7.192250000"><ele></ele><time>2013-8-8T4:56:1Z</time></trkpt>
<trkpt lat="46.205990000" lon="7.192220000"><ele></ele><time>2013-8-8T4:56:4Z</time></trkpt>
<trkpt lat="46.205990000" lon="7.192150000"><ele></ele><time>2013-8-8T4:56:7Z</time></trkpt>
<trkpt lat="46.205990000" lon="7.192090000"><ele></ele><time>2013-8-8T4:56:10Z</time></trkpt>
<trkpt lat="46.205990000" lon="7.192070000"><ele></ele><time>2013-8-8T4:56:13Z</time></trkpt>
<trkpt lat="46.205990000" lon="7.192040000"><ele></ele><time>2013-8-8T4:56:16Z</time></trkpt>
<trkpt lat="46.205990000" lon="7.192010000"><ele></ele><time>2013-8-8T4:56:19Z</time></trkpt>
<trkpt lat="46.206000000" lon="7.191980000"><ele></ele><time>2013-8-8T4:56:22Z</time></trkpt>
<trkpt lat="46.206010000" lon="7.191880000"><ele></ele><time>2013-8-8T4:56:25Z</time></trkpt>
<trkpt lat="46.206000000" lon="7.191850000"><ele></ele><time>2013-8-8T4:56:28Z</time></trkpt>
<trkpt lat="46.206000000" lon="7.191810000"><ele></ele><time>2013-8-8T4:56:31Z</time></trkpt>
<trkpt lat="46.206000000" lon="7.191790000"><ele></ele><time>2013-8-8T4:56:34Z</time></trkpt>
<trkpt lat="46.206000000" lon="7.191760000"><ele></ele><time>2013-8-8T4:56:37Z</time></trkpt>
<trkpt lat="46.206000000" lon="7.191730000"><ele></ele><time>2013-8-8T4:56:40Z</time></trkpt>
<trkpt lat="46.205990000" lon="7.191680000"><ele></ele><time>2013-8-8T4:56:43Z</time></trkpt>
<trkpt lat="46.206000000" lon="7.191660000"><ele></ele><time>2013-8-8T4:56:46Z</time></trkpt>
<trkpt lat="46.206010000" lon="7.191630000"><ele></ele><time>2013-8-8T4:56:49Z</time></trkpt>
<trkpt lat="46.206010000" lon="7.191610000"><ele></ele><time>2013-8-8T4:56:52Z</time></trkpt>
<trkpt lat="46.206010000" lon="7.191590000"><ele></ele><time>2013-8-8T4:56:55Z</time></trkpt>
<trkpt lat="46.206020000" lon="7.191540000"><ele></ele><time>2013-8-8T4:56:58Z</time></trkpt>
<trkpt lat="46.206050000" lon="7.191490000"><ele></ele><time>2013-8-8T4:57:1Z</time></trkpt>
<trkpt lat="46.206060000" lon="7.191460000"><ele></ele><time>2013-8-8T4:57:4Z</time></trkpt>
<trkpt lat="46.206080000" lon="7.191450000"><ele></ele><time>2013-8-8T4:57:7Z</time></trkpt>
<trkpt lat="46.206100000" lon="7.191430000"><ele></ele><time>2013-8-8T4:57:10Z</time></trkpt>
<trkpt lat="46.206110000" lon="7.191420000"><ele></ele><time>2013-8-8T4:57:13Z</time></trkpt>
<trkpt lat="46.206130000" lon="7.191410000"><ele></ele><time>2013-8-8T4:57:16Z</time></trkpt>
<trkpt lat="46.206180000" lon="7.191400000"><ele></ele><time>2013-8-8T4:57:19Z</time></trkpt>
<trkpt lat="46.206200000" lon="7.191410000"><ele></ele><time>2013-8-8T4:57:22Z</time></trkpt>
<trkpt lat="46.206210000" lon="7.191410000"><ele></ele><time>2013-8-8T4:57:25Z</time></trkpt>
<trkpt lat="46.206230000" lon="7.191410000"><ele></ele><time>2013-8-8T4:57:28Z</time></trkpt>
<trkpt lat="46.206250000" lon="7.191410000"><ele></ele><time>2013-8-8T4:57:31Z</time></trkpt>
<trkpt lat="46.206340000" lon="7.191400000"><ele></ele><time>2013-8-8T4:57:34Z</time></trkpt>
<trkpt lat="46.206360000" lon="7.191390000"><ele></ele><time>2013-8-8T4:57:37Z</time></trkpt>
<trkpt lat="46.206380000" lon="7.191390000"><ele></ele><time>2013-8-8T4:57:40Z</time></trkpt>
<trkpt lat="46.206400000" lon="7.191390000"><ele></ele><time>2013-8-8T4:57:43Z</time></trkpt>
<trkpt lat="46.206420000" lon="7.191380000"><ele></ele><time>2013-8-8T4:57:46Z</time></trkpt>
<trkpt lat="46.206450000" lon="7.191370000"><ele></ele><time>2013-8-8T4:57:49Z</time></trkpt>
<trkpt lat="46.206470000" lon="7.191370000"><ele></ele><time>2013-8-8T4:57:52Z</time></trkpt>
<trkpt lat="46.206490000" lon="7.191360000"><ele></ele><time>2013-8-8T4:57:55Z</time></trkpt>
<trkpt lat="46.206500000" lon="7.191350000"><ele></ele><time>2013-8-8T4:57:58Z</time></trkpt>
<trkpt lat="46.206510000" lon="7.191330000"><ele></ele><time>2013-8-8T4:58:1Z</time></trkpt>
<trkpt lat="46.206530000" lon="7.191320000"><ele></ele><time>2013-8-8T4:58:4Z</time></trkpt>
<trkpt lat="46.206560000" lon="7.191300000"><ele></ele><time>2013-8-8T4:58:7Z</time></trkpt>
<trkpt lat="46.206610000" lon="7.191260000"><ele></ele><time>2013-8-8T4:58:10Z</time></trkpt>
<trkpt lat="46.206620000" lon="7.191250000"><ele></ele><time>2013-8-8T4:58:13Z</time></trkpt>
<trkpt lat="46.206640000" lon="7.191240000"><ele></ele><time>2013-8-8T4:58:16Z</time></trkpt>
<trkpt lat="46.206650000" lon="7.191230000"><ele></ele><time>2013-8-8T4:58:19Z</time></trkpt>
<trkpt lat="46.206670000" lon="7.191220000"><ele></ele><time>2013-8-8T4:58:22Z</time></trkpt>
<trkpt lat="46.206680000" lon="7.191200000"><ele></ele><time>2013-8-8T4:58:25Z</time></trkpt>
<trkpt lat="46.206730000" lon="7.191150000"><ele></ele><time>2013-8-8T4:58:28Z</time></trkpt>
<trkpt lat="46.206740000" lon="7.191130000"><ele></ele><time>2013-8-8T4:58:31Z</time></trkpt>
<trkpt lat="46.206750000" lon="7.191110000"><ele></ele><time>2013-8-8T4:58:34Z</time></trkpt>
<trkpt lat="46.206770000" lon="7.191100000"><ele></ele><time>2013-8-8T4:58:37Z</time></trkpt>
<trkpt lat="46.206780000" lon="7.191080000"><ele></ele><time>2013-8-8T4:58:40Z</time></trkpt>
<trkpt lat="46.206800000" lon="7.191040000"><ele></ele><time>2013-8-8T4:58:43Z</time></trkpt>
<trkpt lat="46.206830000" lon="7.190990000"><ele></ele><time>2013-8-8T4:58:46Z</time></trkpt>
<trkpt lat="46.206850000" lon="7.190970000"><ele></ele><time>2013-8-8T4:58:49Z</time></trkpt>
<trkpt lat="46.206860000" lon="7.190950000"><ele></ele><time>2013-8-8T4:58:52Z</time></trkpt>
<trkpt lat="46.206870000" lon="7.190930000"><ele></ele><time>2013-8-8T4:58:55Z</time></trkpt>
<trkpt lat="46.206880000" lon="7.190900000"><ele></ele><time>2013-8-8T4:58:58Z</time></trkpt>
<trkpt lat="46.206940000" lon="7.190820000"><ele></ele><time>2013-8-8T4:59:1Z</time></trkpt>
<trkpt lat="46.206950000" lon="7.190810000"><ele></ele><time>2013-8-8T4:59:4Z</time></trkpt>
<trkpt lat="46.206970000" lon="7.190790000"><ele></ele><time>2013-8-8T4:59:7Z</time></trkpt>
<trkpt lat="46.206980000" lon="7.190780000"><ele></ele><time>2013-8-8T4:59:10Z</time></trkpt>
<trkpt lat="46.207000000" lon="7.190760000"><ele></ele><time>2013-8-8T4:59:13Z</time></trkpt>
<trkpt lat="46.207080000" lon="7.190710000"><ele></ele><time>2013-8-8T4:59:16Z</time></trkpt>
<trkpt lat="46.207100000" lon="7.190700000"><ele></ele><time>2013-8-8T4:59:19Z</time></trkpt>
<trkpt lat="46.207120000" lon="7.190690000"><ele></ele><time>2013-8-8T4:59:22Z</time></trkpt>
<trkpt lat="46.207130000" lon="7.190680000"><ele></ele><time>2013-8-8T4:59:25Z</time></trkpt>
<trkpt lat="46.207150000" lon="7.190670000"><ele></ele><time>2013-8-8T4:59:28Z</time></trkpt>
<trkpt lat="46.207170000" lon="7.190660000"><ele></ele><time>2013-8-8T4:59:31Z</time></trkpt>
<trkpt lat="46.207190000" lon="7.190650000"><ele></ele><time>2013-8-8T4:59:34Z</time></trkpt>
<trkpt lat="46.207200000" lon="7.190630000"><ele></ele><time>2013-8-8T4:59:37Z</time></trkpt>
<trkpt lat="46.207260000" lon="7.190560000"><ele></ele><time>2013-8-8T4:59:40Z</time></trkpt>
<trkpt lat="46.207270000" lon="7.190540000"><ele></ele><time>2013-8-8T4:59:43Z</time></trkpt>
<trkpt lat="46.207280000" lon="7.190510000"><ele></ele><time>2013-8-8T4:59:46Z</time></trkpt>
<trkpt lat="46.207280000" lon="7.190480000"><ele></ele><time>2013-8-8T4:59:49Z</time></trkpt>
<trkpt lat="46.207270000" lon="7.190450000"><ele></ele><time>2013-8-8T4:59:52Z</time></trkpt>
<trkpt lat="46.207260000" lon="7.190420000"><ele></ele><time>2013-8-8T4:59:55Z</time></trkpt>
<trkpt lat="46.207150000" lon="7.190390000"><ele></ele><time>2013-8-8T4:59:58Z</time></trkpt>
<trkpt lat="46.207050000" lon="7.190430000"><ele></ele><time>2013-8-8T5:0:1Z</time></trkpt>
<trkpt lat="46.207030000" lon="7.190440000"><ele></ele><time>2013-8-8T5:0:4Z</time></trkpt>
<trkpt lat="46.207010000" lon="7.190450000"><ele></ele><time>2013-8-8T5:0:7Z</time></trkpt>
<trkpt lat="46.206990000" lon="7.190460000"><ele></ele><time>2013-8-8T5:0:10Z</time></trkpt>
<trkpt lat="46.206970000" lon="7.190470000"><ele></ele><time>2013-8-8T5:0:13Z</time></trkpt>
<trkpt lat="46.206940000" lon="7.190480000"><ele></ele><time>2013-8-8T5:0:16Z</time></trkpt>
<trkpt lat="46.206840000" lon="7.190450000"><ele></ele><time>2013-8-8T5:0:19Z</time></trkpt>
<trkpt lat="46.206810000" lon="7.190410000"><ele></ele><time>2013-8-8T5:0:22Z</time></trkpt>
<trkpt lat="46.206790000" lon="7.190390000"><ele></ele><time>2013-8-8T5:0:25Z</time></trkpt>
<trkpt lat="46.206770000" lon="7.190370000"><ele></ele><time>2013-8-8T5:0:28Z</time></trkpt>
<trkpt lat="46.206760000" lon="7.190340000"><ele></ele><time>2013-8-8T5:0:31Z</time></trkpt>
<trkpt lat="46.206700000" lon="7.190250000"><ele></ele><time>2013-8-8T5:0:34Z</time></trkpt>
<trkpt lat="46.206690000" lon="7.190220000"><ele></ele><time>2013-8-8T5:0:37Z</time></trkpt>
<trkpt lat="46.206680000" lon="7.190190000"><ele></ele><time>2013-8-8T5:0:40Z</time></trkpt>
<trkpt lat="46.206660000" lon="7.190160000"><ele></ele><time>2013-8-8T5:0:43Z</time></trkpt>
<trkpt lat="46.206650000" lon="7.190130000"><ele></ele><time>2013-8-8T5:0:46Z</time></trkpt>
<trkpt lat="46.206510000" lon="7.189970000"><ele></ele><time>2013-8-8T5:0:49Z</time></trkpt>
<trkpt lat="46.206460000" lon="7.189950000"><ele></ele><time>2013-8-8T5:0:52Z</time></trkpt>
<trkpt lat="46.206440000" lon="7.189940000"><ele></ele><time>2013-8-8T5:0:55Z</time></trkpt>
<trkpt lat="46.206420000" lon="7.189930000"><ele></ele><time>2013-8-8T5:0:58Z</time></trkpt>
<trkpt lat="46.206400000" lon="7.189920000"><ele></ele><time>2013-8-8T5:1:1Z</time></trkpt>
<trkpt lat="46.206380000" lon="7.189920000"><ele></ele><time>2013-8-8T5:1:4Z</time></trkpt>
<trkpt lat="46.206280000" lon="7.189890000"><ele></ele><time>2013-8-8T5:1:7Z</time></trkpt>
<trkpt lat="46.206260000" lon="7.189880000"><ele></ele><time>2013-8-8T5:1:10Z</time></trkpt>
<trkpt lat="46.206240000" lon="7.189870000"><ele></ele><time>2013-8-8T5:1:13Z</time></trkpt>
<trkpt lat="46.206230000" lon="7.189870000"><ele></ele><time>2013-8-8T5:1:16Z</time></trkpt>
<trkpt lat="46.206210000" lon="7.189850000"><ele></ele><time>2013-8-8T5:1:19Z</time></trkpt>
<trkpt lat="46.206150000" lon="7.189820000"><ele></ele><time>2013-8-8T5:1:22Z</time></trkpt>
<trkpt lat="46.206110000" lon="7.189800000"><ele></ele><time>2013-8-8T5:1:25Z</time></trkpt>
<trkpt lat="46.206090000" lon="7.189780000"><ele></ele><time>2013-8-8T5:1:28Z</time></trkpt>
<trkpt lat="46.206070000" lon="7.189760000"><ele></ele><time>2013-8-8T5:1:31Z</time></trkpt>
<trkpt lat="46.206050000" lon="7.189740000"><ele></ele><time>2013-8-8T5:1:34Z</time></trkpt>
<trkpt lat="46.206040000" lon="7.189720000"><ele></ele><time>2013-8-8T5:1:37Z</time></trkpt>
<trkpt lat="46.206020000" lon="7.189700000"><ele></ele><time>2013-8-8T5:1:40Z</time></trkpt>
<trkpt lat="46.205950000" lon="7.189630000"><ele></ele><time>2013-8-8T5:1:43Z</time></trkpt>
<trkpt lat="46.205940000" lon="7.189610000"><ele></ele><time>2013-8-8T5:1:46Z</time></trkpt>
<trkpt lat="46.205920000" lon="7.189590000"><ele></ele><time>2013-8-8T5:1:49Z</time></trkpt>
<trkpt lat="46.205910000" lon="7.189580000"><ele></ele><time>2013-8-8T5:1:52Z</time></trkpt>
<trkpt lat="46.205890000" lon="7.189560000"><ele></ele><time>2013-8-8T5:1:55Z</time></trkpt>
<trkpt lat="46.205850000" lon="7.189500000"><ele></ele><time>2013-8-8T5:1:58Z</time></trkpt>
<trkpt lat="46.205830000" lon="7.189480000"><ele></ele><time>2013-8-8T5:2:1Z</time></trkpt>
<trkpt lat="46.205820000" lon="7.189460000"><ele></ele><time>2013-8-8T5:2:4Z</time></trkpt>
<trkpt lat="46.205800000" lon="7.189440000"><ele></ele><time>2013-8-8T5:2:7Z</time></trkpt>
<trkpt lat="46.205790000" lon="7.189420000"><ele></ele><time>2013-8-8T5:2:10Z</time></trkpt>
<trkpt lat="46.205720000" lon="7.189330000"><ele></ele><time>2013-8-8T5:2:13Z</time></trkpt>
<trkpt lat="46.205700000" lon="7.189310000"><ele></ele><time>2013-8-8T5:2:16Z</time></trkpt>
<trkpt lat="46.205680000" lon="7.189300000"><ele></ele><time>2013-8-8T5:2:19Z</time></trkpt>
<trkpt lat="46.205670000" lon="7.189280000"><ele></ele><time>2013-8-8T5:2:22Z</time></trkpt>
<trkpt lat="46.205650000" lon="7.189270000"><ele></ele><time>2013-8-8T5:2:25Z</time></trkpt>
<trkpt lat="46.205590000" lon="7.189220000"><ele></ele><time>2013-8-8T5:2:28Z</time></trkpt>
<trkpt lat="46.205570000" lon="7.189210000"><ele></ele><time>2013-8-8T5:2:31Z</time></trkpt>
<trkpt lat="46.205550000" lon="7.189200000"><ele></ele><time>2013-8-8T5:2:34Z</time></trkpt>
<trkpt lat="46.205530000" lon="7.189180000"><ele></ele><time>2013-8-8T5:2:37Z</time></trkpt>
<trkpt lat="46.205510000" lon="7.189170000"><ele></ele><time>2013-8-8T5:2:40Z</time></trkpt>
<trkpt lat="46.205460000" lon="7.189140000"><ele></ele><time>2013-8-8T5:2:43Z</time></trkpt>
<trkpt lat="46.205440000" lon="7.189140000"><ele></ele><time>2013-8-8T5:2:46Z</time></trkpt>
<trkpt lat="46.205420000" lon="7.189130000"><ele></ele><time>2013-8-8T5:2:49Z</time></trkpt>
<trkpt lat="46.205400000" lon="7.189120000"><ele></ele><time>2013-8-8T5:2:52Z</time></trkpt>
<trkpt lat="46.205380000" lon="7.189110000"><ele></ele><time>2013-8-8T5:2:55Z</time></trkpt>
<trkpt lat="46.205280000" lon="7.189070000"><ele></ele><time>2013-8-8T5:2:58Z</time></trkpt>
<trkpt lat="46.205270000" lon="7.189060000"><ele></ele><time>2013-8-8T5:3:1Z</time></trkpt>
<trkpt lat="46.205250000" lon="7.189050000"><ele></ele><time>2013-8-8T5:3:4Z</time></trkpt>
<trkpt lat="46.205230000" lon="7.189040000"><ele></ele><time>2013-8-8T5:3:7Z</time></trkpt>
<trkpt lat="46.205210000" lon="7.189030000"><ele></ele><time>2013-8-8T5:3:10Z</time></trkpt>
<trkpt lat="46.205150000" lon="7.189000000"><ele></ele><time>2013-8-8T5:3:13Z</time></trkpt>
<trkpt lat="46.205130000" lon="7.188980000"><ele></ele><time>2013-8-8T5:3:16Z</time></trkpt>
<trkpt lat="46.205110000" lon="7.188970000"><ele></ele><time>2013-8-8T5:3:19Z</time></trkpt>
<trkpt lat="46.205090000" lon="7.188960000"><ele></ele><time>2013-8-8T5:3:22Z</time></trkpt>
<trkpt lat="46.205070000" lon="7.188950000"><ele></ele><time>2013-8-8T5:3:25Z</time></trkpt>
<trkpt lat="46.205020000" lon="7.188920000"><ele></ele><time>2013-8-8T5:3:28Z</time></trkpt>
<trkpt lat="46.205010000" lon="7.188920000"><ele></ele><time>2013-8-8T5:3:31Z</time></trkpt>
<trkpt lat="46.204990000" lon="7.188910000"><ele></ele><time>2013-8-8T5:3:34Z</time></trkpt>
<trkpt lat="46.204970000" lon="7.188910000"><ele></ele><time>2013-8-8T5:3:37Z</time></trkpt>
<trkpt lat="46.204960000" lon="7.188910000"><ele></ele><time>2013-8-8T5:3:40Z</time></trkpt>
<trkpt lat="46.204910000" lon="7.188930000"><ele></ele><time>2013-8-8T5:3:43Z</time></trkpt>
<trkpt lat="46.204880000" lon="7.188990000"><ele></ele><time>2013-8-8T5:3:46Z</time></trkpt>
<trkpt lat="46.204870000" lon="7.189010000"><ele></ele><time>2013-8-8T5:3:49Z</time></trkpt>
<trkpt lat="46.204860000" lon="7.189030000"><ele></ele><time>2013-8-8T5:3:52Z</time></trkpt>
<trkpt lat="46.204850000" lon="7.189060000"><ele></ele><time>2013-8-8T5:3:55Z</time></trkpt>
<trkpt lat="46.204850000" lon="7.189080000"><ele></ele><time>2013-8-8T5:3:58Z</time></trkpt>
<trkpt lat="46.204780000" lon="7.189180000"><ele></ele><time>2013-8-8T5:4:1Z</time></trkpt>
<trkpt lat="46.204720000" lon="7.189220000"><ele></ele><time>2013-8-8T5:4:4Z</time></trkpt>
<trkpt lat="46.204700000" lon="7.189220000"><ele></ele><time>2013-8-8T5:4:7Z</time></trkpt>
<trkpt lat="46.204690000" lon="7.189210000"><ele></ele><time>2013-8-8T5:4:10Z</time></trkpt>
<trkpt lat="46.204680000" lon="7.189180000"><ele></ele><time>2013-8-8T5:4:13Z</time></trkpt>
<trkpt lat="46.204680000" lon="7.189150000"><ele></ele><time>2013-8-8T5:4:16Z</time></trkpt>
<trkpt lat="46.204690000" lon="7.189130000"><ele></ele><time>2013-8-8T5:4:19Z</time></trkpt>
<trkpt lat="46.204700000" lon="7.189110000"><ele></ele><time>2013-8-8T5:4:22Z</time></trkpt>
<trkpt lat="46.204750000" lon="7.189030000"><ele></ele><time>2013-8-8T5:4:25Z</time></trkpt>
<trkpt lat="46.204760000" lon="7.189000000"><ele></ele><time>2013-8-8T5:4:28Z</time></trkpt>
<trkpt lat="46.204770000" lon="7.188980000"><ele></ele><time>2013-8-8T5:4:31Z</time></trkpt>
<trkpt lat="46.204770000" lon="7.188960000"><ele></ele><time>2013-8-8T5:4:34Z</time></trkpt>
<trkpt lat="46.204780000" lon="7.188930000"><ele></ele><time>2013-8-8T5:4:37Z</time></trkpt>
<trkpt lat="46.204790000" lon="7.188820000"><ele></ele><time>2013-8-8T5:4:40Z</time></trkpt>
<trkpt lat="46.204800000" lon="7.188780000"><ele></ele><time>2013-8-8T5:4:43Z</time></trkpt>
<trkpt lat="46.204800000" lon="7.188760000"><ele></ele><time>2013-8-8T5:4:46Z</time></trkpt>
<trkpt lat="46.204800000" lon="7.188730000"><ele></ele><time>2013-8-8T5:4:49Z</time></trkpt>
<trkpt lat="46.204810000" lon="7.188710000"><ele></ele><time>2013-8-8T5:4:52Z</time></trkpt>
<trkpt lat="46.204810000" lon="7.188680000"><ele></ele><time>2013-8-8T5:4:55Z</time></trkpt>
<trkpt lat="46.204810000" lon="7.188660000"><ele></ele><time>2013-8-8T5:4:58Z</time></trkpt>
<trkpt lat="46.204810000" lon="7.188560000"><ele></ele><time>2013-8-8T5:5:1Z</time></trkpt>
<trkpt lat="46.204810000" lon="7.188530000"><ele></ele><time>2013-8-8T5:5:4Z</time></trkpt>
<trkpt lat="46.204800000" lon="7.188500000"><ele></ele><time>2013-8-8T5:5:7Z</time></trkpt>
<trkpt lat="46.204800000" lon="7.188470000"><ele></ele><time>2013-8-8T5:5:10Z</time></trkpt>
<trkpt lat="46.204800000" lon="7.188440000"><ele></ele><time>2013-8-8T5:5:13Z</time></trkpt>
<trkpt lat="46.204800000" lon="7.188420000"><ele></ele><time>2013-8-8T5:5:16Z</time></trkpt>
<trkpt lat="46.204770000" lon="7.188210000"><ele></ele><time>2013-8-8T5:5:19Z</time></trkpt>
<trkpt lat="46.204770000" lon="7.188180000"><ele></ele><time>2013-8-8T5:5:22Z</time></trkpt>
<trkpt lat="46.204780000" lon="7.188150000"><ele></ele><time>2013-8-8T5:5:25Z</time></trkpt>
<trkpt lat="46.204800000" lon="7.188130000"><ele></ele><time>2013-8-8T5:5:28Z</time></trkpt>
<trkpt lat="46.204810000" lon="7.188120000"><ele></ele><time>2013-8-8T5:5:31Z</time></trkpt>
<trkpt lat="46.204880000" lon="7.188100000"><ele></ele><time>2013-8-8T5:5:34Z</time></trkpt>
<trkpt lat="46.204900000" lon="7.188100000"><ele></ele><time>2013-8-8T5:5:37Z</time></trkpt>
<trkpt lat="46.204910000" lon="7.188100000"><ele></ele><time>2013-8-8T5:5:40Z</time></trkpt>
<trkpt lat="46.204930000" lon="7.188110000"><ele></ele><time>2013-8-8T5:5:43Z</time></trkpt>
<trkpt lat="46.204940000" lon="7.188120000"><ele></ele><time>2013-8-8T5:5:46Z</time></trkpt>
<trkpt lat="46.204960000" lon="7.188120000"><ele></ele><time>2013-8-8T5:5:49Z</time></trkpt>
<trkpt lat="46.204990000" lon="7.188140000"><ele></ele><time>2013-8-8T5:5:52Z</time></trkpt>
<trkpt lat="46.205010000" lon="7.188150000"><ele></ele><time>2013-8-8T5:5:55Z</time></trkpt>
<trkpt lat="46.205030000" lon="7.188150000"><ele></ele><time>2013-8-8T5:5:58Z</time></trkpt>
<trkpt lat="46.205050000" lon="7.188140000"><ele></ele><time>2013-8-8T5:6:1Z</time></trkpt>
<trkpt lat="46.205070000" lon="7.188150000"><ele></ele><time>2013-8-8T5:6:4Z</time></trkpt>
<trkpt lat="46.205100000" lon="7.188150000"><ele></ele><time>2013-8-8T5:6:7Z</time></trkpt>
<trkpt lat="46.205120000" lon="7.188150000"><ele></ele><time>2013-8-8T5:6:10Z</time></trkpt>
<trkpt lat="46.205210000" lon="7.188130000"><ele></ele><time>2013-8-8T5:6:13Z</time></trkpt>
<trkpt lat="46.205220000" lon="7.188120000"><ele></ele><time>2013-8-8T5:6:16Z</time></trkpt>
<trkpt lat="46.205240000" lon="7.188110000"><ele></ele><time>2013-8-8T5:6:19Z</time></trkpt>
<trkpt lat="46.205260000" lon="7.188100000"><ele></ele><time>2013-8-8T5:6:22Z</time></trkpt>
<trkpt lat="46.205280000" lon="7.188100000"><ele></ele><time>2013-8-8T5:6:25Z</time></trkpt>
<trkpt lat="46.205360000" lon="7.188010000"><ele></ele><time>2013-8-8T5:6:28Z</time></trkpt>
<trkpt lat="46.205370000" lon="7.187990000"><ele></ele><time>2013-8-8T5:6:31Z</time></trkpt>
<trkpt lat="46.205390000" lon="7.187980000"><ele></ele><time>2013-8-8T5:6:34Z</time></trkpt>
<trkpt lat="46.205400000" lon="7.187960000"><ele></ele><time>2013-8-8T5:6:37Z</time></trkpt>
<trkpt lat="46.205420000" lon="7.187950000"><ele></ele><time>2013-8-8T5:6:40Z</time></trkpt>
<trkpt lat="46.205460000" lon="7.187930000"><ele></ele><time>2013-8-8T5:6:43Z</time></trkpt>
<trkpt lat="46.205540000" lon="7.187840000"><ele></ele><time>2013-8-8T5:6:46Z</time></trkpt>
<trkpt lat="46.205550000" lon="7.187820000"><ele></ele><time>2013-8-8T5:6:49Z</time></trkpt>
<trkpt lat="46.205560000" lon="7.187800000"><ele></ele><time>2013-8-8T5:6:52Z</time></trkpt>
<trkpt lat="46.205570000" lon="7.187780000"><ele></ele><time>2013-8-8T5:6:55Z</time></trkpt>
<trkpt lat="46.205580000" lon="7.187760000"><ele></ele><time>2013-8-8T5:6:58Z</time></trkpt>
<trkpt lat="46.205620000" lon="7.187700000"><ele></ele><time>2013-8-8T5:7:1Z</time></trkpt>
<trkpt lat="46.205640000" lon="7.187670000"><ele></ele><time>2013-8-8T5:7:4Z</time></trkpt>
<trkpt lat="46.205650000" lon="7.187640000"><ele></ele><time>2013-8-8T5:7:7Z</time></trkpt>
<trkpt lat="46.205660000" lon="7.187620000"><ele></ele><time>2013-8-8T5:7:10Z</time></trkpt>
<trkpt lat="46.205670000" lon="7.187590000"><ele></ele><time>2013-8-8T5:7:13Z</time></trkpt>
<trkpt lat="46.205700000" lon="7.187470000"><ele></ele><time>2013-8-8T5:7:16Z</time></trkpt>
<trkpt lat="46.205730000" lon="7.187420000"><ele></ele><time>2013-8-8T5:7:19Z</time></trkpt>
<trkpt lat="46.205740000" lon="7.187390000"><ele></ele><time>2013-8-8T5:7:22Z</time></trkpt>
<trkpt lat="46.205750000" lon="7.187360000"><ele></ele><time>2013-8-8T5:7:25Z</time></trkpt>
<trkpt lat="46.205760000" lon="7.187340000"><ele></ele><time>2013-8-8T5:7:28Z</time></trkpt>
<trkpt lat="46.205780000" lon="7.187310000"><ele></ele><time>2013-8-8T5:7:31Z</time></trkpt>
<trkpt lat="46.205830000" lon="7.187180000"><ele></ele><time>2013-8-8T5:7:34Z</time></trkpt>
<trkpt lat="46.205840000" lon="7.187160000"><ele></ele><time>2013-8-8T5:7:37Z</time></trkpt>
<trkpt lat="46.205860000" lon="7.187140000"><ele></ele><time>2013-8-8T5:7:40Z</time></trkpt>
<trkpt lat="46.205860000" lon="7.187110000"><ele></ele><time>2013-8-8T5:7:43Z</time></trkpt>
<trkpt lat="46.205880000" lon="7.187090000"><ele></ele><time>2013-8-8T5:7:46Z</time></trkpt>
<trkpt lat="46.205890000" lon="7.187060000"><ele></ele><time>2013-8-8T5:7:49Z</time></trkpt>
<trkpt lat="46.205940000" lon="7.186920000"><ele></ele><time>2013-8-8T5:7:52Z</time></trkpt>
<trkpt lat="46.205960000" lon="7.186900000"><ele></ele><time>2013-8-8T5:7:55Z</time></trkpt>
<trkpt lat="46.205970000" lon="7.186870000"><ele></ele><time>2013-8-8T5:7:58Z</time></trkpt>
<trkpt lat="46.205990000" lon="7.186840000"><ele></ele><time>2013-8-8T5:8:1Z</time></trkpt>
<trkpt lat="46.205990000" lon="7.186820000"><ele></ele><time>2013-8-8T5:8:4Z</time></trkpt>
<trkpt lat="46.206000000" lon="7.186800000"><ele></ele><time>2013-8-8T5:8:7Z</time></trkpt>
<trkpt lat="46.206020000" lon="7.186750000"><ele></ele><time>2013-8-8T5:8:10Z</time></trkpt>
<trkpt lat="46.206030000" lon="7.186720000"><ele></ele><time>2013-8-8T5:8:13Z</time></trkpt>
<trkpt lat="46.206050000" lon="7.186690000"><ele></ele><time>2013-8-8T5:8:16Z</time></trkpt>
<trkpt lat="46.206060000" lon="7.186650000"><ele></ele><time>2013-8-8T5:8:19Z</time></trkpt>
<trkpt lat="46.206070000" lon="7.186630000"><ele></ele><time>2013-8-8T5:8:22Z</time></trkpt>
<trkpt lat="46.206130000" lon="7.186500000"><ele></ele><time>2013-8-8T5:8:25Z</time></trkpt>
<trkpt lat="46.206150000" lon="7.186480000"><ele></ele><time>2013-8-8T5:8:28Z</time></trkpt>
<trkpt lat="46.206170000" lon="7.186460000"><ele></ele><time>2013-8-8T5:8:31Z</time></trkpt>
<trkpt lat="46.206180000" lon="7.186440000"><ele></ele><time>2013-8-8T5:8:34Z</time></trkpt>
<trkpt lat="46.206190000" lon="7.186430000"><ele></ele><time>2013-8-8T5:8:37Z</time></trkpt>
<trkpt lat="46.206200000" lon="7.186410000"><ele></ele><time>2013-8-8T5:8:40Z</time></trkpt>
<trkpt lat="46.206240000" lon="7.186380000"><ele></ele><time>2013-8-8T5:8:43Z</time></trkpt>
<trkpt lat="46.206290000" lon="7.186300000"><ele></ele><time>2013-8-8T5:8:46Z</time></trkpt>
<trkpt lat="46.206310000" lon="7.186280000"><ele></ele><time>2013-8-8T5:8:49Z</time></trkpt>
<trkpt lat="46.206320000" lon="7.186270000"><ele></ele><time>2013-8-8T5:8:52Z</time></trkpt>
<trkpt lat="46.206340000" lon="7.186250000"><ele></ele><time>2013-8-8T5:8:55Z</time></trkpt>
<trkpt lat="46.206410000" lon="7.186190000"><ele></ele><time>2013-8-8T5:8:58Z</time></trkpt>
<trkpt lat="46.206430000" lon="7.186170000"><ele></ele><time>2013-8-8T5:9:1Z</time></trkpt>
<trkpt lat="46.206450000" lon="7.186150000"><ele></ele><time>2013-8-8T5:9:4Z</time></trkpt>
<trkpt lat="46.206460000" lon="7.186130000"><ele></ele><time>2013-8-8T5:9:7Z</time></trkpt>
<trkpt lat="46.206480000" lon="7.186110000"><ele></ele><time>2013-8-8T5:9:10Z</time></trkpt>
<trkpt lat="46.206500000" lon="7.186090000"><ele></ele><time>2013-8-8T5:9:13Z</time></trkpt>
<trkpt lat="46.206530000" lon="7.186060000"><ele></ele><time>2013-8-8T5:9:16Z</time></trkpt>
<trkpt lat="46.206580000" lon="7.186010000"><ele></ele><time>2013-8-8T5:9:19Z</time></trkpt>
<trkpt lat="46.206600000" lon="7.185990000"><ele></ele><time>2013-8-8T5:9:22Z</time></trkpt>
<trkpt lat="46.206620000" lon="7.185970000"><ele></ele><time>2013-8-8T5:9:25Z</time></trkpt>
<trkpt lat="46.206630000" lon="7.185940000"><ele></ele><time>2013-8-8T5:9:28Z</time></trkpt>
<trkpt lat="46.206650000" lon="7.185920000"><ele></ele><time>2013-8-8T5:9:31Z</time></trkpt>
<trkpt lat="46.206670000" lon="7.185900000"><ele></ele><time>2013-8-8T5:9:34Z</time></trkpt>
<trkpt lat="46.206730000" lon="7.185850000"><ele></ele><time>2013-8-8T5:9:37Z</time></trkpt>
<trkpt lat="46.206750000" lon="7.185830000"><ele></ele><time>2013-8-8T5:9:40Z</time></trkpt>
<trkpt lat="46.206760000" lon="7.185820000"><ele></ele><time>2013-8-8T5:9:43Z</time></trkpt>
<trkpt lat="46.206780000" lon="7.185800000"><ele></ele><time>2013-8-8T5:9:46Z</time></trkpt>
<trkpt lat="46.206820000" lon="7.185780000"><ele></ele><time>2013-8-8T5:9:49Z</time></trkpt>
<trkpt lat="46.206890000" lon="7.185760000"><ele></ele><time>2013-8-8T5:9:52Z</time></trkpt>
<trkpt lat="46.206910000" lon="7.185760000"><ele></ele><time>2013-8-8T5:9:55Z</time></trkpt>
<trkpt lat="46.206930000" lon="7.185760000"><ele></ele><time>2013-8-8T5:9:58Z</time></trkpt>
<trkpt lat="46.206950000" lon="7.185750000"><ele></ele><time>2013-8-8T5:10:1Z</time></trkpt>
<trkpt lat="46.206970000" lon="7.185750000"><ele></ele><time>2013-8-8T5:10:4Z</time></trkpt>
<trkpt lat="46.207030000" lon="7.185760000"><ele></ele><time>2013-8-8T5:10:7Z</time></trkpt>
<trkpt lat="46.207080000" lon="7.185750000"><ele></ele><time>2013-8-8T5:10:10Z</time></trkpt>
<trkpt lat="46.207100000" lon="7.185750000"><ele></ele><time>2013-8-8T5:10:13Z</time></trkpt>
<trkpt lat="46.207120000" lon="7.185750000"><ele></ele><time>2013-8-8T5:10:16Z</time></trkpt>
<trkpt lat="46.207150000" lon="7.185740000"><ele></ele><time>2013-8-8T5:10:19Z</time></trkpt>
<trkpt lat="46.207160000" lon="7.185730000"><ele></ele><time>2013-8-8T5:10:22Z</time></trkpt>
<trkpt lat="46.207230000" lon="7.185630000"><ele></ele><time>2013-8-8T5:10:25Z</time></trkpt>
<trkpt lat="46.207240000" lon="7.185610000"><ele></ele><time>2013-8-8T5:10:28Z</time></trkpt>
<trkpt lat="46.207240000" lon="7.185580000"><ele></ele><time>2013-8-8T5:10:31Z</time></trkpt>
<trkpt lat="46.207240000" lon="7.185550000"><ele></ele><time>2013-8-8T5:10:34Z</time></trkpt>
<trkpt lat="46.207240000" lon="7.185520000"><ele></ele><time>2013-8-8T5:10:37Z</time></trkpt>
<trkpt lat="46.207220000" lon="7.185460000"><ele></ele><time>2013-8-8T5:10:40Z</time></trkpt>
<trkpt lat="46.207150000" lon="7.185340000"><ele></ele><time>2013-8-8T5:10:43Z</time></trkpt>
<trkpt lat="46.207150000" lon="7.185320000"><ele></ele><time>2013-8-8T5:10:46Z</time></trkpt>
<trkpt lat="46.207130000" lon="7.185290000"><ele></ele><time>2013-8-8T5:10:49Z</time></trkpt>
<trkpt lat="46.207120000" lon="7.185270000"><ele></ele><time>2013-8-8T5:10:52Z</time></trkpt>
<trkpt lat="46.207110000" lon="7.185250000"><ele></ele><time>2013-8-8T5:10:55Z</time></trkpt>
<trkpt lat="46.207050000" lon="7.185150000"><ele></ele><time>2013-8-8T5:10:58Z</time></trkpt>
<trkpt lat="46.207010000" lon="7.185070000"><ele></ele><time>2013-8-8T5:11:1Z</time></trkpt>
<trkpt lat="46.207000000" lon="7.185060000"><ele></ele><time>2013-8-8T5:11:4Z</time></trkpt>
<trkpt lat="46.206980000" lon="7.185040000"><ele></ele><time>2013-8-8T5:11:7Z</time></trkpt>
<trkpt lat="46.206970000" lon="7.185020000"><ele></ele><time>2013-8-8T5:11:10Z</time></trkpt>
<trkpt lat="46.206960000" lon="7.185000000"><ele></ele><time>2013-8-8T5:11:13Z</time></trkpt>
<trkpt lat="46.206870000" lon="7.184910000"><ele></ele><time>2013-8-8T5:11:16Z</time></trkpt>
<trkpt lat="46.206860000" lon="7.184900000"><ele></ele><time>2013-8-8T5:11:19Z</time></trkpt>
<trkpt lat="46.206840000" lon="7.184880000"><ele></ele><time>2013-8-8T5:11:22Z</time></trkpt>
<trkpt lat="46.206830000" lon="7.184870000"><ele></ele><time>2013-8-8T5:11:25Z</time></trkpt>
<trkpt lat="46.206810000" lon="7.184860000"><ele></ele><time>2013-8-8T5:11:28Z</time></trkpt>
<trkpt lat="46.206730000" lon="7.184820000"><ele></ele><time>2013-8-8T5:11:31Z</time></trkpt>
<trkpt lat="46.206670000" lon="7.184790000"><ele></ele><time>2013-8-8T5:11:34Z</time></trkpt>
<trkpt lat="46.206650000" lon="7.184780000"><ele></ele><time>2013-8-8T5:11:37Z</time></trkpt>
<trkpt lat="46.206630000" lon="7.184760000"><ele></ele><time>2013-8-8T5:11:40Z</time></trkpt>
<trkpt lat="46.206620000" lon="7.184750000"><ele></ele><time>2013-8-8T5:11:43Z</time></trkpt>
<trkpt lat="46.206600000" lon="7.184740000"><ele></ele><time>2013-8-8T5:11:46Z</time></trkpt>
<trkpt lat="46.206540000" lon="7.184710000"><ele></ele><time>2013-8-8T5:11:49Z</time></trkpt>
<trkpt lat="46.206520000" lon="7.184690000"><ele></ele><time>2013-8-8T5:11:52Z</time></trkpt>
<trkpt lat="46.206500000" lon="7.184680000"><ele></ele><time>2013-8-8T5:11:55Z</time></trkpt>
<trkpt lat="46.206490000" lon="7.184670000"><ele></ele><time>2013-8-8T5:11:58Z</time></trkpt>
<trkpt lat="46.206470000" lon="7.184660000"><ele></ele><time>2013-8-8T5:12:1Z</time></trkpt>
<trkpt lat="46.206400000" lon="7.184610000"><ele></ele><time>2013-8-8T5:12:4Z</time></trkpt>
<trkpt lat="46.206380000" lon="7.184600000"><ele></ele><time>2013-8-8T5:12:7Z</time></trkpt>
<trkpt lat="46.206370000" lon="7.184590000"><ele></ele><time>2013-8-8T5:12:10Z</time></trkpt>
<trkpt lat="46.206350000" lon="7.184570000"><ele></ele><time>2013-8-8T5:12:13Z</time></trkpt>
<trkpt lat="46.206330000" lon="7.184560000"><ele></ele><time>2013-8-8T5:12:16Z</time></trkpt>
<trkpt lat="46.206250000" lon="7.184490000"><ele></ele><time>2013-8-8T5:12:19Z</time></trkpt>
<trkpt lat="46.206230000" lon="7.184480000"><ele></ele><time>2013-8-8T5:12:22Z</time></trkpt>
<trkpt lat="46.206210000" lon="7.184460000"><ele></ele><time>2013-8-8T5:12:25Z</time></trkpt>
<trkpt lat="46.206200000" lon="7.184450000"><ele></ele><time>2013-8-8T5:12:28Z</time></trkpt>
<trkpt lat="46.206180000" lon="7.184430000"><ele></ele><time>2013-8-8T5:12:31Z</time></trkpt>
<trkpt lat="46.206140000" lon="7.184400000"><ele></ele><time>2013-8-8T5:12:34Z</time></trkpt>
<trkpt lat="46.206110000" lon="7.184370000"><ele></ele><time>2013-8-8T5:12:37Z</time></trkpt>
<trkpt lat="46.206090000" lon="7.184350000"><ele></ele><time>2013-8-8T5:12:40Z</time></trkpt>
<trkpt lat="46.206070000" lon="7.184330000"><ele></ele><time>2013-8-8T5:12:43Z</time></trkpt>
<trkpt lat="46.206060000" lon="7.184310000"><ele></ele><time>2013-8-8T5:12:46Z</time></trkpt>
<trkpt lat="46.206050000" lon="7.184290000"><ele></ele><time>2013-8-8T5:12:49Z</time></trkpt>
<trkpt lat="46.206030000" lon="7.184280000"><ele></ele><time>2013-8-8T5:12:52Z</time></trkpt>
<trkpt lat="46.206010000" lon="7.184260000"><ele></ele><time>2013-8-8T5:12:55Z</time></trkpt>
<trkpt lat="46.205940000" lon="7.184180000"><ele></ele><time>2013-8-8T5:12:58Z</time></trkpt>
<trkpt lat="46.205920000" lon="7.184170000"><ele></ele><time>2013-8-8T5:13:1Z</time></trkpt>
<trkpt lat="46.205910000" lon="7.184150000"><ele></ele><time>2013-8-8T5:13:4Z</time></trkpt>
<trkpt lat="46.205890000" lon="7.184130000"><ele></ele><time>2013-8-8T5:13:7Z</time></trkpt>
<trkpt lat="46.205870000" lon="7.184110000"><ele></ele><time>2013-8-8T5:13:10Z</time></trkpt>
<trkpt lat="46.205820000" lon="7.184050000"><ele></ele><time>2013-8-8T5:13:13Z</time></trkpt>
<trkpt lat="46.205770000" lon="7.184000000"><ele></ele><time>2013-8-8T5:13:16Z</time></trkpt>
<trkpt lat="46.205760000" lon="7.183980000"><ele></ele><time>2013-8-8T5:13:19Z</time></trkpt>
<trkpt lat="46.205740000" lon="7.183970000"><ele></ele><time>2013-8-8T5:13:22Z</time></trkpt>
<trkpt lat="46.205730000" lon="7.183950000"><ele></ele><time>2013-8-8T5:13:25Z</time></trkpt>
<trkpt lat="46.205720000" lon="7.183930000"><ele></ele><time>2013-8-8T5:13:28Z</time></trkpt>
<trkpt lat="46.205650000" lon="7.183820000"><ele></ele><time>2013-8-8T5:13:31Z</time></trkpt>
<trkpt lat="46.205640000" lon="7.183800000"><ele></ele><time>2013-8-8T5:13:34Z</time></trkpt>
<trkpt lat="46.205620000" lon="7.183770000"><ele></ele><time>2013-8-8T5:13:37Z</time></trkpt>
<trkpt lat="46.205610000" lon="7.183750000"><ele></ele><time>2013-8-8T5:13:40Z</time></trkpt>
<trkpt lat="46.205600000" lon="7.183730000"><ele></ele><time>2013-8-8T5:13:43Z</time></trkpt>
<trkpt lat="46.205520000" lon="7.183620000"><ele></ele><time>2013-8-8T5:13:46Z</time></trkpt>
<trkpt lat="46.205510000" lon="7.183600000"><ele></ele><time>2013-8-8T5:13:49Z</time></trkpt>
<trkpt lat="46.205490000" lon="7.183590000"><ele></ele><time>2013-8-8T5:13:52Z</time></trkpt>
<trkpt lat="46.205470000" lon="7.183570000"><ele></ele><time>2013-8-8T5:13:55Z</time></trkpt>
<trkpt lat="46.205450000" lon="7.183560000"><ele></ele><time>2013-8-8T5:13:58Z</time></trkpt>
<trkpt lat="46.205350000" lon="7.183520000"><ele></ele><time>2013-8-8T5:14:1Z</time></trkpt>
<trkpt lat="46.205330000" lon="7.183520000"><ele></ele><time>2013-8-8T5:14:4Z</time></trkpt>
<trkpt lat="46.205310000" lon="7.183520000"><ele></ele><time>2013-8-8T5:14:7Z</time></trkpt>
<trkpt lat="46.205280000" lon="7.183520000"><ele></ele><time>2013-8-8T5:14:10Z</time></trkpt>
<trkpt lat="46.205270000" lon="7.183530000"><ele></ele><time>2013-8-8T5:14:13Z</time></trkpt>
<trkpt lat="46.205230000" lon="7.183540000"><ele></ele><time>2013-8-8T5:14:16Z</time></trkpt>
<trkpt lat="46.205120000" lon="7.183550000"><ele></ele><time>2013-8-8T5:14:19Z</time></trkpt>
<trkpt lat="46.205090000" lon="7.183550000"><ele></ele><time>2013-8-8T5:14:22Z</time></trkpt>
<trkpt lat="46.205070000" lon="7.183550000"><ele></ele><time>2013-8-8T5:14:25Z</time></trkpt>
<trkpt lat="46.205050000" lon="7.183550000"><ele></ele><time>2013-8-8T5:14:28Z</time></trkpt>
<trkpt lat="46.205020000" lon="7.183550000"><ele></ele><time>2013-8-8T5:14:31Z</time></trkpt>
<trkpt lat="46.204940000" lon="7.183530000"><ele></ele><time>2013-8-8T5:14:34Z</time></trkpt>
<trkpt lat="46.204930000" lon="7.183470000"><ele></ele><time>2013-8-8T5:14:37Z</time></trkpt>
<trkpt lat="46.204940000" lon="7.183440000"><ele></ele><time>2013-8-8T5:14:40Z</time></trkpt>
<trkpt lat="46.204960000" lon="7.183430000"><ele></ele><time>2013-8-8T5:14:43Z</time></trkpt>
<trkpt lat="46.204980000" lon="7.183420000"><ele></ele><time>2013-8-8T5:14:46Z</time></trkpt>
<trkpt lat="46.205000000" lon="7.183420000"><ele></ele><time>2013-8-8T5:14:49Z</time></trkpt>
<trkpt lat="46.205040000" lon="7.183420000"><ele></ele><time>2013-8-8T5:14:52Z</time></trkpt>
<trkpt lat="46.205100000" lon="7.183410000"><ele></ele><time>2013-8-8T5:14:55Z</time></trkpt>
<trkpt lat="46.205120000" lon="7.183410000"><ele></ele><time>2013-8-8T5:14:58Z</time></trkpt>
<trkpt lat="46.205140000" lon="7.183400000"><ele></ele><time>2013-8-8T5:15:1Z</time></trkpt>
<trkpt lat="46.205160000" lon="7.183390000"><ele></ele><time>2013-8-8T5:15:4Z</time></trkpt>
<trkpt lat="46.205180000" lon="7.183390000"><ele></ele><time>2013-8-8T5:15:7Z</time></trkpt>
<trkpt lat="46.205200000" lon="7.183380000"><ele></ele><time>2013-8-8T5:15:10Z</time></trkpt>
<trkpt lat="46.205240000" lon="7.183370000"><ele></ele><time>2013-8-8T5:15:13Z</time></trkpt>
<trkpt lat="46.205330000" lon="7.183340000"><ele></ele><time>2013-8-8T5:15:16Z</time></trkpt>
<trkpt lat="46.205350000" lon="7.183330000"><ele></ele><time>2013-8-8T5:15:19Z</time></trkpt>
<trkpt lat="46.205370000" lon="7.183320000"><ele></ele><time>2013-8-8T5:15:22Z</time></trkpt>
<trkpt lat="46.205390000" lon="7.183320000"><ele></ele><time>2013-8-8T5:15:25Z</time></trkpt>
<trkpt lat="46.205410000" lon="7.183310000"><ele></ele><time>2013-8-8T5:15:28Z</time></trkpt>
<trkpt lat="46.205440000" lon="7.183300000"><ele></ele><time>2013-8-8T5:15:31Z</time></trkpt>
<trkpt lat="46.205520000" lon="7.183280000"><ele></ele><time>2013-8-8T5:15:34Z</time></trkpt>
<trkpt lat="46.205570000" lon="7.183280000"><ele></ele><time>2013-8-8T5:15:37Z</time></trkpt>
<trkpt lat="46.205590000" lon="7.183280000"><ele></ele><time>2013-8-8T5:15:40Z</time></trkpt>
<trkpt lat="46.205610000" lon="7.183270000"><ele></ele><time>2013-8-8T5:15:43Z</time></trkpt>
<trkpt lat="46.205640000" lon="7.183270000"><ele></ele><time>2013-8-8T5:15:46Z</time></trkpt>
<trkpt lat="46.205660000" lon="7.183270000"><ele></ele><time>2013-8-8T5:15:49Z</time></trkpt>
<trkpt lat="46.205820000" lon="7.183240000"><ele></ele><time>2013-8-8T5:15:52Z</time></trkpt>
<trkpt lat="46.205840000" lon="7.183240000"><ele></ele><time>2013-8-8T5:15:55Z</time></trkpt>
<trkpt lat="46.205860000" lon="7.183230000"><ele></ele><time>2013-8-8T5:15:58Z</time></trkpt>
<trkpt lat="46.205890000" lon="7.183220000"><ele></ele><time>2013-8-8T5:16:1Z</time></trkpt>
<trkpt lat="46.205910000" lon="7.183220000"><ele></ele><time>2013-8-8T5:16:4Z</time></trkpt>
<trkpt lat="46.206000000" lon="7.183220000"><ele></ele><time>2013-8-8T5:16:7Z</time></trkpt>
<trkpt lat="46.206020000" lon="7.183210000"><ele></ele><time>2013-8-8T5:16:10Z</time></trkpt>
<trkpt lat="46.206040000" lon="7.183210000"><ele></ele><time>2013-8-8T5:16:13Z</time></trkpt>
<trkpt lat="46.206060000" lon="7.183200000"><ele></ele><time>2013-8-8T5:16:16Z</time></trkpt>
<trkpt lat="46.206180000" lon="7.183200000"><ele></ele><time>2013-8-8T5:16:19Z</time></trkpt>
<trkpt lat="46.206230000" lon="7.183200000"><ele></ele><time>2013-8-8T5:16:22Z</time></trkpt>
<trkpt lat="46.206250000" lon="7.183200000"><ele></ele><time>2013-8-8T5:16:25Z</time></trkpt>
<trkpt lat="46.206280000" lon="7.183190000"><ele></ele><time>2013-8-8T5:16:28Z</time></trkpt>
<trkpt lat="46.206300000" lon="7.183180000"><ele></ele><time>2013-8-8T5:16:31Z</time></trkpt>
<trkpt lat="46.206320000" lon="7.183180000"><ele></ele><time>2013-8-8T5:16:34Z</time></trkpt>
<trkpt lat="46.206420000" lon="7.183130000"><ele></ele><time>2013-8-8T5:16:37Z</time></trkpt>
<trkpt lat="46.206440000" lon="7.183130000"><ele></ele><time>2013-8-8T5:16:40Z</time></trkpt>
<trkpt lat="46.206470000" lon="7.183120000"><ele></ele><time>2013-8-8T5:16:43Z</time></trkpt>
<trkpt lat="46.206490000" lon="7.183110000"><ele></ele><time>2013-8-8T5:16:46Z</time></trkpt>
<trkpt lat="46.206500000" lon="7.183100000"><ele></ele><time>2013-8-8T5:16:49Z</time></trkpt>
<trkpt lat="46.206610000" lon="7.183040000"><ele></ele><time>2013-8-8T5:16:52Z</time></trkpt>
<trkpt lat="46.206630000" lon="7.183030000"><ele></ele><time>2013-8-8T5:16:55Z</time></trkpt>
<trkpt lat="46.206650000" lon="7.183020000"><ele></ele><time>2013-8-8T5:16:58Z</time></trkpt>
<trkpt lat="46.206670000" lon="7.183010000"><ele></ele><time>2013-8-8T5:17:1Z</time></trkpt>
<trkpt lat="46.206690000" lon="7.183000000"><ele></ele><time>2013-8-8T5:17:4Z</time></trkpt>
<trkpt lat="46.206710000" lon="7.182990000"><ele></ele><time>2013-8-8T5:17:7Z</time></trkpt>
<trkpt lat="46.206760000" lon="7.182970000"><ele></ele><time>2013-8-8T5:17:10Z</time></trkpt>
<trkpt lat="46.206890000" lon="7.182940000"><ele></ele><time>2013-8-8T5:17:13Z</time></trkpt>
<trkpt lat="46.206910000" lon="7.182940000"><ele></ele><time>2013-8-8T5:17:16Z</time></trkpt>
<trkpt lat="46.206930000" lon="7.182940000"><ele></ele><time>2013-8-8T5:17:19Z</time></trkpt>
<trkpt lat="46.206950000" lon="7.182940000"><ele></ele><time>2013-8-8T5:17:22Z</time></trkpt>
<trkpt lat="46.206970000" lon="7.182940000"><ele></ele><time>2013-8-8T5:17:25Z</time></trkpt>
<trkpt lat="46.207060000" lon="7.182950000"><ele></ele><time>2013-8-8T5:17:28Z</time></trkpt>
<trkpt lat="46.207080000" lon="7.182940000"><ele></ele><time>2013-8-8T5:17:31Z</time></trkpt>
<trkpt lat="46.207100000" lon="7.182940000"><ele></ele><time>2013-8-8T5:17:34Z</time></trkpt>
<trkpt lat="46.207130000" lon="7.182950000"><ele></ele><time>2013-8-8T5:17:37Z</time></trkpt>
<trkpt lat="46.207150000" lon="7.182950000"><ele></ele><time>2013-8-8T5:17:40Z</time></trkpt>
<trkpt lat="46.207170000" lon="7.182960000"><ele></ele><time>2013-8-8T5:17:43Z</time></trkpt>
<trkpt lat="46.207230000" lon="7.182950000"><ele></ele><time>2013-8-8T5:17:46Z</time></trkpt>
<trkpt lat="46.207250000" lon="7.182950000"><ele></ele><time>2013-8-8T5:17:49Z</time></trkpt>
<trkpt lat="46.207270000" lon="7.182940000"><ele></ele><time>2013-8-8T5:17:52Z</time></trkpt>
<trkpt lat="46.207290000" lon="7.182940000"><ele></ele><time>2013-8-8T5:17:55Z</time></trkpt>
<trkpt lat="46.207320000" lon="7.182930000"><ele></ele><time>2013-8-8T5:17:58Z</time></trkpt>
<trkpt lat="46.207430000" lon="7.182870000"><ele></ele><time>2013-8-8T5:18:1Z</time></trkpt>
<trkpt lat="46.207450000" lon="7.182850000"><ele></ele><time>2013-8-8T5:18:4Z</time></trkpt>
<trkpt lat="46.207470000" lon="7.182840000"><ele></ele><time>2013-8-8T5:18:7Z</time></trkpt>
<trkpt lat="46.207490000" lon="7.182830000"><ele></ele><time>2013-8-8T5:18:10Z</time></trkpt>
<trkpt lat="46.207510000" lon="7.182810000"><ele></ele><time>2013-8-8T5:18:13Z</time></trkpt>
<trkpt lat="46.207570000" lon="7.182750000"><ele></ele><time>2013-8-8T5:18:16Z</time></trkpt>
<trkpt lat="46.207630000" lon="7.182690000"><ele></ele><time>2013-8-8T5:18:19Z</time></trkpt>
<trkpt lat="46.207650000" lon="7.182670000"><ele></ele><time>2013-8-8T5:18:22Z</time></trkpt>
<trkpt lat="46.207670000" lon="7.182650000"><ele></ele><time>2013-8-8T5:18:25Z</time></trkpt>
<trkpt lat="46.207700000" lon="7.182630000"><ele></ele><time>2013-8-8T5:18:28Z</time></trkpt>
<trkpt lat="46.207710000" lon="7.182620000"><ele></ele><time>2013-8-8T5:18:31Z</time></trkpt>
<trkpt lat="46.207810000" lon="7.182510000"><ele></ele><time>2013-8-8T5:18:34Z</time></trkpt>
<trkpt lat="46.207830000" lon="7.182490000"><ele></ele><time>2013-8-8T5:18:37Z</time></trkpt>
<trkpt lat="46.207850000" lon="7.182470000"><ele></ele><time>2013-8-8T5:18:40Z</time></trkpt>
<trkpt lat="46.207880000" lon="7.182450000"><ele></ele><time>2013-8-8T5:18:43Z</time></trkpt>
<trkpt lat="46.207900000" lon="7.182430000"><ele></ele><time>2013-8-8T5:18:46Z</time></trkpt>
<trkpt lat="46.207920000" lon="7.182400000"><ele></ele><time>2013-8-8T5:18:49Z</time></trkpt>
<trkpt lat="46.208030000" lon="7.182330000"><ele></ele><time>2013-8-8T5:18:52Z</time></trkpt>
<trkpt lat="46.208080000" lon="7.182320000"><ele></ele><time>2013-8-8T5:18:55Z</time></trkpt>
<trkpt lat="46.208110000" lon="7.182320000"><ele></ele><time>2013-8-8T5:18:58Z</time></trkpt>
<trkpt lat="46.208130000" lon="7.182320000"><ele></ele><time>2013-8-8T5:19:1Z</time></trkpt>
<trkpt lat="46.208150000" lon="7.182320000"><ele></ele><time>2013-8-8T5:19:4Z</time></trkpt>
<trkpt lat="46.208180000" lon="7.182300000"><ele></ele><time>2013-8-8T5:19:7Z</time></trkpt>
<trkpt lat="46.208260000" lon="7.182240000"><ele></ele><time>2013-8-8T5:19:10Z</time></trkpt>
<trkpt lat="46.208280000" lon="7.182210000"><ele></ele><time>2013-8-8T5:19:13Z</time></trkpt>
<trkpt lat="46.208290000" lon="7.182180000"><ele></ele><time>2013-8-8T5:19:16Z</time></trkpt>
<trkpt lat="46.208290000" lon="7.182140000"><ele></ele><time>2013-8-8T5:19:19Z</time></trkpt>
<trkpt lat="46.208300000" lon="7.182110000"><ele></ele><time>2013-8-8T5:19:22Z</time></trkpt>
<trkpt lat="46.208300000" lon="7.182090000"><ele></ele><time>2013-8-8T5:19:25Z</time></trkpt>
<trkpt lat="46.208290000" lon="7.182070000"><ele></ele><time>2013-8-8T5:19:28Z</time></trkpt>
<trkpt lat="46.208240000" lon="7.182010000"><ele></ele><time>2013-8-8T5:19:31Z</time></trkpt>
<trkpt lat="46.208170000" lon="7.181980000"><ele></ele><time>2013-8-8T5:19:34Z</time></trkpt>
<trkpt lat="46.208150000" lon="7.181980000"><ele></ele><time>2013-8-8T5:19:37Z</time></trkpt>
<trkpt lat="46.208130000" lon="7.181980000"><ele></ele><time>2013-8-8T5:19:40Z</time></trkpt>
<trkpt lat="46.208100000" lon="7.181980000"><ele></ele><time>2013-8-8T5:19:43Z</time></trkpt>
<trkpt lat="46.208080000" lon="7.181980000"><ele></ele><time>2013-8-8T5:19:46Z</time></trkpt>
<trkpt lat="46.207970000" lon="7.181970000"><ele></ele><time>2013-8-8T5:19:49Z</time></trkpt>
<trkpt lat="46.207950000" lon="7.181970000"><ele></ele><time>2013-8-8T5:19:52Z</time></trkpt>
<trkpt lat="46.207930000" lon="7.181970000"><ele></ele><time>2013-8-8T5:19:55Z</time></trkpt>
<trkpt lat="46.207910000" lon="7.181960000"><ele></ele><time>2013-8-8T5:19:58Z</time></trkpt>
<trkpt lat="46.207890000" lon="7.181960000"><ele></ele><time>2013-8-8T5:20:1Z</time></trkpt>
<trkpt lat="46.207820000" lon="7.181940000"><ele></ele><time>2013-8-8T5:20:4Z</time></trkpt>
<trkpt lat="46.207780000" lon="7.181920000"><ele></ele><time>2013-8-8T5:20:7Z</time></trkpt>
<trkpt lat="46.207760000" lon="7.181900000"><ele></ele><time>2013-8-8T5:20:10Z</time></trkpt>
<trkpt lat="46.207740000" lon="7.181900000"><ele></ele><time>2013-8-8T5:20:13Z</time></trkpt>
<trkpt lat="46.207710000" lon="7.181890000"><ele></ele><time>2013-8-8T5:20:16Z</time></trkpt>
<trkpt lat="46.207690000" lon="7.181890000"><ele></ele><time>2013-8-8T5:20:19Z</time></trkpt>
<trkpt lat="46.207650000" lon="7.181880000"><ele></ele><time>2013-8-8T5:20:22Z</time></trkpt>
<trkpt lat="46.207590000" lon="7.181870000"><ele></ele><time>2013-8-8T5:20:25Z</time></trkpt>
<trkpt lat="46.207570000" lon="7.181870000"><ele></ele><time>2013-8-8T5:20:28Z</time></trkpt>
<trkpt lat="46.207550000" lon="7.181860000"><ele></ele><time>2013-8-8T5:20:31Z</time></trkpt>
<trkpt lat="46.207530000" lon="7.181860000"><ele></ele><time>2013-8-8T5:20:34Z</time></trkpt>
<trkpt lat="46.207510000" lon="7.181850000"><ele></ele><time>2013-8-8T5:20:37Z</time></trkpt>
<trkpt lat="46.207430000" lon="7.181840000"><ele></ele><time>2013-8-8T5:20:40Z</time></trkpt>
<trkpt lat="46.207410000" lon="7.181830000"><ele></ele><time>2013-8-8T5:20:43Z</time></trkpt>
<trkpt lat="46.207390000" lon="7.181820000"><ele></ele><time>2013-8-8T5:20:46Z</time></trkpt>
<trkpt lat="46.207370000" lon="7.181820000"><ele></ele><time>2013-8-8T5:20:49Z</time></trkpt>
<trkpt lat="46.207350000" lon="7.181810000"><ele></ele><time>2013-8-8T5:20:52Z</time></trkpt>
<trkpt lat="46.207230000" lon="7.181780000"><ele></ele><time>2013-8-8T5:20:55Z</time></trkpt>
<trkpt lat="46.207210000" lon="7.181760000"><ele></ele><time>2013-8-8T5:20:58Z</time></trkpt>
<trkpt lat="46.207200000" lon="7.181740000"><ele></ele><time>2013-8-8T5:21:1Z</time></trkpt>
<trkpt lat="46.207190000" lon="7.181720000"><ele></ele><time>2013-8-8T5:21:4Z</time></trkpt>
<trkpt lat="46.207170000" lon="7.181700000"><ele></ele><time>2013-8-8T5:21:7Z</time></trkpt>
<trkpt lat="46.207140000" lon="7.181660000"><ele></ele><time>2013-8-8T5:21:10Z</time></trkpt>
<trkpt lat="46.207090000" lon="7.181610000"><ele></ele><time>2013-8-8T5:21:13Z</time></trkpt>
<trkpt lat="46.207080000" lon="7.181590000"><ele></ele><time>2013-8-8T5:21:16Z</time></trkpt>
<trkpt lat="46.207070000" lon="7.181570000"><ele></ele><time>2013-8-8T5:21:19Z</time></trkpt>
<trkpt lat="46.207050000" lon="7.181550000"><ele></ele><time>2013-8-8T5:21:22Z</time></trkpt>
<trkpt lat="46.207040000" lon="7.181530000"><ele></ele><time>2013-8-8T5:21:25Z</time></trkpt>
<trkpt lat="46.207000000" lon="7.181470000"><ele></ele><time>2013-8-8T5:21:28Z</time></trkpt>
<trkpt lat="46.206990000" lon="7.181450000"><ele></ele><time>2013-8-8T5:21:31Z</time></trkpt>
<trkpt lat="46.206970000" lon="7.181440000"><ele></ele><time>2013-8-8T5:21:34Z</time></trkpt>
<trkpt lat="46.206950000" lon="7.181420000"><ele></ele><time>2013-8-8T5:21:37Z</time></trkpt>
<trkpt lat="46.206930000" lon="7.181410000"><ele></ele><time>2013-8-8T5:21:40Z</time></trkpt>
<trkpt lat="46.206900000" lon="7.181380000"><ele></ele><time>2013-8-8T5:21:43Z</time></trkpt>
<trkpt lat="46.206830000" lon="7.181340000"><ele></ele><time>2013-8-8T5:21:46Z</time></trkpt>
<trkpt lat="46.206810000" lon="7.181330000"><ele></ele><time>2013-8-8T5:21:49Z</time></trkpt>
<trkpt lat="46.206790000" lon="7.181310000"><ele></ele><time>2013-8-8T5:21:52Z</time></trkpt>
<trkpt lat="46.206780000" lon="7.181310000"><ele></ele><time>2013-8-8T5:21:55Z</time></trkpt>
<trkpt lat="46.206760000" lon="7.181300000"><ele></ele><time>2013-8-8T5:21:58Z</time></trkpt>
<trkpt lat="46.206660000" lon="7.181280000"><ele></ele><time>2013-8-8T5:22:1Z</time></trkpt>
<trkpt lat="46.206640000" lon="7.181280000"><ele></ele><time>2013-8-8T5:22:4Z</time></trkpt>
<trkpt lat="46.206630000" lon="7.181270000"><ele></ele><time>2013-8-8T5:22:7Z</time></trkpt>
<trkpt lat="46.206610000" lon="7.181270000"><ele></ele><time>2013-8-8T5:22:10Z</time></trkpt>
<trkpt lat="46.206510000" lon="7.181250000"><ele></ele><time>2013-8-8T5:22:13Z</time></trkpt>
<trkpt lat="46.206490000" lon="7.181240000"><ele></ele><time>2013-8-8T5:22:16Z</time></trkpt>
<trkpt lat="46.206470000" lon="7.181230000"><ele></ele><time>2013-8-8T5:22:19Z</time></trkpt>
<trkpt lat="46.206450000" lon="7.181220000"><ele></ele><time>2013-8-8T5:22:22Z</time></trkpt>
<trkpt lat="46.206430000" lon="7.181210000"><ele></ele><time>2013-8-8T5:22:25Z</time></trkpt>
<trkpt lat="46.206380000" lon="7.181190000"><ele></ele><time>2013-8-8T5:22:28Z</time></trkpt>
<trkpt lat="46.206320000" lon="7.181150000"><ele></ele><time>2013-8-8T5:22:31Z</time></trkpt>
<trkpt lat="46.206300000" lon="7.181140000"><ele></ele><time>2013-8-8T5:22:34Z</time></trkpt>
<trkpt lat="46.206290000" lon="7.181120000"><ele></ele><time>2013-8-8T5:22:37Z</time></trkpt>
<trkpt lat="46.206270000" lon="7.181110000"><ele></ele><time>2013-8-8T5:22:40Z</time></trkpt>
<trkpt lat="46.206250000" lon="7.181090000"><ele></ele><time>2013-8-8T5:22:43Z</time></trkpt>
<trkpt lat="46.206190000" lon="7.181020000"><ele></ele><time>2013-8-8T5:22:46Z</time></trkpt>
<trkpt lat="46.206180000" lon="7.180990000"><ele></ele><time>2013-8-8T5:22:49Z</time></trkpt>
<trkpt lat="46.206170000" lon="7.180970000"><ele></ele><time>2013-8-8T5:22:52Z</time></trkpt>
<trkpt lat="46.206160000" lon="7.180950000"><ele></ele><time>2013-8-8T5:22:55Z</time></trkpt>
<trkpt lat="46.206150000" lon="7.180930000"><ele></ele><time>2013-8-8T5:22:58Z</time></trkpt>
<trkpt lat="46.206120000" lon="7.180880000"><ele></ele><time>2013-8-8T5:23:1Z</time></trkpt>
<trkpt lat="46.206110000" lon="7.180860000"><ele></ele><time>2013-8-8T5:23:4Z</time></trkpt>
<trkpt lat="46.206090000" lon="7.180800000"><ele></ele><time>2013-8-8T5:23:7Z</time></trkpt>
<trkpt lat="46.206070000" lon="7.180780000"><ele></ele><time>2013-8-8T5:23:10Z</time></trkpt>
<trkpt lat="46.206050000" lon="7.180740000"><ele></ele><time>2013-8-8T5:23:13Z</time></trkpt>
<trkpt lat="46.206050000" lon="7.180720000"><ele></ele><time>2013-8-8T5:23:16Z</time></trkpt>
<trkpt lat="46.206050000" lon="7.180700000"><ele></ele><time>2013-8-8T5:23:19Z</time></trkpt>
<trkpt lat="46.206040000" lon="7.180680000"><ele></ele><time>2013-8-8T5:23:22Z</time></trkpt>
<trkpt lat="46.206030000" lon="7.180680000"><ele></ele><time>2013-8-8T5:23:25Z</time></trkpt>
<trkpt lat="46.206020000" lon="7.180730000"><ele></ele><time>2013-8-8T5:23:28Z</time></trkpt>
<trkpt lat="46.206030000" lon="7.180760000"><ele></ele><time>2013-8-8T5:23:31Z</time></trkpt>
<trkpt lat="46.206040000" lon="7.180810000"><ele></ele><time>2013-8-8T5:23:34Z</time></trkpt>
<trkpt lat="46.206040000" lon="7.180810000"><ele></ele><time>2013-8-8T5:23:37Z</time></trkpt>
<trkpt lat="46.206040000" lon="7.180810000"><ele></ele><time>2013-8-8T5:23:40Z</time></trkpt>
<trkpt lat="46.206050000" lon="7.180820000"><ele></ele><time>2013-8-8T5:23:43Z</time></trkpt>
<trkpt lat="46.206050000" lon="7.180820000"><ele></ele><time>2013-8-8T5:23:46Z</time></trkpt>
<trkpt lat="46.206040000" lon="7.180850000"><ele></ele><time>2013-8-8T5:23:49Z</time></trkpt>
<trkpt lat="46.206030000" lon="7.180880000"><ele></ele><time>2013-8-8T5:23:52Z</time></trkpt>
<trkpt lat="46.206000000" lon="7.180910000"><ele></ele><time>2013-8-8T5:23:55Z</time></trkpt>
<trkpt lat="46.205960000" lon="7.180940000"><ele></ele><time>2013-8-8T5:23:58Z</time></trkpt>
<trkpt lat="46.205920000" lon="7.180970000"><ele></ele><time>2013-8-8T5:24:1Z</time></trkpt>
<trkpt lat="46.205860000" lon="7.180980000"><ele></ele><time>2013-8-8T5:24:4Z</time></trkpt>
<trkpt lat="46.205790000" lon="7.180990000"><ele></ele><time>2013-8-8T5:24:7Z</time></trkpt>
<trkpt lat="46.205710000" lon="7.180980000"><ele></ele><time>2013-8-8T5:24:10Z</time></trkpt>
<trkpt lat="46.205630000" lon="7.180970000"><ele></ele><time>2013-8-8T5:24:13Z</time></trkpt>
<trkpt lat="46.205550000" lon="7.180950000"><ele></ele><time>2013-8-8T5:24:16Z</time></trkpt>
<trkpt lat="46.205480000" lon="7.180910000"><ele></ele><time>2013-8-8T5:24:19Z</time></trkpt>
<trkpt lat="46.205410000" lon="7.180860000"><ele></ele><time>2013-8-8T5:24:22Z</time></trkpt>
<trkpt lat="46.205350000" lon="7.180800000"><ele></ele><time>2013-8-8T5:24:25Z</time></trkpt>
<trkpt lat="46.205300000" lon="7.180730000"><ele></ele><time>2013-8-8T5:24:28Z</time></trkpt>
<trkpt lat="46.205250000" lon="7.180690000"><ele></ele><time>2013-8-8T5:24:31Z</time></trkpt>
<trkpt lat="46.205210000" lon="7.180660000"><ele></ele><time>2013-8-8T5:24:34Z</time></trkpt>
<trkpt lat="46.205170000" lon="7.180640000"><ele></ele><time>2013-8-8T5:24:37Z</time></trkpt>
<trkpt lat="46.205090000" lon="7.180600000"><ele></ele><time>2013-8-8T5:24:40Z</time></trkpt>
<trkpt lat="46.205010000" lon="7.180560000"><ele></ele><time>2013-8-8T5:24:43Z</time></trkpt>
<trkpt lat="46.204700000" lon="7.180480000"><ele></ele><time>2013-8-8T5:24:46Z</time></trkpt>
<trkpt lat="46.204630000" lon="7.180500000"><ele></ele><time>2013-8-8T5:24:49Z</time></trkpt>
<trkpt lat="46.204560000" lon="7.180530000"><ele></ele><time>2013-8-8T5:24:52Z</time></trkpt>
<trkpt lat="46.204490000" lon="7.180590000"><ele></ele><time>2013-8-8T5:24:55Z</time></trkpt>
<trkpt lat="46.204410000" lon="7.180650000"><ele></ele><time>2013-8-8T5:24:58Z</time></trkpt>
<trkpt lat="46.204340000" lon="7.180700000"><ele></ele><time>2013-8-8T5:25:1Z</time></trkpt>
<trkpt lat="46.204270000" lon="7.180760000"><ele></ele><time>2013-8-8T5:25:4Z</time></trkpt>
<trkpt lat="46.204190000" lon="7.180800000"><ele></ele><time>2013-8-8T5:25:7Z</time></trkpt>
<trkpt lat="46.204110000" lon="7.180830000"><ele></ele><time>2013-8-8T5:25:10Z</time></trkpt>
<trkpt lat="46.204040000" lon="7.180840000"><ele></ele><time>2013-8-8T5:25:13Z</time></trkpt>
<trkpt lat="46.203960000" lon="7.180850000"><ele></ele><time>2013-8-8T5:25:16Z</time></trkpt>
<trkpt lat="46.203810000" lon="7.180830000"><ele></ele><time>2013-8-8T5:25:19Z</time></trkpt>
<trkpt lat="46.203740000" lon="7.180820000"><ele></ele><time>2013-8-8T5:25:22Z</time></trkpt>
<trkpt lat="46.203540000" lon="7.180760000"><ele></ele><time>2013-8-8T5:25:25Z</time></trkpt>
<trkpt lat="46.203310000" lon="7.180750000"><ele></ele><time>2013-8-8T5:25:28Z</time></trkpt>
<trkpt lat="46.203250000" lon="7.180760000"><ele></ele><time>2013-8-8T5:25:31Z</time></trkpt>
<trkpt lat="46.202940000" lon="7.180810000"><ele></ele><time>2013-8-8T5:25:34Z</time></trkpt>
<trkpt lat="46.202900000" lon="7.180810000"><ele></ele><time>2013-8-8T5:25:37Z</time></trkpt>
<trkpt lat="46.202720000" lon="7.180810000"><ele></ele><time>2013-8-8T5:25:40Z</time></trkpt>
<trkpt lat="46.202680000" lon="7.180810000"><ele></ele><time>2013-8-8T5:25:43Z</time></trkpt>
<trkpt lat="46.202590000" lon="7.180820000"><ele></ele><time>2013-8-8T5:25:46Z</time></trkpt>
<trkpt lat="46.202500000" lon="7.180840000"><ele></ele><time>2013-8-8T5:25:49Z</time></trkpt>
<trkpt lat="46.202460000" lon="7.180850000"><ele></ele><time>2013-8-8T5:25:52Z</time></trkpt>
<trkpt lat="46.202420000" lon="7.180850000"><ele></ele><time>2013-8-8T5:25:55Z</time></trkpt>
<trkpt lat="46.202270000" lon="7.180840000"><ele></ele><time>2013-8-8T5:25:58Z</time></trkpt>
<trkpt lat="46.202180000" lon="7.180830000"><ele></ele><time>2013-8-8T5:26:1Z</time></trkpt>
<trkpt lat="46.202070000" lon="7.180850000"><ele></ele><time>2013-8-8T5:26:4Z</time></trkpt>
<trkpt lat="46.201970000" lon="7.180870000"><ele></ele><time>2013-8-8T5:26:7Z</time></trkpt>
<trkpt lat="46.201770000" lon="7.180950000"><ele></ele><time>2013-8-8T5:26:10Z</time></trkpt>
<trkpt lat="46.201570000" lon="7.181030000"><ele></ele><time>2013-8-8T5:26:13Z</time></trkpt>
<trkpt lat="46.201480000" lon="7.181080000"><ele></ele><time>2013-8-8T5:26:16Z</time></trkpt>
<trkpt lat="46.201360000" lon="7.181150000"><ele></ele><time>2013-8-8T5:26:19Z</time></trkpt>
<trkpt lat="46.201350000" lon="7.181180000"><ele></ele><time>2013-8-8T5:26:22Z</time></trkpt>
<trkpt lat="46.201350000" lon="7.181210000"><ele></ele><time>2013-8-8T5:26:25Z</time></trkpt>
<trkpt lat="46.201370000" lon="7.181220000"><ele></ele><time>2013-8-8T5:26:28Z</time></trkpt>
<trkpt lat="46.201390000" lon="7.181200000"><ele></ele><time>2013-8-8T5:26:31Z</time></trkpt>
<trkpt lat="46.201410000" lon="7.181180000"><ele></ele><time>2013-8-8T5:26:34Z</time></trkpt>
<trkpt lat="46.201440000" lon="7.181160000"><ele></ele><time>2013-8-8T5:26:37Z</time></trkpt>
<trkpt lat="46.201580000" lon="7.181070000"><ele></ele><time>2013-8-8T5:26:40Z</time></trkpt>
<trkpt lat="46.201620000" lon="7.181040000"><ele></ele><time>2013-8-8T5:26:43Z</time></trkpt>
<trkpt lat="46.201670000" lon="7.181010000"><ele></ele><time>2013-8-8T5:26:46Z</time></trkpt>
<trkpt lat="46.201710000" lon="7.180990000"><ele></ele><time>2013-8-8T5:26:49Z</time></trkpt>
<trkpt lat="46.201760000" lon="7.180980000"><ele></ele><time>2013-8-8T5:26:52Z</time></trkpt>
<trkpt lat="46.201810000" lon="7.180970000"><ele></ele><time>2013-8-8T5:26:55Z</time></trkpt>
<trkpt lat="46.201850000" lon="7.180950000"><ele></ele><time>2013-8-8T5:26:58Z</time></trkpt>
<trkpt lat="46.201900000" lon="7.180930000"><ele></ele><time>2013-8-8T5:27:1Z</time></trkpt>
<trkpt lat="46.202090000" lon="7.180870000"><ele></ele><time>2013-8-8T5:27:4Z</time></trkpt>
<trkpt lat="46.202180000" lon="7.180860000"><ele></ele><time>2013-8-8T5:27:7Z</time></trkpt>
<trkpt lat="46.202370000" lon="7.180870000"><ele></ele><time>2013-8-8T5:27:10Z</time></trkpt>
<trkpt lat="46.202420000" lon="7.180870000"><ele></ele><time>2013-8-8T5:27:13Z</time></trkpt>
<trkpt lat="46.202750000" lon="7.180850000"><ele></ele><time>2013-8-8T5:27:16Z</time></trkpt>
<trkpt lat="46.202980000" lon="7.180830000"><ele></ele><time>2013-8-8T5:27:19Z</time></trkpt>
<trkpt lat="46.203330000" lon="7.180790000"><ele></ele><time>2013-8-8T5:27:22Z</time></trkpt>
<trkpt lat="46.203680000" lon="7.180830000"><ele></ele><time>2013-8-8T5:27:25Z</time></trkpt>
<trkpt lat="46.203870000" lon="7.180880000"><ele></ele><time>2013-8-8T5:27:28Z</time></trkpt>
<trkpt lat="46.203920000" lon="7.180880000"><ele></ele><time>2013-8-8T5:27:31Z</time></trkpt>
<trkpt lat="46.203960000" lon="7.180880000"><ele></ele><time>2013-8-8T5:27:34Z</time></trkpt>
<trkpt lat="46.204100000" lon="7.180850000"><ele></ele><time>2013-8-8T5:27:37Z</time></trkpt>
<trkpt lat="46.204240000" lon="7.180810000"><ele></ele><time>2013-8-8T5:27:40Z</time></trkpt>
<trkpt lat="46.204320000" lon="7.180760000"><ele></ele><time>2013-8-8T5:27:43Z</time></trkpt>
<trkpt lat="46.204390000" lon="7.180710000"><ele></ele><time>2013-8-8T5:27:46Z</time></trkpt>
<trkpt lat="46.204420000" lon="7.180680000"><ele></ele><time>2013-8-8T5:27:49Z</time></trkpt>
<trkpt lat="46.204450000" lon="7.180650000"><ele></ele><time>2013-8-8T5:27:52Z</time></trkpt>
<trkpt lat="46.204490000" lon="7.180630000"><ele></ele><time>2013-8-8T5:27:55Z</time></trkpt>
<trkpt lat="46.204520000" lon="7.180600000"><ele></ele><time>2013-8-8T5:27:58Z</time></trkpt>
<trkpt lat="46.204610000" lon="7.180550000"><ele></ele><time>2013-8-8T5:28:1Z</time></trkpt>
<trkpt lat="46.204630000" lon="7.180540000"><ele></ele><time>2013-8-8T5:28:4Z</time></trkpt>
<trkpt lat="46.204660000" lon="7.180520000"><ele></ele><time>2013-8-8T5:28:7Z</time></trkpt>
<trkpt lat="46.204690000" lon="7.180520000"><ele></ele><time>2013-8-8T5:28:10Z</time></trkpt>
<trkpt lat="46.204730000" lon="7.180510000"><ele></ele><time>2013-8-8T5:28:13Z</time></trkpt>
<trkpt lat="46.204790000" lon="7.180510000"><ele></ele><time>2013-8-8T5:28:16Z</time></trkpt>
<trkpt lat="46.204820000" lon="7.180520000"><ele></ele><time>2013-8-8T5:28:19Z</time></trkpt>
<trkpt lat="46.204850000" lon="7.180540000"><ele></ele><time>2013-8-8T5:28:22Z</time></trkpt>
<trkpt lat="46.204880000" lon="7.180540000"><ele></ele><time>2013-8-8T5:28:25Z</time></trkpt>
<trkpt lat="46.204930000" lon="7.180560000"><ele></ele><time>2013-8-8T5:28:28Z</time></trkpt>
<trkpt lat="46.204960000" lon="7.180570000"><ele></ele><time>2013-8-8T5:28:31Z</time></trkpt>
<trkpt lat="46.204990000" lon="7.180590000"><ele></ele><time>2013-8-8T5:28:34Z</time></trkpt>
<trkpt lat="46.205020000" lon="7.180600000"><ele></ele><time>2013-8-8T5:28:37Z</time></trkpt>
<trkpt lat="46.205050000" lon="7.180610000"><ele></ele><time>2013-8-8T5:28:40Z</time></trkpt>
<trkpt lat="46.205140000" lon="7.180660000"><ele></ele><time>2013-8-8T5:28:43Z</time></trkpt>
<trkpt lat="46.205170000" lon="7.180680000"><ele></ele><time>2013-8-8T5:28:46Z</time></trkpt>
<trkpt lat="46.205380000" lon="7.180880000"><ele></ele><time>2013-8-8T5:28:49Z</time></trkpt>
<trkpt lat="46.205490000" lon="7.180970000"><ele></ele><time>2013-8-8T5:28:52Z</time></trkpt>
<trkpt lat="46.205600000" lon="7.181010000"><ele></ele><time>2013-8-8T5:28:55Z</time></trkpt>
<trkpt lat="46.205640000" lon="7.181020000"><ele></ele><time>2013-8-8T5:28:58Z</time></trkpt>
<trkpt lat="46.205810000" lon="7.181010000"><ele></ele><time>2013-8-8T5:29:1Z</time></trkpt>
<trkpt lat="46.205830000" lon="7.181020000"><ele></ele><time>2013-8-8T5:29:4Z</time></trkpt>
<trkpt lat="46.205860000" lon="7.181020000"><ele></ele><time>2013-8-8T5:29:7Z</time></trkpt>
<trkpt lat="46.205880000" lon="7.181030000"><ele></ele><time>2013-8-8T5:29:10Z</time></trkpt>
<trkpt lat="46.205900000" lon="7.181040000"><ele></ele><time>2013-8-8T5:29:13Z</time></trkpt>
<trkpt lat="46.205930000" lon="7.181050000"><ele></ele><time>2013-8-8T5:29:16Z</time></trkpt>
<trkpt lat="46.205950000" lon="7.181040000"><ele></ele><time>2013-8-8T5:29:19Z</time></trkpt>
<trkpt lat="46.205970000" lon="7.181030000"><ele></ele><time>2013-8-8T5:29:22Z</time></trkpt>
<trkpt lat="46.206000000" lon="7.181030000"><ele></ele><time>2013-8-8T5:29:25Z</time></trkpt>
<trkpt lat="46.206010000" lon="7.181030000"><ele></ele><time>2013-8-8T5:29:28Z</time></trkpt>
<trkpt lat="46.206030000" lon="7.181030000"><ele></ele><time>2013-8-8T5:29:31Z</time></trkpt>
<trkpt lat="46.206040000" lon="7.181010000"><ele></ele><time>2013-8-8T5:29:34Z</time></trkpt>
<trkpt lat="46.206060000" lon="7.180950000"><ele></ele><time>2013-8-8T5:29:37Z</time></trkpt>
<trkpt lat="46.206060000" lon="7.180930000"><ele></ele><time>2013-8-8T5:29:40Z</time></trkpt>
<trkpt lat="46.206060000" lon="7.180910000"><ele></ele><time>2013-8-8T5:29:43Z</time></trkpt>
<trkpt lat="46.206070000" lon="7.180890000"><ele></ele><time>2013-8-8T5:29:46Z</time></trkpt>
<trkpt lat="46.206070000" lon="7.180870000"><ele></ele><time>2013-8-8T5:29:49Z</time></trkpt>
<trkpt lat="46.206070000" lon="7.180770000"><ele></ele><time>2013-8-8T5:29:52Z</time></trkpt>
<trkpt lat="46.206030000" lon="7.180650000"><ele></ele><time>2013-8-8T5:29:55Z</time></trkpt>
<trkpt lat="46.206010000" lon="7.180580000"><ele></ele><time>2013-8-8T5:29:58Z</time></trkpt>
<trkpt lat="46.206010000" lon="7.180550000"><ele></ele><time>2013-8-8T5:30:1Z</time></trkpt>
<trkpt lat="46.206000000" lon="7.180520000"><ele></ele><time>2013-8-8T5:30:4Z</time></trkpt>
<trkpt lat="46.205980000" lon="7.180490000"><ele></ele><time>2013-8-8T5:30:7Z</time></trkpt>
<trkpt lat="46.205970000" lon="7.180460000"><ele></ele><time>2013-8-8T5:30:10Z</time></trkpt>
<trkpt lat="46.205960000" lon="7.180430000"><ele></ele><time>2013-8-8T5:30:13Z</time></trkpt>
<trkpt lat="46.205910000" lon="7.180310000"><ele></ele><time>2013-8-8T5:30:16Z</time></trkpt>
<trkpt lat="46.205910000" lon="7.180280000"><ele></ele><time>2013-8-8T5:30:19Z</time></trkpt>
<trkpt lat="46.205890000" lon="7.180250000"><ele></ele><time>2013-8-8T5:30:22Z</time></trkpt>
<trkpt lat="46.205880000" lon="7.180220000"><ele></ele><time>2013-8-8T5:30:25Z</time></trkpt>
<trkpt lat="46.205880000" lon="7.180190000"><ele></ele><time>2013-8-8T5:30:28Z</time></trkpt>
<trkpt lat="46.205840000" lon="7.180070000"><ele></ele><time>2013-8-8T5:30:31Z</time></trkpt>
<trkpt lat="46.205820000" lon="7.180040000"><ele></ele><time>2013-8-8T5:30:34Z</time></trkpt>
<trkpt lat="46.205810000" lon="7.180000000"><ele></ele><time>2013-8-8T5:30:37Z</time></trkpt>
<trkpt lat="46.205800000" lon="7.179970000"><ele></ele><time>2013-8-8T5:30:40Z</time></trkpt>
<trkpt lat="46.205790000" lon="7.179940000"><ele></ele><time>2013-8-8T5:30:43Z</time></trkpt>
<trkpt lat="46.205780000" lon="7.179920000"><ele></ele><time>2013-8-8T5:30:46Z</time></trkpt>
<trkpt lat="46.205760000" lon="7.179860000"><ele></ele><time>2013-8-8T5:30:49Z</time></trkpt>
<trkpt lat="46.205740000" lon="7.179810000"><ele></ele><time>2013-8-8T5:30:52Z</time></trkpt>
<trkpt lat="46.205730000" lon="7.179780000"><ele></ele><time>2013-8-8T5:30:55Z</time></trkpt>
<trkpt lat="46.205720000" lon="7.179750000"><ele></ele><time>2013-8-8T5:30:58Z</time></trkpt>
<trkpt lat="46.205700000" lon="7.179720000"><ele></ele><time>2013-8-8T5:31:1Z</time></trkpt>
<trkpt lat="46.205690000" lon="7.179700000"><ele></ele><time>2013-8-8T5:31:4Z</time></trkpt>
<trkpt lat="46.205680000" lon="7.179670000"><ele></ele><time>2013-8-8T5:31:7Z</time></trkpt>
<trkpt lat="46.205660000" lon="7.179610000"><ele></ele><time>2013-8-8T5:31:10Z</time></trkpt>
<trkpt lat="46.205650000" lon="7.179580000"><ele></ele><time>2013-8-8T5:31:13Z</time></trkpt>
<trkpt lat="46.205640000" lon="7.179550000"><ele></ele><time>2013-8-8T5:31:16Z</time></trkpt>
<trkpt lat="46.205620000" lon="7.179530000"><ele></ele><time>2013-8-8T5:31:19Z</time></trkpt>
<trkpt lat="46.205610000" lon="7.179500000"><ele></ele><time>2013-8-8T5:31:22Z</time></trkpt>
<trkpt lat="46.205600000" lon="7.179470000"><ele></ele><time>2013-8-8T5:31:25Z</time></trkpt>
<trkpt lat="46.205560000" lon="7.179400000"><ele></ele><time>2013-8-8T5:31:28Z</time></trkpt>
<trkpt lat="46.205550000" lon="7.179380000"><ele></ele><time>2013-8-8T5:31:31Z</time></trkpt>
<trkpt lat="46.205530000" lon="7.179350000"><ele></ele><time>2013-8-8T5:31:34Z</time></trkpt>
<trkpt lat="46.205520000" lon="7.179330000"><ele></ele><time>2013-8-8T5:31:37Z</time></trkpt>
<trkpt lat="46.205500000" lon="7.179310000"><ele></ele><time>2013-8-8T5:31:40Z</time></trkpt>
<trkpt lat="46.205440000" lon="7.179240000"><ele></ele><time>2013-8-8T5:31:43Z</time></trkpt>
<trkpt lat="46.205420000" lon="7.179220000"><ele></ele><time>2013-8-8T5:31:46Z</time></trkpt>
<trkpt lat="46.205410000" lon="7.179200000"><ele></ele><time>2013-8-8T5:31:49Z</time></trkpt>
<trkpt lat="46.205390000" lon="7.179180000"><ele></ele><time>2013-8-8T5:31:52Z</time></trkpt>
<trkpt lat="46.205370000" lon="7.179160000"><ele></ele><time>2013-8-8T5:31:55Z</time></trkpt>
<trkpt lat="46.205320000" lon="7.179090000"><ele></ele><time>2013-8-8T5:31:58Z</time></trkpt>
<trkpt lat="46.205300000" lon="7.179070000"><ele></ele><time>2013-8-8T5:32:1Z</time></trkpt>
<trkpt lat="46.205280000" lon="7.179060000"><ele></ele><time>2013-8-8T5:32:4Z</time></trkpt>
<trkpt lat="46.205270000" lon="7.179040000"><ele></ele><time>2013-8-8T5:32:7Z</time></trkpt>
<trkpt lat="46.205250000" lon="7.179030000"><ele></ele><time>2013-8-8T5:32:10Z</time></trkpt>
<trkpt lat="46.205220000" lon="7.179020000"><ele></ele><time>2013-8-8T5:32:13Z</time></trkpt>
<trkpt lat="46.205180000" lon="7.179010000"><ele></ele><time>2013-8-8T5:32:16Z</time></trkpt>
<trkpt lat="46.205170000" lon="7.179000000"><ele></ele><time>2013-8-8T5:32:19Z</time></trkpt>
<trkpt lat="46.205140000" lon="7.179000000"><ele></ele><time>2013-8-8T5:32:22Z</time></trkpt>
<trkpt lat="46.205120000" lon="7.179010000"><ele></ele><time>2013-8-8T5:32:25Z</time></trkpt>
<trkpt lat="46.205070000" lon="7.179000000"><ele></ele><time>2013-8-8T5:32:28Z</time></trkpt>
<trkpt lat="46.205050000" lon="7.179000000"><ele></ele><time>2013-8-8T5:32:31Z</time></trkpt>
<trkpt lat="46.205030000" lon="7.179010000"><ele></ele><time>2013-8-8T5:32:34Z</time></trkpt>
<trkpt lat="46.205010000" lon="7.179020000"><ele></ele><time>2013-8-8T5:32:37Z</time></trkpt>
<trkpt lat="46.204990000" lon="7.179010000"><ele></ele><time>2013-8-8T5:32:40Z</time></trkpt>
<trkpt lat="46.204970000" lon="7.179020000"><ele></ele><time>2013-8-8T5:32:43Z</time></trkpt>
<trkpt lat="46.204960000" lon="7.179020000"><ele></ele><time>2013-8-8T5:32:46Z</time></trkpt>
<trkpt lat="46.204920000" lon="7.179020000"><ele></ele><time>2013-8-8T5:32:49Z</time></trkpt>
<trkpt lat="46.204900000" lon="7.179030000"><ele></ele><time>2013-8-8T5:32:52Z</time></trkpt>
<trkpt lat="46.204880000" lon="7.179040000"><ele></ele><time>2013-8-8T5:32:55Z</time></trkpt>
<trkpt lat="46.204860000" lon="7.179040000"><ele></ele><time>2013-8-8T5:32:58Z</time></trkpt>
<trkpt lat="46.204840000" lon="7.179050000"><ele></ele><time>2013-8-8T5:33:1Z</time></trkpt>
<trkpt lat="46.204780000" lon="7.179050000"><ele></ele><time>2013-8-8T5:33:4Z</time></trkpt>
<trkpt lat="46.204760000" lon="7.179060000"><ele></ele><time>2013-8-8T5:33:7Z</time></trkpt>
<trkpt lat="46.204740000" lon="7.179060000"><ele></ele><time>2013-8-8T5:33:10Z</time></trkpt>
<trkpt lat="46.204720000" lon="7.179060000"><ele></ele><time>2013-8-8T5:33:13Z</time></trkpt>
<trkpt lat="46.204670000" lon="7.179050000"><ele></ele><time>2013-8-8T5:33:16Z</time></trkpt>
<trkpt lat="46.204640000" lon="7.179040000"><ele></ele><time>2013-8-8T5:33:19Z</time></trkpt>
<trkpt lat="46.204620000" lon="7.179040000"><ele></ele><time>2013-8-8T5:33:22Z</time></trkpt>
<trkpt lat="46.204600000" lon="7.179040000"><ele></ele><time>2013-8-8T5:33:25Z</time></trkpt>
<trkpt lat="46.204580000" lon="7.179030000"><ele></ele><time>2013-8-8T5:33:28Z</time></trkpt>
<trkpt lat="46.204560000" lon="7.179030000"><ele></ele><time>2013-8-8T5:33:31Z</time></trkpt>
<trkpt lat="46.204510000" lon="7.179010000"><ele></ele><time>2013-8-8T5:33:34Z</time></trkpt>
<trkpt lat="46.204490000" lon="7.179000000"><ele></ele><time>2013-8-8T5:33:37Z</time></trkpt>
<trkpt lat="46.204480000" lon="7.179000000"><ele></ele><time>2013-8-8T5:33:40Z</time></trkpt>
<trkpt lat="46.204460000" lon="7.178990000"><ele></ele><time>2013-8-8T5:33:43Z</time></trkpt>
<trkpt lat="46.204440000" lon="7.178990000"><ele></ele><time>2013-8-8T5:33:46Z</time></trkpt>
<trkpt lat="46.204420000" lon="7.178980000"><ele></ele><time>2013-8-8T5:33:49Z</time></trkpt>
<trkpt lat="46.204380000" lon="7.178960000"><ele></ele><time>2013-8-8T5:33:52Z</time></trkpt>
<trkpt lat="46.204360000" lon="7.178930000"><ele></ele><time>2013-8-8T5:33:55Z</time></trkpt>
<trkpt lat="46.204320000" lon="7.178930000"><ele></ele><time>2013-8-8T5:33:58Z</time></trkpt>
<trkpt lat="46.204300000" lon="7.178920000"><ele></ele><time>2013-8-8T5:34:1Z</time></trkpt>
<trkpt lat="46.204280000" lon="7.178930000"><ele></ele><time>2013-8-8T5:34:4Z</time></trkpt>
<trkpt lat="46.204270000" lon="7.178930000"><ele></ele><time>2013-8-8T5:34:7Z</time></trkpt>
<trkpt lat="46.204190000" lon="7.178910000"><ele></ele><time>2013-8-8T5:34:10Z</time></trkpt>
<trkpt lat="46.204160000" lon="7.178900000"><ele></ele><time>2013-8-8T5:34:13Z</time></trkpt>
<trkpt lat="46.204150000" lon="7.178900000"><ele></ele><time>2013-8-8T5:34:16Z</time></trkpt>
<trkpt lat="46.204120000" lon="7.178890000"><ele></ele><time>2013-8-8T5:34:19Z</time></trkpt>
<trkpt lat="46.204110000" lon="7.178880000"><ele></ele><time>2013-8-8T5:34:22Z</time></trkpt>
<trkpt lat="46.204080000" lon="7.178870000"><ele></ele><time>2013-8-8T5:34:25Z</time></trkpt>
<trkpt lat="46.204020000" lon="7.178870000"><ele></ele><time>2013-8-8T5:34:28Z</time></trkpt>
<trkpt lat="46.204000000" lon="7.178860000"><ele></ele><time>2013-8-8T5:34:31Z</time></trkpt>
<trkpt lat="46.203980000" lon="7.178850000"><ele></ele><time>2013-8-8T5:34:34Z</time></trkpt>
<trkpt lat="46.203960000" lon="7.178850000"><ele></ele><time>2013-8-8T5:34:37Z</time></trkpt>
<trkpt lat="46.203940000" lon="7.178840000"><ele></ele><time>2013-8-8T5:34:40Z</time></trkpt>
<trkpt lat="46.203880000" lon="7.178850000"><ele></ele><time>2013-8-8T5:34:43Z</time></trkpt>
<trkpt lat="46.203860000" lon="7.178850000"><ele></ele><time>2013-8-8T5:34:46Z</time></trkpt>
<trkpt lat="46.203830000" lon="7.178850000"><ele></ele><time>2013-8-8T5:34:49Z</time></trkpt>
<trkpt lat="46.203810000" lon="7.178850000"><ele></ele><time>2013-8-8T5:34:52Z</time></trkpt>
<trkpt lat="46.203790000" lon="7.178860000"><ele></ele><time>2013-8-8T5:34:55Z</time></trkpt>
<trkpt lat="46.203740000" lon="7.178820000"><ele></ele><time>2013-8-8T5:34:58Z</time></trkpt>
<trkpt lat="46.203720000" lon="7.178820000"><ele></ele><time>2013-8-8T5:35:1Z</time></trkpt>
<trkpt lat="46.203700000" lon="7.178820000"><ele></ele><time>2013-8-8T5:35:4Z</time></trkpt>
<trkpt lat="46.203680000" lon="7.178810000"><ele></ele><time>2013-8-8T5:35:7Z</time></trkpt>
<trkpt lat="46.203660000" lon="7.178810000"><ele></ele><time>2013-8-8T5:35:10Z</time></trkpt>
<trkpt lat="46.203640000" lon="7.178810000"><ele></ele><time>2013-8-8T5:35:13Z</time></trkpt>
<trkpt lat="46.203580000" lon="7.178800000"><ele></ele><time>2013-8-8T5:35:16Z</time></trkpt>
<trkpt lat="46.203560000" lon="7.178790000"><ele></ele><time>2013-8-8T5:35:19Z</time></trkpt>
<trkpt lat="46.203540000" lon="7.178790000"><ele></ele><time>2013-8-8T5:35:22Z</time></trkpt>
<trkpt lat="46.203520000" lon="7.178780000"><ele></ele><time>2013-8-8T5:35:25Z</time></trkpt>
<trkpt lat="46.203500000" lon="7.178770000"><ele></ele><time>2013-8-8T5:35:28Z</time></trkpt>
<trkpt lat="46.203450000" lon="7.178750000"><ele></ele><time>2013-8-8T5:35:31Z</time></trkpt>
<trkpt lat="46.203430000" lon="7.178750000"><ele></ele><time>2013-8-8T5:35:34Z</time></trkpt>
<trkpt lat="46.203410000" lon="7.178750000"><ele></ele><time>2013-8-8T5:35:37Z</time></trkpt>
<trkpt lat="46.203400000" lon="7.178750000"><ele></ele><time>2013-8-8T5:35:40Z</time></trkpt>
<trkpt lat="46.203380000" lon="7.178750000"><ele></ele><time>2013-8-8T5:35:43Z</time></trkpt>
<trkpt lat="46.203320000" lon="7.178750000"><ele></ele><time>2013-8-8T5:35:46Z</time></trkpt>
<trkpt lat="46.203300000" lon="7.178760000"><ele></ele><time>2013-8-8T5:35:49Z</time></trkpt>
<trkpt lat="46.203280000" lon="7.178760000"><ele></ele><time>2013-8-8T5:35:52Z</time></trkpt>
<trkpt lat="46.203260000" lon="7.178770000"><ele></ele><time>2013-8-8T5:35:55Z</time></trkpt>
<trkpt lat="46.203240000" lon="7.178770000"><ele></ele><time>2013-8-8T5:35:58Z</time></trkpt>
<trkpt lat="46.203220000" lon="7.178770000"><ele></ele><time>2013-8-8T5:36:1Z</time></trkpt>
<trkpt lat="46.203210000" lon="7.178780000"><ele></ele><time>2013-8-8T5:36:4Z</time></trkpt>
<trkpt lat="46.203190000" lon="7.178790000"><ele></ele><time>2013-8-8T5:36:7Z</time></trkpt>
<trkpt lat="46.203140000" lon="7.178810000"><ele></ele><time>2013-8-8T5:36:10Z</time></trkpt>
<trkpt lat="46.203120000" lon="7.178820000"><ele></ele><time>2013-8-8T5:36:13Z</time></trkpt>
<trkpt lat="46.203100000" lon="7.178820000"><ele></ele><time>2013-8-8T5:36:16Z</time></trkpt>
<trkpt lat="46.203080000" lon="7.178830000"><ele></ele><time>2013-8-8T5:36:19Z</time></trkpt>
<trkpt lat="46.203060000" lon="7.178840000"><ele></ele><time>2013-8-8T5:36:22Z</time></trkpt>
<trkpt lat="46.203010000" lon="7.178860000"><ele></ele><time>2013-8-8T5:36:25Z</time></trkpt>
<trkpt lat="46.202940000" lon="7.178860000"><ele></ele><time>2013-8-8T5:36:28Z</time></trkpt>
<trkpt lat="46.202920000" lon="7.178860000"><ele></ele><time>2013-8-8T5:36:31Z</time></trkpt>
<trkpt lat="46.202910000" lon="7.178850000"><ele></ele><time>2013-8-8T5:36:34Z</time></trkpt>
<trkpt lat="46.202890000" lon="7.178850000"><ele></ele><time>2013-8-8T5:36:37Z</time></trkpt>
<trkpt lat="46.202870000" lon="7.178850000"><ele></ele><time>2013-8-8T5:36:40Z</time></trkpt>
<trkpt lat="46.202790000" lon="7.178830000"><ele></ele><time>2013-8-8T5:36:43Z</time></trkpt>
<trkpt lat="46.202730000" lon="7.178830000"><ele></ele><time>2013-8-8T5:36:46Z</time></trkpt>
<trkpt lat="46.202660000" lon="7.178800000"><ele></ele><time>2013-8-8T5:36:49Z</time></trkpt>
<trkpt lat="46.202430000" lon="7.178720000"><ele></ele><time>2013-8-8T5:36:52Z</time></trkpt>
<trkpt lat="46.202260000" lon="7.178670000"><ele></ele><time>2013-8-8T5:36:55Z</time></trkpt>
<trkpt lat="46.202220000" lon="7.178650000"><ele></ele><time>2013-8-8T5:36:58Z</time></trkpt>
<trkpt lat="46.202180000" lon="7.178630000"><ele></ele><time>2013-8-8T5:37:1Z</time></trkpt>
<trkpt lat="46.202130000" lon="7.178610000"><ele></ele><time>2013-8-8T5:37:4Z</time></trkpt>
<trkpt lat="46.202090000" lon="7.178580000"><ele></ele><time>2013-8-8T5:37:7Z</time></trkpt>
<trkpt lat="46.202040000" lon="7.178560000"><ele></ele><time>2013-8-8T5:37:10Z</time></trkpt>
<trkpt lat="46.202000000" lon="7.178530000"><ele></ele><time>2013-8-8T5:37:13Z</time></trkpt>
<trkpt lat="46.201870000" lon="7.178430000"><ele></ele><time>2013-8-8T5:37:16Z</time></trkpt>
<trkpt lat="46.201830000" lon="7.178390000"><ele></ele><time>2013-8-8T5:37:19Z</time></trkpt>
<trkpt lat="46.201790000" lon="7.178350000"><ele></ele><time>2013-8-8T5:37:22Z</time></trkpt>
<trkpt lat="46.201730000" lon="7.178260000"><ele></ele><time>2013-8-8T5:37:25Z</time></trkpt>
<trkpt lat="46.201660000" lon="7.178170000"><ele></ele><time>2013-8-8T5:37:28Z</time></trkpt>
<trkpt lat="46.201580000" lon="7.178080000"><ele></ele><time>2013-8-8T5:37:31Z</time></trkpt>
<trkpt lat="46.201500000" lon="7.177990000"><ele></ele><time>2013-8-8T5:37:34Z</time></trkpt>
<trkpt lat="46.201420000" lon="7.177890000"><ele></ele><time>2013-8-8T5:37:37Z</time></trkpt>
<trkpt lat="46.201380000" lon="7.177830000"><ele></ele><time>2013-8-8T5:37:40Z</time></trkpt>
<trkpt lat="46.201290000" lon="7.177720000"><ele></ele><time>2013-8-8T5:37:43Z</time></trkpt>
<trkpt lat="46.201250000" lon="7.177660000"><ele></ele><time>2013-8-8T5:37:46Z</time></trkpt>
<trkpt lat="46.201210000" lon="7.177600000"><ele></ele><time>2013-8-8T5:37:49Z</time></trkpt>
<trkpt lat="46.201160000" lon="7.177540000"><ele></ele><time>2013-8-8T5:37:52Z</time></trkpt>
<trkpt lat="46.201110000" lon="7.177480000"><ele></ele><time>2013-8-8T5:37:55Z</time></trkpt>
<trkpt lat="46.201020000" lon="7.177340000"><ele></ele><time>2013-8-8T5:37:58Z</time></trkpt>
<trkpt lat="46.200970000" lon="7.177270000"><ele></ele><time>2013-8-8T5:38:1Z</time></trkpt>
<trkpt lat="46.200940000" lon="7.177190000"><ele></ele><time>2013-8-8T5:38:4Z</time></trkpt>
<trkpt lat="46.200910000" lon="7.177100000"><ele></ele><time>2013-8-8T5:38:7Z</time></trkpt>
<trkpt lat="46.200890000" lon="7.177010000"><ele></ele><time>2013-8-8T5:38:10Z</time></trkpt>
<trkpt lat="46.200870000" lon="7.176920000"><ele></ele><time>2013-8-8T5:38:13Z</time></trkpt>
<trkpt lat="46.200870000" lon="7.176830000"><ele></ele><time>2013-8-8T5:38:16Z</time></trkpt>
<trkpt lat="46.200850000" lon="7.176480000"><ele></ele><time>2013-8-8T5:38:19Z</time></trkpt>
<trkpt lat="46.200840000" lon="7.176320000"><ele></ele><time>2013-8-8T5:38:22Z</time></trkpt>
<trkpt lat="46.200870000" lon="7.176090000"><ele></ele><time>2013-8-8T5:38:25Z</time></trkpt>
<trkpt lat="46.200910000" lon="7.175880000"><ele></ele><time>2013-8-8T5:38:28Z</time></trkpt>
<trkpt lat="46.200970000" lon="7.175600000"><ele></ele><time>2013-8-8T5:38:31Z</time></trkpt>
<trkpt lat="46.200990000" lon="7.175530000"><ele></ele><time>2013-8-8T5:38:34Z</time></trkpt>
<trkpt lat="46.201010000" lon="7.175460000"><ele></ele><time>2013-8-8T5:38:37Z</time></trkpt>
<trkpt lat="46.201030000" lon="7.175400000"><ele></ele><time>2013-8-8T5:38:40Z</time></trkpt>
<trkpt lat="46.201070000" lon="7.175350000"><ele></ele><time>2013-8-8T5:38:43Z</time></trkpt>
<trkpt lat="46.201100000" lon="7.175290000"><ele></ele><time>2013-8-8T5:38:46Z</time></trkpt>
<trkpt lat="46.201160000" lon="7.175170000"><ele></ele><time>2013-8-8T5:38:49Z</time></trkpt>
<trkpt lat="46.201220000" lon="7.175050000"><ele></ele><time>2013-8-8T5:38:52Z</time></trkpt>
<trkpt lat="46.201280000" lon="7.174930000"><ele></ele><time>2013-8-8T5:38:55Z</time></trkpt>
<trkpt lat="46.201400000" lon="7.174700000"><ele></ele><time>2013-8-8T5:38:58Z</time></trkpt>
<trkpt lat="46.201420000" lon="7.174630000"><ele></ele><time>2013-8-8T5:39:1Z</time></trkpt>
<trkpt lat="46.201450000" lon="7.174570000"><ele></ele><time>2013-8-8T5:39:4Z</time></trkpt>
<trkpt lat="46.201470000" lon="7.174500000"><ele></ele><time>2013-8-8T5:39:7Z</time></trkpt>
<trkpt lat="46.201490000" lon="7.174430000"><ele></ele><time>2013-8-8T5:39:10Z</time></trkpt>
<trkpt lat="46.201600000" lon="7.173940000"><ele></ele><time>2013-8-8T5:39:13Z</time></trkpt>
<trkpt lat="46.201670000" lon="7.173690000"><ele></ele><time>2013-8-8T5:39:16Z</time></trkpt>
<trkpt lat="46.201710000" lon="7.173570000"><ele></ele><time>2013-8-8T5:39:19Z</time></trkpt>
<trkpt lat="46.201730000" lon="7.173510000"><ele></ele><time>2013-8-8T5:39:22Z</time></trkpt>
<trkpt lat="46.201750000" lon="7.173460000"><ele></ele><time>2013-8-8T5:39:25Z</time></trkpt>
<trkpt lat="46.201770000" lon="7.173410000"><ele></ele><time>2013-8-8T5:39:28Z</time></trkpt>
<trkpt lat="46.201790000" lon="7.173360000"><ele></ele><time>2013-8-8T5:39:31Z</time></trkpt>
<trkpt lat="46.201820000" lon="7.173310000"><ele></ele><time>2013-8-8T5:39:34Z</time></trkpt>
<trkpt lat="46.201910000" lon="7.173170000"><ele></ele><time>2013-8-8T5:39:37Z</time></trkpt>
<trkpt lat="46.201990000" lon="7.173030000"><ele></ele><time>2013-8-8T5:39:40Z</time></trkpt>
<trkpt lat="46.202080000" lon="7.172880000"><ele></ele><time>2013-8-8T5:39:43Z</time></trkpt>
<trkpt lat="46.202250000" lon="7.172530000"><ele></ele><time>2013-8-8T5:39:46Z</time></trkpt>
<trkpt lat="46.202280000" lon="7.172460000"><ele></ele><time>2013-8-8T5:39:49Z</time></trkpt>
<trkpt lat="46.202360000" lon="7.172320000"><ele></ele><time>2013-8-8T5:39:52Z</time></trkpt>
<trkpt lat="46.202400000" lon="7.172240000"><ele></ele><time>2013-8-8T5:39:55Z</time></trkpt>
<trkpt lat="46.202440000" lon="7.172170000"><ele></ele><time>2013-8-8T5:39:58Z</time></trkpt>
<trkpt lat="46.202480000" lon="7.172090000"><ele></ele><time>2013-8-8T5:40:1Z</time></trkpt>
<trkpt lat="46.202530000" lon="7.172020000"><ele></ele><time>2013-8-8T5:40:4Z</time></trkpt>
<trkpt lat="46.202580000" lon="7.171970000"><ele></ele><time>2013-8-8T5:40:7Z</time></trkpt>
<trkpt lat="46.202630000" lon="7.171910000"><ele></ele><time>2013-8-8T5:40:10Z</time></trkpt>
<trkpt lat="46.202680000" lon="7.171860000"><ele></ele><time>2013-8-8T5:40:13Z</time></trkpt>
<trkpt lat="46.202740000" lon="7.171800000"><ele></ele><time>2013-8-8T5:40:16Z</time></trkpt>
<trkpt lat="46.202790000" lon="7.171760000"><ele></ele><time>2013-8-8T5:40:19Z</time></trkpt>
<trkpt lat="46.203100000" lon="7.171460000"><ele></ele><time>2013-8-8T5:40:22Z</time></trkpt>
<trkpt lat="46.203400000" lon="7.171170000"><ele></ele><time>2013-8-8T5:40:25Z</time></trkpt>
<trkpt lat="46.203450000" lon="7.171120000"><ele></ele><time>2013-8-8T5:40:28Z</time></trkpt>
<trkpt lat="46.203610000" lon="7.170920000"><ele></ele><time>2013-8-8T5:40:31Z</time></trkpt>
<trkpt lat="46.203640000" lon="7.170870000"><ele></ele><time>2013-8-8T5:40:34Z</time></trkpt>
<trkpt lat="46.203670000" lon="7.170810000"><ele></ele><time>2013-8-8T5:40:37Z</time></trkpt>
<trkpt lat="46.203710000" lon="7.170750000"><ele></ele><time>2013-8-8T5:40:40Z</time></trkpt>
<trkpt lat="46.203740000" lon="7.170690000"><ele></ele><time>2013-8-8T5:40:43Z</time></trkpt>
<trkpt lat="46.203840000" lon="7.170430000"><ele></ele><time>2013-8-8T5:40:46Z</time></trkpt>
<trkpt lat="46.203870000" lon="7.170360000"><ele></ele><time>2013-8-8T5:40:49Z</time></trkpt>
<trkpt lat="46.203900000" lon="7.170050000"><ele></ele><time>2013-8-8T5:40:52Z</time></trkpt>
<trkpt lat="46.203900000" lon="7.169970000"><ele></ele><time>2013-8-8T5:40:55Z</time></trkpt>
<trkpt lat="46.203940000" lon="7.169550000"><ele></ele><time>2013-8-8T5:40:58Z</time></trkpt>
<trkpt lat="46.203950000" lon="7.169460000"><ele></ele><time>2013-8-8T5:41:1Z</time></trkpt>
<trkpt lat="46.203950000" lon="7.169200000"><ele></ele><time>2013-8-8T5:41:4Z</time></trkpt>
<trkpt lat="46.203940000" lon="7.169120000"><ele></ele><time>2013-8-8T5:41:7Z</time></trkpt>
<trkpt lat="46.203910000" lon="7.168800000"><ele></ele><time>2013-8-8T5:41:10Z</time></trkpt>
<trkpt lat="46.203920000" lon="7.168720000"><ele></ele><time>2013-8-8T5:41:13Z</time></trkpt>
<trkpt lat="46.203960000" lon="7.168630000"><ele></ele><time>2013-8-8T5:41:16Z</time></trkpt>
<trkpt lat="46.204020000" lon="7.168550000"><ele></ele><time>2013-8-8T5:41:19Z</time></trkpt>
<trkpt lat="46.204080000" lon="7.168470000"><ele></ele><time>2013-8-8T5:41:22Z</time></trkpt>
<trkpt lat="46.204140000" lon="7.168390000"><ele></ele><time>2013-8-8T5:41:25Z</time></trkpt>
<trkpt lat="46.204200000" lon="7.168310000"><ele></ele><time>2013-8-8T5:41:28Z</time></trkpt>
<trkpt lat="46.204250000" lon="7.168230000"><ele></ele><time>2013-8-8T5:41:31Z</time></trkpt>
<trkpt lat="46.204280000" lon="7.168140000"><ele></ele><time>2013-8-8T5:41:34Z</time></trkpt>
<trkpt lat="46.204300000" lon="7.168060000"><ele></ele><time>2013-8-8T5:41:37Z</time></trkpt>
<trkpt lat="46.204310000" lon="7.167980000"><ele></ele><time>2013-8-8T5:41:40Z</time></trkpt>
<trkpt lat="46.204320000" lon="7.167890000"><ele></ele><time>2013-8-8T5:41:43Z</time></trkpt>
<trkpt lat="46.204350000" lon="7.167590000"><ele></ele><time>2013-8-8T5:41:46Z</time></trkpt>
<trkpt lat="46.204350000" lon="7.167470000"><ele></ele><time>2013-8-8T5:41:49Z</time></trkpt>
<trkpt lat="46.204360000" lon="7.167340000"><ele></ele><time>2013-8-8T5:41:52Z</time></trkpt>
<trkpt lat="46.204370000" lon="7.167210000"><ele></ele><time>2013-8-8T5:41:55Z</time></trkpt>
<trkpt lat="46.204380000" lon="7.167080000"><ele></ele><time>2013-8-8T5:41:58Z</time></trkpt>
<trkpt lat="46.204400000" lon="7.166940000"><ele></ele><time>2013-8-8T5:42:1Z</time></trkpt>
<trkpt lat="46.204430000" lon="7.166800000"><ele></ele><time>2013-8-8T5:42:4Z</time></trkpt>
<trkpt lat="46.204440000" lon="7.166670000"><ele></ele><time>2013-8-8T5:42:7Z</time></trkpt>
<trkpt lat="46.204460000" lon="7.166540000"><ele></ele><time>2013-8-8T5:42:10Z</time></trkpt>
<trkpt lat="46.204470000" lon="7.166420000"><ele></ele><time>2013-8-8T5:42:13Z</time></trkpt>
<trkpt lat="46.204470000" lon="7.166310000"><ele></ele><time>2013-8-8T5:42:16Z</time></trkpt>
<trkpt lat="46.204460000" lon="7.166200000"><ele></ele><time>2013-8-8T5:42:19Z</time></trkpt>
<trkpt lat="46.204420000" lon="7.166090000"><ele></ele><time>2013-8-8T5:42:22Z</time></trkpt>
<trkpt lat="46.204370000" lon="7.166010000"><ele></ele><time>2013-8-8T5:42:25Z</time></trkpt>
<trkpt lat="46.204300000" lon="7.165940000"><ele></ele><time>2013-8-8T5:42:28Z</time></trkpt>
<trkpt lat="46.204240000" lon="7.165880000"><ele></ele><time>2013-8-8T5:42:31Z</time></trkpt>
<trkpt lat="46.204200000" lon="7.165800000"><ele></ele><time>2013-8-8T5:42:34Z</time></trkpt>
<trkpt lat="46.204170000" lon="7.165720000"><ele></ele><time>2013-8-8T5:42:37Z</time></trkpt>
<trkpt lat="46.204160000" lon="7.165650000"><ele></ele><time>2013-8-8T5:42:40Z</time></trkpt>
<trkpt lat="46.204170000" lon="7.165580000"><ele></ele><time>2013-8-8T5:42:43Z</time></trkpt>
<trkpt lat="46.204180000" lon="7.165520000"><ele></ele><time>2013-8-8T5:42:46Z</time></trkpt>
<trkpt lat="46.204200000" lon="7.165450000"><ele></ele><time>2013-8-8T5:42:49Z</time></trkpt>
<trkpt lat="46.204230000" lon="7.165400000"><ele></ele><time>2013-8-8T5:42:52Z</time></trkpt>
<trkpt lat="46.204250000" lon="7.165340000"><ele></ele><time>2013-8-8T5:42:55Z</time></trkpt>
<trkpt lat="46.204250000" lon="7.165300000"><ele></ele><time>2013-8-8T5:42:58Z</time></trkpt>
<trkpt lat="46.204270000" lon="7.165250000"><ele></ele><time>2013-8-8T5:43:1Z</time></trkpt>
<trkpt lat="46.204280000" lon="7.165200000"><ele></ele><time>2013-8-8T5:43:4Z</time></trkpt>
<trkpt lat="46.204300000" lon="7.165170000"><ele></ele><time>2013-8-8T5:43:7Z</time></trkpt>
<trkpt lat="46.204320000" lon="7.165130000"><ele></ele><time>2013-8-8T5:43:10Z</time></trkpt>
<trkpt lat="46.204320000" lon="7.165090000"><ele></ele><time>2013-8-8T5:43:13Z</time></trkpt>
<trkpt lat="46.204320000" lon="7.165030000"><ele></ele><time>2013-8-8T5:43:16Z</time></trkpt>
<trkpt lat="46.204320000" lon="7.164980000"><ele></ele><time>2013-8-8T5:43:19Z</time></trkpt>
<trkpt lat="46.204320000" lon="7.164930000"><ele></ele><time>2013-8-8T5:43:22Z</time></trkpt>
<trkpt lat="46.204320000" lon="7.164880000"><ele></ele><time>2013-8-8T5:43:25Z</time></trkpt>
<trkpt lat="46.204310000" lon="7.164830000"><ele></ele><time>2013-8-8T5:43:28Z</time></trkpt>
<trkpt lat="46.204320000" lon="7.164780000"><ele></ele><time>2013-8-8T5:43:31Z</time></trkpt>
<trkpt lat="46.204330000" lon="7.164730000"><ele></ele><time>2013-8-8T5:43:34Z</time></trkpt>
<trkpt lat="46.204330000" lon="7.164690000"><ele></ele><time>2013-8-8T5:43:37Z</time></trkpt>
<trkpt lat="46.204340000" lon="7.164640000"><ele></ele><time>2013-8-8T5:43:40Z</time></trkpt>
<trkpt lat="46.204350000" lon="7.164600000"><ele></ele><time>2013-8-8T5:43:43Z</time></trkpt>
<trkpt lat="46.204350000" lon="7.164550000"><ele></ele><time>2013-8-8T5:43:46Z</time></trkpt>
<trkpt lat="46.204360000" lon="7.164510000"><ele></ele><time>2013-8-8T5:43:49Z</time></trkpt>
<trkpt lat="46.204370000" lon="7.164460000"><ele></ele><time>2013-8-8T5:43:52Z</time></trkpt>
<trkpt lat="46.204380000" lon="7.164420000"><ele></ele><time>2013-8-8T5:43:55Z</time></trkpt>
<trkpt lat="46.204390000" lon="7.164370000"><ele></ele><time>2013-8-8T5:43:58Z</time></trkpt>
<trkpt lat="46.204410000" lon="7.164280000"><ele></ele><time>2013-8-8T5:44:1Z</time></trkpt>
<trkpt lat="46.204430000" lon="7.164230000"><ele></ele><time>2013-8-8T5:44:4Z</time></trkpt>
<trkpt lat="46.204440000" lon="7.164190000"><ele></ele><time>2013-8-8T5:44:7Z</time></trkpt>
<trkpt lat="46.204460000" lon="7.164150000"><ele></ele><time>2013-8-8T5:44:10Z</time></trkpt>
<trkpt lat="46.204460000" lon="7.164110000"><ele></ele><time>2013-8-8T5:44:13Z</time></trkpt>
<trkpt lat="46.204510000" lon="7.164000000"><ele></ele><time>2013-8-8T5:44:16Z</time></trkpt>
<trkpt lat="46.204520000" lon="7.163970000"><ele></ele><time>2013-8-8T5:44:19Z</time></trkpt>
<trkpt lat="46.204530000" lon="7.163930000"><ele></ele><time>2013-8-8T5:44:22Z</time></trkpt>
<trkpt lat="46.204540000" lon="7.163900000"><ele></ele><time>2013-8-8T5:44:25Z</time></trkpt>
<trkpt lat="46.204550000" lon="7.163870000"><ele></ele><time>2013-8-8T5:44:28Z</time></trkpt>
<trkpt lat="46.204580000" lon="7.163810000"><ele></ele><time>2013-8-8T5:44:31Z</time></trkpt>
<trkpt lat="46.204600000" lon="7.163780000"><ele></ele><time>2013-8-8T5:44:34Z</time></trkpt>
<trkpt lat="46.204610000" lon="7.163750000"><ele></ele><time>2013-8-8T5:44:37Z</time></trkpt>
<trkpt lat="46.204620000" lon="7.163720000"><ele></ele><time>2013-8-8T5:44:40Z</time></trkpt>
<trkpt lat="46.204640000" lon="7.163700000"><ele></ele><time>2013-8-8T5:44:43Z</time></trkpt>
<trkpt lat="46.204680000" lon="7.163660000"><ele></ele><time>2013-8-8T5:44:46Z</time></trkpt>
<trkpt lat="46.204700000" lon="7.163640000"><ele></ele><time>2013-8-8T5:44:49Z</time></trkpt>
<trkpt lat="46.204720000" lon="7.163630000"><ele></ele><time>2013-8-8T5:44:52Z</time></trkpt>
<trkpt lat="46.204750000" lon="7.163600000"><ele></ele><time>2013-8-8T5:44:55Z</time></trkpt>
<trkpt lat="46.204770000" lon="7.163580000"><ele></ele><time>2013-8-8T5:44:58Z</time></trkpt>
<trkpt lat="46.204830000" lon="7.163500000"><ele></ele><time>2013-8-8T5:45:1Z</time></trkpt>
<trkpt lat="46.204850000" lon="7.163470000"><ele></ele><time>2013-8-8T5:45:4Z</time></trkpt>
<trkpt lat="46.204860000" lon="7.163440000"><ele></ele><time>2013-8-8T5:45:7Z</time></trkpt>
<trkpt lat="46.204880000" lon="7.163410000"><ele></ele><time>2013-8-8T5:45:10Z</time></trkpt>
<trkpt lat="46.204900000" lon="7.163370000"><ele></ele><time>2013-8-8T5:45:13Z</time></trkpt>
<trkpt lat="46.204910000" lon="7.163170000"><ele></ele><time>2013-8-8T5:45:16Z</time></trkpt>
<trkpt lat="46.204890000" lon="7.162830000"><ele></ele><time>2013-8-8T5:45:19Z</time></trkpt>
<trkpt lat="46.204910000" lon="7.162640000"><ele></ele><time>2013-8-8T5:45:22Z</time></trkpt>
<trkpt lat="46.204940000" lon="7.162500000"><ele></ele><time>2013-8-8T5:45:25Z</time></trkpt>
<trkpt lat="46.205030000" lon="7.162040000"><ele></ele><time>2013-8-8T5:45:28Z</time></trkpt>
<trkpt lat="46.205050000" lon="7.161980000"><ele></ele><time>2013-8-8T5:45:31Z</time></trkpt>
<trkpt lat="46.205070000" lon="7.161920000"><ele></ele><time>2013-8-8T5:45:34Z</time></trkpt>
<trkpt lat="46.205090000" lon="7.161860000"><ele></ele><time>2013-8-8T5:45:37Z</time></trkpt>
<trkpt lat="46.205110000" lon="7.161800000"><ele></ele><time>2013-8-8T5:45:40Z</time></trkpt>
<trkpt lat="46.205140000" lon="7.161750000"><ele></ele><time>2013-8-8T5:45:43Z</time></trkpt>
<trkpt lat="46.205180000" lon="7.161700000"><ele></ele><time>2013-8-8T5:45:46Z</time></trkpt>
<trkpt lat="46.205370000" lon="7.161570000"><ele></ele><time>2013-8-8T5:45:49Z</time></trkpt>
<trkpt lat="46.205440000" lon="7.161540000"><ele></ele><time>2013-8-8T5:45:52Z</time></trkpt>
<trkpt lat="46.205460000" lon="7.161520000"><ele></ele><time>2013-8-8T5:45:55Z</time></trkpt>
<trkpt lat="46.205490000" lon="7.161490000"><ele></ele><time>2013-8-8T5:45:58Z</time></trkpt>
<trkpt lat="46.205520000" lon="7.161460000"><ele></ele><time>2013-8-8T5:46:1Z</time></trkpt>
<trkpt lat="46.205540000" lon="7.161420000"><ele></ele><time>2013-8-8T5:46:4Z</time></trkpt>
<trkpt lat="46.205580000" lon="7.161270000"><ele></ele><time>2013-8-8T5:46:7Z</time></trkpt>
<trkpt lat="46.205580000" lon="7.161230000"><ele></ele><time>2013-8-8T5:46:10Z</time></trkpt>
<trkpt lat="46.205580000" lon="7.161190000"><ele></ele><time>2013-8-8T5:46:13Z</time></trkpt>
<trkpt lat="46.205570000" lon="7.161140000"><ele></ele><time>2013-8-8T5:46:16Z</time></trkpt>
<trkpt lat="46.205550000" lon="7.161110000"><ele></ele><time>2013-8-8T5:46:19Z</time></trkpt>
<trkpt lat="46.205550000" lon="7.161070000"><ele></ele><time>2013-8-8T5:46:22Z</time></trkpt>
<trkpt lat="46.205510000" lon="7.161010000"><ele></ele><time>2013-8-8T5:46:25Z</time></trkpt>
<trkpt lat="46.205480000" lon="7.161000000"><ele></ele><time>2013-8-8T5:46:28Z</time></trkpt>
<trkpt lat="46.205460000" lon="7.160980000"><ele></ele><time>2013-8-8T5:46:31Z</time></trkpt>
<trkpt lat="46.205430000" lon="7.160970000"><ele></ele><time>2013-8-8T5:46:34Z</time></trkpt>
<trkpt lat="46.205410000" lon="7.160960000"><ele></ele><time>2013-8-8T5:46:37Z</time></trkpt>
<trkpt lat="46.205330000" lon="7.160950000"><ele></ele><time>2013-8-8T5:46:40Z</time></trkpt>
<trkpt lat="46.205310000" lon="7.160940000"><ele></ele><time>2013-8-8T5:46:43Z</time></trkpt>
<trkpt lat="46.205280000" lon="7.160950000"><ele></ele><time>2013-8-8T5:46:46Z</time></trkpt>
<trkpt lat="46.205260000" lon="7.160960000"><ele></ele><time>2013-8-8T5:46:49Z</time></trkpt>
<trkpt lat="46.205230000" lon="7.160950000"><ele></ele><time>2013-8-8T5:46:52Z</time></trkpt>
<trkpt lat="46.205220000" lon="7.160950000"><ele></ele><time>2013-8-8T5:46:55Z</time></trkpt>
<trkpt lat="46.205150000" lon="7.160970000"><ele></ele><time>2013-8-8T5:46:58Z</time></trkpt>
<trkpt lat="46.205120000" lon="7.160970000"><ele></ele><time>2013-8-8T5:47:1Z</time></trkpt>
<trkpt lat="46.205100000" lon="7.160970000"><ele></ele><time>2013-8-8T5:47:4Z</time></trkpt>
<trkpt lat="46.205070000" lon="7.160970000"><ele></ele><time>2013-8-8T5:47:7Z</time></trkpt>
<trkpt lat="46.205050000" lon="7.160970000"><ele></ele><time>2013-8-8T5:47:10Z</time></trkpt>
<trkpt lat="46.204940000" lon="7.161000000"><ele></ele><time>2013-8-8T5:47:13Z</time></trkpt>
<trkpt lat="46.204920000" lon="7.161000000"><ele></ele><time>2013-8-8T5:47:16Z</time></trkpt>
<trkpt lat="46.204900000" lon="7.161000000"><ele></ele><time>2013-8-8T5:47:19Z</time></trkpt>
<trkpt lat="46.204880000" lon="7.161000000"><ele></ele><time>2013-8-8T5:47:22Z</time></trkpt>
<trkpt lat="46.204860000" lon="7.161010000"><ele></ele><time>2013-8-8T5:47:25Z</time></trkpt>
<trkpt lat="46.204810000" lon="7.161000000"><ele></ele><time>2013-8-8T5:47:28Z</time></trkpt>
<trkpt lat="46.204780000" lon="7.160990000"><ele></ele><time>2013-8-8T5:47:31Z</time></trkpt>
<trkpt lat="46.204760000" lon="7.160980000"><ele></ele><time>2013-8-8T5:47:34Z</time></trkpt>
<trkpt lat="46.204730000" lon="7.160970000"><ele></ele><time>2013-8-8T5:47:37Z</time></trkpt>
<trkpt lat="46.204650000" lon="7.160920000"><ele></ele><time>2013-8-8T5:47:40Z</time></trkpt>
<trkpt lat="46.204640000" lon="7.160890000"><ele></ele><time>2013-8-8T5:47:43Z</time></trkpt>
<trkpt lat="46.204620000" lon="7.160870000"><ele></ele><time>2013-8-8T5:47:46Z</time></trkpt>
<trkpt lat="46.204600000" lon="7.160850000"><ele></ele><time>2013-8-8T5:47:49Z</time></trkpt>
<trkpt lat="46.204590000" lon="7.160830000"><ele></ele><time>2013-8-8T5:47:52Z</time></trkpt>
<trkpt lat="46.204540000" lon="7.160720000"><ele></ele><time>2013-8-8T5:47:55Z</time></trkpt>
<trkpt lat="46.204520000" lon="7.160700000"><ele></ele><time>2013-8-8T5:47:58Z</time></trkpt>
<trkpt lat="46.204510000" lon="7.160680000"><ele></ele><time>2013-8-8T5:48:1Z</time></trkpt>
<trkpt lat="46.204500000" lon="7.160650000"><ele></ele><time>2013-8-8T5:48:4Z</time></trkpt>
<trkpt lat="46.204480000" lon="7.160630000"><ele></ele><time>2013-8-8T5:48:7Z</time></trkpt>
<trkpt lat="46.204460000" lon="7.160580000"><ele></ele><time>2013-8-8T5:48:10Z</time></trkpt>
<trkpt lat="46.204430000" lon="7.160530000"><ele></ele><time>2013-8-8T5:48:13Z</time></trkpt>
<trkpt lat="46.204410000" lon="7.160510000"><ele></ele><time>2013-8-8T5:48:16Z</time></trkpt>
<trkpt lat="46.204400000" lon="7.160480000"><ele></ele><time>2013-8-8T5:48:19Z</time></trkpt>
<trkpt lat="46.204370000" lon="7.160470000"><ele></ele><time>2013-8-8T5:48:22Z</time></trkpt>
<trkpt lat="46.204330000" lon="7.160450000"><ele></ele><time>2013-8-8T5:48:25Z</time></trkpt>
<trkpt lat="46.204310000" lon="7.160440000"><ele></ele><time>2013-8-8T5:48:28Z</time></trkpt>
<trkpt lat="46.204290000" lon="7.160450000"><ele></ele><time>2013-8-8T5:48:31Z</time></trkpt>
<trkpt lat="46.204270000" lon="7.160470000"><ele></ele><time>2013-8-8T5:48:34Z</time></trkpt>
<trkpt lat="46.204250000" lon="7.160490000"><ele></ele><time>2013-8-8T5:48:37Z</time></trkpt>
<trkpt lat="46.204220000" lon="7.160500000"><ele></ele><time>2013-8-8T5:48:40Z</time></trkpt>
<trkpt lat="46.204200000" lon="7.160520000"><ele></ele><time>2013-8-8T5:48:43Z</time></trkpt>
<trkpt lat="46.204170000" lon="7.160560000"><ele></ele><time>2013-8-8T5:48:46Z</time></trkpt>
<trkpt lat="46.204170000" lon="7.160580000"><ele></ele><time>2013-8-8T5:48:49Z</time></trkpt>
<trkpt lat="46.204160000" lon="7.160600000"><ele></ele><time>2013-8-8T5:48:52Z</time></trkpt>
<trkpt lat="46.204150000" lon="7.160630000"><ele></ele><time>2013-8-8T5:48:55Z</time></trkpt>
<trkpt lat="46.204130000" lon="7.160660000"><ele></ele><time>2013-8-8T5:48:58Z</time></trkpt>
<trkpt lat="46.204090000" lon="7.160750000"><ele></ele><time>2013-8-8T5:49:1Z</time></trkpt>
<trkpt lat="46.204070000" lon="7.160770000"><ele></ele><time>2013-8-8T5:49:4Z</time></trkpt>
<trkpt lat="46.204060000" lon="7.160790000"><ele></ele><time>2013-8-8T5:49:7Z</time></trkpt>
<trkpt lat="46.204040000" lon="7.160820000"><ele></ele><time>2013-8-8T5:49:10Z</time></trkpt>
<trkpt lat="46.204030000" lon="7.160850000"><ele></ele><time>2013-8-8T5:49:13Z</time></trkpt>
<trkpt lat="46.204010000" lon="7.160880000"><ele></ele><time>2013-8-8T5:49:16Z</time></trkpt>
<trkpt lat="46.203970000" lon="7.160960000"><ele></ele><time>2013-8-8T5:49:19Z</time></trkpt>
<trkpt lat="46.203960000" lon="7.160980000"><ele></ele><time>2013-8-8T5:49:22Z</time></trkpt>
<trkpt lat="46.203950000" lon="7.161010000"><ele></ele><time>2013-8-8T5:49:25Z</time></trkpt>
<trkpt lat="46.203940000" lon="7.161040000"><ele></ele><time>2013-8-8T5:49:28Z</time></trkpt>
<trkpt lat="46.203930000" lon="7.161080000"><ele></ele><time>2013-8-8T5:49:31Z</time></trkpt>
<trkpt lat="46.203910000" lon="7.161120000"><ele></ele><time>2013-8-8T5:49:34Z</time></trkpt>
<trkpt lat="46.203850000" lon="7.161230000"><ele></ele><time>2013-8-8T5:49:37Z</time></trkpt>
<trkpt lat="46.203830000" lon="7.161250000"><ele></ele><time>2013-8-8T5:49:40Z</time></trkpt>
<trkpt lat="46.203820000" lon="7.161270000"><ele></ele><time>2013-8-8T5:49:43Z</time></trkpt>
<trkpt lat="46.203810000" lon="7.161290000"><ele></ele><time>2013-8-8T5:49:46Z</time></trkpt>
<trkpt lat="46.203790000" lon="7.161300000"><ele></ele><time>2013-8-8T5:49:49Z</time></trkpt>
<trkpt lat="46.203740000" lon="7.161320000"><ele></ele><time>2013-8-8T5:49:52Z</time></trkpt>
<trkpt lat="46.203710000" lon="7.161330000"><ele></ele><time>2013-8-8T5:49:55Z</time></trkpt>
<trkpt lat="46.203690000" lon="7.161330000"><ele></ele><time>2013-8-8T5:49:58Z</time></trkpt>
<trkpt lat="46.203660000" lon="7.161330000"><ele></ele><time>2013-8-8T5:50:1Z</time></trkpt>
<trkpt lat="46.203640000" lon="7.161330000"><ele></ele><time>2013-8-8T5:50:4Z</time></trkpt>
<trkpt lat="46.203600000" lon="7.161320000"><ele></ele><time>2013-8-8T5:50:7Z</time></trkpt>
<trkpt lat="46.203580000" lon="7.161330000"><ele></ele><time>2013-8-8T5:50:10Z</time></trkpt>
<trkpt lat="46.203560000" lon="7.161320000"><ele></ele><time>2013-8-8T5:50:13Z</time></trkpt>
<trkpt lat="46.203530000" lon="7.161320000"><ele></ele><time>2013-8-8T5:50:16Z</time></trkpt>
<trkpt lat="46.203460000" lon="7.161300000"><ele></ele><time>2013-8-8T5:50:19Z</time></trkpt>
<trkpt lat="46.203440000" lon="7.161300000"><ele></ele><time>2013-8-8T5:50:22Z</time></trkpt>
<trkpt lat="46.203340000" lon="7.161280000"><ele></ele><time>2013-8-8T5:50:25Z</time></trkpt>
<trkpt lat="46.203320000" lon="7.161270000"><ele></ele><time>2013-8-8T5:50:28Z</time></trkpt>
<trkpt lat="46.203300000" lon="7.161260000"><ele></ele><time>2013-8-8T5:50:31Z</time></trkpt>
<trkpt lat="46.203280000" lon="7.161260000"><ele></ele><time>2013-8-8T5:50:34Z</time></trkpt>
<trkpt lat="46.203250000" lon="7.161250000"><ele></ele><time>2013-8-8T5:50:37Z</time></trkpt>
<trkpt lat="46.203190000" lon="7.161240000"><ele></ele><time>2013-8-8T5:50:40Z</time></trkpt>
<trkpt lat="46.203140000" lon="7.161220000"><ele></ele><time>2013-8-8T5:50:43Z</time></trkpt>
<trkpt lat="46.203130000" lon="7.161210000"><ele></ele><time>2013-8-8T5:50:46Z</time></trkpt>
<trkpt lat="46.203100000" lon="7.161200000"><ele></ele><time>2013-8-8T5:50:49Z</time></trkpt>
<trkpt lat="46.203080000" lon="7.161200000"><ele></ele><time>2013-8-8T5:50:52Z</time></trkpt>
<trkpt lat="46.203060000" lon="7.161200000"><ele></ele><time>2013-8-8T5:50:55Z</time></trkpt>
<trkpt lat="46.203000000" lon="7.161170000"><ele></ele><time>2013-8-8T5:50:58Z</time></trkpt>
<trkpt lat="46.202980000" lon="7.161160000"><ele></ele><time>2013-8-8T5:51:1Z</time></trkpt>
<trkpt lat="46.202950000" lon="7.161160000"><ele></ele><time>2013-8-8T5:51:4Z</time></trkpt>
<trkpt lat="46.202930000" lon="7.161150000"><ele></ele><time>2013-8-8T5:51:7Z</time></trkpt>
<trkpt lat="46.202910000" lon="7.161130000"><ele></ele><time>2013-8-8T5:51:10Z</time></trkpt>
<trkpt lat="46.202840000" lon="7.161100000"><ele></ele><time>2013-8-8T5:51:13Z</time></trkpt>
<trkpt lat="46.202820000" lon="7.161080000"><ele></ele><time>2013-8-8T5:51:16Z</time></trkpt>
<trkpt lat="46.202800000" lon="7.161050000"><ele></ele><time>2013-8-8T5:51:19Z</time></trkpt>
<trkpt lat="46.202790000" lon="7.161020000"><ele></ele><time>2013-8-8T5:51:22Z</time></trkpt>
<trkpt lat="46.202760000" lon="7.161000000"><ele></ele><time>2013-8-8T5:51:25Z</time></trkpt>
<trkpt lat="46.202690000" lon="7.160910000"><ele></ele><time>2013-8-8T5:51:28Z</time></trkpt>
<trkpt lat="46.202680000" lon="7.160890000"><ele></ele><time>2013-8-8T5:51:31Z</time></trkpt>
<trkpt lat="46.202660000" lon="7.160870000"><ele></ele><time>2013-8-8T5:51:34Z</time></trkpt>
<trkpt lat="46.202650000" lon="7.160840000"><ele></ele><time>2013-8-8T5:51:37Z</time></trkpt>
<trkpt lat="46.202640000" lon="7.160810000"><ele></ele><time>2013-8-8T5:51:40Z</time></trkpt>
<trkpt lat="46.202640000" lon="7.160770000"><ele></ele><time>2013-8-8T5:51:43Z</time></trkpt>
<trkpt lat="46.202640000" lon="7.160740000"><ele></ele><time>2013-8-8T5:51:46Z</time></trkpt>
<trkpt lat="46.202660000" lon="7.160670000"><ele></ele><time>2013-8-8T5:51:49Z</time></trkpt>
<trkpt lat="46.202680000" lon="7.160650000"><ele></ele><time>2013-8-8T5:51:52Z</time></trkpt>
<trkpt lat="46.202690000" lon="7.160630000"><ele></ele><time>2013-8-8T5:51:55Z</time></trkpt>
<trkpt lat="46.202720000" lon="7.160600000"><ele></ele><time>2013-8-8T5:51:58Z</time></trkpt>
<trkpt lat="46.202770000" lon="7.160530000"><ele></ele><time>2013-8-8T5:52:1Z</time></trkpt>
<trkpt lat="46.202790000" lon="7.160510000"><ele></ele><time>2013-8-8T5:52:4Z</time></trkpt>
<trkpt lat="46.202800000" lon="7.160490000"><ele></ele><time>2013-8-8T5:52:7Z</time></trkpt>
<trkpt lat="46.202820000" lon="7.160470000"><ele></ele><time>2013-8-8T5:52:10Z</time></trkpt>
<trkpt lat="46.202830000" lon="7.160440000"><ele></ele><time>2013-8-8T5:52:13Z</time></trkpt>
<trkpt lat="46.202880000" lon="7.160370000"><ele></ele><time>2013-8-8T5:52:16Z</time></trkpt>
<trkpt lat="46.202900000" lon="7.160360000"><ele></ele><time>2013-8-8T5:52:19Z</time></trkpt>
<trkpt lat="46.202930000" lon="7.160350000"><ele></ele><time>2013-8-8T5:52:22Z</time></trkpt>
<trkpt lat="46.202950000" lon="7.160330000"><ele></ele><time>2013-8-8T5:52:25Z</time></trkpt>
<trkpt lat="46.202970000" lon="7.160310000"><ele></ele><time>2013-8-8T5:52:28Z</time></trkpt>
<trkpt lat="46.203020000" lon="7.160240000"><ele></ele><time>2013-8-8T5:52:31Z</time></trkpt>
<trkpt lat="46.203030000" lon="7.160210000"><ele></ele><time>2013-8-8T5:52:34Z</time></trkpt>
<trkpt lat="46.203050000" lon="7.160180000"><ele></ele><time>2013-8-8T5:52:37Z</time></trkpt>
<trkpt lat="46.203060000" lon="7.160160000"><ele></ele><time>2013-8-8T5:52:40Z</time></trkpt>
<trkpt lat="46.203080000" lon="7.160130000"><ele></ele><time>2013-8-8T5:52:43Z</time></trkpt>
<trkpt lat="46.203120000" lon="7.160100000"><ele></ele><time>2013-8-8T5:52:46Z</time></trkpt>
<trkpt lat="46.203130000" lon="7.160080000"><ele></ele><time>2013-8-8T5:52:49Z</time></trkpt>
<trkpt lat="46.203160000" lon="7.160060000"><ele></ele><time>2013-8-8T5:52:52Z</time></trkpt>
<trkpt lat="46.203170000" lon="7.160050000"><ele></ele><time>2013-8-8T5:52:55Z</time></trkpt>
<trkpt lat="46.203190000" lon="7.160020000"><ele></ele><time>2013-8-8T5:52:58Z</time></trkpt>
<trkpt lat="46.203210000" lon="7.159960000"><ele></ele><time>2013-8-8T5:53:1Z</time></trkpt>
<trkpt lat="46.203210000" lon="7.159920000"><ele></ele><time>2013-8-8T5:53:4Z</time></trkpt>
<trkpt lat="46.203220000" lon="7.159900000"><ele></ele><time>2013-8-8T5:53:7Z</time></trkpt>
<trkpt lat="46.203240000" lon="7.159860000"><ele></ele><time>2013-8-8T5:53:10Z</time></trkpt>
<trkpt lat="46.203240000" lon="7.159840000"><ele></ele><time>2013-8-8T5:53:13Z</time></trkpt>
</trkseg></trk></gpx>